<?xml version="1.0" encoding="UTF-8" standalone="no" ?>
<gpx xmlns="http://www.topografix.com/GPX/1/1" xmlns:xsi="http://www.w3.org/2001/XMLSchema-instance" xsi:schemaLocation="http://www.topografix.com/GPX/1/1 http://www.topografix.com/GPX/1/1/gpx.xsd" version="1.1" creator="VisuGPX - https://www.visugpx.com">
  <metadata>
    <name>J1 traversée aravis</name>
    <desc><![CDATA[J1 traversée aravis par PP]]></desc>
  </metadata>
  <trk>
    <name><![CDATA[11769540-Traversée des Aravis par les crêtes]]></name>
    <extensions>
      <line xmlns="http://www.topografix.com/GPX/gpx_style/0/2">
        <color>0000FF</color>
        <width>4</width>
      </line>
    </extensions>
    <trkseg>
      <trkpt lat="46.02933" lon="6.5729">
        <ele>1294</ele>
        <time>2020-07-30T13:04:44Z</time>
      </trkpt>
      <trkpt lat="46.02937" lon="6.57288">
        <ele>1294</ele>
        <time>2020-07-30T13:04:46Z</time>
      </trkpt>
    </trkseg>
  </trk>
  <trk>
    <name><![CDATA[J1 traversée aravis_2]]></name>
    <trkseg>
      <trkpt lat="46.02937" lon="6.57288">
        <ele>1294</ele>
        <time>2020-07-30T13:04:46Z</time>
      </trkpt>
      <trkpt lat="46.02911" lon="6.57308">
        <ele>1295</ele>
        <time>2020-07-30T13:05:01Z</time>
      </trkpt>
      <trkpt lat="46.02893" lon="6.57312">
        <ele>1295</ele>
        <time>2020-07-30T13:05:10Z</time>
      </trkpt>
      <trkpt lat="46.02863" lon="6.57313">
        <ele>1295</ele>
        <time>2020-07-30T13:05:25Z</time>
      </trkpt>
      <trkpt lat="46.02826" lon="6.57322">
        <ele>1297</ele>
        <time>2020-07-30T13:05:44Z</time>
      </trkpt>
      <trkpt lat="46.02803" lon="6.57323">
        <ele>1297</ele>
        <time>2020-07-30T13:05:55Z</time>
      </trkpt>
      <trkpt lat="46.02783" lon="6.57331">
        <ele>1299</ele>
        <time>2020-07-30T13:06:06Z</time>
      </trkpt>
      <trkpt lat="46.02715" lon="6.57386">
        <ele>1309</ele>
        <time>2020-07-30T13:06:45Z</time>
      </trkpt>
      <trkpt lat="46.027" lon="6.57402">
        <ele>1312</ele>
        <time>2020-07-30T13:06:54Z</time>
      </trkpt>
      <trkpt lat="46.02654" lon="6.57468">
        <ele>1328</ele>
        <time>2020-07-30T13:07:27Z</time>
      </trkpt>
      <trkpt lat="46.02632" lon="6.57477">
        <ele>1330</ele>
        <time>2020-07-30T13:07:38Z</time>
      </trkpt>
      <trkpt lat="46.02608" lon="6.57493">
        <ele>1334</ele>
        <time>2020-07-30T13:07:51Z</time>
      </trkpt>
      <trkpt lat="46.02588" lon="6.57514">
        <ele>1339</ele>
        <time>2020-07-30T13:08:04Z</time>
      </trkpt>
      <trkpt lat="46.02573" lon="6.57526">
        <ele>1343</ele>
        <time>2020-07-30T13:08:12Z</time>
      </trkpt>
      <trkpt lat="46.02561" lon="6.57541">
        <ele>1347</ele>
        <time>2020-07-30T13:08:20Z</time>
      </trkpt>
      <trkpt lat="46.02538" lon="6.57561">
        <ele>1354</ele>
        <time>2020-07-30T13:08:34Z</time>
      </trkpt>
      <trkpt lat="46.02534" lon="6.57568">
        <ele>1357</ele>
        <time>2020-07-30T13:08:37Z</time>
      </trkpt>
      <trkpt lat="46.02519" lon="6.5758">
        <ele>1362</ele>
        <time>2020-07-30T13:08:45Z</time>
      </trkpt>
      <trkpt lat="46.02491" lon="6.57596">
        <ele>1370</ele>
        <time>2020-07-30T13:09:00Z</time>
      </trkpt>
      <trkpt lat="46.02489" lon="6.57603">
        <ele>1373</ele>
        <time>2020-07-30T13:09:03Z</time>
      </trkpt>
      <trkpt lat="46.02501" lon="6.57608">
        <ele>1373</ele>
        <time>2020-07-30T13:09:09Z</time>
      </trkpt>
      <trkpt lat="46.02515" lon="6.576">
        <ele>1369</ele>
        <time>2020-07-30T13:09:17Z</time>
      </trkpt>
      <trkpt lat="46.0253" lon="6.57596">
        <ele>1366</ele>
        <time>2020-07-30T13:09:24Z</time>
      </trkpt>
      <trkpt lat="46.02543" lon="6.57586">
        <ele>1363</ele>
        <time>2020-07-30T13:09:32Z</time>
      </trkpt>
      <trkpt lat="46.02555" lon="6.57582">
        <ele>1361</ele>
        <time>2020-07-30T13:09:38Z</time>
      </trkpt>
      <trkpt lat="46.02574" lon="6.57581">
        <ele>1360</ele>
        <time>2020-07-30T13:09:48Z</time>
      </trkpt>
      <trkpt lat="46.02583" lon="6.57584">
        <ele>1360</ele>
        <time>2020-07-30T13:09:52Z</time>
      </trkpt>
      <trkpt lat="46.02587" lon="6.57589">
        <ele>1360</ele>
        <time>2020-07-30T13:09:55Z</time>
      </trkpt>
      <trkpt lat="46.02589" lon="6.57614">
        <ele>1363</ele>
        <time>2020-07-30T13:10:04Z</time>
      </trkpt>
      <trkpt lat="46.02566" lon="6.57638">
        <ele>1371</ele>
        <time>2020-07-30T13:10:18Z</time>
      </trkpt>
      <trkpt lat="46.02552" lon="6.57673">
        <ele>1381</ele>
        <time>2020-07-30T13:10:32Z</time>
      </trkpt>
      <trkpt lat="46.02536" lon="6.57696">
        <ele>1389</ele>
        <time>2020-07-30T13:10:43Z</time>
      </trkpt>
      <trkpt lat="46.02526" lon="6.5772">
        <ele>1396</ele>
        <time>2020-07-30T13:10:53Z</time>
      </trkpt>
      <trkpt lat="46.02515" lon="6.57739">
        <ele>1403</ele>
        <time>2020-07-30T13:11:01Z</time>
      </trkpt>
      <trkpt lat="46.02509" lon="6.57759">
        <ele>1408</ele>
        <time>2020-07-30T13:11:09Z</time>
      </trkpt>
      <trkpt lat="46.02501" lon="6.57763">
        <ele>1411</ele>
        <time>2020-07-30T13:11:13Z</time>
      </trkpt>
      <trkpt lat="46.02487" lon="6.57789">
        <ele>1420</ele>
        <time>2020-07-30T13:11:25Z</time>
      </trkpt>
      <trkpt lat="46.02474" lon="6.57785">
        <ele>1424</ele>
        <time>2020-07-30T13:11:31Z</time>
      </trkpt>
      <trkpt lat="46.02471" lon="6.57786">
        <ele>1425</ele>
        <time>2020-07-30T13:11:33Z</time>
      </trkpt>
      <trkpt lat="46.02471" lon="6.57796">
        <ele>1427</ele>
        <time>2020-07-30T13:11:36Z</time>
      </trkpt>
      <trkpt lat="46.02466" lon="6.57804">
        <ele>1431</ele>
        <time>2020-07-30T13:11:40Z</time>
      </trkpt>
      <trkpt lat="46.02466" lon="6.57813">
        <ele>1433</ele>
        <time>2020-07-30T13:11:43Z</time>
      </trkpt>
      <trkpt lat="46.02463" lon="6.57817">
        <ele>1435</ele>
        <time>2020-07-30T13:11:45Z</time>
      </trkpt>
      <trkpt lat="46.02462" lon="6.57826">
        <ele>1437</ele>
        <time>2020-07-30T13:11:48Z</time>
      </trkpt>
      <trkpt lat="46.02437" lon="6.57823">
        <ele>1448</ele>
        <time>2020-07-30T13:12:01Z</time>
      </trkpt>
      <trkpt lat="46.02434" lon="6.5783">
        <ele>1452</ele>
        <time>2020-07-30T13:12:04Z</time>
      </trkpt>
      <trkpt lat="46.0243" lon="6.57857">
        <ele>1457</ele>
        <time>2020-07-30T13:12:13Z</time>
      </trkpt>
      <trkpt lat="46.02427" lon="6.57858">
        <ele>1459</ele>
        <time>2020-07-30T13:12:15Z</time>
      </trkpt>
      <trkpt lat="46.02419" lon="6.57855">
        <ele>1463</ele>
        <time>2020-07-30T13:12:19Z</time>
      </trkpt>
      <trkpt lat="46.02419" lon="6.57863">
        <ele>1464</ele>
        <time>2020-07-30T13:12:22Z</time>
      </trkpt>
      <trkpt lat="46.02415" lon="6.57865">
        <ele>1467</ele>
        <time>2020-07-30T13:12:24Z</time>
      </trkpt>
      <trkpt lat="46.02415" lon="6.57871">
        <ele>1468</ele>
        <time>2020-07-30T13:12:26Z</time>
      </trkpt>
      <trkpt lat="46.02408" lon="6.57872">
        <ele>1471</ele>
        <time>2020-07-30T13:12:30Z</time>
      </trkpt>
      <trkpt lat="46.02404" lon="6.57884">
        <ele>1475</ele>
        <time>2020-07-30T13:12:34Z</time>
      </trkpt>
      <trkpt lat="46.02397" lon="6.57876">
        <ele>1477</ele>
        <time>2020-07-30T13:12:39Z</time>
      </trkpt>
      <trkpt lat="46.02385" lon="6.5787">
        <ele>1481</ele>
        <time>2020-07-30T13:12:45Z</time>
      </trkpt>
      <trkpt lat="46.02384" lon="6.57884">
        <ele>1485</ele>
        <time>2020-07-30T13:12:50Z</time>
      </trkpt>
      <trkpt lat="46.02389" lon="6.5792">
        <ele>1491</ele>
        <time>2020-07-30T13:13:03Z</time>
      </trkpt>
      <trkpt lat="46.02387" lon="6.57922">
        <ele>1492</ele>
        <time>2020-07-30T13:13:04Z</time>
      </trkpt>
      <trkpt lat="46.02374" lon="6.57909">
        <ele>1497</ele>
        <time>2020-07-30T13:13:12Z</time>
      </trkpt>
      <trkpt lat="46.02358" lon="6.57899">
        <ele>1503</ele>
        <time>2020-07-30T13:13:21Z</time>
      </trkpt>
      <trkpt lat="46.02356" lon="6.57904">
        <ele>1506</ele>
        <time>2020-07-30T13:13:23Z</time>
      </trkpt>
      <trkpt lat="46.02352" lon="6.57902">
        <ele>1507</ele>
        <time>2020-07-30T13:13:25Z</time>
      </trkpt>
      <trkpt lat="46.0235" lon="6.57904">
        <ele>1509</ele>
        <time>2020-07-30T13:13:26Z</time>
      </trkpt>
      <trkpt lat="46.0235" lon="6.57909">
        <ele>1511</ele>
        <time>2020-07-30T13:13:28Z</time>
      </trkpt>
      <trkpt lat="46.02342" lon="6.57913">
        <ele>1517</ele>
        <time>2020-07-30T13:13:32Z</time>
      </trkpt>
      <trkpt lat="46.02343" lon="6.57927">
        <ele>1519</ele>
        <time>2020-07-30T13:13:37Z</time>
      </trkpt>
      <trkpt lat="46.02339" lon="6.57926">
        <ele>1522</ele>
        <time>2020-07-30T13:13:39Z</time>
      </trkpt>
      <trkpt lat="46.0234" lon="6.57934">
        <ele>1523</ele>
        <time>2020-07-30T13:13:42Z</time>
      </trkpt>
      <trkpt lat="46.02335" lon="6.57939">
        <ele>1527</ele>
        <time>2020-07-30T13:13:45Z</time>
      </trkpt>
      <trkpt lat="46.02334" lon="6.5795">
        <ele>1530</ele>
        <time>2020-07-30T13:13:49Z</time>
      </trkpt>
      <trkpt lat="46.02328" lon="6.57949">
        <ele>1533</ele>
        <time>2020-07-30T13:13:52Z</time>
      </trkpt>
      <trkpt lat="46.02324" lon="6.5797">
        <ele>1540</ele>
        <time>2020-07-30T13:13:59Z</time>
      </trkpt>
      <trkpt lat="46.02315" lon="6.57966">
        <ele>1544</ele>
        <time>2020-07-30T13:14:04Z</time>
      </trkpt>
      <trkpt lat="46.02313" lon="6.57975">
        <ele>1548</ele>
        <time>2020-07-30T13:14:07Z</time>
      </trkpt>
      <trkpt lat="46.02304" lon="6.57976">
        <ele>1553</ele>
        <time>2020-07-30T13:14:12Z</time>
      </trkpt>
      <trkpt lat="46.023" lon="6.57974">
        <ele>1555</ele>
        <time>2020-07-30T13:14:14Z</time>
      </trkpt>
      <trkpt lat="46.02291" lon="6.57962">
        <ele>1557</ele>
        <time>2020-07-30T13:14:20Z</time>
      </trkpt>
      <trkpt lat="46.02277" lon="6.57949">
        <ele>1562</ele>
        <time>2020-07-30T13:14:28Z</time>
      </trkpt>
      <trkpt lat="46.02258" lon="6.57934">
        <ele>1569</ele>
        <time>2020-07-30T13:14:39Z</time>
      </trkpt>
      <trkpt lat="46.02249" lon="6.57933">
        <ele>1574</ele>
        <time>2020-07-30T13:14:44Z</time>
      </trkpt>
      <trkpt lat="46.02238" lon="6.57923">
        <ele>1577</ele>
        <time>2020-07-30T13:14:50Z</time>
      </trkpt>
      <trkpt lat="46.02252" lon="6.57953">
        <ele>1577</ele>
        <time>2020-07-30T13:15:03Z</time>
      </trkpt>
      <trkpt lat="46.02254" lon="6.5796">
        <ele>1578</ele>
        <time>2020-07-30T13:15:05Z</time>
      </trkpt>
      <trkpt lat="46.02252" lon="6.57967">
        <ele>1581</ele>
        <time>2020-07-30T13:15:08Z</time>
      </trkpt>
      <trkpt lat="46.02244" lon="6.57959">
        <ele>1583</ele>
        <time>2020-07-30T13:15:13Z</time>
      </trkpt>
      <trkpt lat="46.0223" lon="6.57955">
        <ele>1590</ele>
        <time>2020-07-30T13:15:20Z</time>
      </trkpt>
      <trkpt lat="46.02223" lon="6.57947">
        <ele>1592</ele>
        <time>2020-07-30T13:15:24Z</time>
      </trkpt>
      <trkpt lat="46.02213" lon="6.57943">
        <ele>1596</ele>
        <time>2020-07-30T13:15:30Z</time>
      </trkpt>
      <trkpt lat="46.0221" lon="6.57947">
        <ele>1599</ele>
        <time>2020-07-30T13:15:32Z</time>
      </trkpt>
      <trkpt lat="46.02211" lon="6.57959">
        <ele>1602</ele>
        <time>2020-07-30T13:15:36Z</time>
      </trkpt>
      <trkpt lat="46.02207" lon="6.57964">
        <ele>1605</ele>
        <time>2020-07-30T13:15:38Z</time>
      </trkpt>
      <trkpt lat="46.02192" lon="6.57953">
        <ele>1611</ele>
        <time>2020-07-30T13:15:47Z</time>
      </trkpt>
      <trkpt lat="46.0219" lon="6.57955">
        <ele>1612</ele>
        <time>2020-07-30T13:15:48Z</time>
      </trkpt>
      <trkpt lat="46.02192" lon="6.57963">
        <ele>1613</ele>
        <time>2020-07-30T13:15:51Z</time>
      </trkpt>
      <trkpt lat="46.02189" lon="6.57966">
        <ele>1616</ele>
        <time>2020-07-30T13:15:53Z</time>
      </trkpt>
      <trkpt lat="46.02185" lon="6.57959">
        <ele>1616</ele>
        <time>2020-07-30T13:15:56Z</time>
      </trkpt>
      <trkpt lat="46.02178" lon="6.57955">
        <ele>1619</ele>
        <time>2020-07-30T13:16:00Z</time>
      </trkpt>
      <trkpt lat="46.02174" lon="6.57949">
        <ele>1619</ele>
        <time>2020-07-30T13:16:03Z</time>
      </trkpt>
      <trkpt lat="46.02143" lon="6.57928">
        <ele>1635</ele>
        <time>2020-07-30T13:16:20Z</time>
      </trkpt>
      <trkpt lat="46.02137" lon="6.5792">
        <ele>1638</ele>
        <time>2020-07-30T13:16:24Z</time>
      </trkpt>
      <trkpt lat="46.02134" lon="6.57908">
        <ele>1636</ele>
        <time>2020-07-30T13:16:28Z</time>
      </trkpt>
      <trkpt lat="46.02131" lon="6.57904">
        <ele>1637</ele>
        <time>2020-07-30T13:16:30Z</time>
      </trkpt>
      <trkpt lat="46.02127" lon="6.57904">
        <ele>1640</ele>
        <time>2020-07-30T13:16:32Z</time>
      </trkpt>
      <trkpt lat="46.02122" lon="6.57911">
        <ele>1646</ele>
        <time>2020-07-30T13:16:36Z</time>
      </trkpt>
      <trkpt lat="46.02124" lon="6.57937">
        <ele>1653</ele>
        <time>2020-07-30T13:16:45Z</time>
      </trkpt>
      <trkpt lat="46.02122" lon="6.57939">
        <ele>1655</ele>
        <time>2020-07-30T13:16:46Z</time>
      </trkpt>
      <trkpt lat="46.02117" lon="6.57937">
        <ele>1658</ele>
        <time>2020-07-30T13:16:49Z</time>
      </trkpt>
      <trkpt lat="46.02114" lon="6.57932">
        <ele>1659</ele>
        <time>2020-07-30T13:16:51Z</time>
      </trkpt>
      <trkpt lat="46.02112" lon="6.57933">
        <ele>1661</ele>
        <time>2020-07-30T13:16:52Z</time>
      </trkpt>
      <trkpt lat="46.02108" lon="6.5794">
        <ele>1666</ele>
        <time>2020-07-30T13:16:55Z</time>
      </trkpt>
      <trkpt lat="46.02109" lon="6.57944">
        <ele>1666</ele>
        <time>2020-07-30T13:16:57Z</time>
      </trkpt>
      <trkpt lat="46.02106" lon="6.57947">
        <ele>1669</ele>
        <time>2020-07-30T13:16:59Z</time>
      </trkpt>
      <trkpt lat="46.02107" lon="6.57955">
        <ele>1671</ele>
        <time>2020-07-30T13:17:01Z</time>
      </trkpt>
      <trkpt lat="46.02103" lon="6.57963">
        <ele>1676</ele>
        <time>2020-07-30T13:17:05Z</time>
      </trkpt>
      <trkpt lat="46.021" lon="6.5796">
        <ele>1678</ele>
        <time>2020-07-30T13:17:07Z</time>
      </trkpt>
      <trkpt lat="46.02095" lon="6.57969">
        <ele>1684</ele>
        <time>2020-07-30T13:17:11Z</time>
      </trkpt>
      <trkpt lat="46.02092" lon="6.57965">
        <ele>1685</ele>
        <time>2020-07-30T13:17:13Z</time>
      </trkpt>
      <trkpt lat="46.02094" lon="6.57967">
        <ele>1684</ele>
        <time>2020-07-30T13:17:14Z</time>
      </trkpt>
      <trkpt lat="46.02089" lon="6.57969">
        <ele>1689</ele>
        <time>2020-07-30T13:17:17Z</time>
      </trkpt>
      <trkpt lat="46.02082" lon="6.57965">
        <ele>1692</ele>
        <time>2020-07-30T13:17:20Z</time>
      </trkpt>
      <trkpt lat="46.02074" lon="6.57948">
        <ele>1690</ele>
        <time>2020-07-30T13:17:27Z</time>
      </trkpt>
      <trkpt lat="46.02072" lon="6.5795">
        <ele>1692</ele>
        <time>2020-07-30T13:17:29Z</time>
      </trkpt>
      <trkpt lat="46.02072" lon="6.57957">
        <ele>1694</ele>
        <time>2020-07-30T13:17:31Z</time>
      </trkpt>
      <trkpt lat="46.02063" lon="6.57963">
        <ele>1699</ele>
        <time>2020-07-30T13:17:36Z</time>
      </trkpt>
      <trkpt lat="46.02064" lon="6.57969">
        <ele>1700</ele>
        <time>2020-07-30T13:17:38Z</time>
      </trkpt>
      <trkpt lat="46.02059" lon="6.57968">
        <ele>1702</ele>
        <time>2020-07-30T13:17:41Z</time>
      </trkpt>
      <trkpt lat="46.0205" lon="6.57974">
        <ele>1707</ele>
        <time>2020-07-30T13:17:46Z</time>
      </trkpt>
      <trkpt lat="46.02046" lon="6.57974">
        <ele>1708</ele>
        <time>2020-07-30T13:17:48Z</time>
      </trkpt>
      <trkpt lat="46.02042" lon="6.5797">
        <ele>1709</ele>
        <time>2020-07-30T13:17:50Z</time>
      </trkpt>
      <trkpt lat="46.02026" lon="6.57984">
        <ele>1719</ele>
        <time>2020-07-30T13:18:00Z</time>
      </trkpt>
      <trkpt lat="46.02024" lon="6.57991">
        <ele>1721</ele>
        <time>2020-07-30T13:18:02Z</time>
      </trkpt>
      <trkpt lat="46.02027" lon="6.57999">
        <ele>1723</ele>
        <time>2020-07-30T13:18:05Z</time>
      </trkpt>
      <trkpt lat="46.02019" lon="6.5802">
        <ele>1730</ele>
        <time>2020-07-30T13:18:14Z</time>
      </trkpt>
      <trkpt lat="46.02007" lon="6.58023">
        <ele>1735</ele>
        <time>2020-07-30T13:18:20Z</time>
      </trkpt>
      <trkpt lat="46.02" lon="6.5802">
        <ele>1738</ele>
        <time>2020-07-30T13:18:23Z</time>
      </trkpt>
      <trkpt lat="46.01997" lon="6.58021">
        <ele>1738</ele>
        <time>2020-07-30T13:18:25Z</time>
      </trkpt>
      <trkpt lat="46.01963" lon="6.58042">
        <ele>1750</ele>
        <time>2020-07-30T13:18:43Z</time>
      </trkpt>
      <trkpt lat="46.01953" lon="6.58044">
        <ele>1752</ele>
        <time>2020-07-30T13:18:49Z</time>
      </trkpt>
      <trkpt lat="46.0195" lon="6.5805">
        <ele>1755</ele>
        <time>2020-07-30T13:18:51Z</time>
      </trkpt>
      <trkpt lat="46.01932" lon="6.58056">
        <ele>1760</ele>
        <time>2020-07-30T13:19:00Z</time>
      </trkpt>
      <trkpt lat="46.01904" lon="6.58077">
        <ele>1773</ele>
        <time>2020-07-30T13:19:16Z</time>
      </trkpt>
      <trkpt lat="46.01897" lon="6.58087">
        <ele>1776</ele>
        <time>2020-07-30T13:19:21Z</time>
      </trkpt>
      <trkpt lat="46.01893" lon="6.58088">
        <ele>1778</ele>
        <time>2020-07-30T13:19:23Z</time>
      </trkpt>
      <trkpt lat="46.01892" lon="6.58092">
        <ele>1778</ele>
        <time>2020-07-30T13:19:25Z</time>
      </trkpt>
      <trkpt lat="46.01894" lon="6.58095">
        <ele>1778</ele>
        <time>2020-07-30T13:19:26Z</time>
      </trkpt>
      <trkpt lat="46.01878" lon="6.58103">
        <ele>1783</ele>
        <time>2020-07-30T13:19:34Z</time>
      </trkpt>
      <trkpt lat="46.01862" lon="6.58101">
        <ele>1787</ele>
        <time>2020-07-30T13:19:43Z</time>
      </trkpt>
      <trkpt lat="46.0184" lon="6.58068">
        <ele>1788</ele>
        <time>2020-07-30T13:19:58Z</time>
      </trkpt>
      <trkpt lat="46.01824" lon="6.58058">
        <ele>1790</ele>
        <time>2020-07-30T13:20:07Z</time>
      </trkpt>
      <trkpt lat="46.01779" lon="6.58049">
        <ele>1802</ele>
        <time>2020-07-30T13:20:30Z</time>
      </trkpt>
      <trkpt lat="46.01759" lon="6.58036">
        <ele>1804</ele>
        <time>2020-07-30T13:20:41Z</time>
      </trkpt>
      <trkpt lat="46.01754" lon="6.58037">
        <ele>1805</ele>
        <time>2020-07-30T13:20:43Z</time>
      </trkpt>
      <trkpt lat="46.01752" lon="6.58039">
        <ele>1807</ele>
        <time>2020-07-30T13:20:45Z</time>
      </trkpt>
      <trkpt lat="46.0177" lon="6.58062">
        <ele>1808</ele>
        <time>2020-07-30T13:20:57Z</time>
      </trkpt>
      <trkpt lat="46.01782" lon="6.58073">
        <ele>1808</ele>
        <time>2020-07-30T13:21:04Z</time>
      </trkpt>
      <trkpt lat="46.01787" lon="6.58083">
        <ele>1809</ele>
        <time>2020-07-30T13:21:08Z</time>
      </trkpt>
      <trkpt lat="46.01805" lon="6.58104">
        <ele>1806</ele>
        <time>2020-07-30T13:21:20Z</time>
      </trkpt>
      <trkpt lat="46.01824" lon="6.58156">
        <ele>1807</ele>
        <time>2020-07-30T13:21:40Z</time>
      </trkpt>
      <trkpt lat="46.01823" lon="6.58161">
        <ele>1808</ele>
        <time>2020-07-30T13:21:42Z</time>
      </trkpt>
      <trkpt lat="46.0182" lon="6.58161">
        <ele>1810</ele>
        <time>2020-07-30T13:21:43Z</time>
      </trkpt>
      <trkpt lat="46.01802" lon="6.58142">
        <ele>1814</ele>
        <time>2020-07-30T13:21:55Z</time>
      </trkpt>
      <trkpt lat="46.01784" lon="6.58129">
        <ele>1819</ele>
        <time>2020-07-30T13:22:05Z</time>
      </trkpt>
      <trkpt lat="46.0178" lon="6.58123">
        <ele>1819</ele>
        <time>2020-07-30T13:22:08Z</time>
      </trkpt>
      <trkpt lat="46.01776" lon="6.58123">
        <ele>1821</ele>
        <time>2020-07-30T13:22:10Z</time>
      </trkpt>
      <trkpt lat="46.01763" lon="6.58116">
        <ele>1824</ele>
        <time>2020-07-30T13:22:16Z</time>
      </trkpt>
      <trkpt lat="46.01719" lon="6.58104">
        <ele>1836</ele>
        <time>2020-07-30T13:22:39Z</time>
      </trkpt>
      <trkpt lat="46.01662" lon="6.58098">
        <ele>1851</ele>
        <time>2020-07-30T13:23:07Z</time>
      </trkpt>
      <trkpt lat="46.01654" lon="6.581">
        <ele>1854</ele>
        <time>2020-07-30T13:23:12Z</time>
      </trkpt>
      <trkpt lat="46.01582" lon="6.58086">
        <ele>1867</ele>
        <time>2020-07-30T13:23:48Z</time>
      </trkpt>
      <trkpt lat="46.01566" lon="6.58078">
        <ele>1867</ele>
        <time>2020-07-30T13:23:56Z</time>
      </trkpt>
      <trkpt lat="46.01541" lon="6.58058">
        <ele>1865</ele>
        <time>2020-07-30T13:24:11Z</time>
      </trkpt>
      <trkpt lat="46.01503" lon="6.58041">
        <ele>1868</ele>
        <time>2020-07-30T13:24:31Z</time>
      </trkpt>
      <trkpt lat="46.0148" lon="6.58035">
        <ele>1870</ele>
        <time>2020-07-30T13:24:42Z</time>
      </trkpt>
      <trkpt lat="46.01453" lon="6.58032">
        <ele>1874</ele>
        <time>2020-07-30T13:24:56Z</time>
      </trkpt>
      <trkpt lat="46.01413" lon="6.58037">
        <ele>1882</ele>
        <time>2020-07-30T13:25:16Z</time>
      </trkpt>
      <trkpt lat="46.01397" lon="6.58041">
        <ele>1886</ele>
        <time>2020-07-30T13:25:24Z</time>
      </trkpt>
      <trkpt lat="46.01378" lon="6.58051">
        <ele>1891</ele>
        <time>2020-07-30T13:25:34Z</time>
      </trkpt>
      <trkpt lat="46.0137" lon="6.58049">
        <ele>1892</ele>
        <time>2020-07-30T13:25:38Z</time>
      </trkpt>
      <trkpt lat="46.01358" lon="6.58041">
        <ele>1892</ele>
        <time>2020-07-30T13:25:45Z</time>
      </trkpt>
      <trkpt lat="46.01329" lon="6.58044">
        <ele>1898</ele>
        <time>2020-07-30T13:25:59Z</time>
      </trkpt>
      <trkpt lat="46.0131" lon="6.58037">
        <ele>1901</ele>
        <time>2020-07-30T13:26:09Z</time>
      </trkpt>
      <trkpt lat="46.01299" lon="6.58037">
        <ele>1903</ele>
        <time>2020-07-30T13:26:15Z</time>
      </trkpt>
      <trkpt lat="46.01292" lon="6.58039">
        <ele>1904</ele>
        <time>2020-07-30T13:26:18Z</time>
      </trkpt>
      <trkpt lat="46.01271" lon="6.58056">
        <ele>1910</ele>
        <time>2020-07-30T13:26:30Z</time>
      </trkpt>
      <trkpt lat="46.01259" lon="6.58061">
        <ele>1912</ele>
        <time>2020-07-30T13:26:37Z</time>
      </trkpt>
      <trkpt lat="46.0125" lon="6.5806">
        <ele>1914</ele>
        <time>2020-07-30T13:26:41Z</time>
      </trkpt>
      <trkpt lat="46.01241" lon="6.58051">
        <ele>1915</ele>
        <time>2020-07-30T13:26:47Z</time>
      </trkpt>
      <trkpt lat="46.01217" lon="6.58045">
        <ele>1921</ele>
        <time>2020-07-30T13:26:59Z</time>
      </trkpt>
      <trkpt lat="46.01204" lon="6.58033">
        <ele>1923</ele>
        <time>2020-07-30T13:27:07Z</time>
      </trkpt>
      <trkpt lat="46.01212" lon="6.57992">
        <ele>1920</ele>
        <time>2020-07-30T13:27:21Z</time>
      </trkpt>
      <trkpt lat="46.01214" lon="6.57974">
        <ele>1920</ele>
        <time>2020-07-30T13:27:28Z</time>
      </trkpt>
      <trkpt lat="46.01212" lon="6.57962">
        <ele>1920</ele>
        <time>2020-07-30T13:27:32Z</time>
      </trkpt>
      <trkpt lat="46.0119" lon="6.57953">
        <ele>1927</ele>
        <time>2020-07-30T13:27:43Z</time>
      </trkpt>
      <trkpt lat="46.01182" lon="6.57959">
        <ele>1929</ele>
        <time>2020-07-30T13:27:48Z</time>
      </trkpt>
      <trkpt lat="46.01176" lon="6.57972">
        <ele>1930</ele>
        <time>2020-07-30T13:27:53Z</time>
      </trkpt>
      <trkpt lat="46.01159" lon="6.57995">
        <ele>1935</ele>
        <time>2020-07-30T13:28:05Z</time>
      </trkpt>
      <trkpt lat="46.01135" lon="6.58035">
        <ele>1942</ele>
        <time>2020-07-30T13:28:23Z</time>
      </trkpt>
      <trkpt lat="46.01124" lon="6.58082">
        <ele>1945</ele>
        <time>2020-07-30T13:28:41Z</time>
      </trkpt>
      <trkpt lat="46.01115" lon="6.58102">
        <ele>1946</ele>
        <time>2020-07-30T13:28:49Z</time>
      </trkpt>
      <trkpt lat="46.01107" lon="6.5811">
        <ele>1948</ele>
        <time>2020-07-30T13:28:54Z</time>
      </trkpt>
      <trkpt lat="46.01103" lon="6.58104">
        <ele>1949</ele>
        <time>2020-07-30T13:28:57Z</time>
      </trkpt>
      <trkpt lat="46.01096" lon="6.58106">
        <ele>1951</ele>
        <time>2020-07-30T13:29:00Z</time>
      </trkpt>
      <trkpt lat="46.01088" lon="6.5812">
        <ele>1953</ele>
        <time>2020-07-30T13:29:07Z</time>
      </trkpt>
      <trkpt lat="46.01082" lon="6.58117">
        <ele>1955</ele>
        <time>2020-07-30T13:29:10Z</time>
      </trkpt>
      <trkpt lat="46.0107" lon="6.58148">
        <ele>1958</ele>
        <time>2020-07-30T13:29:22Z</time>
      </trkpt>
      <trkpt lat="46.0107" lon="6.58157">
        <ele>1957</ele>
        <time>2020-07-30T13:29:25Z</time>
      </trkpt>
      <trkpt lat="46.01059" lon="6.58179">
        <ele>1958</ele>
        <time>2020-07-30T13:29:35Z</time>
      </trkpt>
      <trkpt lat="46.0105" lon="6.58189">
        <ele>1960</ele>
        <time>2020-07-30T13:29:40Z</time>
      </trkpt>
      <trkpt lat="46.01042" lon="6.58194">
        <ele>1963</ele>
        <time>2020-07-30T13:29:45Z</time>
      </trkpt>
      <trkpt lat="46.01034" lon="6.58207">
        <ele>1964</ele>
        <time>2020-07-30T13:29:51Z</time>
      </trkpt>
      <trkpt lat="46.01026" lon="6.58212">
        <ele>1968</ele>
        <time>2020-07-30T13:29:55Z</time>
      </trkpt>
      <trkpt lat="46.01002" lon="6.58247">
        <ele>1977</ele>
        <time>2020-07-30T13:30:12Z</time>
      </trkpt>
      <trkpt lat="46.00993" lon="6.58254">
        <ele>1978</ele>
        <time>2020-07-30T13:30:17Z</time>
      </trkpt>
      <trkpt lat="46.00971" lon="6.58264">
        <ele>1980</ele>
        <time>2020-07-30T13:30:29Z</time>
      </trkpt>
      <trkpt lat="46.00927" lon="6.58273">
        <ele>1985</ele>
        <time>2020-07-30T13:30:51Z</time>
      </trkpt>
      <trkpt lat="46.00892" lon="6.58263">
        <ele>1986</ele>
        <time>2020-07-30T13:31:09Z</time>
      </trkpt>
      <trkpt lat="46.00874" lon="6.58254">
        <ele>1985</ele>
        <time>2020-07-30T13:31:18Z</time>
      </trkpt>
      <trkpt lat="46.00849" lon="6.58234">
        <ele>1982</ele>
        <time>2020-07-30T13:31:33Z</time>
      </trkpt>
      <trkpt lat="46.0082" lon="6.58195">
        <ele>1978</ele>
        <time>2020-07-30T13:31:53Z</time>
      </trkpt>
      <trkpt lat="46.00805" lon="6.5816">
        <ele>1974</ele>
        <time>2020-07-30T13:32:07Z</time>
      </trkpt>
      <trkpt lat="46.00799" lon="6.58131">
        <ele>1968</ele>
        <time>2020-07-30T13:32:17Z</time>
      </trkpt>
      <trkpt lat="46.00813" lon="6.58079">
        <ele>1969</ele>
        <time>2020-07-30T13:32:37Z</time>
      </trkpt>
      <trkpt lat="46.00838" lon="6.58032">
        <ele>1974</ele>
        <time>2020-07-30T13:32:57Z</time>
      </trkpt>
      <trkpt lat="46.00846" lon="6.58022">
        <ele>1975</ele>
        <time>2020-07-30T13:33:03Z</time>
      </trkpt>
      <trkpt lat="46.00878" lon="6.57994">
        <ele>1983</ele>
        <time>2020-07-30T13:33:21Z</time>
      </trkpt>
      <trkpt lat="46.00892" lon="6.57972">
        <ele>1986</ele>
        <time>2020-07-30T13:33:32Z</time>
      </trkpt>
      <trkpt lat="46.00925" lon="6.57868">
        <ele>1993</ele>
        <time>2020-07-30T13:34:12Z</time>
      </trkpt>
      <trkpt lat="46.00929" lon="6.57849">
        <ele>1993</ele>
        <time>2020-07-30T13:34:18Z</time>
      </trkpt>
      <trkpt lat="46.0093" lon="6.57809">
        <ele>1992</ele>
        <time>2020-07-30T13:34:32Z</time>
      </trkpt>
      <trkpt lat="46.00927" lon="6.57793">
        <ele>1991</ele>
        <time>2020-07-30T13:34:38Z</time>
      </trkpt>
      <trkpt lat="46.00917" lon="6.57774">
        <ele>1990</ele>
        <time>2020-07-30T13:34:46Z</time>
      </trkpt>
      <trkpt lat="46.00901" lon="6.57754">
        <ele>1985</ele>
        <time>2020-07-30T13:34:57Z</time>
      </trkpt>
      <trkpt lat="46.00898" lon="6.57742">
        <ele>1983</ele>
        <time>2020-07-30T13:35:01Z</time>
      </trkpt>
      <trkpt lat="46.0091" lon="6.57716">
        <ele>1985</ele>
        <time>2020-07-30T13:35:12Z</time>
      </trkpt>
      <trkpt lat="46.00907" lon="6.57701">
        <ele>1983</ele>
        <time>2020-07-30T13:35:18Z</time>
      </trkpt>
      <trkpt lat="46.00896" lon="6.5768">
        <ele>1979</ele>
        <time>2020-07-30T13:35:27Z</time>
      </trkpt>
      <trkpt lat="46.00872" lon="6.57645">
        <ele>1975</ele>
        <time>2020-07-30T13:35:44Z</time>
      </trkpt>
      <trkpt lat="46.00863" lon="6.57626">
        <ele>1975</ele>
        <time>2020-07-30T13:35:52Z</time>
      </trkpt>
      <trkpt lat="46.00857" lon="6.5762">
        <ele>1975</ele>
        <time>2020-07-30T13:35:56Z</time>
      </trkpt>
      <trkpt lat="46.00854" lon="6.57598">
        <ele>1976</ele>
        <time>2020-07-30T13:36:03Z</time>
      </trkpt>
      <trkpt lat="46.0085" lon="6.57593">
        <ele>1976</ele>
        <time>2020-07-30T13:36:06Z</time>
      </trkpt>
      <trkpt lat="46.00822" lon="6.57595">
        <ele>1977</ele>
        <time>2020-07-30T13:36:20Z</time>
      </trkpt>
      <trkpt lat="46.00799" lon="6.57586">
        <ele>1973</ele>
        <time>2020-07-30T13:36:32Z</time>
      </trkpt>
      <trkpt lat="46.00797" lon="6.57583">
        <ele>1974</ele>
        <time>2020-07-30T13:36:33Z</time>
      </trkpt>
      <trkpt lat="46.00798" lon="6.57577">
        <ele>1975</ele>
        <time>2020-07-30T13:36:36Z</time>
      </trkpt>
      <trkpt lat="46.00808" lon="6.57563">
        <ele>1978</ele>
        <time>2020-07-30T13:36:43Z</time>
      </trkpt>
      <trkpt lat="46.00805" lon="6.57543">
        <ele>1981</ele>
        <time>2020-07-30T13:36:50Z</time>
      </trkpt>
      <trkpt lat="46.00801" lon="6.57538">
        <ele>1981</ele>
        <time>2020-07-30T13:36:52Z</time>
      </trkpt>
      <trkpt lat="46.00779" lon="6.57534">
        <ele>1980</ele>
        <time>2020-07-30T13:37:03Z</time>
      </trkpt>
      <trkpt lat="46.00766" lon="6.57516">
        <ele>1984</ele>
        <time>2020-07-30T13:37:12Z</time>
      </trkpt>
      <trkpt lat="46.00758" lon="6.57496">
        <ele>1989</ele>
        <time>2020-07-30T13:37:20Z</time>
      </trkpt>
      <trkpt lat="46.00734" lon="6.57478">
        <ele>1988</ele>
        <time>2020-07-30T13:37:34Z</time>
      </trkpt>
      <trkpt lat="46.00714" lon="6.5745">
        <ele>1990</ele>
        <time>2020-07-30T13:37:48Z</time>
      </trkpt>
      <trkpt lat="46.00713" lon="6.57435">
        <ele>1994</ele>
        <time>2020-07-30T13:37:53Z</time>
      </trkpt>
      <trkpt lat="46.0069" lon="6.57409">
        <ele>1995</ele>
        <time>2020-07-30T13:38:08Z</time>
      </trkpt>
      <trkpt lat="46.00683" lon="6.57395">
        <ele>1995</ele>
        <time>2020-07-30T13:38:14Z</time>
      </trkpt>
      <trkpt lat="46.00677" lon="6.5736">
        <ele>1999</ele>
        <time>2020-07-30T13:38:26Z</time>
      </trkpt>
      <trkpt lat="46.00669" lon="6.57354">
        <ele>1999</ele>
        <time>2020-07-30T13:38:31Z</time>
      </trkpt>
      <trkpt lat="46.00658" lon="6.57321">
        <ele>1998</ele>
        <time>2020-07-30T13:38:44Z</time>
      </trkpt>
      <trkpt lat="46.00645" lon="6.57296">
        <ele>1994</ele>
        <time>2020-07-30T13:38:54Z</time>
      </trkpt>
      <trkpt lat="46.00631" lon="6.57261">
        <ele>1991</ele>
        <time>2020-07-30T13:39:09Z</time>
      </trkpt>
      <trkpt lat="46.00632" lon="6.57259">
        <ele>1991</ele>
        <time>2020-07-30T13:39:09Z</time>
      </trkpt>
      <trkpt lat="46.00626" lon="6.57253">
        <ele>1990</ele>
        <time>2020-07-30T13:39:13Z</time>
      </trkpt>
      <trkpt lat="46.00617" lon="6.57233">
        <ele>1986</ele>
        <time>2020-07-30T13:39:21Z</time>
      </trkpt>
      <trkpt lat="46.0061" lon="6.57231">
        <ele>1985</ele>
        <time>2020-07-30T13:39:25Z</time>
      </trkpt>
      <trkpt lat="46.00602" lon="6.57222">
        <ele>1983</ele>
        <time>2020-07-30T13:39:30Z</time>
      </trkpt>
      <trkpt lat="46.00595" lon="6.57221">
        <ele>1982</ele>
        <time>2020-07-30T13:39:33Z</time>
      </trkpt>
      <trkpt lat="46.00585" lon="6.57211">
        <ele>1981</ele>
        <time>2020-07-30T13:39:40Z</time>
      </trkpt>
      <trkpt lat="46.00572" lon="6.57204">
        <ele>1979</ele>
        <time>2020-07-30T13:39:47Z</time>
      </trkpt>
      <trkpt lat="46.00544" lon="6.57177">
        <ele>1977</ele>
        <time>2020-07-30T13:40:03Z</time>
      </trkpt>
      <trkpt lat="46.00526" lon="6.57174">
        <ele>1976</ele>
        <time>2020-07-30T13:40:12Z</time>
      </trkpt>
      <trkpt lat="46.00521" lon="6.57161">
        <ele>1975</ele>
        <time>2020-07-30T13:40:18Z</time>
      </trkpt>
      <trkpt lat="46.00496" lon="6.57134">
        <ele>1975</ele>
        <time>2020-07-30T13:40:33Z</time>
      </trkpt>
      <trkpt lat="46.00466" lon="6.57072">
        <ele>1979</ele>
        <time>2020-07-30T13:41:00Z</time>
      </trkpt>
      <trkpt lat="46.00454" lon="6.57061">
        <ele>1980</ele>
        <time>2020-07-30T13:41:07Z</time>
      </trkpt>
      <trkpt lat="46.00436" lon="6.5702">
        <ele>1980</ele>
        <time>2020-07-30T13:41:23Z</time>
      </trkpt>
      <trkpt lat="46.00428" lon="6.56997">
        <ele>1980</ele>
        <time>2020-07-30T13:41:32Z</time>
      </trkpt>
      <trkpt lat="46.00423" lon="6.56957">
        <ele>1984</ele>
        <time>2020-07-30T13:41:47Z</time>
      </trkpt>
      <trkpt lat="46.00425" lon="6.56917">
        <ele>1986</ele>
        <time>2020-07-30T13:42:00Z</time>
      </trkpt>
      <trkpt lat="46.00429" lon="6.56908">
        <ele>1987</ele>
        <time>2020-07-30T13:42:04Z</time>
      </trkpt>
      <trkpt lat="46.00454" lon="6.56873">
        <ele>1984</ele>
        <time>2020-07-30T13:42:22Z</time>
      </trkpt>
      <trkpt lat="46.00462" lon="6.56844">
        <ele>1985</ele>
        <time>2020-07-30T13:42:33Z</time>
      </trkpt>
      <trkpt lat="46.00491" lon="6.56794">
        <ele>1981</ele>
        <time>2020-07-30T13:42:55Z</time>
      </trkpt>
      <trkpt lat="46.0051" lon="6.56737">
        <ele>1978</ele>
        <time>2020-07-30T13:43:17Z</time>
      </trkpt>
      <trkpt lat="46.00504" lon="6.5671">
        <ele>1977</ele>
        <time>2020-07-30T13:43:27Z</time>
      </trkpt>
      <trkpt lat="46.00493" lon="6.56685">
        <ele>1977</ele>
        <time>2020-07-30T13:43:37Z</time>
      </trkpt>
      <trkpt lat="46.00474" lon="6.56659">
        <ele>1978</ele>
        <time>2020-07-30T13:43:50Z</time>
      </trkpt>
      <trkpt lat="46.00466" lon="6.56652">
        <ele>1979</ele>
        <time>2020-07-30T13:43:55Z</time>
      </trkpt>
      <trkpt lat="46.00452" lon="6.56626">
        <ele>1976</ele>
        <time>2020-07-30T13:44:07Z</time>
      </trkpt>
      <trkpt lat="46.00435" lon="6.56602">
        <ele>1973</ele>
        <time>2020-07-30T13:44:18Z</time>
      </trkpt>
      <trkpt lat="46.00383" lon="6.56551">
        <ele>1968</ele>
        <time>2020-07-30T13:44:50Z</time>
      </trkpt>
      <trkpt lat="46.00364" lon="6.56524">
        <ele>1962</ele>
        <time>2020-07-30T13:45:03Z</time>
      </trkpt>
      <trkpt lat="46.00349" lon="6.56509">
        <ele>1959</ele>
        <time>2020-07-30T13:45:12Z</time>
      </trkpt>
      <trkpt lat="46.00325" lon="6.56494">
        <ele>1955</ele>
        <time>2020-07-30T13:45:25Z</time>
      </trkpt>
      <trkpt lat="46.00309" lon="6.56475">
        <ele>1949</ele>
        <time>2020-07-30T13:45:36Z</time>
      </trkpt>
      <trkpt lat="46.00277" lon="6.56449">
        <ele>1942</ele>
        <time>2020-07-30T13:45:54Z</time>
      </trkpt>
      <trkpt lat="46.00274" lon="6.56449">
        <ele>1942</ele>
        <time>2020-07-30T13:45:56Z</time>
      </trkpt>
      <trkpt lat="46.00232" lon="6.5648">
        <ele>1953</ele>
        <time>2020-07-30T13:46:19Z</time>
      </trkpt>
      <trkpt lat="46.00221" lon="6.56491">
        <ele>1957</ele>
        <time>2020-07-30T13:46:26Z</time>
      </trkpt>
      <trkpt lat="46.00212" lon="6.56495">
        <ele>1959</ele>
        <time>2020-07-30T13:46:31Z</time>
      </trkpt>
      <trkpt lat="46.00209" lon="6.56501">
        <ele>1961</ele>
        <time>2020-07-30T13:46:33Z</time>
      </trkpt>
      <trkpt lat="46.00185" lon="6.56513">
        <ele>1966</ele>
        <time>2020-07-30T13:46:46Z</time>
      </trkpt>
      <trkpt lat="46.00161" lon="6.56522">
        <ele>1971</ele>
        <time>2020-07-30T13:46:58Z</time>
      </trkpt>
      <trkpt lat="46.00133" lon="6.56528">
        <ele>1976</ele>
        <time>2020-07-30T13:47:13Z</time>
      </trkpt>
      <trkpt lat="46.0012" lon="6.56535">
        <ele>1980</ele>
        <time>2020-07-30T13:47:20Z</time>
      </trkpt>
      <trkpt lat="46.00107" lon="6.56532">
        <ele>1980</ele>
        <time>2020-07-30T13:47:26Z</time>
      </trkpt>
      <trkpt lat="46.00081" lon="6.56534">
        <ele>1983</ele>
        <time>2020-07-30T13:47:39Z</time>
      </trkpt>
      <trkpt lat="46.00072" lon="6.56529">
        <ele>1981</ele>
        <time>2020-07-30T13:47:44Z</time>
      </trkpt>
      <trkpt lat="46.00064" lon="6.5653">
        <ele>1981</ele>
        <time>2020-07-30T13:47:48Z</time>
      </trkpt>
      <trkpt lat="46.00054" lon="6.5654">
        <ele>1983</ele>
        <time>2020-07-30T13:47:54Z</time>
      </trkpt>
      <trkpt lat="46.00027" lon="6.56556">
        <ele>1986</ele>
        <time>2020-07-30T13:48:09Z</time>
      </trkpt>
      <trkpt lat="46.00013" lon="6.56576">
        <ele>1990</ele>
        <time>2020-07-30T13:48:19Z</time>
      </trkpt>
      <trkpt lat="46" lon="6.56586">
        <ele>1991</ele>
        <time>2020-07-30T13:48:26Z</time>
      </trkpt>
      <trkpt lat="45.99989" lon="6.56591">
        <ele>1991</ele>
        <time>2020-07-30T13:48:32Z</time>
      </trkpt>
      <trkpt lat="45.99987" lon="6.56597">
        <ele>1992</ele>
        <time>2020-07-30T13:48:34Z</time>
      </trkpt>
      <trkpt lat="45.99969" lon="6.56615">
        <ele>1995</ele>
        <time>2020-07-30T13:48:45Z</time>
      </trkpt>
      <trkpt lat="45.99951" lon="6.56625">
        <ele>1996</ele>
        <time>2020-07-30T13:48:55Z</time>
      </trkpt>
      <trkpt lat="45.99942" lon="6.56635">
        <ele>1998</ele>
        <time>2020-07-30T13:49:00Z</time>
      </trkpt>
      <trkpt lat="45.99908" lon="6.56653">
        <ele>2002</ele>
        <time>2020-07-30T13:49:19Z</time>
      </trkpt>
      <trkpt lat="45.99914" lon="6.5666">
        <ele>2004</ele>
        <time>2020-07-30T13:49:22Z</time>
      </trkpt>
      <trkpt lat="45.99915" lon="6.56672">
        <ele>2007</ele>
        <time>2020-07-30T13:49:27Z</time>
      </trkpt>
      <trkpt lat="45.99909" lon="6.5668">
        <ele>2007</ele>
        <time>2020-07-30T13:49:31Z</time>
      </trkpt>
      <trkpt lat="45.99907" lon="6.56702">
        <ele>2009</ele>
        <time>2020-07-30T13:49:38Z</time>
      </trkpt>
      <trkpt lat="45.99884" lon="6.56731">
        <ele>2012</ele>
        <time>2020-07-30T13:49:54Z</time>
      </trkpt>
      <trkpt lat="45.99886" lon="6.56715">
        <ele>2011</ele>
        <time>2020-07-30T13:49:59Z</time>
      </trkpt>
      <trkpt lat="45.99876" lon="6.56676">
        <ele>2008</ele>
        <time>2020-07-30T13:50:14Z</time>
      </trkpt>
      <trkpt lat="45.99879" lon="6.5665">
        <ele>2002</ele>
        <time>2020-07-30T13:50:23Z</time>
      </trkpt>
      <trkpt lat="45.9986" lon="6.56627">
        <ele>1997</ele>
        <time>2020-07-30T13:50:35Z</time>
      </trkpt>
      <trkpt lat="45.99854" lon="6.56594">
        <ele>1988</ele>
        <time>2020-07-30T13:50:47Z</time>
      </trkpt>
      <trkpt lat="45.9984" lon="6.5657">
        <ele>1984</ele>
        <time>2020-07-30T13:50:58Z</time>
      </trkpt>
      <trkpt lat="45.99825" lon="6.56502">
        <ele>1971</ele>
        <time>2020-07-30T13:51:23Z</time>
      </trkpt>
      <trkpt lat="45.9982" lon="6.56467">
        <ele>1966</ele>
        <time>2020-07-30T13:51:35Z</time>
      </trkpt>
      <trkpt lat="45.99816" lon="6.56456">
        <ele>1965</ele>
        <time>2020-07-30T13:51:40Z</time>
      </trkpt>
      <trkpt lat="45.99804" lon="6.56437">
        <ele>1964</ele>
        <time>2020-07-30T13:51:49Z</time>
      </trkpt>
      <trkpt lat="45.99797" lon="6.56405">
        <ele>1959</ele>
        <time>2020-07-30T13:52:00Z</time>
      </trkpt>
      <trkpt lat="45.99796" lon="6.56386">
        <ele>1957</ele>
        <time>2020-07-30T13:52:07Z</time>
      </trkpt>
      <trkpt lat="45.9978" lon="6.5634">
        <ele>1954</ele>
        <time>2020-07-30T13:52:25Z</time>
      </trkpt>
      <trkpt lat="45.99764" lon="6.56273">
        <ele>1954</ele>
        <time>2020-07-30T13:52:49Z</time>
      </trkpt>
      <trkpt lat="45.99764" lon="6.56208">
        <ele>1952</ele>
        <time>2020-07-30T13:53:12Z</time>
      </trkpt>
      <trkpt lat="45.99768" lon="6.56161">
        <ele>1948</ele>
        <time>2020-07-30T13:53:28Z</time>
      </trkpt>
      <trkpt lat="45.99779" lon="6.56095">
        <ele>1936</ele>
        <time>2020-07-30T13:53:52Z</time>
      </trkpt>
      <trkpt lat="45.99794" lon="6.56048">
        <ele>1924</ele>
        <time>2020-07-30T13:54:10Z</time>
      </trkpt>
      <trkpt lat="45.99799" lon="6.55996">
        <ele>1917</ele>
        <time>2020-07-30T13:54:28Z</time>
      </trkpt>
      <trkpt lat="45.99796" lon="6.55963">
        <ele>1913</ele>
        <time>2020-07-30T13:54:40Z</time>
      </trkpt>
      <trkpt lat="45.99771" lon="6.55937">
        <ele>1914</ele>
        <time>2020-07-30T13:54:55Z</time>
      </trkpt>
      <trkpt lat="45.99765" lon="6.55905">
        <ele>1908</ele>
        <time>2020-07-30T13:55:07Z</time>
      </trkpt>
      <trkpt lat="45.99761" lon="6.55895">
        <ele>1906</ele>
        <time>2020-07-30T13:55:11Z</time>
      </trkpt>
      <trkpt lat="45.99756" lon="6.55891">
        <ele>1905</ele>
        <time>2020-07-30T13:55:14Z</time>
      </trkpt>
      <trkpt lat="45.99742" lon="6.55888">
        <ele>1905</ele>
        <time>2020-07-30T13:55:21Z</time>
      </trkpt>
      <trkpt lat="45.997" lon="6.55862">
        <ele>1894</ele>
        <time>2020-07-30T13:55:44Z</time>
      </trkpt>
      <trkpt lat="45.99694" lon="6.55861">
        <ele>1894</ele>
        <time>2020-07-30T13:55:47Z</time>
      </trkpt>
      <trkpt lat="45.99679" lon="6.55849">
        <ele>1889</ele>
        <time>2020-07-30T13:55:55Z</time>
      </trkpt>
      <trkpt lat="45.99655" lon="6.55816">
        <ele>1877</ele>
        <time>2020-07-30T13:56:12Z</time>
      </trkpt>
      <trkpt lat="45.99644" lon="6.55809">
        <ele>1874</ele>
        <time>2020-07-30T13:56:18Z</time>
      </trkpt>
      <trkpt lat="45.99638" lon="6.55801">
        <ele>1871</ele>
        <time>2020-07-30T13:56:22Z</time>
      </trkpt>
      <trkpt lat="45.99563" lon="6.55764">
        <ele>1850</ele>
        <time>2020-07-30T13:57:02Z</time>
      </trkpt>
      <trkpt lat="45.99546" lon="6.55766">
        <ele>1848</ele>
        <time>2020-07-30T13:57:10Z</time>
      </trkpt>
      <trkpt lat="45.99509" lon="6.55749">
        <ele>1837</ele>
        <time>2020-07-30T13:57:30Z</time>
      </trkpt>
      <trkpt lat="45.99491" lon="6.55749">
        <ele>1834</ele>
        <time>2020-07-30T13:57:39Z</time>
      </trkpt>
      <trkpt lat="45.99484" lon="6.55734">
        <ele>1829</ele>
        <time>2020-07-30T13:57:45Z</time>
      </trkpt>
      <trkpt lat="45.99482" lon="6.55709">
        <ele>1823</ele>
        <time>2020-07-30T13:57:54Z</time>
      </trkpt>
      <trkpt lat="45.99478" lon="6.55697">
        <ele>1819</ele>
        <time>2020-07-30T13:57:58Z</time>
      </trkpt>
      <trkpt lat="45.99473" lon="6.55663">
        <ele>1810</ele>
        <time>2020-07-30T13:58:10Z</time>
      </trkpt>
      <trkpt lat="45.99452" lon="6.55647">
        <ele>1801</ele>
        <time>2020-07-30T13:58:22Z</time>
      </trkpt>
      <trkpt lat="45.99434" lon="6.5565">
        <ele>1798</ele>
        <time>2020-07-30T13:58:31Z</time>
      </trkpt>
      <trkpt lat="45.99413" lon="6.55649">
        <ele>1792</ele>
        <time>2020-07-30T13:58:42Z</time>
      </trkpt>
      <trkpt lat="45.99395" lon="6.55665">
        <ele>1789</ele>
        <time>2020-07-30T13:58:52Z</time>
      </trkpt>
      <trkpt lat="45.99368" lon="6.55702">
        <ele>1789</ele>
        <time>2020-07-30T13:59:11Z</time>
      </trkpt>
      <trkpt lat="45.99339" lon="6.55732">
        <ele>1787</ele>
        <time>2020-07-30T13:59:29Z</time>
      </trkpt>
      <trkpt lat="45.9931" lon="6.55754">
        <ele>1783</ele>
        <time>2020-07-30T13:59:45Z</time>
      </trkpt>
      <trkpt lat="45.99294" lon="6.55755">
        <ele>1779</ele>
        <time>2020-07-30T13:59:53Z</time>
      </trkpt>
      <trkpt lat="45.99285" lon="6.55745">
        <ele>1774</ele>
        <time>2020-07-30T13:59:59Z</time>
      </trkpt>
      <trkpt lat="45.99282" lon="6.55736">
        <ele>1771</ele>
        <time>2020-07-30T14:00:03Z</time>
      </trkpt>
      <trkpt lat="45.99282" lon="6.55722">
        <ele>1767</ele>
        <time>2020-07-30T14:00:07Z</time>
      </trkpt>
      <trkpt lat="45.9929" lon="6.5568">
        <ele>1759</ele>
        <time>2020-07-30T14:00:23Z</time>
      </trkpt>
      <trkpt lat="45.99293" lon="6.55646">
        <ele>1752</ele>
        <time>2020-07-30T14:00:34Z</time>
      </trkpt>
      <trkpt lat="45.99288" lon="6.55621">
        <ele>1745</ele>
        <time>2020-07-30T14:00:44Z</time>
      </trkpt>
      <trkpt lat="45.99285" lon="6.55619">
        <ele>1744</ele>
        <time>2020-07-30T14:00:45Z</time>
      </trkpt>
      <trkpt lat="45.99278" lon="6.55616">
        <ele>1741</ele>
        <time>2020-07-30T14:00:49Z</time>
      </trkpt>
      <trkpt lat="45.9927" lon="6.55618">
        <ele>1740</ele>
        <time>2020-07-30T14:00:53Z</time>
      </trkpt>
      <trkpt lat="45.99257" lon="6.55631">
        <ele>1739</ele>
        <time>2020-07-30T14:01:01Z</time>
      </trkpt>
      <trkpt lat="45.99227" lon="6.55616">
        <ele>1733</ele>
        <time>2020-07-30T14:01:17Z</time>
      </trkpt>
      <trkpt lat="45.99222" lon="6.55617">
        <ele>1733</ele>
        <time>2020-07-30T14:01:19Z</time>
      </trkpt>
      <trkpt lat="45.99182" lon="6.55634">
        <ele>1734</ele>
        <time>2020-07-30T14:01:40Z</time>
      </trkpt>
      <trkpt lat="45.99128" lon="6.55688">
        <ele>1745</ele>
        <time>2020-07-30T14:02:13Z</time>
      </trkpt>
      <trkpt lat="45.99106" lon="6.55686">
        <ele>1745</ele>
        <time>2020-07-30T14:02:24Z</time>
      </trkpt>
      <trkpt lat="45.9906" lon="6.55665">
        <ele>1743</ele>
        <time>2020-07-30T14:02:48Z</time>
      </trkpt>
      <trkpt lat="45.99042" lon="6.55652">
        <ele>1742</ele>
        <time>2020-07-30T14:02:58Z</time>
      </trkpt>
      <trkpt lat="45.99006" lon="6.55637">
        <ele>1743</ele>
        <time>2020-07-30T14:03:17Z</time>
      </trkpt>
      <trkpt lat="45.98991" lon="6.55624">
        <ele>1742</ele>
        <time>2020-07-30T14:03:26Z</time>
      </trkpt>
      <trkpt lat="45.98978" lon="6.5562">
        <ele>1744</ele>
        <time>2020-07-30T14:03:32Z</time>
      </trkpt>
      <trkpt lat="45.98966" lon="6.55628">
        <ele>1749</ele>
        <time>2020-07-30T14:03:39Z</time>
      </trkpt>
      <trkpt lat="45.98963" lon="6.55623">
        <ele>1748</ele>
        <time>2020-07-30T14:03:41Z</time>
      </trkpt>
      <trkpt lat="45.98947" lon="6.55614">
        <ele>1750</ele>
        <time>2020-07-30T14:03:50Z</time>
      </trkpt>
      <trkpt lat="45.98916" lon="6.55589">
        <ele>1753</ele>
        <time>2020-07-30T14:04:08Z</time>
      </trkpt>
      <trkpt lat="45.98905" lon="6.55584">
        <ele>1756</ele>
        <time>2020-07-30T14:04:14Z</time>
      </trkpt>
      <trkpt lat="45.98893" lon="6.55586">
        <ele>1761</ele>
        <time>2020-07-30T14:04:20Z</time>
      </trkpt>
      <trkpt lat="45.98888" lon="6.55584">
        <ele>1763</ele>
        <time>2020-07-30T14:04:22Z</time>
      </trkpt>
      <trkpt lat="45.98879" lon="6.55571">
        <ele>1762</ele>
        <time>2020-07-30T14:04:29Z</time>
      </trkpt>
      <trkpt lat="45.98859" lon="6.5555">
        <ele>1764</ele>
        <time>2020-07-30T14:04:41Z</time>
      </trkpt>
      <trkpt lat="45.98835" lon="6.55533">
        <ele>1770</ele>
        <time>2020-07-30T14:04:54Z</time>
      </trkpt>
      <trkpt lat="45.98814" lon="6.55503">
        <ele>1773</ele>
        <time>2020-07-30T14:05:09Z</time>
      </trkpt>
      <trkpt lat="45.98804" lon="6.55493">
        <ele>1774</ele>
        <time>2020-07-30T14:05:15Z</time>
      </trkpt>
      <trkpt lat="45.98789" lon="6.55463">
        <ele>1766</ele>
        <time>2020-07-30T14:05:28Z</time>
      </trkpt>
      <trkpt lat="45.98773" lon="6.55461">
        <ele>1771</ele>
        <time>2020-07-30T14:05:36Z</time>
      </trkpt>
      <trkpt lat="45.9876" lon="6.55455">
        <ele>1773</ele>
        <time>2020-07-30T14:05:43Z</time>
      </trkpt>
      <trkpt lat="45.98756" lon="6.55455">
        <ele>1775</ele>
        <time>2020-07-30T14:05:45Z</time>
      </trkpt>
      <trkpt lat="45.9875" lon="6.5546">
        <ele>1780</ele>
        <time>2020-07-30T14:05:48Z</time>
      </trkpt>
      <trkpt lat="45.98703" lon="6.55474">
        <ele>1774</ele>
        <time>2020-07-30T14:06:12Z</time>
      </trkpt>
      <trkpt lat="45.9867" lon="6.55489">
        <ele>1773</ele>
        <time>2020-07-30T14:06:30Z</time>
      </trkpt>
      <trkpt lat="45.98636" lon="6.55514">
        <ele>1769</ele>
        <time>2020-07-30T14:06:49Z</time>
      </trkpt>
      <trkpt lat="45.986" lon="6.55546">
        <ele>1763</ele>
        <time>2020-07-30T14:07:10Z</time>
      </trkpt>
      <trkpt lat="45.98586" lon="6.55552">
        <ele>1758</ele>
        <time>2020-07-30T14:07:17Z</time>
      </trkpt>
      <trkpt lat="45.98553" lon="6.55575">
        <ele>1755</ele>
        <time>2020-07-30T14:07:36Z</time>
      </trkpt>
      <trkpt lat="45.98527" lon="6.55599">
        <ele>1758</ele>
        <time>2020-07-30T14:07:51Z</time>
      </trkpt>
      <trkpt lat="45.98512" lon="6.55618">
        <ele>1763</ele>
        <time>2020-07-30T14:08:01Z</time>
      </trkpt>
      <trkpt lat="45.98504" lon="6.55635">
        <ele>1769</ele>
        <time>2020-07-30T14:08:08Z</time>
      </trkpt>
      <trkpt lat="45.98486" lon="6.55657">
        <ele>1776</ele>
        <time>2020-07-30T14:08:20Z</time>
      </trkpt>
      <trkpt lat="45.98481" lon="6.55671">
        <ele>1782</ele>
        <time>2020-07-30T14:08:26Z</time>
      </trkpt>
      <trkpt lat="45.98477" lon="6.55671">
        <ele>1782</ele>
        <time>2020-07-30T14:08:28Z</time>
      </trkpt>
      <trkpt lat="45.98471" lon="6.55666">
        <ele>1779</ele>
        <time>2020-07-30T14:08:31Z</time>
      </trkpt>
      <trkpt lat="45.98463" lon="6.5564">
        <ele>1765</ele>
        <time>2020-07-30T14:08:41Z</time>
      </trkpt>
      <trkpt lat="45.98452" lon="6.55623">
        <ele>1756</ele>
        <time>2020-07-30T14:08:49Z</time>
      </trkpt>
      <trkpt lat="45.98437" lon="6.55611">
        <ele>1750</ele>
        <time>2020-07-30T14:08:58Z</time>
      </trkpt>
      <trkpt lat="45.98423" lon="6.55587">
        <ele>1739</ele>
        <time>2020-07-30T14:09:08Z</time>
      </trkpt>
      <trkpt lat="45.98407" lon="6.5558">
        <ele>1734</ele>
        <time>2020-07-30T14:09:17Z</time>
      </trkpt>
      <trkpt lat="45.98401" lon="6.55567">
        <ele>1728</ele>
        <time>2020-07-30T14:09:22Z</time>
      </trkpt>
      <trkpt lat="45.98394" lon="6.5556">
        <ele>1724</ele>
        <time>2020-07-30T14:09:27Z</time>
      </trkpt>
      <trkpt lat="45.98378" lon="6.55556">
        <ele>1722</ele>
        <time>2020-07-30T14:09:35Z</time>
      </trkpt>
      <trkpt lat="45.98364" lon="6.55546">
        <ele>1717</ele>
        <time>2020-07-30T14:09:42Z</time>
      </trkpt>
      <trkpt lat="45.98351" lon="6.55558">
        <ele>1721</ele>
        <time>2020-07-30T14:09:50Z</time>
      </trkpt>
      <trkpt lat="45.98342" lon="6.55571">
        <ele>1724</ele>
        <time>2020-07-30T14:09:57Z</time>
      </trkpt>
      <trkpt lat="45.98332" lon="6.55577">
        <ele>1725</ele>
        <time>2020-07-30T14:10:02Z</time>
      </trkpt>
      <trkpt lat="45.98306" lon="6.55586">
        <ele>1719</ele>
        <time>2020-07-30T14:10:15Z</time>
      </trkpt>
      <trkpt lat="45.98296" lon="6.55581">
        <ele>1715</ele>
        <time>2020-07-30T14:10:21Z</time>
      </trkpt>
      <trkpt lat="45.98284" lon="6.55562">
        <ele>1706</ele>
        <time>2020-07-30T14:10:30Z</time>
      </trkpt>
      <trkpt lat="45.98279" lon="6.55537">
        <ele>1697</ele>
        <time>2020-07-30T14:10:39Z</time>
      </trkpt>
      <trkpt lat="45.98281" lon="6.55522">
        <ele>1693</ele>
        <time>2020-07-30T14:10:44Z</time>
      </trkpt>
      <trkpt lat="45.98279" lon="6.55515">
        <ele>1691</ele>
        <time>2020-07-30T14:10:47Z</time>
      </trkpt>
      <trkpt lat="45.98258" lon="6.55468">
        <ele>1673</ele>
        <time>2020-07-30T14:11:06Z</time>
      </trkpt>
      <trkpt lat="45.98246" lon="6.55421">
        <ele>1660</ele>
        <time>2020-07-30T14:11:23Z</time>
      </trkpt>
      <trkpt lat="45.98238" lon="6.55408">
        <ele>1655</ele>
        <time>2020-07-30T14:11:30Z</time>
      </trkpt>
      <trkpt lat="45.98228" lon="6.55404">
        <ele>1651</ele>
        <time>2020-07-30T14:11:35Z</time>
      </trkpt>
      <trkpt lat="45.98201" lon="6.55422">
        <ele>1650</ele>
        <time>2020-07-30T14:11:50Z</time>
      </trkpt>
      <trkpt lat="45.98185" lon="6.55426">
        <ele>1647</ele>
        <time>2020-07-30T14:11:58Z</time>
      </trkpt>
      <trkpt lat="45.9817" lon="6.55422">
        <ele>1643</ele>
        <time>2020-07-30T14:12:05Z</time>
      </trkpt>
      <trkpt lat="45.98148" lon="6.55426">
        <ele>1646</ele>
        <time>2020-07-30T14:12:16Z</time>
      </trkpt>
      <trkpt lat="45.98147" lon="6.55422">
        <ele>1645</ele>
        <time>2020-07-30T14:12:18Z</time>
      </trkpt>
      <trkpt lat="45.98136" lon="6.55411">
        <ele>1644</ele>
        <time>2020-07-30T14:12:25Z</time>
      </trkpt>
      <trkpt lat="45.98128" lon="6.55372">
        <ele>1637</ele>
        <time>2020-07-30T14:12:39Z</time>
      </trkpt>
      <trkpt lat="45.98128" lon="6.55352">
        <ele>1632</ele>
        <time>2020-07-30T14:12:46Z</time>
      </trkpt>
      <trkpt lat="45.98125" lon="6.55336">
        <ele>1630</ele>
        <time>2020-07-30T14:12:51Z</time>
      </trkpt>
      <trkpt lat="45.98109" lon="6.55295">
        <ele>1627</ele>
        <time>2020-07-30T14:13:08Z</time>
      </trkpt>
      <trkpt lat="45.98112" lon="6.55276">
        <ele>1624</ele>
        <time>2020-07-30T14:13:15Z</time>
      </trkpt>
      <trkpt lat="45.98116" lon="6.55267">
        <ele>1622</ele>
        <time>2020-07-30T14:13:18Z</time>
      </trkpt>
      <trkpt lat="45.98117" lon="6.55244">
        <ele>1620</ele>
        <time>2020-07-30T14:13:26Z</time>
      </trkpt>
      <trkpt lat="45.98108" lon="6.55223">
        <ele>1621</ele>
        <time>2020-07-30T14:13:35Z</time>
      </trkpt>
      <trkpt lat="45.98102" lon="6.55174">
        <ele>1620</ele>
        <time>2020-07-30T14:13:52Z</time>
      </trkpt>
      <trkpt lat="45.98097" lon="6.55169">
        <ele>1621</ele>
        <time>2020-07-30T14:13:55Z</time>
      </trkpt>
      <trkpt lat="45.98091" lon="6.55172">
        <ele>1623</ele>
        <time>2020-07-30T14:13:58Z</time>
      </trkpt>
      <trkpt lat="45.98086" lon="6.55168">
        <ele>1624</ele>
        <time>2020-07-30T14:14:01Z</time>
      </trkpt>
      <trkpt lat="45.98079" lon="6.55152">
        <ele>1623</ele>
        <time>2020-07-30T14:14:08Z</time>
      </trkpt>
      <trkpt lat="45.98056" lon="6.55117">
        <ele>1622</ele>
        <time>2020-07-30T14:14:25Z</time>
      </trkpt>
      <trkpt lat="45.98015" lon="6.55094">
        <ele>1620</ele>
        <time>2020-07-30T14:14:47Z</time>
      </trkpt>
      <trkpt lat="45.98008" lon="6.5508">
        <ele>1617</ele>
        <time>2020-07-30T14:14:53Z</time>
      </trkpt>
      <trkpt lat="45.9799" lon="6.55069">
        <ele>1618</ele>
        <time>2020-07-30T14:15:02Z</time>
      </trkpt>
      <trkpt lat="45.97925" lon="6.54944">
        <ele>1594</ele>
        <time>2020-07-30T14:15:57Z</time>
      </trkpt>
      <trkpt lat="45.97917" lon="6.5492">
        <ele>1587</ele>
        <time>2020-07-30T14:16:06Z</time>
      </trkpt>
      <trkpt lat="45.97915" lon="6.549">
        <ele>1581</ele>
        <time>2020-07-30T14:16:13Z</time>
      </trkpt>
      <trkpt lat="45.9791" lon="6.54884">
        <ele>1579</ele>
        <time>2020-07-30T14:16:19Z</time>
      </trkpt>
      <trkpt lat="45.97886" lon="6.54833">
        <ele>1571</ele>
        <time>2020-07-30T14:16:41Z</time>
      </trkpt>
      <trkpt lat="45.97856" lon="6.54812">
        <ele>1574</ele>
        <time>2020-07-30T14:16:57Z</time>
      </trkpt>
      <trkpt lat="45.97853" lon="6.54806">
        <ele>1572</ele>
        <time>2020-07-30T14:17:00Z</time>
      </trkpt>
      <trkpt lat="45.97847" lon="6.54804">
        <ele>1574</ele>
        <time>2020-07-30T14:17:03Z</time>
      </trkpt>
      <trkpt lat="45.97835" lon="6.54794">
        <ele>1574</ele>
        <time>2020-07-30T14:17:10Z</time>
      </trkpt>
      <trkpt lat="45.97827" lon="6.54792">
        <ele>1576</ele>
        <time>2020-07-30T14:17:14Z</time>
      </trkpt>
      <trkpt lat="45.97786" lon="6.54771">
        <ele>1580</ele>
        <time>2020-07-30T14:17:36Z</time>
      </trkpt>
      <trkpt lat="45.97771" lon="6.54767">
        <ele>1584</ele>
        <time>2020-07-30T14:17:43Z</time>
      </trkpt>
      <trkpt lat="45.97747" lon="6.54748">
        <ele>1584</ele>
        <time>2020-07-30T14:17:57Z</time>
      </trkpt>
      <trkpt lat="45.97715" lon="6.54734">
        <ele>1587</ele>
        <time>2020-07-30T14:18:14Z</time>
      </trkpt>
      <trkpt lat="45.97707" lon="6.54721">
        <ele>1583</ele>
        <time>2020-07-30T14:18:20Z</time>
      </trkpt>
      <trkpt lat="45.97679" lon="6.54717">
        <ele>1592</ele>
        <time>2020-07-30T14:18:34Z</time>
      </trkpt>
      <trkpt lat="45.97662" lon="6.54696">
        <ele>1589</ele>
        <time>2020-07-30T14:18:45Z</time>
      </trkpt>
      <trkpt lat="45.9765" lon="6.54689">
        <ele>1588</ele>
        <time>2020-07-30T14:18:52Z</time>
      </trkpt>
      <trkpt lat="45.97628" lon="6.54688">
        <ele>1592</ele>
        <time>2020-07-30T14:19:03Z</time>
      </trkpt>
      <trkpt lat="45.97613" lon="6.54692">
        <ele>1596</ele>
        <time>2020-07-30T14:19:10Z</time>
      </trkpt>
      <trkpt lat="45.97596" lon="6.54683">
        <ele>1596</ele>
        <time>2020-07-30T14:19:19Z</time>
      </trkpt>
      <trkpt lat="45.97592" lon="6.54678">
        <ele>1595</ele>
        <time>2020-07-30T14:19:22Z</time>
      </trkpt>
      <trkpt lat="45.97552" lon="6.54651">
        <ele>1604</ele>
        <time>2020-07-30T14:19:44Z</time>
      </trkpt>
      <trkpt lat="45.9755" lon="6.54637">
        <ele>1603</ele>
        <time>2020-07-30T14:19:49Z</time>
      </trkpt>
      <trkpt lat="45.97538" lon="6.54618">
        <ele>1605</ele>
        <time>2020-07-30T14:19:58Z</time>
      </trkpt>
      <trkpt lat="45.9753" lon="6.54594">
        <ele>1604</ele>
        <time>2020-07-30T14:20:07Z</time>
      </trkpt>
      <trkpt lat="45.97526" lon="6.5457">
        <ele>1604</ele>
        <time>2020-07-30T14:20:16Z</time>
      </trkpt>
      <trkpt lat="45.97531" lon="6.54551">
        <ele>1602</ele>
        <time>2020-07-30T14:20:23Z</time>
      </trkpt>
      <trkpt lat="45.97545" lon="6.5453">
        <ele>1596</ele>
        <time>2020-07-30T14:20:33Z</time>
      </trkpt>
      <trkpt lat="45.97561" lon="6.5449">
        <ele>1588</ele>
        <time>2020-07-30T14:20:49Z</time>
      </trkpt>
      <trkpt lat="45.97563" lon="6.54476">
        <ele>1588</ele>
        <time>2020-07-30T14:20:54Z</time>
      </trkpt>
      <trkpt lat="45.97557" lon="6.54445">
        <ele>1593</ele>
        <time>2020-07-30T14:21:05Z</time>
      </trkpt>
      <trkpt lat="45.9754" lon="6.544">
        <ele>1598</ele>
        <time>2020-07-30T14:21:23Z</time>
      </trkpt>
      <trkpt lat="45.97511" lon="6.54351">
        <ele>1602</ele>
        <time>2020-07-30T14:21:45Z</time>
      </trkpt>
      <trkpt lat="45.97508" lon="6.54341">
        <ele>1601</ele>
        <time>2020-07-30T14:21:49Z</time>
      </trkpt>
      <trkpt lat="45.97491" lon="6.54311">
        <ele>1599</ele>
        <time>2020-07-30T14:22:03Z</time>
      </trkpt>
      <trkpt lat="45.97477" lon="6.5429">
        <ele>1597</ele>
        <time>2020-07-30T14:22:13Z</time>
      </trkpt>
      <trkpt lat="45.97456" lon="6.54263">
        <ele>1593</ele>
        <time>2020-07-30T14:22:27Z</time>
      </trkpt>
      <trkpt lat="45.97444" lon="6.54251">
        <ele>1592</ele>
        <time>2020-07-30T14:22:34Z</time>
      </trkpt>
      <trkpt lat="45.97429" lon="6.54242">
        <ele>1592</ele>
        <time>2020-07-30T14:22:42Z</time>
      </trkpt>
      <trkpt lat="45.9742" lon="6.54232">
        <ele>1591</ele>
        <time>2020-07-30T14:22:48Z</time>
      </trkpt>
      <trkpt lat="45.97397" lon="6.54198">
        <ele>1587</ele>
        <time>2020-07-30T14:23:04Z</time>
      </trkpt>
      <trkpt lat="45.97383" lon="6.54182">
        <ele>1585</ele>
        <time>2020-07-30T14:23:13Z</time>
      </trkpt>
      <trkpt lat="45.97354" lon="6.54171">
        <ele>1585</ele>
        <time>2020-07-30T14:23:28Z</time>
      </trkpt>
      <trkpt lat="45.9734" lon="6.54148">
        <ele>1579</ele>
        <time>2020-07-30T14:23:39Z</time>
      </trkpt>
      <trkpt lat="45.97322" lon="6.54108">
        <ele>1569</ele>
        <time>2020-07-30T14:23:56Z</time>
      </trkpt>
      <trkpt lat="45.97304" lon="6.54086">
        <ele>1567</ele>
        <time>2020-07-30T14:24:07Z</time>
      </trkpt>
      <trkpt lat="45.97289" lon="6.54072">
        <ele>1567</ele>
        <time>2020-07-30T14:24:16Z</time>
      </trkpt>
      <trkpt lat="45.97277" lon="6.54055">
        <ele>1566</ele>
        <time>2020-07-30T14:24:25Z</time>
      </trkpt>
      <trkpt lat="45.97269" lon="6.54033">
        <ele>1562</ele>
        <time>2020-07-30T14:24:33Z</time>
      </trkpt>
      <trkpt lat="45.97245" lon="6.54004">
        <ele>1562</ele>
        <time>2020-07-30T14:24:49Z</time>
      </trkpt>
      <trkpt lat="45.97232" lon="6.53983">
        <ele>1561</ele>
        <time>2020-07-30T14:24:59Z</time>
      </trkpt>
      <trkpt lat="45.97226" lon="6.53967">
        <ele>1558</ele>
        <time>2020-07-30T14:25:05Z</time>
      </trkpt>
      <trkpt lat="45.97217" lon="6.53953">
        <ele>1556</ele>
        <time>2020-07-30T14:25:12Z</time>
      </trkpt>
      <trkpt lat="45.97215" lon="6.53934">
        <ele>1551</ele>
        <time>2020-07-30T14:25:19Z</time>
      </trkpt>
      <trkpt lat="45.97201" lon="6.53904">
        <ele>1545</ele>
        <time>2020-07-30T14:25:31Z</time>
      </trkpt>
      <trkpt lat="45.97199" lon="6.53894">
        <ele>1542</ele>
        <time>2020-07-30T14:25:35Z</time>
      </trkpt>
      <trkpt lat="45.97211" lon="6.53854">
        <ele>1530</ele>
        <time>2020-07-30T14:25:50Z</time>
      </trkpt>
      <trkpt lat="45.97212" lon="6.53834">
        <ele>1525</ele>
        <time>2020-07-30T14:25:57Z</time>
      </trkpt>
      <trkpt lat="45.97202" lon="6.53823">
        <ele>1524</ele>
        <time>2020-07-30T14:26:03Z</time>
      </trkpt>
      <trkpt lat="45.97188" lon="6.53816">
        <ele>1525</ele>
        <time>2020-07-30T14:26:11Z</time>
      </trkpt>
      <trkpt lat="45.97166" lon="6.5381">
        <ele>1527</ele>
        <time>2020-07-30T14:26:22Z</time>
      </trkpt>
      <trkpt lat="45.97158" lon="6.53813">
        <ele>1530</ele>
        <time>2020-07-30T14:26:26Z</time>
      </trkpt>
      <trkpt lat="45.97126" lon="6.53807">
        <ele>1540</ele>
        <time>2020-07-30T14:26:42Z</time>
      </trkpt>
      <trkpt lat="45.97125" lon="6.53809">
        <ele>1541</ele>
        <time>2020-07-30T14:26:43Z</time>
      </trkpt>
      <trkpt lat="45.97112" lon="6.53811">
        <ele>1546</ele>
        <time>2020-07-30T14:26:49Z</time>
      </trkpt>
      <trkpt lat="45.97107" lon="6.53818">
        <ele>1548</ele>
        <time>2020-07-30T14:26:53Z</time>
      </trkpt>
      <trkpt lat="45.97107" lon="6.53823">
        <ele>1549</ele>
        <time>2020-07-30T14:26:55Z</time>
      </trkpt>
      <trkpt lat="45.971" lon="6.53831">
        <ele>1552</ele>
        <time>2020-07-30T14:26:59Z</time>
      </trkpt>
      <trkpt lat="45.97094" lon="6.53832">
        <ele>1554</ele>
        <time>2020-07-30T14:27:02Z</time>
      </trkpt>
      <trkpt lat="45.97083" lon="6.53821">
        <ele>1557</ele>
        <time>2020-07-30T14:27:09Z</time>
      </trkpt>
      <trkpt lat="45.97081" lon="6.53822">
        <ele>1558</ele>
        <time>2020-07-30T14:27:10Z</time>
      </trkpt>
      <trkpt lat="45.9708" lon="6.53838">
        <ele>1561</ele>
        <time>2020-07-30T14:27:16Z</time>
      </trkpt>
      <trkpt lat="45.97083" lon="6.53845">
        <ele>1562</ele>
        <time>2020-07-30T14:27:18Z</time>
      </trkpt>
      <trkpt lat="45.97081" lon="6.53856">
        <ele>1566</ele>
        <time>2020-07-30T14:27:22Z</time>
      </trkpt>
      <trkpt lat="45.97086" lon="6.53867">
        <ele>1568</ele>
        <time>2020-07-30T14:27:27Z</time>
      </trkpt>
      <trkpt lat="45.97085" lon="6.53873">
        <ele>1570</ele>
        <time>2020-07-30T14:27:29Z</time>
      </trkpt>
      <trkpt lat="45.97096" lon="6.53884">
        <ele>1569</ele>
        <time>2020-07-30T14:27:36Z</time>
      </trkpt>
      <trkpt lat="45.97098" lon="6.53894">
        <ele>1572</ele>
        <time>2020-07-30T14:27:39Z</time>
      </trkpt>
      <trkpt lat="45.97106" lon="6.53907">
        <ele>1573</ele>
        <time>2020-07-30T14:27:45Z</time>
      </trkpt>
      <trkpt lat="45.97105" lon="6.5391">
        <ele>1574</ele>
        <time>2020-07-30T14:27:47Z</time>
      </trkpt>
      <trkpt lat="45.97096" lon="6.53912">
        <ele>1578</ele>
        <time>2020-07-30T14:27:51Z</time>
      </trkpt>
      <trkpt lat="45.97082" lon="6.53909">
        <ele>1582</ele>
        <time>2020-07-30T14:27:58Z</time>
      </trkpt>
      <trkpt lat="45.97073" lon="6.53904">
        <ele>1584</ele>
        <time>2020-07-30T14:28:03Z</time>
      </trkpt>
      <trkpt lat="45.97068" lon="6.53904">
        <ele>1586</ele>
        <time>2020-07-30T14:28:06Z</time>
      </trkpt>
      <trkpt lat="45.97063" lon="6.53909">
        <ele>1590</ele>
        <time>2020-07-30T14:28:09Z</time>
      </trkpt>
      <trkpt lat="45.9706" lon="6.53909">
        <ele>1591</ele>
        <time>2020-07-30T14:28:10Z</time>
      </trkpt>
      <trkpt lat="45.97049" lon="6.53891">
        <ele>1591</ele>
        <time>2020-07-30T14:28:18Z</time>
      </trkpt>
      <trkpt lat="45.97042" lon="6.53889">
        <ele>1594</ele>
        <time>2020-07-30T14:28:22Z</time>
      </trkpt>
      <trkpt lat="45.9704" lon="6.53884">
        <ele>1593</ele>
        <time>2020-07-30T14:28:24Z</time>
      </trkpt>
      <trkpt lat="45.97024" lon="6.5387">
        <ele>1598</ele>
        <time>2020-07-30T14:28:33Z</time>
      </trkpt>
      <trkpt lat="45.97023" lon="6.53888">
        <ele>1602</ele>
        <time>2020-07-30T14:28:40Z</time>
      </trkpt>
      <trkpt lat="45.97027" lon="6.53909">
        <ele>1604</ele>
        <time>2020-07-30T14:28:47Z</time>
      </trkpt>
      <trkpt lat="45.97025" lon="6.53912">
        <ele>1605</ele>
        <time>2020-07-30T14:28:49Z</time>
      </trkpt>
      <trkpt lat="45.96997" lon="6.53889">
        <ele>1614</ele>
        <time>2020-07-30T14:29:05Z</time>
      </trkpt>
      <trkpt lat="45.96974" lon="6.53882">
        <ele>1625</ele>
        <time>2020-07-30T14:29:17Z</time>
      </trkpt>
      <trkpt lat="45.96956" lon="6.53891">
        <ele>1636</ele>
        <time>2020-07-30T14:29:26Z</time>
      </trkpt>
      <trkpt lat="45.96951" lon="6.53884">
        <ele>1638</ele>
        <time>2020-07-30T14:29:30Z</time>
      </trkpt>
      <trkpt lat="45.96943" lon="6.5388">
        <ele>1641</ele>
        <time>2020-07-30T14:29:34Z</time>
      </trkpt>
      <trkpt lat="45.96944" lon="6.53889">
        <ele>1642</ele>
        <time>2020-07-30T14:29:37Z</time>
      </trkpt>
      <trkpt lat="45.96941" lon="6.5389">
        <ele>1644</ele>
        <time>2020-07-30T14:29:39Z</time>
      </trkpt>
      <trkpt lat="45.96933" lon="6.53883">
        <ele>1647</ele>
        <time>2020-07-30T14:29:43Z</time>
      </trkpt>
      <trkpt lat="45.96928" lon="6.53883">
        <ele>1650</ele>
        <time>2020-07-30T14:29:46Z</time>
      </trkpt>
      <trkpt lat="45.96924" lon="6.53879">
        <ele>1651</ele>
        <time>2020-07-30T14:29:48Z</time>
      </trkpt>
      <trkpt lat="45.96912" lon="6.53876">
        <ele>1657</ele>
        <time>2020-07-30T14:29:54Z</time>
      </trkpt>
      <trkpt lat="45.96906" lon="6.5388">
        <ele>1660</ele>
        <time>2020-07-30T14:29:58Z</time>
      </trkpt>
      <trkpt lat="45.96895" lon="6.53876">
        <ele>1664</ele>
        <time>2020-07-30T14:30:03Z</time>
      </trkpt>
      <trkpt lat="45.96889" lon="6.5387">
        <ele>1666</ele>
        <time>2020-07-30T14:30:07Z</time>
      </trkpt>
      <trkpt lat="45.96873" lon="6.53871">
        <ele>1673</ele>
        <time>2020-07-30T14:30:15Z</time>
      </trkpt>
      <trkpt lat="45.96859" lon="6.53867">
        <ele>1679</ele>
        <time>2020-07-30T14:30:22Z</time>
      </trkpt>
      <trkpt lat="45.96841" lon="6.53869">
        <ele>1688</ele>
        <time>2020-07-30T14:30:31Z</time>
      </trkpt>
      <trkpt lat="45.96835" lon="6.53865">
        <ele>1690</ele>
        <time>2020-07-30T14:30:34Z</time>
      </trkpt>
      <trkpt lat="45.96822" lon="6.5387">
        <ele>1694</ele>
        <time>2020-07-30T14:30:41Z</time>
      </trkpt>
      <trkpt lat="45.96807" lon="6.53861">
        <ele>1698</ele>
        <time>2020-07-30T14:30:49Z</time>
      </trkpt>
      <trkpt lat="45.96793" lon="6.53863">
        <ele>1703</ele>
        <time>2020-07-30T14:30:56Z</time>
      </trkpt>
      <trkpt lat="45.96777" lon="6.53858">
        <ele>1707</ele>
        <time>2020-07-30T14:31:05Z</time>
      </trkpt>
      <trkpt lat="45.96764" lon="6.53861">
        <ele>1711</ele>
        <time>2020-07-30T14:31:11Z</time>
      </trkpt>
      <trkpt lat="45.96761" lon="6.53859">
        <ele>1712</ele>
        <time>2020-07-30T14:31:13Z</time>
      </trkpt>
      <trkpt lat="45.96756" lon="6.53862">
        <ele>1714</ele>
        <time>2020-07-30T14:31:16Z</time>
      </trkpt>
      <trkpt lat="45.96752" lon="6.53861">
        <ele>1715</ele>
        <time>2020-07-30T14:31:18Z</time>
      </trkpt>
      <trkpt lat="45.96717" lon="6.53869">
        <ele>1729</ele>
        <time>2020-07-30T14:31:35Z</time>
      </trkpt>
      <trkpt lat="45.96711" lon="6.53874">
        <ele>1731</ele>
        <time>2020-07-30T14:31:39Z</time>
      </trkpt>
      <trkpt lat="45.967" lon="6.53869">
        <ele>1735</ele>
        <time>2020-07-30T14:31:45Z</time>
      </trkpt>
      <trkpt lat="45.96694" lon="6.53871">
        <ele>1738</ele>
        <time>2020-07-30T14:31:48Z</time>
      </trkpt>
      <trkpt lat="45.96688" lon="6.53869">
        <ele>1740</ele>
        <time>2020-07-30T14:31:51Z</time>
      </trkpt>
      <trkpt lat="45.96684" lon="6.53873">
        <ele>1742</ele>
        <time>2020-07-30T14:31:53Z</time>
      </trkpt>
      <trkpt lat="45.96679" lon="6.53872">
        <ele>1744</ele>
        <time>2020-07-30T14:31:56Z</time>
      </trkpt>
      <trkpt lat="45.96676" lon="6.53874">
        <ele>1745</ele>
        <time>2020-07-30T14:31:57Z</time>
      </trkpt>
      <trkpt lat="45.96668" lon="6.5387">
        <ele>1748</ele>
        <time>2020-07-30T14:32:02Z</time>
      </trkpt>
      <trkpt lat="45.96662" lon="6.53871">
        <ele>1751</ele>
        <time>2020-07-30T14:32:05Z</time>
      </trkpt>
      <trkpt lat="45.96659" lon="6.53867">
        <ele>1752</ele>
        <time>2020-07-30T14:32:07Z</time>
      </trkpt>
      <trkpt lat="45.9664" lon="6.53873">
        <ele>1762</ele>
        <time>2020-07-30T14:32:16Z</time>
      </trkpt>
      <trkpt lat="45.96619" lon="6.53867">
        <ele>1772</ele>
        <time>2020-07-30T14:32:27Z</time>
      </trkpt>
      <trkpt lat="45.96608" lon="6.53869">
        <ele>1778</ele>
        <time>2020-07-30T14:32:33Z</time>
      </trkpt>
      <trkpt lat="45.96591" lon="6.53862">
        <ele>1786</ele>
        <time>2020-07-30T14:32:41Z</time>
      </trkpt>
      <trkpt lat="45.96574" lon="6.53868">
        <ele>1797</ele>
        <time>2020-07-30T14:32:50Z</time>
      </trkpt>
      <trkpt lat="45.96567" lon="6.53867">
        <ele>1801</ele>
        <time>2020-07-30T14:32:54Z</time>
      </trkpt>
      <trkpt lat="45.96556" lon="6.5386">
        <ele>1809</ele>
        <time>2020-07-30T14:33:00Z</time>
      </trkpt>
      <trkpt lat="45.96541" lon="6.5386">
        <ele>1819</ele>
        <time>2020-07-30T14:33:07Z</time>
      </trkpt>
      <trkpt lat="45.96529" lon="6.53863">
        <ele>1827</ele>
        <time>2020-07-30T14:33:13Z</time>
      </trkpt>
      <trkpt lat="45.96519" lon="6.53859">
        <ele>1833</ele>
        <time>2020-07-30T14:33:19Z</time>
      </trkpt>
      <trkpt lat="45.96503" lon="6.53859">
        <ele>1844</ele>
        <time>2020-07-30T14:33:27Z</time>
      </trkpt>
      <trkpt lat="45.96498" lon="6.53861">
        <ele>1848</ele>
        <time>2020-07-30T14:33:29Z</time>
      </trkpt>
      <trkpt lat="45.96482" lon="6.53851">
        <ele>1861</ele>
        <time>2020-07-30T14:33:38Z</time>
      </trkpt>
      <trkpt lat="45.96473" lon="6.5385">
        <ele>1869</ele>
        <time>2020-07-30T14:33:42Z</time>
      </trkpt>
      <trkpt lat="45.96469" lon="6.53845">
        <ele>1872</ele>
        <time>2020-07-30T14:33:45Z</time>
      </trkpt>
      <trkpt lat="45.96462" lon="6.53846">
        <ele>1878</ele>
        <time>2020-07-30T14:33:49Z</time>
      </trkpt>
      <trkpt lat="45.96451" lon="6.53838">
        <ele>1888</ele>
        <time>2020-07-30T14:33:55Z</time>
      </trkpt>
      <trkpt lat="45.96444" lon="6.53838">
        <ele>1894</ele>
        <time>2020-07-30T14:33:58Z</time>
      </trkpt>
      <trkpt lat="45.9643" lon="6.53826">
        <ele>1907</ele>
        <time>2020-07-30T14:34:06Z</time>
      </trkpt>
      <trkpt lat="45.96415" lon="6.53802">
        <ele>1920</ele>
        <time>2020-07-30T14:34:18Z</time>
      </trkpt>
      <trkpt lat="45.96413" lon="6.53805">
        <ele>1919</ele>
        <time>2020-07-30T14:34:19Z</time>
      </trkpt>
      <trkpt lat="45.96407" lon="6.53803">
        <ele>1919</ele>
        <time>2020-07-30T14:34:22Z</time>
      </trkpt>
      <trkpt lat="45.96404" lon="6.53805">
        <ele>1919</ele>
        <time>2020-07-30T14:34:24Z</time>
      </trkpt>
      <trkpt lat="45.964" lon="6.53814">
        <ele>1918</ele>
        <time>2020-07-30T14:34:28Z</time>
      </trkpt>
      <trkpt lat="45.96397" lon="6.53814">
        <ele>1918</ele>
        <time>2020-07-30T14:34:29Z</time>
      </trkpt>
      <trkpt lat="45.96396" lon="6.5381">
        <ele>1918</ele>
        <time>2020-07-30T14:34:31Z</time>
      </trkpt>
      <trkpt lat="45.96393" lon="6.53813">
        <ele>1918</ele>
        <time>2020-07-30T14:34:32Z</time>
      </trkpt>
      <trkpt lat="45.96387" lon="6.53806">
        <ele>1918</ele>
        <time>2020-07-30T14:34:36Z</time>
      </trkpt>
      <trkpt lat="45.96383" lon="6.53808">
        <ele>1918</ele>
        <time>2020-07-30T14:34:38Z</time>
      </trkpt>
      <trkpt lat="45.96382" lon="6.53794">
        <ele>1917</ele>
        <time>2020-07-30T14:34:43Z</time>
      </trkpt>
    </trkseg>
  </trk>
  <trk>
    <name><![CDATA[J1 traversée aravis_3]]></name>
    <trkseg>
      <trkpt lat="45.80655" lon="6.39218">
        <ele>1481</ele>
        <time>2020-07-30T19:08:01Z</time>
      </trkpt>
      <trkpt lat="45.80672" lon="6.39251">
        <ele>1483</ele>
        <time>2020-07-30T19:07:46Z</time>
      </trkpt>
      <trkpt lat="45.80687" lon="6.39269">
        <ele>1484</ele>
        <time>2020-07-30T19:07:37Z</time>
      </trkpt>
      <trkpt lat="45.807" lon="6.3928">
        <ele>1484</ele>
        <time>2020-07-30T19:07:29Z</time>
      </trkpt>
      <trkpt lat="45.80724" lon="6.39294">
        <ele>1482</ele>
        <time>2020-07-30T19:07:16Z</time>
      </trkpt>
      <trkpt lat="45.80761" lon="6.39435">
        <ele>1508</ele>
        <time>2020-07-30T19:06:24Z</time>
      </trkpt>
      <trkpt lat="45.80769" lon="6.39493">
        <ele>1514</ele>
        <time>2020-07-30T19:06:03Z</time>
      </trkpt>
      <trkpt lat="45.80768" lon="6.39506">
        <ele>1517</ele>
        <time>2020-07-30T19:05:58Z</time>
      </trkpt>
      <trkpt lat="45.80763" lon="6.39514">
        <ele>1519</ele>
        <time>2020-07-30T19:05:55Z</time>
      </trkpt>
      <trkpt lat="45.80757" lon="6.39513">
        <ele>1521</ele>
        <time>2020-07-30T19:05:52Z</time>
      </trkpt>
      <trkpt lat="45.80743" lon="6.39467">
        <ele>1518</ele>
        <time>2020-07-30T19:05:34Z</time>
      </trkpt>
      <trkpt lat="45.80734" lon="6.39452">
        <ele>1518</ele>
        <time>2020-07-30T19:05:27Z</time>
      </trkpt>
      <trkpt lat="45.80726" lon="6.39444">
        <ele>1519</ele>
        <time>2020-07-30T19:05:22Z</time>
      </trkpt>
      <trkpt lat="45.80717" lon="6.39442">
        <ele>1520</ele>
        <time>2020-07-30T19:05:18Z</time>
      </trkpt>
      <trkpt lat="45.80708" lon="6.39445">
        <ele>1523</ele>
        <time>2020-07-30T19:05:13Z</time>
      </trkpt>
      <trkpt lat="45.80691" lon="6.39467">
        <ele>1532</ele>
        <time>2020-07-30T19:05:02Z</time>
      </trkpt>
      <trkpt lat="45.80688" lon="6.39477">
        <ele>1535</ele>
        <time>2020-07-30T19:04:58Z</time>
      </trkpt>
      <trkpt lat="45.80692" lon="6.39486">
        <ele>1535</ele>
        <time>2020-07-30T19:04:54Z</time>
      </trkpt>
      <trkpt lat="45.80707" lon="6.39506">
        <ele>1535</ele>
        <time>2020-07-30T19:04:44Z</time>
      </trkpt>
      <trkpt lat="45.80713" lon="6.39529">
        <ele>1537</ele>
        <time>2020-07-30T19:04:35Z</time>
      </trkpt>
      <trkpt lat="45.80709" lon="6.39533">
        <ele>1539</ele>
        <time>2020-07-30T19:04:33Z</time>
      </trkpt>
      <trkpt lat="45.8069" lon="6.39529">
        <ele>1544</ele>
        <time>2020-07-30T19:04:23Z</time>
      </trkpt>
      <trkpt lat="45.80681" lon="6.39533">
        <ele>1548</ele>
        <time>2020-07-30T19:04:19Z</time>
      </trkpt>
      <trkpt lat="45.80672" lon="6.39547">
        <ele>1554</ele>
        <time>2020-07-30T19:04:12Z</time>
      </trkpt>
      <trkpt lat="45.80668" lon="6.39558">
        <ele>1558</ele>
        <time>2020-07-30T19:04:08Z</time>
      </trkpt>
      <trkpt lat="45.80667" lon="6.39582">
        <ele>1564</ele>
        <time>2020-07-30T19:03:59Z</time>
      </trkpt>
      <trkpt lat="45.80677" lon="6.3965">
        <ele>1565</ele>
        <time>2020-07-30T19:03:35Z</time>
      </trkpt>
      <trkpt lat="45.80677" lon="6.39664">
        <ele>1567</ele>
        <time>2020-07-30T19:03:30Z</time>
      </trkpt>
      <trkpt lat="45.80673" lon="6.39673">
        <ele>1569</ele>
        <time>2020-07-30T19:03:26Z</time>
      </trkpt>
      <trkpt lat="45.80664" lon="6.39673">
        <ele>1571</ele>
        <time>2020-07-30T19:03:22Z</time>
      </trkpt>
      <trkpt lat="45.80656" lon="6.39669">
        <ele>1573</ele>
        <time>2020-07-30T19:03:18Z</time>
      </trkpt>
      <trkpt lat="45.80638" lon="6.39658">
        <ele>1578</ele>
        <time>2020-07-30T19:03:08Z</time>
      </trkpt>
      <trkpt lat="45.80627" lon="6.39646">
        <ele>1580</ele>
        <time>2020-07-30T19:03:01Z</time>
      </trkpt>
      <trkpt lat="45.8061" lon="6.39637">
        <ele>1584</ele>
        <time>2020-07-30T19:02:52Z</time>
      </trkpt>
      <trkpt lat="45.80581" lon="6.39631">
        <ele>1591</ele>
        <time>2020-07-30T19:02:37Z</time>
      </trkpt>
      <trkpt lat="45.80573" lon="6.39636">
        <ele>1594</ele>
        <time>2020-07-30T19:02:33Z</time>
      </trkpt>
      <trkpt lat="45.80571" lon="6.39647">
        <ele>1597</ele>
        <time>2020-07-30T19:02:29Z</time>
      </trkpt>
      <trkpt lat="45.80575" lon="6.39698">
        <ele>1604</ele>
        <time>2020-07-30T19:02:11Z</time>
      </trkpt>
      <trkpt lat="45.80583" lon="6.39738">
        <ele>1608</ele>
        <time>2020-07-30T19:01:56Z</time>
      </trkpt>
      <trkpt lat="45.80579" lon="6.39744">
        <ele>1610</ele>
        <time>2020-07-30T19:01:53Z</time>
      </trkpt>
      <trkpt lat="45.80538" lon="6.39727">
        <ele>1619</ele>
        <time>2020-07-30T19:01:32Z</time>
      </trkpt>
      <trkpt lat="45.80532" lon="6.39732">
        <ele>1621</ele>
        <time>2020-07-30T19:01:29Z</time>
      </trkpt>
      <trkpt lat="45.80531" lon="6.39743">
        <ele>1623</ele>
        <time>2020-07-30T19:01:25Z</time>
      </trkpt>
      <trkpt lat="45.80541" lon="6.39761">
        <ele>1622</ele>
        <time>2020-07-30T19:01:17Z</time>
      </trkpt>
      <trkpt lat="45.8055" lon="6.39796">
        <ele>1624</ele>
        <time>2020-07-30T19:01:04Z</time>
      </trkpt>
      <trkpt lat="45.80542" lon="6.39873">
        <ele>1634</ele>
        <time>2020-07-30T19:00:37Z</time>
      </trkpt>
      <trkpt lat="45.80535" lon="6.39905">
        <ele>1638</ele>
        <time>2020-07-30T19:00:25Z</time>
      </trkpt>
      <trkpt lat="45.80535" lon="6.39918">
        <ele>1640</ele>
        <time>2020-07-30T19:00:20Z</time>
      </trkpt>
      <trkpt lat="45.80544" lon="6.39979">
        <ele>1648</ele>
        <time>2020-07-30T18:59:59Z</time>
      </trkpt>
      <trkpt lat="45.80543" lon="6.39991">
        <ele>1651</ele>
        <time>2020-07-30T18:59:54Z</time>
      </trkpt>
      <trkpt lat="45.80537" lon="6.39996">
        <ele>1652</ele>
        <time>2020-07-30T18:59:51Z</time>
      </trkpt>
      <trkpt lat="45.80529" lon="6.39992">
        <ele>1653</ele>
        <time>2020-07-30T18:59:47Z</time>
      </trkpt>
      <trkpt lat="45.8048" lon="6.39925">
        <ele>1650</ele>
        <time>2020-07-30T18:59:13Z</time>
      </trkpt>
      <trkpt lat="45.80476" lon="6.39925">
        <ele>1651</ele>
        <time>2020-07-30T18:59:11Z</time>
      </trkpt>
      <trkpt lat="45.80454" lon="6.39966">
        <ele>1657</ele>
        <time>2020-07-30T18:58:53Z</time>
      </trkpt>
      <trkpt lat="45.80479" lon="6.40001">
        <ele>1659</ele>
        <time>2020-07-30T18:58:35Z</time>
      </trkpt>
      <trkpt lat="45.80485" lon="6.40016">
        <ele>1660</ele>
        <time>2020-07-30T18:58:29Z</time>
      </trkpt>
      <trkpt lat="45.80509" lon="6.40109">
        <ele>1671</ele>
        <time>2020-07-30T18:57:55Z</time>
      </trkpt>
      <trkpt lat="45.80534" lon="6.40166">
        <ele>1675</ele>
        <time>2020-07-30T18:57:31Z</time>
      </trkpt>
      <trkpt lat="45.80539" lon="6.40183">
        <ele>1676</ele>
        <time>2020-07-30T18:57:25Z</time>
      </trkpt>
      <trkpt lat="45.80556" lon="6.4038">
        <ele>1705</ele>
        <time>2020-07-30T18:56:15Z</time>
      </trkpt>
      <trkpt lat="45.80553" lon="6.40388">
        <ele>1706</ele>
        <time>2020-07-30T18:56:12Z</time>
      </trkpt>
      <trkpt lat="45.80539" lon="6.40401">
        <ele>1709</ele>
        <time>2020-07-30T18:56:04Z</time>
      </trkpt>
      <trkpt lat="45.80534" lon="6.40409">
        <ele>1710</ele>
        <time>2020-07-30T18:56:00Z</time>
      </trkpt>
      <trkpt lat="45.80529" lon="6.40429">
        <ele>1717</ele>
        <time>2020-07-30T18:55:53Z</time>
      </trkpt>
      <trkpt lat="45.80518" lon="6.40457">
        <ele>1726</ele>
        <time>2020-07-30T18:55:42Z</time>
      </trkpt>
      <trkpt lat="45.80493" lon="6.40502">
        <ele>1736</ele>
        <time>2020-07-30T18:55:21Z</time>
      </trkpt>
      <trkpt lat="45.80491" lon="6.40512">
        <ele>1738</ele>
        <time>2020-07-30T18:55:18Z</time>
      </trkpt>
      <trkpt lat="45.80492" lon="6.40545">
        <ele>1748</ele>
        <time>2020-07-30T18:55:06Z</time>
      </trkpt>
      <trkpt lat="45.80489" lon="6.40593">
        <ele>1760</ele>
        <time>2020-07-30T18:54:50Z</time>
      </trkpt>
      <trkpt lat="45.80475" lon="6.40637">
        <ele>1767</ele>
        <time>2020-07-30T18:54:33Z</time>
      </trkpt>
      <trkpt lat="45.8047" lon="6.4069">
        <ele>1780</ele>
        <time>2020-07-30T18:54:14Z</time>
      </trkpt>
      <trkpt lat="45.80472" lon="6.40738">
        <ele>1796</ele>
        <time>2020-07-30T18:53:57Z</time>
      </trkpt>
      <trkpt lat="45.80469" lon="6.40762">
        <ele>1802</ele>
        <time>2020-07-30T18:53:49Z</time>
      </trkpt>
      <trkpt lat="45.8047" lon="6.40812">
        <ele>1818</ele>
        <time>2020-07-30T18:53:31Z</time>
      </trkpt>
      <trkpt lat="45.80467" lon="6.40819">
        <ele>1819</ele>
        <time>2020-07-30T18:53:28Z</time>
      </trkpt>
      <trkpt lat="45.80471" lon="6.40841">
        <ele>1827</ele>
        <time>2020-07-30T18:53:20Z</time>
      </trkpt>
      <trkpt lat="45.80474" lon="6.40882">
        <ele>1837</ele>
        <time>2020-07-30T18:53:06Z</time>
      </trkpt>
      <trkpt lat="45.80485" lon="6.40922">
        <ele>1847</ele>
        <time>2020-07-30T18:52:51Z</time>
      </trkpt>
      <trkpt lat="45.80485" lon="6.40925">
        <ele>1848</ele>
        <time>2020-07-30T18:52:50Z</time>
      </trkpt>
      <trkpt lat="45.80478" lon="6.40934">
        <ele>1849</ele>
        <time>2020-07-30T18:52:45Z</time>
      </trkpt>
      <trkpt lat="45.80481" lon="6.40957">
        <ele>1855</ele>
        <time>2020-07-30T18:52:37Z</time>
      </trkpt>
      <trkpt lat="45.80477" lon="6.40977">
        <ele>1860</ele>
        <time>2020-07-30T18:52:30Z</time>
      </trkpt>
      <trkpt lat="45.80471" lon="6.40982">
        <ele>1862</ele>
        <time>2020-07-30T18:52:26Z</time>
      </trkpt>
      <trkpt lat="45.80467" lon="6.40982">
        <ele>1862</ele>
        <time>2020-07-30T18:52:24Z</time>
      </trkpt>
      <trkpt lat="45.80456" lon="6.40996">
        <ele>1867</ele>
        <time>2020-07-30T18:52:17Z</time>
      </trkpt>
      <trkpt lat="45.80452" lon="6.40996">
        <ele>1868</ele>
        <time>2020-07-30T18:52:15Z</time>
      </trkpt>
      <trkpt lat="45.80449" lon="6.41008">
        <ele>1873</ele>
        <time>2020-07-30T18:52:11Z</time>
      </trkpt>
      <trkpt lat="45.80447" lon="6.41008">
        <ele>1873</ele>
        <time>2020-07-30T18:52:10Z</time>
      </trkpt>
      <trkpt lat="45.80447" lon="6.4103">
        <ele>1883</ele>
        <time>2020-07-30T18:52:02Z</time>
      </trkpt>
      <trkpt lat="45.80443" lon="6.41037">
        <ele>1887</ele>
        <time>2020-07-30T18:51:59Z</time>
      </trkpt>
      <trkpt lat="45.80429" lon="6.41043">
        <ele>1892</ele>
        <time>2020-07-30T18:51:51Z</time>
      </trkpt>
      <trkpt lat="45.80422" lon="6.41061">
        <ele>1903</ele>
        <time>2020-07-30T18:51:44Z</time>
      </trkpt>
      <trkpt lat="45.80417" lon="6.41065">
        <ele>1906</ele>
        <time>2020-07-30T18:51:41Z</time>
      </trkpt>
      <trkpt lat="45.804" lon="6.41067">
        <ele>1911</ele>
        <time>2020-07-30T18:51:33Z</time>
      </trkpt>
      <trkpt lat="45.80381" lon="6.41081">
        <ele>1924</ele>
        <time>2020-07-30T18:51:22Z</time>
      </trkpt>
      <trkpt lat="45.80373" lon="6.41081">
        <ele>1926</ele>
        <time>2020-07-30T18:51:18Z</time>
      </trkpt>
      <trkpt lat="45.80358" lon="6.41072">
        <ele>1926</ele>
        <time>2020-07-30T18:51:10Z</time>
      </trkpt>
      <trkpt lat="45.80356" lon="6.41075">
        <ele>1928</ele>
        <time>2020-07-30T18:51:09Z</time>
      </trkpt>
      <trkpt lat="45.80362" lon="6.41098">
        <ele>1938</ele>
        <time>2020-07-30T18:51:00Z</time>
      </trkpt>
      <trkpt lat="45.80357" lon="6.411">
        <ele>1940</ele>
        <time>2020-07-30T18:50:57Z</time>
      </trkpt>
      <trkpt lat="45.80366" lon="6.41152">
        <ele>1963</ele>
        <time>2020-07-30T18:50:39Z</time>
      </trkpt>
      <trkpt lat="45.80379" lon="6.41156">
        <ele>1961</ele>
        <time>2020-07-30T18:50:32Z</time>
      </trkpt>
      <trkpt lat="45.80392" lon="6.41165">
        <ele>1961</ele>
        <time>2020-07-30T18:50:25Z</time>
      </trkpt>
      <trkpt lat="45.80394" lon="6.41173">
        <ele>1965</ele>
        <time>2020-07-30T18:50:22Z</time>
      </trkpt>
      <trkpt lat="45.80398" lon="6.41177">
        <ele>1966</ele>
        <time>2020-07-30T18:50:19Z</time>
      </trkpt>
      <trkpt lat="45.80388" lon="6.41194">
        <ele>1977</ele>
        <time>2020-07-30T18:50:12Z</time>
      </trkpt>
      <trkpt lat="45.80392" lon="6.41208">
        <ele>1983</ele>
        <time>2020-07-30T18:50:06Z</time>
      </trkpt>
      <trkpt lat="45.80384" lon="6.41218">
        <ele>1990</ele>
        <time>2020-07-30T18:50:01Z</time>
      </trkpt>
      <trkpt lat="45.80388" lon="6.41226">
        <ele>1993</ele>
        <time>2020-07-30T18:49:58Z</time>
      </trkpt>
      <trkpt lat="45.80384" lon="6.41234">
        <ele>1998</ele>
        <time>2020-07-30T18:49:54Z</time>
      </trkpt>
      <trkpt lat="45.80389" lon="6.41239">
        <ele>2000</ele>
        <time>2020-07-30T18:49:51Z</time>
      </trkpt>
      <trkpt lat="45.80383" lon="6.41243">
        <ele>2003</ele>
        <time>2020-07-30T18:49:48Z</time>
      </trkpt>
      <trkpt lat="45.80377" lon="6.41261">
        <ele>2012</ele>
        <time>2020-07-30T18:49:41Z</time>
      </trkpt>
      <trkpt lat="45.80369" lon="6.41276">
        <ele>2019</ele>
        <time>2020-07-30T18:49:34Z</time>
      </trkpt>
      <trkpt lat="45.80361" lon="6.41285">
        <ele>2023</ele>
        <time>2020-07-30T18:49:29Z</time>
      </trkpt>
      <trkpt lat="45.80346" lon="6.41316">
        <ele>2034</ele>
        <time>2020-07-30T18:49:16Z</time>
      </trkpt>
      <trkpt lat="45.80353" lon="6.41323">
        <ele>2037</ele>
        <time>2020-07-30T18:49:12Z</time>
      </trkpt>
      <trkpt lat="45.80347" lon="6.41333">
        <ele>2040</ele>
        <time>2020-07-30T18:49:07Z</time>
      </trkpt>
      <trkpt lat="45.80342" lon="6.4135">
        <ele>2045</ele>
        <time>2020-07-30T18:49:01Z</time>
      </trkpt>
      <trkpt lat="45.80334" lon="6.41359">
        <ele>2047</ele>
        <time>2020-07-30T18:48:56Z</time>
      </trkpt>
      <trkpt lat="45.80336" lon="6.41364">
        <ele>2050</ele>
        <time>2020-07-30T18:48:54Z</time>
      </trkpt>
      <trkpt lat="45.80329" lon="6.4137">
        <ele>2052</ele>
        <time>2020-07-30T18:48:50Z</time>
      </trkpt>
      <trkpt lat="45.8033" lon="6.41375">
        <ele>2054</ele>
        <time>2020-07-30T18:48:48Z</time>
      </trkpt>
      <trkpt lat="45.80324" lon="6.41384">
        <ele>2059</ele>
        <time>2020-07-30T18:48:43Z</time>
      </trkpt>
      <trkpt lat="45.80324" lon="6.41393">
        <ele>2062</ele>
        <time>2020-07-30T18:48:40Z</time>
      </trkpt>
      <trkpt lat="45.80329" lon="6.41399">
        <ele>2064</ele>
        <time>2020-07-30T18:48:37Z</time>
      </trkpt>
      <trkpt lat="45.80334" lon="6.41413">
        <ele>2069</ele>
        <time>2020-07-30T18:48:32Z</time>
      </trkpt>
      <trkpt lat="45.80332" lon="6.41429">
        <ele>2076</ele>
        <time>2020-07-30T18:48:26Z</time>
      </trkpt>
      <trkpt lat="45.80323" lon="6.41449">
        <ele>2086</ele>
        <time>2020-07-30T18:48:18Z</time>
      </trkpt>
      <trkpt lat="45.80325" lon="6.41453">
        <ele>2087</ele>
        <time>2020-07-30T18:48:16Z</time>
      </trkpt>
      <trkpt lat="45.8032" lon="6.4146">
        <ele>2091</ele>
        <time>2020-07-30T18:48:12Z</time>
      </trkpt>
      <trkpt lat="45.80324" lon="6.41468">
        <ele>2094</ele>
        <time>2020-07-30T18:48:09Z</time>
      </trkpt>
      <trkpt lat="45.80323" lon="6.41476">
        <ele>2097</ele>
        <time>2020-07-30T18:48:06Z</time>
      </trkpt>
      <trkpt lat="45.8033" lon="6.41486">
        <ele>2102</ele>
        <time>2020-07-30T18:48:01Z</time>
      </trkpt>
      <trkpt lat="45.80325" lon="6.41494">
        <ele>2105</ele>
        <time>2020-07-30T18:47:57Z</time>
      </trkpt>
      <trkpt lat="45.80327" lon="6.41503">
        <ele>2109</ele>
        <time>2020-07-30T18:47:54Z</time>
      </trkpt>
      <trkpt lat="45.80322" lon="6.41509">
        <ele>2112</ele>
        <time>2020-07-30T18:47:51Z</time>
      </trkpt>
      <trkpt lat="45.80322" lon="6.41514">
        <ele>2115</ele>
        <time>2020-07-30T18:47:49Z</time>
      </trkpt>
      <trkpt lat="45.80332" lon="6.41543">
        <ele>2129</ele>
        <time>2020-07-30T18:47:38Z</time>
      </trkpt>
      <trkpt lat="45.80343" lon="6.41548">
        <ele>2134</ele>
        <time>2020-07-30T18:47:32Z</time>
      </trkpt>
      <trkpt lat="45.80345" lon="6.41552">
        <ele>2137</ele>
        <time>2020-07-30T18:47:30Z</time>
      </trkpt>
      <trkpt lat="45.80343" lon="6.41569">
        <ele>2145</ele>
        <time>2020-07-30T18:47:24Z</time>
      </trkpt>
      <trkpt lat="45.80368" lon="6.41569">
        <ele>2154</ele>
        <time>2020-07-30T18:47:12Z</time>
      </trkpt>
      <trkpt lat="45.80361" lon="6.41583">
        <ele>2158</ele>
        <time>2020-07-30T18:47:06Z</time>
      </trkpt>
      <trkpt lat="45.80361" lon="6.41602">
        <ele>2168</ele>
        <time>2020-07-30T18:46:59Z</time>
      </trkpt>
      <trkpt lat="45.80353" lon="6.41611">
        <ele>2170</ele>
        <time>2020-07-30T18:46:54Z</time>
      </trkpt>
      <trkpt lat="45.80343" lon="6.41615">
        <ele>2168</ele>
        <time>2020-07-30T18:46:49Z</time>
      </trkpt>
      <trkpt lat="45.80333" lon="6.41631">
        <ele>2173</ele>
        <time>2020-07-30T18:46:41Z</time>
      </trkpt>
      <trkpt lat="45.80327" lon="6.41636">
        <ele>2176</ele>
        <time>2020-07-30T18:46:38Z</time>
      </trkpt>
      <trkpt lat="45.80333" lon="6.41642">
        <ele>2179</ele>
        <time>2020-07-30T18:46:34Z</time>
      </trkpt>
      <trkpt lat="45.80342" lon="6.41644">
        <ele>2183</ele>
        <time>2020-07-30T18:46:30Z</time>
      </trkpt>
      <trkpt lat="45.80331" lon="6.41659">
        <ele>2188</ele>
        <time>2020-07-30T18:46:22Z</time>
      </trkpt>
      <trkpt lat="45.8033" lon="6.41665">
        <ele>2191</ele>
        <time>2020-07-30T18:46:20Z</time>
      </trkpt>
      <trkpt lat="45.80339" lon="6.41667">
        <ele>2194</ele>
        <time>2020-07-30T18:46:15Z</time>
      </trkpt>
      <trkpt lat="45.80345" lon="6.41675">
        <ele>2200</ele>
        <time>2020-07-30T18:46:11Z</time>
      </trkpt>
      <trkpt lat="45.80336" lon="6.4168">
        <ele>2200</ele>
        <time>2020-07-30T18:46:06Z</time>
      </trkpt>
      <trkpt lat="45.80339" lon="6.41684">
        <ele>2204</ele>
        <time>2020-07-30T18:46:04Z</time>
      </trkpt>
      <trkpt lat="45.80364" lon="6.41694">
        <ele>2217</ele>
        <time>2020-07-30T18:45:51Z</time>
      </trkpt>
      <trkpt lat="45.80374" lon="6.41694">
        <ele>2221</ele>
        <time>2020-07-30T18:45:46Z</time>
      </trkpt>
      <trkpt lat="45.80393" lon="6.41687">
        <ele>2223</ele>
        <time>2020-07-30T18:45:37Z</time>
      </trkpt>
      <trkpt lat="45.80414" lon="6.41684">
        <ele>2228</ele>
        <time>2020-07-30T18:45:26Z</time>
      </trkpt>
      <trkpt lat="45.80407" lon="6.41703">
        <ele>2236</ele>
        <time>2020-07-30T18:45:19Z</time>
      </trkpt>
      <trkpt lat="45.80404" lon="6.4172">
        <ele>2245</ele>
        <time>2020-07-30T18:45:12Z</time>
      </trkpt>
      <trkpt lat="45.80405" lon="6.41726">
        <ele>2249</ele>
        <time>2020-07-30T18:45:10Z</time>
      </trkpt>
      <trkpt lat="45.80408" lon="6.41728">
        <ele>2251</ele>
        <time>2020-07-30T18:45:09Z</time>
      </trkpt>
      <trkpt lat="45.80413" lon="6.41724">
        <ele>2250</ele>
        <time>2020-07-30T18:45:06Z</time>
      </trkpt>
      <trkpt lat="45.80429" lon="6.41722">
        <ele>2249</ele>
        <time>2020-07-30T18:44:58Z</time>
      </trkpt>
      <trkpt lat="45.80435" lon="6.41724">
        <ele>2250</ele>
        <time>2020-07-30T18:44:55Z</time>
      </trkpt>
      <trkpt lat="45.80431" lon="6.41737">
        <ele>2258</ele>
        <time>2020-07-30T18:44:50Z</time>
      </trkpt>
      <trkpt lat="45.80412" lon="6.41772">
        <ele>2276</ele>
        <time>2020-07-30T18:44:34Z</time>
      </trkpt>
      <trkpt lat="45.80415" lon="6.41773">
        <ele>2278</ele>
        <time>2020-07-30T18:44:33Z</time>
      </trkpt>
      <trkpt lat="45.80463" lon="6.41763">
        <ele>2267</ele>
        <time>2020-07-30T18:44:08Z</time>
      </trkpt>
      <trkpt lat="45.80447" lon="6.41791">
        <ele>2279</ele>
        <time>2020-07-30T18:43:56Z</time>
      </trkpt>
      <trkpt lat="45.80421" lon="6.41824">
        <ele>2303</ele>
        <time>2020-07-30T18:43:38Z</time>
      </trkpt>
      <trkpt lat="45.80422" lon="6.41826">
        <ele>2304</ele>
        <time>2020-07-30T18:43:38Z</time>
      </trkpt>
      <trkpt lat="45.80427" lon="6.41826">
        <ele>2301</ele>
        <time>2020-07-30T18:43:35Z</time>
      </trkpt>
      <trkpt lat="45.80468" lon="6.41818">
        <ele>2280</ele>
        <time>2020-07-30T18:43:14Z</time>
      </trkpt>
      <trkpt lat="45.80475" lon="6.41819">
        <ele>2277</ele>
        <time>2020-07-30T18:43:11Z</time>
      </trkpt>
      <trkpt lat="45.80475" lon="6.41821">
        <ele>2277</ele>
        <time>2020-07-30T18:43:10Z</time>
      </trkpt>
      <trkpt lat="45.80451" lon="6.41842">
        <ele>2289</ele>
        <time>2020-07-30T18:42:56Z</time>
      </trkpt>
      <trkpt lat="45.80405" lon="6.41871">
        <ele>2298</ele>
        <time>2020-07-30T18:42:31Z</time>
      </trkpt>
      <trkpt lat="45.80369" lon="6.419">
        <ele>2302</ele>
        <time>2020-07-30T18:42:10Z</time>
      </trkpt>
      <trkpt lat="45.80354" lon="6.41908">
        <ele>2308</ele>
        <time>2020-07-30T18:42:02Z</time>
      </trkpt>
      <trkpt lat="45.80331" lon="6.41931">
        <ele>2319</ele>
        <time>2020-07-30T18:41:48Z</time>
      </trkpt>
      <trkpt lat="45.80314" lon="6.4194">
        <ele>2325</ele>
        <time>2020-07-30T18:41:39Z</time>
      </trkpt>
      <trkpt lat="45.80289" lon="6.41961">
        <ele>2336</ele>
        <time>2020-07-30T18:41:25Z</time>
      </trkpt>
      <trkpt lat="45.80265" lon="6.41976">
        <ele>2348</ele>
        <time>2020-07-30T18:41:12Z</time>
      </trkpt>
      <trkpt lat="45.80235" lon="6.42012">
        <ele>2354</ele>
        <time>2020-07-30T18:40:52Z</time>
      </trkpt>
      <trkpt lat="45.80233" lon="6.42074">
        <ele>2342</ele>
        <time>2020-07-30T18:40:30Z</time>
      </trkpt>
      <trkpt lat="45.80228" lon="6.42092">
        <ele>2337</ele>
        <time>2020-07-30T18:40:24Z</time>
      </trkpt>
      <trkpt lat="45.80226" lon="6.4212">
        <ele>2331</ele>
        <time>2020-07-30T18:40:14Z</time>
      </trkpt>
      <trkpt lat="45.80228" lon="6.42127">
        <ele>2330</ele>
        <time>2020-07-30T18:40:11Z</time>
      </trkpt>
      <trkpt lat="45.80226" lon="6.42161">
        <ele>2322</ele>
        <time>2020-07-30T18:39:59Z</time>
      </trkpt>
      <trkpt lat="45.80218" lon="6.42187">
        <ele>2313</ele>
        <time>2020-07-30T18:39:49Z</time>
      </trkpt>
      <trkpt lat="45.80217" lon="6.422">
        <ele>2309</ele>
        <time>2020-07-30T18:39:45Z</time>
      </trkpt>
      <trkpt lat="45.80224" lon="6.42224">
        <ele>2303</ele>
        <time>2020-07-30T18:39:36Z</time>
      </trkpt>
      <trkpt lat="45.80222" lon="6.42225">
        <ele>2302</ele>
        <time>2020-07-30T18:39:35Z</time>
      </trkpt>
      <trkpt lat="45.80222" lon="6.42238">
        <ele>2298</ele>
        <time>2020-07-30T18:39:30Z</time>
      </trkpt>
      <trkpt lat="45.80225" lon="6.4224">
        <ele>2299</ele>
        <time>2020-07-30T18:39:28Z</time>
      </trkpt>
      <trkpt lat="45.80223" lon="6.4225">
        <ele>2295</ele>
        <time>2020-07-30T18:39:25Z</time>
      </trkpt>
      <trkpt lat="45.80224" lon="6.42314">
        <ele>2274</ele>
        <time>2020-07-30T18:39:02Z</time>
      </trkpt>
      <trkpt lat="45.80222" lon="6.42317">
        <ele>2273</ele>
        <time>2020-07-30T18:39:01Z</time>
      </trkpt>
      <trkpt lat="45.80226" lon="6.42321">
        <ele>2273</ele>
        <time>2020-07-30T18:38:59Z</time>
      </trkpt>
      <trkpt lat="45.80228" lon="6.42331">
        <ele>2271</ele>
        <time>2020-07-30T18:38:55Z</time>
      </trkpt>
      <trkpt lat="45.80233" lon="6.42335">
        <ele>2272</ele>
        <time>2020-07-30T18:38:52Z</time>
      </trkpt>
      <trkpt lat="45.80237" lon="6.42351">
        <ele>2268</ele>
        <time>2020-07-30T18:38:46Z</time>
      </trkpt>
      <trkpt lat="45.80245" lon="6.42359">
        <ele>2270</ele>
        <time>2020-07-30T18:38:41Z</time>
      </trkpt>
      <trkpt lat="45.80249" lon="6.4236">
        <ele>2271</ele>
        <time>2020-07-30T18:38:39Z</time>
      </trkpt>
      <trkpt lat="45.80258" lon="6.42371">
        <ele>2264</ele>
        <time>2020-07-30T18:38:33Z</time>
      </trkpt>
      <trkpt lat="45.80269" lon="6.4239">
        <ele>2254</ele>
        <time>2020-07-30T18:38:25Z</time>
      </trkpt>
      <trkpt lat="45.80279" lon="6.42399">
        <ele>2248</ele>
        <time>2020-07-30T18:38:19Z</time>
      </trkpt>
      <trkpt lat="45.8028" lon="6.42408">
        <ele>2246</ele>
        <time>2020-07-30T18:38:16Z</time>
      </trkpt>
      <trkpt lat="45.80289" lon="6.42415">
        <ele>2242</ele>
        <time>2020-07-30T18:38:10Z</time>
      </trkpt>
      <trkpt lat="45.80302" lon="6.42431">
        <ele>2229</ele>
        <time>2020-07-30T18:38:02Z</time>
      </trkpt>
      <trkpt lat="45.80307" lon="6.42432">
        <ele>2227</ele>
        <time>2020-07-30T18:37:59Z</time>
      </trkpt>
      <trkpt lat="45.80304" lon="6.42442">
        <ele>2223</ele>
        <time>2020-07-30T18:37:56Z</time>
      </trkpt>
      <trkpt lat="45.80317" lon="6.42465">
        <ele>2208</ele>
        <time>2020-07-30T18:37:45Z</time>
      </trkpt>
      <trkpt lat="45.80327" lon="6.42466">
        <ele>2206</ele>
        <time>2020-07-30T18:37:40Z</time>
      </trkpt>
      <trkpt lat="45.8033" lon="6.42471">
        <ele>2203</ele>
        <time>2020-07-30T18:37:38Z</time>
      </trkpt>
      <trkpt lat="45.80329" lon="6.42475">
        <ele>2202</ele>
        <time>2020-07-30T18:37:36Z</time>
      </trkpt>
      <trkpt lat="45.80336" lon="6.4248">
        <ele>2197</ele>
        <time>2020-07-30T18:37:33Z</time>
      </trkpt>
      <trkpt lat="45.80341" lon="6.42474">
        <ele>2197</ele>
        <time>2020-07-30T18:37:29Z</time>
      </trkpt>
      <trkpt lat="45.80345" lon="6.42477">
        <ele>2194</ele>
        <time>2020-07-30T18:37:27Z</time>
      </trkpt>
      <trkpt lat="45.80345" lon="6.42475">
        <ele>2195</ele>
        <time>2020-07-30T18:37:26Z</time>
      </trkpt>
      <trkpt lat="45.80352" lon="6.42472">
        <ele>2192</ele>
        <time>2020-07-30T18:37:23Z</time>
      </trkpt>
      <trkpt lat="45.80364" lon="6.42489">
        <ele>2181</ele>
        <time>2020-07-30T18:37:14Z</time>
      </trkpt>
      <trkpt lat="45.80383" lon="6.4249">
        <ele>2172</ele>
        <time>2020-07-30T18:37:05Z</time>
      </trkpt>
      <trkpt lat="45.80402" lon="6.42501">
        <ele>2161</ele>
        <time>2020-07-30T18:36:54Z</time>
      </trkpt>
      <trkpt lat="45.80412" lon="6.425">
        <ele>2158</ele>
        <time>2020-07-30T18:36:49Z</time>
      </trkpt>
      <trkpt lat="45.80427" lon="6.42494">
        <ele>2148</ele>
        <time>2020-07-30T18:36:42Z</time>
      </trkpt>
      <trkpt lat="45.80434" lon="6.42495">
        <ele>2143</ele>
        <time>2020-07-30T18:36:38Z</time>
      </trkpt>
      <trkpt lat="45.8044" lon="6.42489">
        <ele>2139</ele>
        <time>2020-07-30T18:36:34Z</time>
      </trkpt>
      <trkpt lat="45.80456" lon="6.42491">
        <ele>2127</ele>
        <time>2020-07-30T18:36:26Z</time>
      </trkpt>
      <trkpt lat="45.80468" lon="6.4248">
        <ele>2120</ele>
        <time>2020-07-30T18:36:19Z</time>
      </trkpt>
      <trkpt lat="45.80475" lon="6.42482">
        <ele>2114</ele>
        <time>2020-07-30T18:36:16Z</time>
      </trkpt>
      <trkpt lat="45.8048" lon="6.42475">
        <ele>2112</ele>
        <time>2020-07-30T18:36:12Z</time>
      </trkpt>
      <trkpt lat="45.8049" lon="6.42478">
        <ele>2105</ele>
        <time>2020-07-30T18:36:07Z</time>
      </trkpt>
      <trkpt lat="45.80498" lon="6.42476">
        <ele>2099</ele>
        <time>2020-07-30T18:36:03Z</time>
      </trkpt>
      <trkpt lat="45.80499" lon="6.42472">
        <ele>2100</ele>
        <time>2020-07-30T18:36:02Z</time>
      </trkpt>
      <trkpt lat="45.80492" lon="6.42447">
        <ele>2110</ele>
        <time>2020-07-30T18:35:52Z</time>
      </trkpt>
      <trkpt lat="45.80494" lon="6.42442">
        <ele>2110</ele>
        <time>2020-07-30T18:35:50Z</time>
      </trkpt>
      <trkpt lat="45.80489" lon="6.42426">
        <ele>2117</ele>
        <time>2020-07-30T18:35:44Z</time>
      </trkpt>
      <trkpt lat="45.80499" lon="6.42422">
        <ele>2112</ele>
        <time>2020-07-30T18:35:39Z</time>
      </trkpt>
      <trkpt lat="45.80504" lon="6.42424">
        <ele>2109</ele>
        <time>2020-07-30T18:35:36Z</time>
      </trkpt>
      <trkpt lat="45.80508" lon="6.4242">
        <ele>2108</ele>
        <time>2020-07-30T18:35:34Z</time>
      </trkpt>
      <trkpt lat="45.80517" lon="6.42427">
        <ele>2102</ele>
        <time>2020-07-30T18:35:29Z</time>
      </trkpt>
      <trkpt lat="45.80523" lon="6.42427">
        <ele>2099</ele>
        <time>2020-07-30T18:35:26Z</time>
      </trkpt>
      <trkpt lat="45.80523" lon="6.42418">
        <ele>2101</ele>
        <time>2020-07-30T18:35:23Z</time>
      </trkpt>
      <trkpt lat="45.8053" lon="6.42422">
        <ele>2097</ele>
        <time>2020-07-30T18:35:19Z</time>
      </trkpt>
      <trkpt lat="45.80539" lon="6.42421">
        <ele>2092</ele>
        <time>2020-07-30T18:35:14Z</time>
      </trkpt>
      <trkpt lat="45.80541" lon="6.42411">
        <ele>2092</ele>
        <time>2020-07-30T18:35:11Z</time>
      </trkpt>
      <trkpt lat="45.80544" lon="6.42408">
        <ele>2091</ele>
        <time>2020-07-30T18:35:09Z</time>
      </trkpt>
      <trkpt lat="45.80576" lon="6.42428">
        <ele>2073</ele>
        <time>2020-07-30T18:34:51Z</time>
      </trkpt>
      <trkpt lat="45.80585" lon="6.42441">
        <ele>2067</ele>
        <time>2020-07-30T18:34:45Z</time>
      </trkpt>
      <trkpt lat="45.80586" lon="6.42449">
        <ele>2066</ele>
        <time>2020-07-30T18:34:42Z</time>
      </trkpt>
      <trkpt lat="45.80598" lon="6.4248">
        <ele>2061</ele>
        <time>2020-07-30T18:34:30Z</time>
      </trkpt>
      <trkpt lat="45.80607" lon="6.42495">
        <ele>2059</ele>
        <time>2020-07-30T18:34:23Z</time>
      </trkpt>
      <trkpt lat="45.80624" lon="6.42501">
        <ele>2059</ele>
        <time>2020-07-30T18:34:14Z</time>
      </trkpt>
      <trkpt lat="45.80651" lon="6.42505">
        <ele>2057</ele>
        <time>2020-07-30T18:34:00Z</time>
      </trkpt>
      <trkpt lat="45.80692" lon="6.42504">
        <ele>2064</ele>
        <time>2020-07-30T18:33:40Z</time>
      </trkpt>
      <trkpt lat="45.80744" lon="6.42507">
        <ele>2074</ele>
        <time>2020-07-30T18:33:14Z</time>
      </trkpt>
      <trkpt lat="45.80772" lon="6.42522">
        <ele>2071</ele>
        <time>2020-07-30T18:32:59Z</time>
      </trkpt>
      <trkpt lat="45.80793" lon="6.42526">
        <ele>2070</ele>
        <time>2020-07-30T18:32:48Z</time>
      </trkpt>
      <trkpt lat="45.80813" lon="6.42533">
        <ele>2071</ele>
        <time>2020-07-30T18:32:38Z</time>
      </trkpt>
      <trkpt lat="45.80822" lon="6.42541">
        <ele>2072</ele>
        <time>2020-07-30T18:32:33Z</time>
      </trkpt>
      <trkpt lat="45.80849" lon="6.42541">
        <ele>2075</ele>
        <time>2020-07-30T18:32:19Z</time>
      </trkpt>
      <trkpt lat="45.80864" lon="6.42539">
        <ele>2077</ele>
        <time>2020-07-30T18:32:12Z</time>
      </trkpt>
      <trkpt lat="45.80891" lon="6.4253">
        <ele>2079</ele>
        <time>2020-07-30T18:31:58Z</time>
      </trkpt>
      <trkpt lat="45.80899" lon="6.42522">
        <ele>2079</ele>
        <time>2020-07-30T18:31:53Z</time>
      </trkpt>
      <trkpt lat="45.80937" lon="6.42495">
        <ele>2082</ele>
        <time>2020-07-30T18:31:32Z</time>
      </trkpt>
      <trkpt lat="45.80947" lon="6.4248">
        <ele>2081</ele>
        <time>2020-07-30T18:31:24Z</time>
      </trkpt>
      <trkpt lat="45.80966" lon="6.42466">
        <ele>2082</ele>
        <time>2020-07-30T18:31:14Z</time>
      </trkpt>
      <trkpt lat="45.81026" lon="6.42391">
        <ele>2075</ele>
        <time>2020-07-30T18:30:34Z</time>
      </trkpt>
      <trkpt lat="45.81041" lon="6.42378">
        <ele>2072</ele>
        <time>2020-07-30T18:30:25Z</time>
      </trkpt>
      <trkpt lat="45.81046" lon="6.42363">
        <ele>2067</ele>
        <time>2020-07-30T18:30:19Z</time>
      </trkpt>
      <trkpt lat="45.81066" lon="6.42368">
        <ele>2071</ele>
        <time>2020-07-30T18:30:09Z</time>
      </trkpt>
      <trkpt lat="45.81073" lon="6.42366">
        <ele>2070</ele>
        <time>2020-07-30T18:30:06Z</time>
      </trkpt>
      <trkpt lat="45.81086" lon="6.42371">
        <ele>2072</ele>
        <time>2020-07-30T18:29:59Z</time>
      </trkpt>
      <trkpt lat="45.81104" lon="6.42374">
        <ele>2065</ele>
        <time>2020-07-30T18:29:50Z</time>
      </trkpt>
      <trkpt lat="45.81108" lon="6.42372">
        <ele>2062</ele>
        <time>2020-07-30T18:29:48Z</time>
      </trkpt>
      <trkpt lat="45.81113" lon="6.42363">
        <ele>2056</ele>
        <time>2020-07-30T18:29:44Z</time>
      </trkpt>
      <trkpt lat="45.81122" lon="6.42368">
        <ele>2054</ele>
        <time>2020-07-30T18:29:39Z</time>
      </trkpt>
      <trkpt lat="45.81131" lon="6.42365">
        <ele>2048</ele>
        <time>2020-07-30T18:29:34Z</time>
      </trkpt>
      <trkpt lat="45.81138" lon="6.42367">
        <ele>2046</ele>
        <time>2020-07-30T18:29:31Z</time>
      </trkpt>
      <trkpt lat="45.81144" lon="6.42372">
        <ele>2045</ele>
        <time>2020-07-30T18:29:27Z</time>
      </trkpt>
      <trkpt lat="45.81153" lon="6.42373">
        <ele>2041</ele>
        <time>2020-07-30T18:29:23Z</time>
      </trkpt>
      <trkpt lat="45.81167" lon="6.42383">
        <ele>2039</ele>
        <time>2020-07-30T18:29:15Z</time>
      </trkpt>
      <trkpt lat="45.81172" lon="6.42395">
        <ele>2042</ele>
        <time>2020-07-30T18:29:10Z</time>
      </trkpt>
      <trkpt lat="45.81183" lon="6.42391">
        <ele>2037</ele>
        <time>2020-07-30T18:29:04Z</time>
      </trkpt>
      <trkpt lat="45.81185" lon="6.42388">
        <ele>2035</ele>
        <time>2020-07-30T18:29:03Z</time>
      </trkpt>
      <trkpt lat="45.81193" lon="6.42388">
        <ele>2032</ele>
        <time>2020-07-30T18:28:59Z</time>
      </trkpt>
      <trkpt lat="45.81198" lon="6.42384">
        <ele>2029</ele>
        <time>2020-07-30T18:28:56Z</time>
      </trkpt>
      <trkpt lat="45.81202" lon="6.42384">
        <ele>2027</ele>
        <time>2020-07-30T18:28:54Z</time>
      </trkpt>
      <trkpt lat="45.81209" lon="6.42386">
        <ele>2026</ele>
        <time>2020-07-30T18:28:50Z</time>
      </trkpt>
      <trkpt lat="45.81214" lon="6.42397">
        <ele>2028</ele>
        <time>2020-07-30T18:28:46Z</time>
      </trkpt>
      <trkpt lat="45.81217" lon="6.42399">
        <ele>2028</ele>
        <time>2020-07-30T18:28:44Z</time>
      </trkpt>
      <trkpt lat="45.8122" lon="6.42398">
        <ele>2027</ele>
        <time>2020-07-30T18:28:43Z</time>
      </trkpt>
      <trkpt lat="45.81253" lon="6.42407">
        <ele>2018</ele>
        <time>2020-07-30T18:28:26Z</time>
      </trkpt>
      <trkpt lat="45.81287" lon="6.42421">
        <ele>2001</ele>
        <time>2020-07-30T18:28:08Z</time>
      </trkpt>
      <trkpt lat="45.81296" lon="6.42421">
        <ele>1995</ele>
        <time>2020-07-30T18:28:04Z</time>
      </trkpt>
      <trkpt lat="45.81306" lon="6.42436">
        <ele>1984</ele>
        <time>2020-07-30T18:27:56Z</time>
      </trkpt>
      <trkpt lat="45.81301" lon="6.42441">
        <ele>1987</ele>
        <time>2020-07-30T18:27:53Z</time>
      </trkpt>
      <trkpt lat="45.81296" lon="6.42439">
        <ele>1991</ele>
        <time>2020-07-30T18:27:51Z</time>
      </trkpt>
      <trkpt lat="45.8129" lon="6.42445">
        <ele>1994</ele>
        <time>2020-07-30T18:27:47Z</time>
      </trkpt>
      <trkpt lat="45.8129" lon="6.4245">
        <ele>1993</ele>
        <time>2020-07-30T18:27:45Z</time>
      </trkpt>
      <trkpt lat="45.81294" lon="6.42455">
        <ele>1988</ele>
        <time>2020-07-30T18:27:43Z</time>
      </trkpt>
      <trkpt lat="45.81302" lon="6.42459">
        <ele>1980</ele>
        <time>2020-07-30T18:27:38Z</time>
      </trkpt>
      <trkpt lat="45.81294" lon="6.42468">
        <ele>1985</ele>
        <time>2020-07-30T18:27:33Z</time>
      </trkpt>
      <trkpt lat="45.81296" lon="6.42474">
        <ele>1982</ele>
        <time>2020-07-30T18:27:31Z</time>
      </trkpt>
      <trkpt lat="45.81295" lon="6.42492">
        <ele>1979</ele>
        <time>2020-07-30T18:27:25Z</time>
      </trkpt>
      <trkpt lat="45.81286" lon="6.42534">
        <ele>1986</ele>
        <time>2020-07-30T18:27:09Z</time>
      </trkpt>
      <trkpt lat="45.81281" lon="6.42542">
        <ele>1992</ele>
        <time>2020-07-30T18:27:06Z</time>
      </trkpt>
      <trkpt lat="45.81278" lon="6.42556">
        <ele>1995</ele>
        <time>2020-07-30T18:27:01Z</time>
      </trkpt>
      <trkpt lat="45.81278" lon="6.42597">
        <ele>1991</ele>
        <time>2020-07-30T18:26:46Z</time>
      </trkpt>
      <trkpt lat="45.81283" lon="6.42619">
        <ele>1983</ele>
        <time>2020-07-30T18:26:38Z</time>
      </trkpt>
      <trkpt lat="45.81283" lon="6.42638">
        <ele>1980</ele>
        <time>2020-07-30T18:26:32Z</time>
      </trkpt>
      <trkpt lat="45.81282" lon="6.42652">
        <ele>1979</ele>
        <time>2020-07-30T18:26:27Z</time>
      </trkpt>
      <trkpt lat="45.81276" lon="6.42674">
        <ele>1980</ele>
        <time>2020-07-30T18:26:18Z</time>
      </trkpt>
      <trkpt lat="45.81285" lon="6.42691">
        <ele>1973</ele>
        <time>2020-07-30T18:26:11Z</time>
      </trkpt>
      <trkpt lat="45.8128" lon="6.42714">
        <ele>1975</ele>
        <time>2020-07-30T18:26:03Z</time>
      </trkpt>
      <trkpt lat="45.81276" lon="6.42769">
        <ele>1974</ele>
        <time>2020-07-30T18:25:43Z</time>
      </trkpt>
      <trkpt lat="45.81278" lon="6.42783">
        <ele>1973</ele>
        <time>2020-07-30T18:25:38Z</time>
      </trkpt>
      <trkpt lat="45.81292" lon="6.4283">
        <ele>1969</ele>
        <time>2020-07-30T18:25:20Z</time>
      </trkpt>
      <trkpt lat="45.81309" lon="6.4286">
        <ele>1966</ele>
        <time>2020-07-30T18:25:07Z</time>
      </trkpt>
      <trkpt lat="45.81329" lon="6.42885">
        <ele>1970</ele>
        <time>2020-07-30T18:24:54Z</time>
      </trkpt>
      <trkpt lat="45.81328" lon="6.42889">
        <ele>1970</ele>
        <time>2020-07-30T18:24:52Z</time>
      </trkpt>
      <trkpt lat="45.81333" lon="6.42901">
        <ele>1972</ele>
        <time>2020-07-30T18:24:47Z</time>
      </trkpt>
      <trkpt lat="45.81341" lon="6.42905">
        <ele>1974</ele>
        <time>2020-07-30T18:24:43Z</time>
      </trkpt>
      <trkpt lat="45.81349" lon="6.42905">
        <ele>1975</ele>
        <time>2020-07-30T18:24:39Z</time>
      </trkpt>
      <trkpt lat="45.81351" lon="6.42917">
        <ele>1977</ele>
        <time>2020-07-30T18:24:35Z</time>
      </trkpt>
      <trkpt lat="45.81376" lon="6.4295">
        <ele>1973</ele>
        <time>2020-07-30T18:24:18Z</time>
      </trkpt>
      <trkpt lat="45.81443" lon="6.42956">
        <ele>1992</ele>
        <time>2020-07-30T18:23:44Z</time>
      </trkpt>
      <trkpt lat="45.8148" lon="6.42968">
        <ele>2002</ele>
        <time>2020-07-30T18:23:25Z</time>
      </trkpt>
      <trkpt lat="45.81491" lon="6.42969">
        <ele>2006</ele>
        <time>2020-07-30T18:23:20Z</time>
      </trkpt>
      <trkpt lat="45.81511" lon="6.42978">
        <ele>2007</ele>
        <time>2020-07-30T18:23:09Z</time>
      </trkpt>
      <trkpt lat="45.81522" lon="6.42977">
        <ele>2004</ele>
        <time>2020-07-30T18:23:04Z</time>
      </trkpt>
      <trkpt lat="45.81539" lon="6.42982">
        <ele>2000</ele>
        <time>2020-07-30T18:22:55Z</time>
      </trkpt>
      <trkpt lat="45.81554" lon="6.42976">
        <ele>1997</ele>
        <time>2020-07-30T18:22:47Z</time>
      </trkpt>
      <trkpt lat="45.81566" lon="6.4298">
        <ele>1993</ele>
        <time>2020-07-30T18:22:41Z</time>
      </trkpt>
      <trkpt lat="45.81573" lon="6.42976">
        <ele>1992</ele>
        <time>2020-07-30T18:22:37Z</time>
      </trkpt>
      <trkpt lat="45.81576" lon="6.4298">
        <ele>1991</ele>
        <time>2020-07-30T18:22:35Z</time>
      </trkpt>
      <trkpt lat="45.81579" lon="6.42977">
        <ele>1991</ele>
        <time>2020-07-30T18:22:33Z</time>
      </trkpt>
      <trkpt lat="45.81578" lon="6.42973">
        <ele>1991</ele>
        <time>2020-07-30T18:22:32Z</time>
      </trkpt>
      <trkpt lat="45.81582" lon="6.42966">
        <ele>1991</ele>
        <time>2020-07-30T18:22:29Z</time>
      </trkpt>
      <trkpt lat="45.81594" lon="6.42956">
        <ele>1991</ele>
        <time>2020-07-30T18:22:22Z</time>
      </trkpt>
      <trkpt lat="45.81604" lon="6.42952">
        <ele>1991</ele>
        <time>2020-07-30T18:22:17Z</time>
      </trkpt>
      <trkpt lat="45.8162" lon="6.42951">
        <ele>1990</ele>
        <time>2020-07-30T18:22:09Z</time>
      </trkpt>
      <trkpt lat="45.81629" lon="6.42946">
        <ele>1991</ele>
        <time>2020-07-30T18:22:04Z</time>
      </trkpt>
      <trkpt lat="45.81643" lon="6.42944">
        <ele>1991</ele>
        <time>2020-07-30T18:21:57Z</time>
      </trkpt>
      <trkpt lat="45.81655" lon="6.42939">
        <ele>1992</ele>
        <time>2020-07-30T18:21:51Z</time>
      </trkpt>
      <trkpt lat="45.81664" lon="6.42939">
        <ele>1992</ele>
        <time>2020-07-30T18:21:46Z</time>
      </trkpt>
      <trkpt lat="45.81669" lon="6.42943">
        <ele>1991</ele>
        <time>2020-07-30T18:21:43Z</time>
      </trkpt>
      <trkpt lat="45.81687" lon="6.42949">
        <ele>1995</ele>
        <time>2020-07-30T18:21:34Z</time>
      </trkpt>
      <trkpt lat="45.81697" lon="6.42961">
        <ele>1996</ele>
        <time>2020-07-30T18:21:27Z</time>
      </trkpt>
      <trkpt lat="45.81702" lon="6.42963">
        <ele>1998</ele>
        <time>2020-07-30T18:21:25Z</time>
      </trkpt>
      <trkpt lat="45.817" lon="6.42967">
        <ele>1996</ele>
        <time>2020-07-30T18:21:23Z</time>
      </trkpt>
      <trkpt lat="45.81707" lon="6.42973">
        <ele>1999</ele>
        <time>2020-07-30T18:21:19Z</time>
      </trkpt>
      <trkpt lat="45.81716" lon="6.42974">
        <ele>2003</ele>
        <time>2020-07-30T18:21:14Z</time>
      </trkpt>
      <trkpt lat="45.81723" lon="6.42978">
        <ele>2007</ele>
        <time>2020-07-30T18:21:11Z</time>
      </trkpt>
      <trkpt lat="45.81752" lon="6.43003">
        <ele>2023</ele>
        <time>2020-07-30T18:20:54Z</time>
      </trkpt>
      <trkpt lat="45.81765" lon="6.4301">
        <ele>2023</ele>
        <time>2020-07-30T18:20:47Z</time>
      </trkpt>
      <trkpt lat="45.81786" lon="6.43014">
        <ele>2029</ele>
        <time>2020-07-30T18:20:36Z</time>
      </trkpt>
      <trkpt lat="45.81801" lon="6.43011">
        <ele>2035</ele>
        <time>2020-07-30T18:20:29Z</time>
      </trkpt>
      <trkpt lat="45.81809" lon="6.43012">
        <ele>2038</ele>
        <time>2020-07-30T18:20:25Z</time>
      </trkpt>
      <trkpt lat="45.81814" lon="6.43009">
        <ele>2040</ele>
        <time>2020-07-30T18:20:22Z</time>
      </trkpt>
      <trkpt lat="45.8183" lon="6.4301">
        <ele>2045</ele>
        <time>2020-07-30T18:20:14Z</time>
      </trkpt>
      <trkpt lat="45.8184" lon="6.43008">
        <ele>2048</ele>
        <time>2020-07-30T18:20:09Z</time>
      </trkpt>
      <trkpt lat="45.81869" lon="6.43015">
        <ele>2051</ele>
        <time>2020-07-30T18:19:54Z</time>
      </trkpt>
      <trkpt lat="45.81902" lon="6.43028">
        <ele>2056</ele>
        <time>2020-07-30T18:19:37Z</time>
      </trkpt>
      <trkpt lat="45.81908" lon="6.43026">
        <ele>2058</ele>
        <time>2020-07-30T18:19:34Z</time>
      </trkpt>
      <trkpt lat="45.8193" lon="6.43036">
        <ele>2063</ele>
        <time>2020-07-30T18:19:22Z</time>
      </trkpt>
      <trkpt lat="45.81944" lon="6.43038">
        <ele>2066</ele>
        <time>2020-07-30T18:19:15Z</time>
      </trkpt>
      <trkpt lat="45.81951" lon="6.43037">
        <ele>2067</ele>
        <time>2020-07-30T18:19:12Z</time>
      </trkpt>
      <trkpt lat="45.81966" lon="6.43017">
        <ele>2068</ele>
        <time>2020-07-30T18:19:02Z</time>
      </trkpt>
      <trkpt lat="45.81972" lon="6.43013">
        <ele>2068</ele>
        <time>2020-07-30T18:18:58Z</time>
      </trkpt>
      <trkpt lat="45.81984" lon="6.43009">
        <ele>2070</ele>
        <time>2020-07-30T18:18:52Z</time>
      </trkpt>
      <trkpt lat="45.81996" lon="6.4301">
        <ele>2072</ele>
        <time>2020-07-30T18:18:46Z</time>
      </trkpt>
      <trkpt lat="45.82004" lon="6.43014">
        <ele>2073</ele>
        <time>2020-07-30T18:18:42Z</time>
      </trkpt>
      <trkpt lat="45.82036" lon="6.43007">
        <ele>2072</ele>
        <time>2020-07-30T18:18:26Z</time>
      </trkpt>
      <trkpt lat="45.82051" lon="6.42999">
        <ele>2071</ele>
        <time>2020-07-30T18:18:18Z</time>
      </trkpt>
      <trkpt lat="45.82105" lon="6.42982">
        <ele>2059</ele>
        <time>2020-07-30T18:17:50Z</time>
      </trkpt>
      <trkpt lat="45.82122" lon="6.42971">
        <ele>2050</ele>
        <time>2020-07-30T18:17:41Z</time>
      </trkpt>
      <trkpt lat="45.82124" lon="6.42989">
        <ele>2051</ele>
        <time>2020-07-30T18:17:34Z</time>
      </trkpt>
      <trkpt lat="45.82131" lon="6.42998">
        <ele>2048</ele>
        <time>2020-07-30T18:17:30Z</time>
      </trkpt>
      <trkpt lat="45.82133" lon="6.43015">
        <ele>2044</ele>
        <time>2020-07-30T18:17:24Z</time>
      </trkpt>
      <trkpt lat="45.82127" lon="6.43032">
        <ele>2045</ele>
        <time>2020-07-30T18:17:17Z</time>
      </trkpt>
      <trkpt lat="45.82125" lon="6.43048">
        <ele>2044</ele>
        <time>2020-07-30T18:17:11Z</time>
      </trkpt>
      <trkpt lat="45.82117" lon="6.43062">
        <ele>2048</ele>
        <time>2020-07-30T18:17:05Z</time>
      </trkpt>
      <trkpt lat="45.82113" lon="6.43078">
        <ele>2049</ele>
        <time>2020-07-30T18:16:59Z</time>
      </trkpt>
      <trkpt lat="45.82111" lon="6.43103">
        <ele>2042</ele>
        <time>2020-07-30T18:16:50Z</time>
      </trkpt>
      <trkpt lat="45.82104" lon="6.43106">
        <ele>2048</ele>
        <time>2020-07-30T18:16:47Z</time>
      </trkpt>
      <trkpt lat="45.82084" lon="6.43143">
        <ele>2052</ele>
        <time>2020-07-30T18:16:30Z</time>
      </trkpt>
      <trkpt lat="45.82078" lon="6.43167">
        <ele>2044</ele>
        <time>2020-07-30T18:16:21Z</time>
      </trkpt>
      <trkpt lat="45.82068" lon="6.43188">
        <ele>2034</ele>
        <time>2020-07-30T18:16:12Z</time>
      </trkpt>
      <trkpt lat="45.82072" lon="6.4321">
        <ele>2025</ele>
        <time>2020-07-30T18:16:05Z</time>
      </trkpt>
      <trkpt lat="45.82076" lon="6.43215">
        <ele>2023</ele>
        <time>2020-07-30T18:16:02Z</time>
      </trkpt>
      <trkpt lat="45.82074" lon="6.43226">
        <ele>2018</ele>
        <time>2020-07-30T18:15:58Z</time>
      </trkpt>
      <trkpt lat="45.82076" lon="6.43233">
        <ele>2015</ele>
        <time>2020-07-30T18:15:55Z</time>
      </trkpt>
      <trkpt lat="45.82071" lon="6.43238">
        <ele>2012</ele>
        <time>2020-07-30T18:15:52Z</time>
      </trkpt>
      <trkpt lat="45.82068" lon="6.43252">
        <ele>2005</ele>
        <time>2020-07-30T18:15:47Z</time>
      </trkpt>
      <trkpt lat="45.82071" lon="6.43265">
        <ele>2001</ele>
        <time>2020-07-30T18:15:42Z</time>
      </trkpt>
      <trkpt lat="45.82074" lon="6.43265">
        <ele>2002</ele>
        <time>2020-07-30T18:15:41Z</time>
      </trkpt>
      <trkpt lat="45.82077" lon="6.43281">
        <ele>1997</ele>
        <time>2020-07-30T18:15:35Z</time>
      </trkpt>
      <trkpt lat="45.82086" lon="6.43297">
        <ele>1992</ele>
        <time>2020-07-30T18:15:28Z</time>
      </trkpt>
      <trkpt lat="45.82093" lon="6.43321">
        <ele>1983</ele>
        <time>2020-07-30T18:15:19Z</time>
      </trkpt>
      <trkpt lat="45.82099" lon="6.43328">
        <ele>1981</ele>
        <time>2020-07-30T18:15:15Z</time>
      </trkpt>
      <trkpt lat="45.82101" lon="6.43327">
        <ele>1981</ele>
        <time>2020-07-30T18:15:14Z</time>
      </trkpt>
      <trkpt lat="45.82103" lon="6.43335">
        <ele>1978</ele>
        <time>2020-07-30T18:15:11Z</time>
      </trkpt>
      <trkpt lat="45.82117" lon="6.43343">
        <ele>1976</ele>
        <time>2020-07-30T18:15:03Z</time>
      </trkpt>
      <trkpt lat="45.8213" lon="6.43363">
        <ele>1971</ele>
        <time>2020-07-30T18:14:54Z</time>
      </trkpt>
      <trkpt lat="45.82136" lon="6.43378">
        <ele>1968</ele>
        <time>2020-07-30T18:14:48Z</time>
      </trkpt>
      <trkpt lat="45.8214" lon="6.43398">
        <ele>1965</ele>
        <time>2020-07-30T18:14:41Z</time>
      </trkpt>
      <trkpt lat="45.82152" lon="6.43427">
        <ele>1962</ele>
        <time>2020-07-30T18:14:29Z</time>
      </trkpt>
      <trkpt lat="45.82174" lon="6.43454">
        <ele>1961</ele>
        <time>2020-07-30T18:14:14Z</time>
      </trkpt>
      <trkpt lat="45.8219" lon="6.43482">
        <ele>1955</ele>
        <time>2020-07-30T18:14:02Z</time>
      </trkpt>
      <trkpt lat="45.82206" lon="6.4349">
        <ele>1955</ele>
        <time>2020-07-30T18:13:53Z</time>
      </trkpt>
      <trkpt lat="45.82242" lon="6.43517">
        <ele>1954</ele>
        <time>2020-07-30T18:13:33Z</time>
      </trkpt>
      <trkpt lat="45.82264" lon="6.43529">
        <ele>1954</ele>
        <time>2020-07-30T18:13:21Z</time>
      </trkpt>
      <trkpt lat="45.82293" lon="6.43552">
        <ele>1955</ele>
        <time>2020-07-30T18:13:05Z</time>
      </trkpt>
      <trkpt lat="45.82338" lon="6.43591">
        <ele>1963</ele>
        <time>2020-07-30T18:12:38Z</time>
      </trkpt>
      <trkpt lat="45.82391" lon="6.43651">
        <ele>1966</ele>
        <time>2020-07-30T18:12:04Z</time>
      </trkpt>
      <trkpt lat="45.82403" lon="6.43659">
        <ele>1970</ele>
        <time>2020-07-30T18:11:58Z</time>
      </trkpt>
      <trkpt lat="45.82412" lon="6.4367">
        <ele>1973</ele>
        <time>2020-07-30T18:11:52Z</time>
      </trkpt>
      <trkpt lat="45.82436" lon="6.43686">
        <ele>1975</ele>
        <time>2020-07-30T18:11:39Z</time>
      </trkpt>
      <trkpt lat="45.82463" lon="6.43697">
        <ele>1979</ele>
        <time>2020-07-30T18:11:25Z</time>
      </trkpt>
      <trkpt lat="45.82477" lon="6.43706">
        <ele>1981</ele>
        <time>2020-07-30T18:11:17Z</time>
      </trkpt>
      <trkpt lat="45.82505" lon="6.4371">
        <ele>1988</ele>
        <time>2020-07-30T18:11:03Z</time>
      </trkpt>
      <trkpt lat="45.82518" lon="6.43715">
        <ele>1992</ele>
        <time>2020-07-30T18:10:56Z</time>
      </trkpt>
      <trkpt lat="45.82537" lon="6.43728">
        <ele>1998</ele>
        <time>2020-07-30T18:10:46Z</time>
      </trkpt>
      <trkpt lat="45.82557" lon="6.43748">
        <ele>2007</ele>
        <time>2020-07-30T18:10:33Z</time>
      </trkpt>
      <trkpt lat="45.82598" lon="6.43775">
        <ele>2016</ele>
        <time>2020-07-30T18:10:11Z</time>
      </trkpt>
      <trkpt lat="45.82613" lon="6.43791">
        <ele>2017</ele>
        <time>2020-07-30T18:10:01Z</time>
      </trkpt>
      <trkpt lat="45.82622" lon="6.43795">
        <ele>2020</ele>
        <time>2020-07-30T18:09:57Z</time>
      </trkpt>
      <trkpt lat="45.82641" lon="6.43813">
        <ele>2025</ele>
        <time>2020-07-30T18:09:45Z</time>
      </trkpt>
      <trkpt lat="45.82663" lon="6.43827">
        <ele>2033</ele>
        <time>2020-07-30T18:09:33Z</time>
      </trkpt>
      <trkpt lat="45.82684" lon="6.43851">
        <ele>2036</ele>
        <time>2020-07-30T18:09:20Z</time>
      </trkpt>
      <trkpt lat="45.82701" lon="6.43863">
        <ele>2041</ele>
        <time>2020-07-30T18:09:10Z</time>
      </trkpt>
      <trkpt lat="45.8272" lon="6.43884">
        <ele>2048</ele>
        <time>2020-07-30T18:08:58Z</time>
      </trkpt>
      <trkpt lat="45.82728" lon="6.43889">
        <ele>2053</ele>
        <time>2020-07-30T18:08:54Z</time>
      </trkpt>
      <trkpt lat="45.82816" lon="6.43993">
        <ele>2097</ele>
        <time>2020-07-30T18:07:57Z</time>
      </trkpt>
      <trkpt lat="45.82828" lon="6.43999">
        <ele>2107</ele>
        <time>2020-07-30T18:07:51Z</time>
      </trkpt>
      <trkpt lat="45.82836" lon="6.44007">
        <ele>2111</ele>
        <time>2020-07-30T18:07:46Z</time>
      </trkpt>
      <trkpt lat="45.8285" lon="6.44012">
        <ele>2116</ele>
        <time>2020-07-30T18:07:38Z</time>
      </trkpt>
      <trkpt lat="45.82862" lon="6.44024">
        <ele>2121</ele>
        <time>2020-07-30T18:07:31Z</time>
      </trkpt>
      <trkpt lat="45.82884" lon="6.44028">
        <ele>2132</ele>
        <time>2020-07-30T18:07:20Z</time>
      </trkpt>
      <trkpt lat="45.82888" lon="6.44041">
        <ele>2134</ele>
        <time>2020-07-30T18:07:15Z</time>
      </trkpt>
      <trkpt lat="45.82903" lon="6.44036">
        <ele>2143</ele>
        <time>2020-07-30T18:07:07Z</time>
      </trkpt>
      <trkpt lat="45.82906" lon="6.44045">
        <ele>2145</ele>
        <time>2020-07-30T18:07:04Z</time>
      </trkpt>
      <trkpt lat="45.82922" lon="6.44052">
        <ele>2154</ele>
        <time>2020-07-30T18:06:56Z</time>
      </trkpt>
      <trkpt lat="45.82948" lon="6.44047">
        <ele>2164</ele>
        <time>2020-07-30T18:06:42Z</time>
      </trkpt>
      <trkpt lat="45.8297" lon="6.4405">
        <ele>2174</ele>
        <time>2020-07-30T18:06:31Z</time>
      </trkpt>
      <trkpt lat="45.83011" lon="6.44074">
        <ele>2194</ele>
        <time>2020-07-30T18:06:09Z</time>
      </trkpt>
      <trkpt lat="45.83028" lon="6.44093">
        <ele>2200</ele>
        <time>2020-07-30T18:05:58Z</time>
      </trkpt>
      <trkpt lat="45.83031" lon="6.44101">
        <ele>2202</ele>
        <time>2020-07-30T18:05:55Z</time>
      </trkpt>
      <trkpt lat="45.83033" lon="6.44126">
        <ele>2205</ele>
        <time>2020-07-30T18:05:47Z</time>
      </trkpt>
      <trkpt lat="45.83037" lon="6.44135">
        <ele>2207</ele>
        <time>2020-07-30T18:05:43Z</time>
      </trkpt>
      <trkpt lat="45.83059" lon="6.44161">
        <ele>2218</ele>
        <time>2020-07-30T18:05:29Z</time>
      </trkpt>
      <trkpt lat="45.83069" lon="6.44181">
        <ele>2224</ele>
        <time>2020-07-30T18:05:20Z</time>
      </trkpt>
      <trkpt lat="45.83081" lon="6.44196">
        <ele>2231</ele>
        <time>2020-07-30T18:05:12Z</time>
      </trkpt>
      <trkpt lat="45.83094" lon="6.44229">
        <ele>2230</ele>
        <time>2020-07-30T18:04:59Z</time>
      </trkpt>
      <trkpt lat="45.83097" lon="6.44256">
        <ele>2231</ele>
        <time>2020-07-30T18:04:49Z</time>
      </trkpt>
      <trkpt lat="45.83107" lon="6.44282">
        <ele>2227</ele>
        <time>2020-07-30T18:04:39Z</time>
      </trkpt>
      <trkpt lat="45.83113" lon="6.44307">
        <ele>2225</ele>
        <time>2020-07-30T18:04:30Z</time>
      </trkpt>
      <trkpt lat="45.83111" lon="6.44333">
        <ele>2225</ele>
        <time>2020-07-30T18:04:21Z</time>
      </trkpt>
      <trkpt lat="45.83124" lon="6.44351">
        <ele>2222</ele>
        <time>2020-07-30T18:04:11Z</time>
      </trkpt>
      <trkpt lat="45.83132" lon="6.44368">
        <ele>2221</ele>
        <time>2020-07-30T18:04:04Z</time>
      </trkpt>
      <trkpt lat="45.83143" lon="6.44379">
        <ele>2222</ele>
        <time>2020-07-30T18:03:58Z</time>
      </trkpt>
      <trkpt lat="45.83147" lon="6.4439">
        <ele>2223</ele>
        <time>2020-07-30T18:03:53Z</time>
      </trkpt>
      <trkpt lat="45.83145" lon="6.4442">
        <ele>2223</ele>
        <time>2020-07-30T18:03:43Z</time>
      </trkpt>
      <trkpt lat="45.8315" lon="6.44425">
        <ele>2224</ele>
        <time>2020-07-30T18:03:40Z</time>
      </trkpt>
      <trkpt lat="45.83155" lon="6.44423">
        <ele>2226</ele>
        <time>2020-07-30T18:03:37Z</time>
      </trkpt>
      <trkpt lat="45.83161" lon="6.44426">
        <ele>2228</ele>
        <time>2020-07-30T18:03:34Z</time>
      </trkpt>
      <trkpt lat="45.83174" lon="6.44441">
        <ele>2227</ele>
        <time>2020-07-30T18:03:26Z</time>
      </trkpt>
      <trkpt lat="45.83177" lon="6.44446">
        <ele>2227</ele>
        <time>2020-07-30T18:03:23Z</time>
      </trkpt>
      <trkpt lat="45.83177" lon="6.44459">
        <ele>2226</ele>
        <time>2020-07-30T18:03:19Z</time>
      </trkpt>
      <trkpt lat="45.83191" lon="6.44493">
        <ele>2225</ele>
        <time>2020-07-30T18:03:05Z</time>
      </trkpt>
      <trkpt lat="45.83195" lon="6.44493">
        <ele>2225</ele>
        <time>2020-07-30T18:03:03Z</time>
      </trkpt>
      <trkpt lat="45.83214" lon="6.44509">
        <ele>2222</ele>
        <time>2020-07-30T18:02:52Z</time>
      </trkpt>
      <trkpt lat="45.83228" lon="6.4451">
        <ele>2222</ele>
        <time>2020-07-30T18:02:45Z</time>
      </trkpt>
      <trkpt lat="45.83238" lon="6.44506">
        <ele>2224</ele>
        <time>2020-07-30T18:02:40Z</time>
      </trkpt>
      <trkpt lat="45.83252" lon="6.44527">
        <ele>2219</ele>
        <time>2020-07-30T18:02:30Z</time>
      </trkpt>
      <trkpt lat="45.83276" lon="6.44527">
        <ele>2209</ele>
        <time>2020-07-30T18:02:18Z</time>
      </trkpt>
      <trkpt lat="45.83282" lon="6.44534">
        <ele>2205</ele>
        <time>2020-07-30T18:02:14Z</time>
      </trkpt>
      <trkpt lat="45.83286" lon="6.44535">
        <ele>2204</ele>
        <time>2020-07-30T18:02:12Z</time>
      </trkpt>
      <trkpt lat="45.83302" lon="6.44523">
        <ele>2198</ele>
        <time>2020-07-30T18:02:03Z</time>
      </trkpt>
      <trkpt lat="45.83314" lon="6.44529">
        <ele>2192</ele>
        <time>2020-07-30T18:01:56Z</time>
      </trkpt>
      <trkpt lat="45.8332" lon="6.44548">
        <ele>2189</ele>
        <time>2020-07-30T18:01:49Z</time>
      </trkpt>
      <trkpt lat="45.83327" lon="6.44541">
        <ele>2187</ele>
        <time>2020-07-30T18:01:45Z</time>
      </trkpt>
      <trkpt lat="45.83329" lon="6.44543">
        <ele>2186</ele>
        <time>2020-07-30T18:01:44Z</time>
      </trkpt>
      <trkpt lat="45.8333" lon="6.4454">
        <ele>2185</ele>
        <time>2020-07-30T18:01:42Z</time>
      </trkpt>
      <trkpt lat="45.8334" lon="6.4454">
        <ele>2182</ele>
        <time>2020-07-30T18:01:37Z</time>
      </trkpt>
      <trkpt lat="45.83371" lon="6.4457">
        <ele>2179</ele>
        <time>2020-07-30T18:01:19Z</time>
      </trkpt>
      <trkpt lat="45.83381" lon="6.44588">
        <ele>2178</ele>
        <time>2020-07-30T18:01:11Z</time>
      </trkpt>
      <trkpt lat="45.83399" lon="6.44608">
        <ele>2170</ele>
        <time>2020-07-30T18:00:59Z</time>
      </trkpt>
      <trkpt lat="45.83408" lon="6.44608">
        <ele>2171</ele>
        <time>2020-07-30T18:00:55Z</time>
      </trkpt>
      <trkpt lat="45.83436" lon="6.4463">
        <ele>2159</ele>
        <time>2020-07-30T18:00:39Z</time>
      </trkpt>
      <trkpt lat="45.83446" lon="6.44636">
        <ele>2155</ele>
        <time>2020-07-30T18:00:33Z</time>
      </trkpt>
      <trkpt lat="45.8345" lon="6.44636">
        <ele>2154</ele>
        <time>2020-07-30T18:00:31Z</time>
      </trkpt>
      <trkpt lat="45.83472" lon="6.44678">
        <ele>2145</ele>
        <time>2020-07-30T18:00:13Z</time>
      </trkpt>
      <trkpt lat="45.83474" lon="6.44698">
        <ele>2140</ele>
        <time>2020-07-30T18:00:06Z</time>
      </trkpt>
      <trkpt lat="45.8348" lon="6.44698">
        <ele>2140</ele>
        <time>2020-07-30T18:00:03Z</time>
      </trkpt>
      <trkpt lat="45.83483" lon="6.44694">
        <ele>2141</ele>
        <time>2020-07-30T18:00:01Z</time>
      </trkpt>
      <trkpt lat="45.83484" lon="6.44696">
        <ele>2141</ele>
        <time>2020-07-30T18:00:00Z</time>
      </trkpt>
      <trkpt lat="45.83488" lon="6.44706">
        <ele>2139</ele>
        <time>2020-07-30T17:59:56Z</time>
      </trkpt>
      <trkpt lat="45.83486" lon="6.44711">
        <ele>2138</ele>
        <time>2020-07-30T17:59:54Z</time>
      </trkpt>
      <trkpt lat="45.83491" lon="6.44715">
        <ele>2138</ele>
        <time>2020-07-30T17:59:51Z</time>
      </trkpt>
      <trkpt lat="45.83497" lon="6.44746">
        <ele>2135</ele>
        <time>2020-07-30T17:59:40Z</time>
      </trkpt>
      <trkpt lat="45.83509" lon="6.44772">
        <ele>2126</ele>
        <time>2020-07-30T17:59:29Z</time>
      </trkpt>
      <trkpt lat="45.83515" lon="6.44777">
        <ele>2123</ele>
        <time>2020-07-30T17:59:26Z</time>
      </trkpt>
      <trkpt lat="45.83541" lon="6.44822">
        <ele>2114</ele>
        <time>2020-07-30T17:59:05Z</time>
      </trkpt>
      <trkpt lat="45.83545" lon="6.44831">
        <ele>2114</ele>
        <time>2020-07-30T17:59:02Z</time>
      </trkpt>
      <trkpt lat="45.83543" lon="6.44844">
        <ele>2110</ele>
        <time>2020-07-30T17:58:57Z</time>
      </trkpt>
      <trkpt lat="45.83552" lon="6.44852">
        <ele>2110</ele>
        <time>2020-07-30T17:58:52Z</time>
      </trkpt>
      <trkpt lat="45.83555" lon="6.44867">
        <ele>2107</ele>
        <time>2020-07-30T17:58:46Z</time>
      </trkpt>
      <trkpt lat="45.83573" lon="6.44884">
        <ele>2113</ele>
        <time>2020-07-30T17:58:35Z</time>
      </trkpt>
      <trkpt lat="45.83583" lon="6.44897">
        <ele>2118</ele>
        <time>2020-07-30T17:58:29Z</time>
      </trkpt>
      <trkpt lat="45.83589" lon="6.449">
        <ele>2118</ele>
        <time>2020-07-30T17:58:25Z</time>
      </trkpt>
      <trkpt lat="45.83595" lon="6.44897">
        <ele>2118</ele>
        <time>2020-07-30T17:58:22Z</time>
      </trkpt>
      <trkpt lat="45.83624" lon="6.4494">
        <ele>2111</ele>
        <time>2020-07-30T17:58:01Z</time>
      </trkpt>
      <trkpt lat="45.83637" lon="6.44953">
        <ele>2111</ele>
        <time>2020-07-30T17:57:53Z</time>
      </trkpt>
      <trkpt lat="45.83652" lon="6.44961">
        <ele>2114</ele>
        <time>2020-07-30T17:57:45Z</time>
      </trkpt>
      <trkpt lat="45.8368" lon="6.44992">
        <ele>2122</ele>
        <time>2020-07-30T17:57:28Z</time>
      </trkpt>
      <trkpt lat="45.83709" lon="6.45001">
        <ele>2128</ele>
        <time>2020-07-30T17:57:13Z</time>
      </trkpt>
      <trkpt lat="45.83719" lon="6.45007">
        <ele>2125</ele>
        <time>2020-07-30T17:57:07Z</time>
      </trkpt>
      <trkpt lat="45.83748" lon="6.45018">
        <ele>2121</ele>
        <time>2020-07-30T17:56:52Z</time>
      </trkpt>
      <trkpt lat="45.8376" lon="6.45016">
        <ele>2124</ele>
        <time>2020-07-30T17:56:46Z</time>
      </trkpt>
      <trkpt lat="45.83776" lon="6.45017">
        <ele>2125</ele>
        <time>2020-07-30T17:56:38Z</time>
      </trkpt>
      <trkpt lat="45.83792" lon="6.45021">
        <ele>2123</ele>
        <time>2020-07-30T17:56:30Z</time>
      </trkpt>
      <trkpt lat="45.838" lon="6.45017">
        <ele>2127</ele>
        <time>2020-07-30T17:56:26Z</time>
      </trkpt>
      <trkpt lat="45.83818" lon="6.45018">
        <ele>2128</ele>
        <time>2020-07-30T17:56:17Z</time>
      </trkpt>
      <trkpt lat="45.83837" lon="6.45007">
        <ele>2140</ele>
        <time>2020-07-30T17:56:07Z</time>
      </trkpt>
      <trkpt lat="45.83849" lon="6.44997">
        <ele>2148</ele>
        <time>2020-07-30T17:56:00Z</time>
      </trkpt>
      <trkpt lat="45.8387" lon="6.4497">
        <ele>2148</ele>
        <time>2020-07-30T17:55:46Z</time>
      </trkpt>
      <trkpt lat="45.8388" lon="6.44966">
        <ele>2149</ele>
        <time>2020-07-30T17:55:41Z</time>
      </trkpt>
      <trkpt lat="45.83906" lon="6.44984">
        <ele>2158</ele>
        <time>2020-07-30T17:55:26Z</time>
      </trkpt>
      <trkpt lat="45.8392" lon="6.44989">
        <ele>2162</ele>
        <time>2020-07-30T17:55:19Z</time>
      </trkpt>
      <trkpt lat="45.83942" lon="6.4499">
        <ele>2167</ele>
        <time>2020-07-30T17:55:08Z</time>
      </trkpt>
      <trkpt lat="45.83972" lon="6.44982">
        <ele>2174</ele>
        <time>2020-07-30T17:54:53Z</time>
      </trkpt>
      <trkpt lat="45.84006" lon="6.44979">
        <ele>2180</ele>
        <time>2020-07-30T17:54:36Z</time>
      </trkpt>
      <trkpt lat="45.84021" lon="6.44971">
        <ele>2179</ele>
        <time>2020-07-30T17:54:28Z</time>
      </trkpt>
      <trkpt lat="45.84034" lon="6.4496">
        <ele>2182</ele>
        <time>2020-07-30T17:54:20Z</time>
      </trkpt>
      <trkpt lat="45.84067" lon="6.44927">
        <ele>2204</ele>
        <time>2020-07-30T17:54:00Z</time>
      </trkpt>
      <trkpt lat="45.84071" lon="6.44916">
        <ele>2213</ele>
        <time>2020-07-30T17:53:56Z</time>
      </trkpt>
      <trkpt lat="45.84085" lon="6.4492">
        <ele>2217</ele>
        <time>2020-07-30T17:53:48Z</time>
      </trkpt>
      <trkpt lat="45.84099" lon="6.44919">
        <ele>2223</ele>
        <time>2020-07-30T17:53:41Z</time>
      </trkpt>
      <trkpt lat="45.84106" lon="6.44914">
        <ele>2228</ele>
        <time>2020-07-30T17:53:37Z</time>
      </trkpt>
      <trkpt lat="45.84121" lon="6.44887">
        <ele>2238</ele>
        <time>2020-07-30T17:53:25Z</time>
      </trkpt>
      <trkpt lat="45.84124" lon="6.4489">
        <ele>2239</ele>
        <time>2020-07-30T17:53:24Z</time>
      </trkpt>
      <trkpt lat="45.84129" lon="6.44881">
        <ele>2243</ele>
        <time>2020-07-30T17:53:20Z</time>
      </trkpt>
      <trkpt lat="45.84134" lon="6.44882">
        <ele>2246</ele>
        <time>2020-07-30T17:53:17Z</time>
      </trkpt>
      <trkpt lat="45.84138" lon="6.44878">
        <ele>2249</ele>
        <time>2020-07-30T17:53:15Z</time>
      </trkpt>
      <trkpt lat="45.8414" lon="6.44881">
        <ele>2249</ele>
        <time>2020-07-30T17:53:13Z</time>
      </trkpt>
      <trkpt lat="45.84143" lon="6.44881">
        <ele>2251</ele>
        <time>2020-07-30T17:53:12Z</time>
      </trkpt>
      <trkpt lat="45.84153" lon="6.44867">
        <ele>2261</ele>
        <time>2020-07-30T17:53:05Z</time>
      </trkpt>
      <trkpt lat="45.84158" lon="6.44878">
        <ele>2260</ele>
        <time>2020-07-30T17:53:00Z</time>
      </trkpt>
      <trkpt lat="45.84161" lon="6.4488">
        <ele>2261</ele>
        <time>2020-07-30T17:52:58Z</time>
      </trkpt>
      <trkpt lat="45.84175" lon="6.44863">
        <ele>2273</ele>
        <time>2020-07-30T17:52:49Z</time>
      </trkpt>
      <trkpt lat="45.84178" lon="6.44869">
        <ele>2272</ele>
        <time>2020-07-30T17:52:47Z</time>
      </trkpt>
      <trkpt lat="45.84181" lon="6.44865">
        <ele>2274</ele>
        <time>2020-07-30T17:52:45Z</time>
      </trkpt>
      <trkpt lat="45.84186" lon="6.4487">
        <ele>2274</ele>
        <time>2020-07-30T17:52:42Z</time>
      </trkpt>
      <trkpt lat="45.84192" lon="6.44857">
        <ele>2281</ele>
        <time>2020-07-30T17:52:36Z</time>
      </trkpt>
      <trkpt lat="45.84224" lon="6.44808">
        <ele>2304</ele>
        <time>2020-07-30T17:52:13Z</time>
      </trkpt>
      <trkpt lat="45.84239" lon="6.4477">
        <ele>2314</ele>
        <time>2020-07-30T17:51:58Z</time>
      </trkpt>
      <trkpt lat="45.84244" lon="6.44763">
        <ele>2318</ele>
        <time>2020-07-30T17:51:54Z</time>
      </trkpt>
      <trkpt lat="45.84255" lon="6.44764">
        <ele>2322</ele>
        <time>2020-07-30T17:51:49Z</time>
      </trkpt>
      <trkpt lat="45.84275" lon="6.44776">
        <ele>2324</ele>
        <time>2020-07-30T17:51:38Z</time>
      </trkpt>
      <trkpt lat="45.84287" lon="6.44775">
        <ele>2327</ele>
        <time>2020-07-30T17:51:32Z</time>
      </trkpt>
      <trkpt lat="45.84334" lon="6.44754">
        <ele>2341</ele>
        <time>2020-07-30T17:51:07Z</time>
      </trkpt>
      <trkpt lat="45.84344" lon="6.44743">
        <ele>2342</ele>
        <time>2020-07-30T17:51:01Z</time>
      </trkpt>
      <trkpt lat="45.8437" lon="6.44729">
        <ele>2345</ele>
        <time>2020-07-30T17:50:47Z</time>
      </trkpt>
      <trkpt lat="45.84386" lon="6.44712">
        <ele>2349</ele>
        <time>2020-07-30T17:50:37Z</time>
      </trkpt>
      <trkpt lat="45.84407" lon="6.44683">
        <ele>2357</ele>
        <time>2020-07-30T17:50:22Z</time>
      </trkpt>
      <trkpt lat="45.84418" lon="6.4466">
        <ele>2362</ele>
        <time>2020-07-30T17:50:13Z</time>
      </trkpt>
      <trkpt lat="45.84435" lon="6.44642">
        <ele>2359</ele>
        <time>2020-07-30T17:50:02Z</time>
      </trkpt>
      <trkpt lat="45.84449" lon="6.44615">
        <ele>2362</ele>
        <time>2020-07-30T17:49:50Z</time>
      </trkpt>
      <trkpt lat="45.84463" lon="6.44554">
        <ele>2376</ele>
        <time>2020-07-30T17:49:28Z</time>
      </trkpt>
      <trkpt lat="45.84473" lon="6.44536">
        <ele>2382</ele>
        <time>2020-07-30T17:49:20Z</time>
      </trkpt>
      <trkpt lat="45.84473" lon="6.44525">
        <ele>2383</ele>
        <time>2020-07-30T17:49:16Z</time>
      </trkpt>
      <trkpt lat="45.84476" lon="6.44519">
        <ele>2385</ele>
        <time>2020-07-30T17:49:13Z</time>
      </trkpt>
      <trkpt lat="45.84481" lon="6.4453">
        <ele>2386</ele>
        <time>2020-07-30T17:49:09Z</time>
      </trkpt>
      <trkpt lat="45.84484" lon="6.44528">
        <ele>2388</ele>
        <time>2020-07-30T17:49:07Z</time>
      </trkpt>
      <trkpt lat="45.84488" lon="6.44529">
        <ele>2390</ele>
        <time>2020-07-30T17:49:05Z</time>
      </trkpt>
      <trkpt lat="45.8449" lon="6.44522">
        <ele>2392</ele>
        <time>2020-07-30T17:49:03Z</time>
      </trkpt>
      <trkpt lat="45.84493" lon="6.44521">
        <ele>2394</ele>
        <time>2020-07-30T17:49:01Z</time>
      </trkpt>
      <trkpt lat="45.845" lon="6.44526">
        <ele>2397</ele>
        <time>2020-07-30T17:48:57Z</time>
      </trkpt>
      <trkpt lat="45.84504" lon="6.44515">
        <ele>2400</ele>
        <time>2020-07-30T17:48:53Z</time>
      </trkpt>
      <trkpt lat="45.84504" lon="6.44503">
        <ele>2402</ele>
        <time>2020-07-30T17:48:49Z</time>
      </trkpt>
      <trkpt lat="45.84508" lon="6.44496">
        <ele>2402</ele>
        <time>2020-07-30T17:48:45Z</time>
      </trkpt>
      <trkpt lat="45.84505" lon="6.44493">
        <ele>2401</ele>
        <time>2020-07-30T17:48:44Z</time>
      </trkpt>
      <trkpt lat="45.84518" lon="6.44485">
        <ele>2401</ele>
        <time>2020-07-30T17:48:36Z</time>
      </trkpt>
      <trkpt lat="45.84531" lon="6.44486">
        <ele>2403</ele>
        <time>2020-07-30T17:48:30Z</time>
      </trkpt>
      <trkpt lat="45.84543" lon="6.44497">
        <ele>2408</ele>
        <time>2020-07-30T17:48:23Z</time>
      </trkpt>
      <trkpt lat="45.84548" lon="6.44495">
        <ele>2408</ele>
        <time>2020-07-30T17:48:20Z</time>
      </trkpt>
      <trkpt lat="45.84549" lon="6.44501">
        <ele>2410</ele>
        <time>2020-07-30T17:48:18Z</time>
      </trkpt>
      <trkpt lat="45.8456" lon="6.44511">
        <ele>2411</ele>
        <time>2020-07-30T17:48:12Z</time>
      </trkpt>
      <trkpt lat="45.84571" lon="6.44526">
        <ele>2413</ele>
        <time>2020-07-30T17:48:04Z</time>
      </trkpt>
      <trkpt lat="45.84579" lon="6.4453">
        <ele>2414</ele>
        <time>2020-07-30T17:48:00Z</time>
      </trkpt>
      <trkpt lat="45.84601" lon="6.44562">
        <ele>2417</ele>
        <time>2020-07-30T17:47:44Z</time>
      </trkpt>
      <trkpt lat="45.84619" lon="6.44575">
        <ele>2422</ele>
        <time>2020-07-30T17:47:34Z</time>
      </trkpt>
      <trkpt lat="45.84636" lon="6.44584">
        <ele>2427</ele>
        <time>2020-07-30T17:47:25Z</time>
      </trkpt>
      <trkpt lat="45.8464" lon="6.44583">
        <ele>2428</ele>
        <time>2020-07-30T17:47:23Z</time>
      </trkpt>
      <trkpt lat="45.84672" lon="6.44591">
        <ele>2429</ele>
        <time>2020-07-30T17:47:07Z</time>
      </trkpt>
      <trkpt lat="45.84671" lon="6.44597">
        <ele>2426</ele>
        <time>2020-07-30T17:47:04Z</time>
      </trkpt>
      <trkpt lat="45.84678" lon="6.44601">
        <ele>2423</ele>
        <time>2020-07-30T17:47:01Z</time>
      </trkpt>
      <trkpt lat="45.84687" lon="6.44601">
        <ele>2422</ele>
        <time>2020-07-30T17:46:56Z</time>
      </trkpt>
      <trkpt lat="45.84695" lon="6.44595">
        <ele>2423</ele>
        <time>2020-07-30T17:46:52Z</time>
      </trkpt>
      <trkpt lat="45.84707" lon="6.44601">
        <ele>2420</ele>
        <time>2020-07-30T17:46:45Z</time>
      </trkpt>
      <trkpt lat="45.84714" lon="6.44615">
        <ele>2417</ele>
        <time>2020-07-30T17:46:39Z</time>
      </trkpt>
      <trkpt lat="45.84725" lon="6.44617">
        <ele>2417</ele>
        <time>2020-07-30T17:46:34Z</time>
      </trkpt>
      <trkpt lat="45.84731" lon="6.44629">
        <ele>2417</ele>
        <time>2020-07-30T17:46:29Z</time>
      </trkpt>
      <trkpt lat="45.84743" lon="6.4464">
        <ele>2420</ele>
        <time>2020-07-30T17:46:22Z</time>
      </trkpt>
      <trkpt lat="45.84749" lon="6.44642">
        <ele>2422</ele>
        <time>2020-07-30T17:46:18Z</time>
      </trkpt>
      <trkpt lat="45.84758" lon="6.44639">
        <ele>2421</ele>
        <time>2020-07-30T17:46:14Z</time>
      </trkpt>
      <trkpt lat="45.84783" lon="6.44651">
        <ele>2424</ele>
        <time>2020-07-30T17:46:01Z</time>
      </trkpt>
      <trkpt lat="45.84808" lon="6.44652">
        <ele>2424</ele>
        <time>2020-07-30T17:45:48Z</time>
      </trkpt>
      <trkpt lat="45.84819" lon="6.44668">
        <ele>2429</ele>
        <time>2020-07-30T17:45:40Z</time>
      </trkpt>
      <trkpt lat="45.84833" lon="6.44671">
        <ele>2428</ele>
        <time>2020-07-30T17:45:33Z</time>
      </trkpt>
      <trkpt lat="45.84843" lon="6.44678">
        <ele>2424</ele>
        <time>2020-07-30T17:45:28Z</time>
      </trkpt>
      <trkpt lat="45.84848" lon="6.44674">
        <ele>2427</ele>
        <time>2020-07-30T17:45:25Z</time>
      </trkpt>
      <trkpt lat="45.84851" lon="6.44675">
        <ele>2427</ele>
        <time>2020-07-30T17:45:23Z</time>
      </trkpt>
      <trkpt lat="45.8486" lon="6.44689">
        <ele>2420</ele>
        <time>2020-07-30T17:45:17Z</time>
      </trkpt>
      <trkpt lat="45.84891" lon="6.4469">
        <ele>2427</ele>
        <time>2020-07-30T17:45:01Z</time>
      </trkpt>
      <trkpt lat="45.84898" lon="6.44687">
        <ele>2430</ele>
        <time>2020-07-30T17:44:57Z</time>
      </trkpt>
      <trkpt lat="45.84921" lon="6.4469">
        <ele>2434</ele>
        <time>2020-07-30T17:44:46Z</time>
      </trkpt>
      <trkpt lat="45.84932" lon="6.44702">
        <ele>2433</ele>
        <time>2020-07-30T17:44:39Z</time>
      </trkpt>
      <trkpt lat="45.84936" lon="6.4471">
        <ele>2434</ele>
        <time>2020-07-30T17:44:35Z</time>
      </trkpt>
      <trkpt lat="45.84942" lon="6.44711">
        <ele>2434</ele>
        <time>2020-07-30T17:44:32Z</time>
      </trkpt>
      <trkpt lat="45.84944" lon="6.44715">
        <ele>2435</ele>
        <time>2020-07-30T17:44:31Z</time>
      </trkpt>
      <trkpt lat="45.84949" lon="6.44716">
        <ele>2435</ele>
        <time>2020-07-30T17:44:28Z</time>
      </trkpt>
      <trkpt lat="45.84955" lon="6.44723">
        <ele>2437</ele>
        <time>2020-07-30T17:44:24Z</time>
      </trkpt>
      <trkpt lat="45.84957" lon="6.4473">
        <ele>2438</ele>
        <time>2020-07-30T17:44:22Z</time>
      </trkpt>
      <trkpt lat="45.84964" lon="6.44731">
        <ele>2439</ele>
        <time>2020-07-30T17:44:18Z</time>
      </trkpt>
      <trkpt lat="45.84966" lon="6.44734">
        <ele>2440</ele>
        <time>2020-07-30T17:44:17Z</time>
      </trkpt>
      <trkpt lat="45.84987" lon="6.44729">
        <ele>2444</ele>
        <time>2020-07-30T17:44:06Z</time>
      </trkpt>
      <trkpt lat="45.84992" lon="6.44724">
        <ele>2444</ele>
        <time>2020-07-30T17:44:03Z</time>
      </trkpt>
      <trkpt lat="45.84999" lon="6.44726">
        <ele>2446</ele>
        <time>2020-07-30T17:43:59Z</time>
      </trkpt>
      <trkpt lat="45.85005" lon="6.44721">
        <ele>2441</ele>
        <time>2020-07-30T17:43:56Z</time>
      </trkpt>
      <trkpt lat="45.85027" lon="6.44699">
        <ele>2422</ele>
        <time>2020-07-30T17:43:43Z</time>
      </trkpt>
      <trkpt lat="45.8503" lon="6.44684">
        <ele>2419</ele>
        <time>2020-07-30T17:43:37Z</time>
      </trkpt>
      <trkpt lat="45.85038" lon="6.44678">
        <ele>2414</ele>
        <time>2020-07-30T17:43:33Z</time>
      </trkpt>
      <trkpt lat="45.85038" lon="6.44642">
        <ele>2408</ele>
        <time>2020-07-30T17:43:20Z</time>
      </trkpt>
      <trkpt lat="45.8504" lon="6.44634">
        <ele>2405</ele>
        <time>2020-07-30T17:43:17Z</time>
      </trkpt>
      <trkpt lat="45.85038" lon="6.4462">
        <ele>2402</ele>
        <time>2020-07-30T17:43:12Z</time>
      </trkpt>
      <trkpt lat="45.85035" lon="6.4462">
        <ele>2402</ele>
        <time>2020-07-30T17:43:11Z</time>
      </trkpt>
      <trkpt lat="45.85031" lon="6.44613">
        <ele>2400</ele>
        <time>2020-07-30T17:43:07Z</time>
      </trkpt>
      <trkpt lat="45.85033" lon="6.44585">
        <ele>2392</ele>
        <time>2020-07-30T17:42:58Z</time>
      </trkpt>
      <trkpt lat="45.85029" lon="6.44546">
        <ele>2378</ele>
        <time>2020-07-30T17:42:44Z</time>
      </trkpt>
      <trkpt lat="45.85023" lon="6.44546">
        <ele>2376</ele>
        <time>2020-07-30T17:42:41Z</time>
      </trkpt>
      <trkpt lat="45.85021" lon="6.44537">
        <ele>2373</ele>
        <time>2020-07-30T17:42:38Z</time>
      </trkpt>
      <trkpt lat="45.85018" lon="6.44537">
        <ele>2371</ele>
        <time>2020-07-30T17:42:36Z</time>
      </trkpt>
      <trkpt lat="45.85012" lon="6.44522">
        <ele>2364</ele>
        <time>2020-07-30T17:42:30Z</time>
      </trkpt>
      <trkpt lat="45.85011" lon="6.44509">
        <ele>2359</ele>
        <time>2020-07-30T17:42:26Z</time>
      </trkpt>
      <trkpt lat="45.85015" lon="6.44481">
        <ele>2351</ele>
        <time>2020-07-30T17:42:16Z</time>
      </trkpt>
      <trkpt lat="45.85012" lon="6.44476">
        <ele>2347</ele>
        <time>2020-07-30T17:42:13Z</time>
      </trkpt>
      <trkpt lat="45.85009" lon="6.44476">
        <ele>2345</ele>
        <time>2020-07-30T17:42:12Z</time>
      </trkpt>
      <trkpt lat="45.85008" lon="6.44467">
        <ele>2341</ele>
        <time>2020-07-30T17:42:09Z</time>
      </trkpt>
      <trkpt lat="45.85005" lon="6.44469">
        <ele>2340</ele>
        <time>2020-07-30T17:42:07Z</time>
      </trkpt>
      <trkpt lat="45.85004" lon="6.44454">
        <ele>2333</ele>
        <time>2020-07-30T17:42:02Z</time>
      </trkpt>
      <trkpt lat="45.84993" lon="6.44444">
        <ele>2323</ele>
        <time>2020-07-30T17:41:55Z</time>
      </trkpt>
      <trkpt lat="45.84996" lon="6.44431">
        <ele>2318</ele>
        <time>2020-07-30T17:41:50Z</time>
      </trkpt>
      <trkpt lat="45.84992" lon="6.44432">
        <ele>2317</ele>
        <time>2020-07-30T17:41:48Z</time>
      </trkpt>
      <trkpt lat="45.84991" lon="6.44426">
        <ele>2313</ele>
        <time>2020-07-30T17:41:46Z</time>
      </trkpt>
      <trkpt lat="45.84985" lon="6.44425">
        <ele>2309</ele>
        <time>2020-07-30T17:41:43Z</time>
      </trkpt>
      <trkpt lat="45.84985" lon="6.4442">
        <ele>2307</ele>
        <time>2020-07-30T17:41:41Z</time>
      </trkpt>
      <trkpt lat="45.84981" lon="6.44415">
        <ele>2303</ele>
        <time>2020-07-30T17:41:39Z</time>
      </trkpt>
      <trkpt lat="45.84981" lon="6.44402">
        <ele>2300</ele>
        <time>2020-07-30T17:41:34Z</time>
      </trkpt>
      <trkpt lat="45.84978" lon="6.44399">
        <ele>2298</ele>
        <time>2020-07-30T17:41:32Z</time>
      </trkpt>
      <trkpt lat="45.84981" lon="6.44382">
        <ele>2297</ele>
        <time>2020-07-30T17:41:26Z</time>
      </trkpt>
      <trkpt lat="45.84978" lon="6.44379">
        <ele>2294</ele>
        <time>2020-07-30T17:41:24Z</time>
      </trkpt>
      <trkpt lat="45.84975" lon="6.44368">
        <ele>2290</ele>
        <time>2020-07-30T17:41:20Z</time>
      </trkpt>
      <trkpt lat="45.84976" lon="6.44344">
        <ele>2286</ele>
        <time>2020-07-30T17:41:12Z</time>
      </trkpt>
      <trkpt lat="45.84973" lon="6.44337">
        <ele>2282</ele>
        <time>2020-07-30T17:41:09Z</time>
      </trkpt>
      <trkpt lat="45.84973" lon="6.44323">
        <ele>2280</ele>
        <time>2020-07-30T17:41:04Z</time>
      </trkpt>
      <trkpt lat="45.8497" lon="6.44312">
        <ele>2276</ele>
        <time>2020-07-30T17:41:00Z</time>
      </trkpt>
      <trkpt lat="45.84974" lon="6.44295">
        <ele>2276</ele>
        <time>2020-07-30T17:40:54Z</time>
      </trkpt>
      <trkpt lat="45.84972" lon="6.44294">
        <ele>2275</ele>
        <time>2020-07-30T17:40:53Z</time>
      </trkpt>
      <trkpt lat="45.84973" lon="6.44283">
        <ele>2274</ele>
        <time>2020-07-30T17:40:49Z</time>
      </trkpt>
      <trkpt lat="45.8497" lon="6.44282">
        <ele>2271</ele>
        <time>2020-07-30T17:40:47Z</time>
      </trkpt>
      <trkpt lat="45.84972" lon="6.44271">
        <ele>2271</ele>
        <time>2020-07-30T17:40:43Z</time>
      </trkpt>
      <trkpt lat="45.84969" lon="6.44266">
        <ele>2267</ele>
        <time>2020-07-30T17:40:41Z</time>
      </trkpt>
      <trkpt lat="45.84966" lon="6.44246">
        <ele>2260</ele>
        <time>2020-07-30T17:40:34Z</time>
      </trkpt>
      <trkpt lat="45.84968" lon="6.44222">
        <ele>2253</ele>
        <time>2020-07-30T17:40:26Z</time>
      </trkpt>
      <trkpt lat="45.84965" lon="6.44203">
        <ele>2244</ele>
        <time>2020-07-30T17:40:19Z</time>
      </trkpt>
      <trkpt lat="45.84968" lon="6.44187">
        <ele>2240</ele>
        <time>2020-07-30T17:40:13Z</time>
      </trkpt>
      <trkpt lat="45.84966" lon="6.44178">
        <ele>2236</ele>
        <time>2020-07-30T17:40:10Z</time>
      </trkpt>
      <trkpt lat="45.84968" lon="6.44177">
        <ele>2237</ele>
        <time>2020-07-30T17:40:09Z</time>
      </trkpt>
      <trkpt lat="45.84963" lon="6.4417">
        <ele>2231</ele>
        <time>2020-07-30T17:40:05Z</time>
      </trkpt>
      <trkpt lat="45.84963" lon="6.44165">
        <ele>2229</ele>
        <time>2020-07-30T17:40:03Z</time>
      </trkpt>
      <trkpt lat="45.84954" lon="6.44171">
        <ele>2225</ele>
        <time>2020-07-30T17:39:58Z</time>
      </trkpt>
      <trkpt lat="45.8495" lon="6.44164">
        <ele>2220</ele>
        <time>2020-07-30T17:39:55Z</time>
      </trkpt>
      <trkpt lat="45.84945" lon="6.44163">
        <ele>2216</ele>
        <time>2020-07-30T17:39:53Z</time>
      </trkpt>
      <trkpt lat="45.84947" lon="6.4414">
        <ele>2210</ele>
        <time>2020-07-30T17:39:45Z</time>
      </trkpt>
      <trkpt lat="45.84943" lon="6.4413">
        <ele>2204</ele>
        <time>2020-07-30T17:39:41Z</time>
      </trkpt>
      <trkpt lat="45.84941" lon="6.44089">
        <ele>2188</ele>
        <time>2020-07-30T17:39:26Z</time>
      </trkpt>
      <trkpt lat="45.84939" lon="6.44088">
        <ele>2187</ele>
        <time>2020-07-30T17:39:25Z</time>
      </trkpt>
      <trkpt lat="45.84941" lon="6.44075">
        <ele>2184</ele>
        <time>2020-07-30T17:39:21Z</time>
      </trkpt>
      <trkpt lat="45.84939" lon="6.4407">
        <ele>2182</ele>
        <time>2020-07-30T17:39:19Z</time>
      </trkpt>
      <trkpt lat="45.84941" lon="6.44065">
        <ele>2181</ele>
        <time>2020-07-30T17:39:17Z</time>
      </trkpt>
      <trkpt lat="45.84941" lon="6.44045">
        <ele>2176</ele>
        <time>2020-07-30T17:39:10Z</time>
      </trkpt>
      <trkpt lat="45.84956" lon="6.44009">
        <ele>2175</ele>
        <time>2020-07-30T17:38:55Z</time>
      </trkpt>
      <trkpt lat="45.84956" lon="6.43996">
        <ele>2170</ele>
        <time>2020-07-30T17:38:51Z</time>
      </trkpt>
      <trkpt lat="45.84958" lon="6.43999">
        <ele>2173</ele>
        <time>2020-07-30T17:38:49Z</time>
      </trkpt>
      <trkpt lat="45.84961" lon="6.43996">
        <ele>2174</ele>
        <time>2020-07-30T17:38:47Z</time>
      </trkpt>
      <trkpt lat="45.84961" lon="6.43989">
        <ele>2170</ele>
        <time>2020-07-30T17:38:45Z</time>
      </trkpt>
      <trkpt lat="45.84955" lon="6.43976">
        <ele>2159</ele>
        <time>2020-07-30T17:38:39Z</time>
      </trkpt>
      <trkpt lat="45.8496" lon="6.43967">
        <ele>2158</ele>
        <time>2020-07-30T17:38:35Z</time>
      </trkpt>
      <trkpt lat="45.84958" lon="6.43955">
        <ele>2150</ele>
        <time>2020-07-30T17:38:31Z</time>
      </trkpt>
      <trkpt lat="45.84959" lon="6.4395">
        <ele>2148</ele>
        <time>2020-07-30T17:38:29Z</time>
      </trkpt>
      <trkpt lat="45.84962" lon="6.43948">
        <ele>2149</ele>
        <time>2020-07-30T17:38:28Z</time>
      </trkpt>
      <trkpt lat="45.84961" lon="6.43924">
        <ele>2135</ele>
        <time>2020-07-30T17:38:19Z</time>
      </trkpt>
      <trkpt lat="45.84963" lon="6.4392">
        <ele>2134</ele>
        <time>2020-07-30T17:38:17Z</time>
      </trkpt>
      <trkpt lat="45.84961" lon="6.43911">
        <ele>2128</ele>
        <time>2020-07-30T17:38:14Z</time>
      </trkpt>
      <trkpt lat="45.84965" lon="6.43909">
        <ele>2130</ele>
        <time>2020-07-30T17:38:12Z</time>
      </trkpt>
      <trkpt lat="45.84961" lon="6.43903">
        <ele>2124</ele>
        <time>2020-07-30T17:38:09Z</time>
      </trkpt>
      <trkpt lat="45.84964" lon="6.43901">
        <ele>2125</ele>
        <time>2020-07-30T17:38:08Z</time>
      </trkpt>
      <trkpt lat="45.84963" lon="6.43897">
        <ele>2122</ele>
        <time>2020-07-30T17:38:06Z</time>
      </trkpt>
      <trkpt lat="45.84965" lon="6.43894">
        <ele>2121</ele>
        <time>2020-07-30T17:38:05Z</time>
      </trkpt>
      <trkpt lat="45.84967" lon="6.43894">
        <ele>2122</ele>
        <time>2020-07-30T17:38:04Z</time>
      </trkpt>
      <trkpt lat="45.84964" lon="6.43887">
        <ele>2117</ele>
        <time>2020-07-30T17:38:01Z</time>
      </trkpt>
      <trkpt lat="45.84968" lon="6.43877">
        <ele>2113</ele>
        <time>2020-07-30T17:37:57Z</time>
      </trkpt>
      <trkpt lat="45.84966" lon="6.43864">
        <ele>2105</ele>
        <time>2020-07-30T17:37:52Z</time>
      </trkpt>
      <trkpt lat="45.8497" lon="6.4386">
        <ele>2105</ele>
        <time>2020-07-30T17:37:50Z</time>
      </trkpt>
      <trkpt lat="45.8497" lon="6.43855">
        <ele>2102</ele>
        <time>2020-07-30T17:37:48Z</time>
      </trkpt>
      <trkpt lat="45.84979" lon="6.43845">
        <ele>2100</ele>
        <time>2020-07-30T17:37:42Z</time>
      </trkpt>
      <trkpt lat="45.84978" lon="6.43834">
        <ele>2093</ele>
        <time>2020-07-30T17:37:38Z</time>
      </trkpt>
      <trkpt lat="45.84985" lon="6.43832">
        <ele>2095</ele>
        <time>2020-07-30T17:37:35Z</time>
      </trkpt>
      <trkpt lat="45.8499" lon="6.43834">
        <ele>2098</ele>
        <time>2020-07-30T17:37:32Z</time>
      </trkpt>
      <trkpt lat="45.84996" lon="6.43833">
        <ele>2100</ele>
        <time>2020-07-30T17:37:29Z</time>
      </trkpt>
      <trkpt lat="45.85003" lon="6.43828">
        <ele>2099</ele>
        <time>2020-07-30T17:37:25Z</time>
      </trkpt>
      <trkpt lat="45.85002" lon="6.43825">
        <ele>2099</ele>
        <time>2020-07-30T17:37:24Z</time>
      </trkpt>
      <trkpt lat="45.85005" lon="6.43824">
        <ele>2098</ele>
        <time>2020-07-30T17:37:23Z</time>
      </trkpt>
      <trkpt lat="45.85004" lon="6.43812">
        <ele>2094</ele>
        <time>2020-07-30T17:37:18Z</time>
      </trkpt>
      <trkpt lat="45.85007" lon="6.43812">
        <ele>2093</ele>
        <time>2020-07-30T17:37:17Z</time>
      </trkpt>
      <trkpt lat="45.85013" lon="6.43818">
        <ele>2093</ele>
        <time>2020-07-30T17:37:13Z</time>
      </trkpt>
      <trkpt lat="45.85019" lon="6.43816">
        <ele>2091</ele>
        <time>2020-07-30T17:37:10Z</time>
      </trkpt>
      <trkpt lat="45.8502" lon="6.43818">
        <ele>2092</ele>
        <time>2020-07-30T17:37:09Z</time>
      </trkpt>
      <trkpt lat="45.85033" lon="6.43807">
        <ele>2084</ele>
        <time>2020-07-30T17:37:02Z</time>
      </trkpt>
      <trkpt lat="45.85037" lon="6.4381">
        <ele>2084</ele>
        <time>2020-07-30T17:36:59Z</time>
      </trkpt>
      <trkpt lat="45.8504" lon="6.43807">
        <ele>2082</ele>
        <time>2020-07-30T17:36:58Z</time>
      </trkpt>
      <trkpt lat="45.85045" lon="6.438">
        <ele>2079</ele>
        <time>2020-07-30T17:36:54Z</time>
      </trkpt>
      <trkpt lat="45.85045" lon="6.43788">
        <ele>2074</ele>
        <time>2020-07-30T17:36:50Z</time>
      </trkpt>
      <trkpt lat="45.85048" lon="6.43789">
        <ele>2074</ele>
        <time>2020-07-30T17:36:48Z</time>
      </trkpt>
      <trkpt lat="45.8505" lon="6.43787">
        <ele>2072</ele>
        <time>2020-07-30T17:36:47Z</time>
      </trkpt>
      <trkpt lat="45.8505" lon="6.4379">
        <ele>2074</ele>
        <time>2020-07-30T17:36:46Z</time>
      </trkpt>
      <trkpt lat="45.85048" lon="6.43788">
        <ele>2073</ele>
        <time>2020-07-30T17:36:45Z</time>
      </trkpt>
      <trkpt lat="45.85051" lon="6.43791">
        <ele>2074</ele>
        <time>2020-07-30T17:36:43Z</time>
      </trkpt>
      <trkpt lat="45.85055" lon="6.43784">
        <ele>2070</ele>
        <time>2020-07-30T17:36:40Z</time>
      </trkpt>
      <trkpt lat="45.85054" lon="6.43781">
        <ele>2069</ele>
        <time>2020-07-30T17:36:39Z</time>
      </trkpt>
      <trkpt lat="45.8506" lon="6.43767">
        <ele>2062</ele>
        <time>2020-07-30T17:36:33Z</time>
      </trkpt>
      <trkpt lat="45.85058" lon="6.43768">
        <ele>2063</ele>
        <time>2020-07-30T17:36:32Z</time>
      </trkpt>
      <trkpt lat="45.8506" lon="6.43769">
        <ele>2063</ele>
        <time>2020-07-30T17:36:31Z</time>
      </trkpt>
      <trkpt lat="45.8507" lon="6.43764">
        <ele>2058</ele>
        <time>2020-07-30T17:36:26Z</time>
      </trkpt>
      <trkpt lat="45.85069" lon="6.43754">
        <ele>2055</ele>
        <time>2020-07-30T17:36:22Z</time>
      </trkpt>
      <trkpt lat="45.85075" lon="6.43748">
        <ele>2050</ele>
        <time>2020-07-30T17:36:18Z</time>
      </trkpt>
      <trkpt lat="45.85075" lon="6.4375">
        <ele>2052</ele>
        <time>2020-07-30T17:36:18Z</time>
      </trkpt>
      <trkpt lat="45.85078" lon="6.4375">
        <ele>2051</ele>
        <time>2020-07-30T17:36:16Z</time>
      </trkpt>
      <trkpt lat="45.85081" lon="6.43742">
        <ele>2046</ele>
        <time>2020-07-30T17:36:13Z</time>
      </trkpt>
      <trkpt lat="45.85088" lon="6.43739">
        <ele>2040</ele>
        <time>2020-07-30T17:36:09Z</time>
      </trkpt>
      <trkpt lat="45.85086" lon="6.43737">
        <ele>2041</ele>
        <time>2020-07-30T17:36:08Z</time>
      </trkpt>
      <trkpt lat="45.85092" lon="6.43736">
        <ele>2036</ele>
        <time>2020-07-30T17:36:05Z</time>
      </trkpt>
      <trkpt lat="45.85096" lon="6.43739">
        <ele>2034</ele>
        <time>2020-07-30T17:36:03Z</time>
      </trkpt>
      <trkpt lat="45.85106" lon="6.43729">
        <ele>2022</ele>
        <time>2020-07-30T17:35:57Z</time>
      </trkpt>
      <trkpt lat="45.85115" lon="6.43724">
        <ele>2013</ele>
        <time>2020-07-30T17:35:52Z</time>
      </trkpt>
      <trkpt lat="45.85122" lon="6.43723">
        <ele>2008</ele>
        <time>2020-07-30T17:35:48Z</time>
      </trkpt>
      <trkpt lat="45.85123" lon="6.43718">
        <ele>2005</ele>
        <time>2020-07-30T17:35:47Z</time>
      </trkpt>
      <trkpt lat="45.85121" lon="6.43722">
        <ele>2008</ele>
        <time>2020-07-30T17:35:45Z</time>
      </trkpt>
      <trkpt lat="45.8512" lon="6.43719">
        <ele>2007</ele>
        <time>2020-07-30T17:35:44Z</time>
      </trkpt>
      <trkpt lat="45.85122" lon="6.43723">
        <ele>2008</ele>
        <time>2020-07-30T17:35:42Z</time>
      </trkpt>
      <trkpt lat="45.85131" lon="6.43717">
        <ele>1999</ele>
        <time>2020-07-30T17:35:37Z</time>
      </trkpt>
      <trkpt lat="45.85132" lon="6.43721">
        <ele>2000</ele>
        <time>2020-07-30T17:35:36Z</time>
      </trkpt>
      <trkpt lat="45.85141" lon="6.43723">
        <ele>1994</ele>
        <time>2020-07-30T17:35:31Z</time>
      </trkpt>
      <trkpt lat="45.85144" lon="6.43719">
        <ele>1990</ele>
        <time>2020-07-30T17:35:29Z</time>
      </trkpt>
      <trkpt lat="45.85142" lon="6.43717">
        <ele>1991</ele>
        <time>2020-07-30T17:35:28Z</time>
      </trkpt>
      <trkpt lat="45.85143" lon="6.43711">
        <ele>1987</ele>
        <time>2020-07-30T17:35:26Z</time>
      </trkpt>
      <trkpt lat="45.85145" lon="6.43712">
        <ele>1986</ele>
        <time>2020-07-30T17:35:25Z</time>
      </trkpt>
      <trkpt lat="45.85144" lon="6.4371">
        <ele>1986</ele>
        <time>2020-07-30T17:35:24Z</time>
      </trkpt>
      <trkpt lat="45.85149" lon="6.437">
        <ele>1978</ele>
        <time>2020-07-30T17:35:19Z</time>
      </trkpt>
      <trkpt lat="45.85148" lon="6.43697">
        <ele>1978</ele>
        <time>2020-07-30T17:35:18Z</time>
      </trkpt>
      <trkpt lat="45.85152" lon="6.43701">
        <ele>1977</ele>
        <time>2020-07-30T17:35:16Z</time>
      </trkpt>
      <trkpt lat="45.8515" lon="6.43702">
        <ele>1979</ele>
        <time>2020-07-30T17:35:15Z</time>
      </trkpt>
      <trkpt lat="45.8515" lon="6.43697">
        <ele>1976</ele>
        <time>2020-07-30T17:35:13Z</time>
      </trkpt>
      <trkpt lat="45.85163" lon="6.43699">
        <ele>1968</ele>
        <time>2020-07-30T17:35:06Z</time>
      </trkpt>
      <trkpt lat="45.85167" lon="6.43687">
        <ele>1960</ele>
        <time>2020-07-30T17:35:02Z</time>
      </trkpt>
      <trkpt lat="45.85166" lon="6.43694">
        <ele>1964</ele>
        <time>2020-07-30T17:34:59Z</time>
      </trkpt>
      <trkpt lat="45.85172" lon="6.43693">
        <ele>1959</ele>
        <time>2020-07-30T17:34:56Z</time>
      </trkpt>
      <trkpt lat="45.85173" lon="6.4369">
        <ele>1957</ele>
        <time>2020-07-30T17:34:55Z</time>
      </trkpt>
      <trkpt lat="45.85174" lon="6.43693">
        <ele>1957</ele>
        <time>2020-07-30T17:34:54Z</time>
      </trkpt>
      <trkpt lat="45.85174" lon="6.43691">
        <ele>1957</ele>
        <time>2020-07-30T17:34:53Z</time>
      </trkpt>
      <trkpt lat="45.8518" lon="6.43689">
        <ele>1951</ele>
        <time>2020-07-30T17:34:50Z</time>
      </trkpt>
      <trkpt lat="45.85181" lon="6.43692">
        <ele>1952</ele>
        <time>2020-07-30T17:34:49Z</time>
      </trkpt>
      <trkpt lat="45.85185" lon="6.43692">
        <ele>1949</ele>
        <time>2020-07-30T17:34:47Z</time>
      </trkpt>
      <trkpt lat="45.85186" lon="6.437">
        <ele>1951</ele>
        <time>2020-07-30T17:34:44Z</time>
      </trkpt>
      <trkpt lat="45.85192" lon="6.43696">
        <ele>1945</ele>
        <time>2020-07-30T17:34:41Z</time>
      </trkpt>
      <trkpt lat="45.85201" lon="6.43701">
        <ele>1939</ele>
        <time>2020-07-30T17:34:36Z</time>
      </trkpt>
      <trkpt lat="45.85208" lon="6.43693">
        <ele>1931</ele>
        <time>2020-07-30T17:34:32Z</time>
      </trkpt>
      <trkpt lat="45.85214" lon="6.43692">
        <ele>1926</ele>
        <time>2020-07-30T17:34:29Z</time>
      </trkpt>
      <trkpt lat="45.85217" lon="6.43688">
        <ele>1923</ele>
        <time>2020-07-30T17:34:27Z</time>
      </trkpt>
      <trkpt lat="45.85219" lon="6.43695">
        <ele>1923</ele>
        <time>2020-07-30T17:34:24Z</time>
      </trkpt>
      <trkpt lat="45.85222" lon="6.43697">
        <ele>1921</ele>
        <time>2020-07-30T17:34:22Z</time>
      </trkpt>
      <trkpt lat="45.85232" lon="6.43688">
        <ele>1912</ele>
        <time>2020-07-30T17:34:16Z</time>
      </trkpt>
      <trkpt lat="45.85233" lon="6.4369">
        <ele>1911</ele>
        <time>2020-07-30T17:34:15Z</time>
      </trkpt>
      <trkpt lat="45.85235" lon="6.43689">
        <ele>1910</ele>
        <time>2020-07-30T17:34:14Z</time>
      </trkpt>
      <trkpt lat="45.85241" lon="6.43678">
        <ele>1904</ele>
        <time>2020-07-30T17:34:10Z</time>
      </trkpt>
      <trkpt lat="45.85245" lon="6.43688">
        <ele>1902</ele>
        <time>2020-07-30T17:34:06Z</time>
      </trkpt>
      <trkpt lat="45.85245" lon="6.4368">
        <ele>1901</ele>
        <time>2020-07-30T17:34:03Z</time>
      </trkpt>
      <trkpt lat="45.85247" lon="6.4368">
        <ele>1900</ele>
        <time>2020-07-30T17:34:02Z</time>
      </trkpt>
      <trkpt lat="45.85246" lon="6.43684">
        <ele>1901</ele>
        <time>2020-07-30T17:34:00Z</time>
      </trkpt>
      <trkpt lat="45.8525" lon="6.43674">
        <ele>1897</ele>
        <time>2020-07-30T17:33:56Z</time>
      </trkpt>
      <trkpt lat="45.85256" lon="6.43678">
        <ele>1891</ele>
        <time>2020-07-30T17:33:53Z</time>
      </trkpt>
      <trkpt lat="45.85257" lon="6.43683">
        <ele>1890</ele>
        <time>2020-07-30T17:33:51Z</time>
      </trkpt>
      <trkpt lat="45.85261" lon="6.43684">
        <ele>1886</ele>
        <time>2020-07-30T17:33:49Z</time>
      </trkpt>
      <trkpt lat="45.85265" lon="6.43675">
        <ele>1881</ele>
        <time>2020-07-30T17:33:45Z</time>
      </trkpt>
      <trkpt lat="45.85265" lon="6.43667">
        <ele>1879</ele>
        <time>2020-07-30T17:33:43Z</time>
      </trkpt>
      <trkpt lat="45.85268" lon="6.43665">
        <ele>1875</ele>
        <time>2020-07-30T17:33:41Z</time>
      </trkpt>
      <trkpt lat="45.85267" lon="6.43659">
        <ele>1874</ele>
        <time>2020-07-30T17:33:39Z</time>
      </trkpt>
      <trkpt lat="45.85269" lon="6.43661">
        <ele>1873</ele>
        <time>2020-07-30T17:33:38Z</time>
      </trkpt>
      <trkpt lat="45.85269" lon="6.43668">
        <ele>1875</ele>
        <time>2020-07-30T17:33:35Z</time>
      </trkpt>
      <trkpt lat="45.8527" lon="6.43663">
        <ele>1872</ele>
        <time>2020-07-30T17:33:33Z</time>
      </trkpt>
      <trkpt lat="45.85268" lon="6.43659">
        <ele>1873</ele>
        <time>2020-07-30T17:33:32Z</time>
      </trkpt>
      <trkpt lat="45.85271" lon="6.43658">
        <ele>1869</ele>
        <time>2020-07-30T17:33:30Z</time>
      </trkpt>
      <trkpt lat="45.85273" lon="6.43663">
        <ele>1869</ele>
        <time>2020-07-30T17:33:28Z</time>
      </trkpt>
      <trkpt lat="45.85277" lon="6.43656">
        <ele>1862</ele>
        <time>2020-07-30T17:33:25Z</time>
      </trkpt>
      <trkpt lat="45.85284" lon="6.43651">
        <ele>1852</ele>
        <time>2020-07-30T17:33:21Z</time>
      </trkpt>
      <trkpt lat="45.85294" lon="6.43648">
        <ele>1839</ele>
        <time>2020-07-30T17:33:16Z</time>
      </trkpt>
      <trkpt lat="45.85298" lon="6.43649">
        <ele>1835</ele>
        <time>2020-07-30T17:33:14Z</time>
      </trkpt>
      <trkpt lat="45.85313" lon="6.43638">
        <ele>1814</ele>
        <time>2020-07-30T17:33:05Z</time>
      </trkpt>
      <trkpt lat="45.85315" lon="6.4364">
        <ele>1812</ele>
        <time>2020-07-30T17:33:04Z</time>
      </trkpt>
      <trkpt lat="45.85324" lon="6.43637">
        <ele>1801</ele>
        <time>2020-07-30T17:33:00Z</time>
      </trkpt>
      <trkpt lat="45.85322" lon="6.43632">
        <ele>1801</ele>
        <time>2020-07-30T17:32:58Z</time>
      </trkpt>
      <trkpt lat="45.85324" lon="6.43631">
        <ele>1799</ele>
        <time>2020-07-30T17:32:56Z</time>
      </trkpt>
      <trkpt lat="45.85331" lon="6.4364">
        <ele>1794</ele>
        <time>2020-07-30T17:32:52Z</time>
      </trkpt>
      <trkpt lat="45.85341" lon="6.43644">
        <ele>1789</ele>
        <time>2020-07-30T17:32:47Z</time>
      </trkpt>
      <trkpt lat="45.85346" lon="6.43639">
        <ele>1783</ele>
        <time>2020-07-30T17:32:43Z</time>
      </trkpt>
      <trkpt lat="45.85346" lon="6.43635">
        <ele>1782</ele>
        <time>2020-07-30T17:32:42Z</time>
      </trkpt>
      <trkpt lat="45.85347" lon="6.43638">
        <ele>1782</ele>
        <time>2020-07-30T17:32:41Z</time>
      </trkpt>
      <trkpt lat="45.8535" lon="6.43638">
        <ele>1780</ele>
        <time>2020-07-30T17:32:39Z</time>
      </trkpt>
      <trkpt lat="45.85352" lon="6.43631">
        <ele>1776</ele>
        <time>2020-07-30T17:32:37Z</time>
      </trkpt>
      <trkpt lat="45.85356" lon="6.43633">
        <ele>1775</ele>
        <time>2020-07-30T17:32:35Z</time>
      </trkpt>
      <trkpt lat="45.85361" lon="6.4363">
        <ele>1770</ele>
        <time>2020-07-30T17:32:32Z</time>
      </trkpt>
      <trkpt lat="45.85361" lon="6.43625">
        <ele>1768</ele>
        <time>2020-07-30T17:32:30Z</time>
      </trkpt>
      <trkpt lat="45.85363" lon="6.43626">
        <ele>1767</ele>
        <time>2020-07-30T17:32:29Z</time>
      </trkpt>
      <trkpt lat="45.85368" lon="6.43615">
        <ele>1760</ele>
        <time>2020-07-30T17:32:25Z</time>
      </trkpt>
      <trkpt lat="45.8537" lon="6.43618">
        <ele>1760</ele>
        <time>2020-07-30T17:32:23Z</time>
      </trkpt>
      <trkpt lat="45.85377" lon="6.43604">
        <ele>1750</ele>
        <time>2020-07-30T17:32:17Z</time>
      </trkpt>
      <trkpt lat="45.85381" lon="6.4361">
        <ele>1749</ele>
        <time>2020-07-30T17:32:14Z</time>
      </trkpt>
      <trkpt lat="45.85385" lon="6.43605">
        <ele>1745</ele>
        <time>2020-07-30T17:32:12Z</time>
      </trkpt>
      <trkpt lat="45.85392" lon="6.43608">
        <ele>1742</ele>
        <time>2020-07-30T17:32:08Z</time>
      </trkpt>
      <trkpt lat="45.854" lon="6.43618">
        <ele>1741</ele>
        <time>2020-07-30T17:32:03Z</time>
      </trkpt>
      <trkpt lat="45.85417" lon="6.43651">
        <ele>1743</ele>
        <time>2020-07-30T17:31:48Z</time>
      </trkpt>
      <trkpt lat="45.85423" lon="6.43655">
        <ele>1743</ele>
        <time>2020-07-30T17:31:45Z</time>
      </trkpt>
      <trkpt lat="45.85422" lon="6.43663">
        <ele>1746</ele>
        <time>2020-07-30T17:31:42Z</time>
      </trkpt>
      <trkpt lat="45.85446" lon="6.43694">
        <ele>1753</ele>
        <time>2020-07-30T17:31:26Z</time>
      </trkpt>
      <trkpt lat="45.85447" lon="6.43698">
        <ele>1754</ele>
        <time>2020-07-30T17:31:25Z</time>
      </trkpt>
      <trkpt lat="45.85444" lon="6.43705">
        <ele>1758</ele>
        <time>2020-07-30T17:31:22Z</time>
      </trkpt>
      <trkpt lat="45.85451" lon="6.43714">
        <ele>1760</ele>
        <time>2020-07-30T17:31:17Z</time>
      </trkpt>
      <trkpt lat="45.85455" lon="6.43737">
        <ele>1768</ele>
        <time>2020-07-30T17:31:09Z</time>
      </trkpt>
      <trkpt lat="45.85475" lon="6.43766">
        <ele>1776</ele>
        <time>2020-07-30T17:30:54Z</time>
      </trkpt>
      <trkpt lat="45.85486" lon="6.43792">
        <ele>1785</ele>
        <time>2020-07-30T17:30:44Z</time>
      </trkpt>
      <trkpt lat="45.85486" lon="6.43802">
        <ele>1790</ele>
        <time>2020-07-30T17:30:40Z</time>
      </trkpt>
      <trkpt lat="45.85489" lon="6.43808">
        <ele>1792</ele>
        <time>2020-07-30T17:30:38Z</time>
      </trkpt>
      <trkpt lat="45.85511" lon="6.4384">
        <ele>1800</ele>
        <time>2020-07-30T17:30:22Z</time>
      </trkpt>
      <trkpt lat="45.85508" lon="6.43864">
        <ele>1810</ele>
        <time>2020-07-30T17:30:14Z</time>
      </trkpt>
      <trkpt lat="45.85518" lon="6.43887">
        <ele>1817</ele>
        <time>2020-07-30T17:30:04Z</time>
      </trkpt>
      <trkpt lat="45.85528" lon="6.439">
        <ele>1820</ele>
        <time>2020-07-30T17:29:57Z</time>
      </trkpt>
      <trkpt lat="45.85533" lon="6.43903">
        <ele>1820</ele>
        <time>2020-07-30T17:29:55Z</time>
      </trkpt>
      <trkpt lat="45.85554" lon="6.43953">
        <ele>1830</ele>
        <time>2020-07-30T17:29:34Z</time>
      </trkpt>
      <trkpt lat="45.85569" lon="6.43981">
        <ele>1833</ele>
        <time>2020-07-30T17:29:22Z</time>
      </trkpt>
      <trkpt lat="45.85588" lon="6.44043">
        <ele>1853</ele>
        <time>2020-07-30T17:28:58Z</time>
      </trkpt>
      <trkpt lat="45.85595" lon="6.44059">
        <ele>1858</ele>
        <time>2020-07-30T17:28:52Z</time>
      </trkpt>
      <trkpt lat="45.85647" lon="6.44153">
        <ele>1881</ele>
        <time>2020-07-30T17:28:10Z</time>
      </trkpt>
      <trkpt lat="45.85649" lon="6.44165">
        <ele>1885</ele>
        <time>2020-07-30T17:28:06Z</time>
      </trkpt>
      <trkpt lat="45.85666" lon="6.4419">
        <ele>1890</ele>
        <time>2020-07-30T17:27:54Z</time>
      </trkpt>
      <trkpt lat="45.85677" lon="6.44216">
        <ele>1897</ele>
        <time>2020-07-30T17:27:43Z</time>
      </trkpt>
      <trkpt lat="45.85693" lon="6.44245">
        <ele>1904</ele>
        <time>2020-07-30T17:27:30Z</time>
      </trkpt>
      <trkpt lat="45.85699" lon="6.44264">
        <ele>1910</ele>
        <time>2020-07-30T17:27:23Z</time>
      </trkpt>
      <trkpt lat="45.85712" lon="6.44284">
        <ele>1915</ele>
        <time>2020-07-30T17:27:13Z</time>
      </trkpt>
      <trkpt lat="45.85712" lon="6.44304">
        <ele>1922</ele>
        <time>2020-07-30T17:27:06Z</time>
      </trkpt>
      <trkpt lat="45.85716" lon="6.44329">
        <ele>1931</ele>
        <time>2020-07-30T17:26:57Z</time>
      </trkpt>
      <trkpt lat="45.85711" lon="6.4434">
        <ele>1936</ele>
        <time>2020-07-30T17:26:53Z</time>
      </trkpt>
      <trkpt lat="45.85714" lon="6.44362">
        <ele>1943</ele>
        <time>2020-07-30T17:26:45Z</time>
      </trkpt>
      <trkpt lat="45.85711" lon="6.44372">
        <ele>1947</ele>
        <time>2020-07-30T17:26:41Z</time>
      </trkpt>
      <trkpt lat="45.85726" lon="6.44432">
        <ele>1965</ele>
        <time>2020-07-30T17:26:19Z</time>
      </trkpt>
      <trkpt lat="45.8573" lon="6.44439">
        <ele>1967</ele>
        <time>2020-07-30T17:26:16Z</time>
      </trkpt>
      <trkpt lat="45.85739" lon="6.44446">
        <ele>1968</ele>
        <time>2020-07-30T17:26:11Z</time>
      </trkpt>
      <trkpt lat="45.85745" lon="6.44458">
        <ele>1972</ele>
        <time>2020-07-30T17:26:06Z</time>
      </trkpt>
      <trkpt lat="45.85774" lon="6.44534">
        <ele>1996</ele>
        <time>2020-07-30T17:25:35Z</time>
      </trkpt>
      <trkpt lat="45.85777" lon="6.44551">
        <ele>2001</ele>
        <time>2020-07-30T17:25:29Z</time>
      </trkpt>
      <trkpt lat="45.85793" lon="6.44576">
        <ele>2008</ele>
        <time>2020-07-30T17:25:17Z</time>
      </trkpt>
      <trkpt lat="45.85796" lon="6.44595">
        <ele>2015</ele>
        <time>2020-07-30T17:25:11Z</time>
      </trkpt>
      <trkpt lat="45.85806" lon="6.44617">
        <ele>2023</ele>
        <time>2020-07-30T17:25:01Z</time>
      </trkpt>
      <trkpt lat="45.85818" lon="6.44626">
        <ele>2025</ele>
        <time>2020-07-30T17:24:55Z</time>
      </trkpt>
      <trkpt lat="45.85824" lon="6.44626">
        <ele>2024</ele>
        <time>2020-07-30T17:24:52Z</time>
      </trkpt>
      <trkpt lat="45.8583" lon="6.44655">
        <ele>2035</ele>
        <time>2020-07-30T17:24:41Z</time>
      </trkpt>
      <trkpt lat="45.85845" lon="6.44681">
        <ele>2048</ele>
        <time>2020-07-30T17:24:29Z</time>
      </trkpt>
      <trkpt lat="45.85849" lon="6.44699">
        <ele>2057</ele>
        <time>2020-07-30T17:24:23Z</time>
      </trkpt>
      <trkpt lat="45.85851" lon="6.44732">
        <ele>2073</ele>
        <time>2020-07-30T17:24:11Z</time>
      </trkpt>
      <trkpt lat="45.85855" lon="6.44744">
        <ele>2080</ele>
        <time>2020-07-30T17:24:07Z</time>
      </trkpt>
      <trkpt lat="45.85852" lon="6.4476">
        <ele>2083</ele>
        <time>2020-07-30T17:24:01Z</time>
      </trkpt>
      <trkpt lat="45.85854" lon="6.44781">
        <ele>2089</ele>
        <time>2020-07-30T17:23:53Z</time>
      </trkpt>
      <trkpt lat="45.8586" lon="6.44794">
        <ele>2094</ele>
        <time>2020-07-30T17:23:48Z</time>
      </trkpt>
      <trkpt lat="45.85862" lon="6.44808">
        <ele>2097</ele>
        <time>2020-07-30T17:23:43Z</time>
      </trkpt>
      <trkpt lat="45.85868" lon="6.44817">
        <ele>2101</ele>
        <time>2020-07-30T17:23:39Z</time>
      </trkpt>
      <trkpt lat="45.85874" lon="6.44837">
        <ele>2107</ele>
        <time>2020-07-30T17:23:31Z</time>
      </trkpt>
      <trkpt lat="45.85878" lon="6.4484">
        <ele>2109</ele>
        <time>2020-07-30T17:23:29Z</time>
      </trkpt>
      <trkpt lat="45.85886" lon="6.44859">
        <ele>2115</ele>
        <time>2020-07-30T17:23:21Z</time>
      </trkpt>
      <trkpt lat="45.85886" lon="6.44876">
        <ele>2118</ele>
        <time>2020-07-30T17:23:15Z</time>
      </trkpt>
      <trkpt lat="45.85892" lon="6.4489">
        <ele>2122</ele>
        <time>2020-07-30T17:23:09Z</time>
      </trkpt>
      <trkpt lat="45.85892" lon="6.44922">
        <ele>2128</ele>
        <time>2020-07-30T17:22:58Z</time>
      </trkpt>
      <trkpt lat="45.85895" lon="6.44932">
        <ele>2132</ele>
        <time>2020-07-30T17:22:54Z</time>
      </trkpt>
      <trkpt lat="45.85896" lon="6.44955">
        <ele>2140</ele>
        <time>2020-07-30T17:22:46Z</time>
      </trkpt>
      <trkpt lat="45.85903" lon="6.44971">
        <ele>2146</ele>
        <time>2020-07-30T17:22:40Z</time>
      </trkpt>
      <trkpt lat="45.85911" lon="6.44978">
        <ele>2149</ele>
        <time>2020-07-30T17:22:35Z</time>
      </trkpt>
      <trkpt lat="45.85922" lon="6.45">
        <ele>2161</ele>
        <time>2020-07-30T17:22:26Z</time>
      </trkpt>
      <trkpt lat="45.85931" lon="6.45003">
        <ele>2168</ele>
        <time>2020-07-30T17:22:21Z</time>
      </trkpt>
      <trkpt lat="45.85932" lon="6.45014">
        <ele>2172</ele>
        <time>2020-07-30T17:22:17Z</time>
      </trkpt>
      <trkpt lat="45.8593" lon="6.45023">
        <ele>2175</ele>
        <time>2020-07-30T17:22:14Z</time>
      </trkpt>
      <trkpt lat="45.85938" lon="6.45041">
        <ele>2186</ele>
        <time>2020-07-30T17:22:07Z</time>
      </trkpt>
      <trkpt lat="45.85939" lon="6.45081">
        <ele>2200</ele>
        <time>2020-07-30T17:21:53Z</time>
      </trkpt>
      <trkpt lat="45.85944" lon="6.45087">
        <ele>2204</ele>
        <time>2020-07-30T17:21:49Z</time>
      </trkpt>
      <trkpt lat="45.85942" lon="6.45098">
        <ele>2206</ele>
        <time>2020-07-30T17:21:45Z</time>
      </trkpt>
      <trkpt lat="45.85947" lon="6.45118">
        <ele>2213</ele>
        <time>2020-07-30T17:21:38Z</time>
      </trkpt>
      <trkpt lat="45.85947" lon="6.45142">
        <ele>2219</ele>
        <time>2020-07-30T17:21:30Z</time>
      </trkpt>
      <trkpt lat="45.85945" lon="6.45147">
        <ele>2220</ele>
        <time>2020-07-30T17:21:28Z</time>
      </trkpt>
      <trkpt lat="45.85946" lon="6.45155">
        <ele>2222</ele>
        <time>2020-07-30T17:21:25Z</time>
      </trkpt>
      <trkpt lat="45.85949" lon="6.45158">
        <ele>2223</ele>
        <time>2020-07-30T17:21:23Z</time>
      </trkpt>
      <trkpt lat="45.85947" lon="6.45188">
        <ele>2228</ele>
        <time>2020-07-30T17:21:12Z</time>
      </trkpt>
      <trkpt lat="45.8595" lon="6.45196">
        <ele>2229</ele>
        <time>2020-07-30T17:21:09Z</time>
      </trkpt>
      <trkpt lat="45.85955" lon="6.452">
        <ele>2229</ele>
        <time>2020-07-30T17:21:06Z</time>
      </trkpt>
      <trkpt lat="45.85962" lon="6.45198">
        <ele>2228</ele>
        <time>2020-07-30T17:21:03Z</time>
      </trkpt>
      <trkpt lat="45.85969" lon="6.45192">
        <ele>2226</ele>
        <time>2020-07-30T17:20:59Z</time>
      </trkpt>
      <trkpt lat="45.85977" lon="6.45196">
        <ele>2225</ele>
        <time>2020-07-30T17:20:54Z</time>
      </trkpt>
      <trkpt lat="45.85977" lon="6.452">
        <ele>2226</ele>
        <time>2020-07-30T17:20:53Z</time>
      </trkpt>
      <trkpt lat="45.85982" lon="6.452">
        <ele>2225</ele>
        <time>2020-07-30T17:20:51Z</time>
      </trkpt>
      <trkpt lat="45.85983" lon="6.45202">
        <ele>2225</ele>
        <time>2020-07-30T17:20:50Z</time>
      </trkpt>
      <trkpt lat="45.85988" lon="6.452">
        <ele>2224</ele>
        <time>2020-07-30T17:20:47Z</time>
      </trkpt>
      <trkpt lat="45.8599" lon="6.45209">
        <ele>2223</ele>
        <time>2020-07-30T17:20:44Z</time>
      </trkpt>
      <trkpt lat="45.85996" lon="6.45211">
        <ele>2222</ele>
        <time>2020-07-30T17:20:41Z</time>
      </trkpt>
      <trkpt lat="45.86006" lon="6.45208">
        <ele>2219</ele>
        <time>2020-07-30T17:20:36Z</time>
      </trkpt>
      <trkpt lat="45.8601" lon="6.45209">
        <ele>2217</ele>
        <time>2020-07-30T17:20:34Z</time>
      </trkpt>
      <trkpt lat="45.86014" lon="6.452">
        <ele>2217</ele>
        <time>2020-07-30T17:20:30Z</time>
      </trkpt>
      <trkpt lat="45.86019" lon="6.45199">
        <ele>2215</ele>
        <time>2020-07-30T17:20:27Z</time>
      </trkpt>
      <trkpt lat="45.8602" lon="6.45204">
        <ele>2214</ele>
        <time>2020-07-30T17:20:26Z</time>
      </trkpt>
      <trkpt lat="45.86023" lon="6.45204">
        <ele>2213</ele>
        <time>2020-07-30T17:20:24Z</time>
      </trkpt>
      <trkpt lat="45.86023" lon="6.45211">
        <ele>2211</ele>
        <time>2020-07-30T17:20:22Z</time>
      </trkpt>
      <trkpt lat="45.86028" lon="6.4521">
        <ele>2209</ele>
        <time>2020-07-30T17:20:19Z</time>
      </trkpt>
      <trkpt lat="45.86032" lon="6.45213">
        <ele>2207</ele>
        <time>2020-07-30T17:20:17Z</time>
      </trkpt>
      <trkpt lat="45.86037" lon="6.45223">
        <ele>2202</ele>
        <time>2020-07-30T17:20:13Z</time>
      </trkpt>
      <trkpt lat="45.86055" lon="6.45226">
        <ele>2192</ele>
        <time>2020-07-30T17:20:03Z</time>
      </trkpt>
      <trkpt lat="45.86055" lon="6.45232">
        <ele>2190</ele>
        <time>2020-07-30T17:20:01Z</time>
      </trkpt>
      <trkpt lat="45.86061" lon="6.4523">
        <ele>2188</ele>
        <time>2020-07-30T17:19:58Z</time>
      </trkpt>
      <trkpt lat="45.86067" lon="6.45224">
        <ele>2187</ele>
        <time>2020-07-30T17:19:55Z</time>
      </trkpt>
      <trkpt lat="45.86066" lon="6.45233">
        <ele>2184</ele>
        <time>2020-07-30T17:19:51Z</time>
      </trkpt>
      <trkpt lat="45.86068" lon="6.45239">
        <ele>2180</ele>
        <time>2020-07-30T17:19:49Z</time>
      </trkpt>
      <trkpt lat="45.86074" lon="6.45239">
        <ele>2177</ele>
        <time>2020-07-30T17:19:46Z</time>
      </trkpt>
      <trkpt lat="45.86083" lon="6.45235">
        <ele>2174</ele>
        <time>2020-07-30T17:19:41Z</time>
      </trkpt>
      <trkpt lat="45.86087" lon="6.45228">
        <ele>2174</ele>
        <time>2020-07-30T17:19:38Z</time>
      </trkpt>
      <trkpt lat="45.86091" lon="6.45226">
        <ele>2172</ele>
        <time>2020-07-30T17:19:36Z</time>
      </trkpt>
      <trkpt lat="45.86098" lon="6.45233">
        <ele>2162</ele>
        <time>2020-07-30T17:19:32Z</time>
      </trkpt>
      <trkpt lat="45.86113" lon="6.45223">
        <ele>2155</ele>
        <time>2020-07-30T17:19:24Z</time>
      </trkpt>
      <trkpt lat="45.86121" lon="6.45214">
        <ele>2153</ele>
        <time>2020-07-30T17:19:19Z</time>
      </trkpt>
      <trkpt lat="45.86125" lon="6.45213">
        <ele>2150</ele>
        <time>2020-07-30T17:19:16Z</time>
      </trkpt>
      <trkpt lat="45.86129" lon="6.45214">
        <ele>2146</ele>
        <time>2020-07-30T17:19:14Z</time>
      </trkpt>
      <trkpt lat="45.86135" lon="6.45223">
        <ele>2136</ele>
        <time>2020-07-30T17:19:10Z</time>
      </trkpt>
      <trkpt lat="45.86137" lon="6.45222">
        <ele>2135</ele>
        <time>2020-07-30T17:19:09Z</time>
      </trkpt>
      <trkpt lat="45.86141" lon="6.45226">
        <ele>2129</ele>
        <time>2020-07-30T17:19:07Z</time>
      </trkpt>
      <trkpt lat="45.86153" lon="6.45227">
        <ele>2118</ele>
        <time>2020-07-30T17:19:01Z</time>
      </trkpt>
      <trkpt lat="45.8615" lon="6.45215">
        <ele>2128</ele>
        <time>2020-07-30T17:18:56Z</time>
      </trkpt>
      <trkpt lat="45.86152" lon="6.45206">
        <ele>2131</ele>
        <time>2020-07-30T17:18:53Z</time>
      </trkpt>
      <trkpt lat="45.86156" lon="6.45197">
        <ele>2133</ele>
        <time>2020-07-30T17:18:49Z</time>
      </trkpt>
      <trkpt lat="45.86162" lon="6.45196">
        <ele>2129</ele>
        <time>2020-07-30T17:18:46Z</time>
      </trkpt>
      <trkpt lat="45.86165" lon="6.45191">
        <ele>2129</ele>
        <time>2020-07-30T17:18:44Z</time>
      </trkpt>
      <trkpt lat="45.86168" lon="6.45191">
        <ele>2127</ele>
        <time>2020-07-30T17:18:42Z</time>
      </trkpt>
      <trkpt lat="45.86172" lon="6.45195">
        <ele>2121</ele>
        <time>2020-07-30T17:18:40Z</time>
      </trkpt>
      <trkpt lat="45.86176" lon="6.45194">
        <ele>2119</ele>
        <time>2020-07-30T17:18:38Z</time>
      </trkpt>
      <trkpt lat="45.86178" lon="6.45204">
        <ele>2112</ele>
        <time>2020-07-30T17:18:34Z</time>
      </trkpt>
      <trkpt lat="45.86185" lon="6.45204">
        <ele>2107</ele>
        <time>2020-07-30T17:18:31Z</time>
      </trkpt>
      <trkpt lat="45.86185" lon="6.45209">
        <ele>2104</ele>
        <time>2020-07-30T17:18:29Z</time>
      </trkpt>
      <trkpt lat="45.86179" lon="6.45215">
        <ele>2105</ele>
        <time>2020-07-30T17:18:25Z</time>
      </trkpt>
      <trkpt lat="45.86182" lon="6.45217">
        <ele>2102</ele>
        <time>2020-07-30T17:18:24Z</time>
      </trkpt>
      <trkpt lat="45.86179" lon="6.45229">
        <ele>2097</ele>
        <time>2020-07-30T17:18:19Z</time>
      </trkpt>
      <trkpt lat="45.86181" lon="6.45228">
        <ele>2096</ele>
        <time>2020-07-30T17:18:18Z</time>
      </trkpt>
      <trkpt lat="45.86182" lon="6.45232">
        <ele>2093</ele>
        <time>2020-07-30T17:18:17Z</time>
      </trkpt>
      <trkpt lat="45.86185" lon="6.45229">
        <ele>2093</ele>
        <time>2020-07-30T17:18:15Z</time>
      </trkpt>
      <trkpt lat="45.86189" lon="6.45237">
        <ele>2085</ele>
        <time>2020-07-30T17:18:11Z</time>
      </trkpt>
      <trkpt lat="45.86203" lon="6.45229">
        <ele>2080</ele>
        <time>2020-07-30T17:18:04Z</time>
      </trkpt>
      <trkpt lat="45.86211" lon="6.45237">
        <ele>2070</ele>
        <time>2020-07-30T17:17:59Z</time>
      </trkpt>
      <trkpt lat="45.86215" lon="6.45236">
        <ele>2068</ele>
        <time>2020-07-30T17:17:57Z</time>
      </trkpt>
      <trkpt lat="45.86216" lon="6.45249">
        <ele>2060</ele>
        <time>2020-07-30T17:17:52Z</time>
      </trkpt>
      <trkpt lat="45.86227" lon="6.45247">
        <ele>2053</ele>
        <time>2020-07-30T17:17:47Z</time>
      </trkpt>
      <trkpt lat="45.86239" lon="6.4524">
        <ele>2049</ele>
        <time>2020-07-30T17:17:40Z</time>
      </trkpt>
      <trkpt lat="45.86245" lon="6.4524">
        <ele>2045</ele>
        <time>2020-07-30T17:17:37Z</time>
      </trkpt>
      <trkpt lat="45.86247" lon="6.45247">
        <ele>2040</ele>
        <time>2020-07-30T17:17:35Z</time>
      </trkpt>
      <trkpt lat="45.8625" lon="6.45243">
        <ele>2040</ele>
        <time>2020-07-30T17:17:33Z</time>
      </trkpt>
      <trkpt lat="45.86261" lon="6.4524">
        <ele>2035</ele>
        <time>2020-07-30T17:17:27Z</time>
      </trkpt>
      <trkpt lat="45.86265" lon="6.45241">
        <ele>2032</ele>
        <time>2020-07-30T17:17:25Z</time>
      </trkpt>
      <trkpt lat="45.86266" lon="6.45239">
        <ele>2032</ele>
        <time>2020-07-30T17:17:24Z</time>
      </trkpt>
      <trkpt lat="45.86267" lon="6.45253">
        <ele>2025</ele>
        <time>2020-07-30T17:17:19Z</time>
      </trkpt>
      <trkpt lat="45.86272" lon="6.45252">
        <ele>2022</ele>
        <time>2020-07-30T17:17:17Z</time>
      </trkpt>
      <trkpt lat="45.86273" lon="6.45254">
        <ele>2021</ele>
        <time>2020-07-30T17:17:16Z</time>
      </trkpt>
      <trkpt lat="45.86282" lon="6.45255">
        <ele>2015</ele>
        <time>2020-07-30T17:17:11Z</time>
      </trkpt>
      <trkpt lat="45.86282" lon="6.4526">
        <ele>2013</ele>
        <time>2020-07-30T17:17:10Z</time>
      </trkpt>
      <trkpt lat="45.86293" lon="6.45258">
        <ele>2007</ele>
        <time>2020-07-30T17:17:04Z</time>
      </trkpt>
      <trkpt lat="45.86297" lon="6.45262">
        <ele>2003</ele>
        <time>2020-07-30T17:17:02Z</time>
      </trkpt>
      <trkpt lat="45.86303" lon="6.45263">
        <ele>1998</ele>
        <time>2020-07-30T17:16:59Z</time>
      </trkpt>
      <trkpt lat="45.86303" lon="6.45273">
        <ele>1994</ele>
        <time>2020-07-30T17:16:55Z</time>
      </trkpt>
      <trkpt lat="45.86307" lon="6.45275">
        <ele>1990</ele>
        <time>2020-07-30T17:16:53Z</time>
      </trkpt>
      <trkpt lat="45.86306" lon="6.45281">
        <ele>1988</ele>
        <time>2020-07-30T17:16:51Z</time>
      </trkpt>
      <trkpt lat="45.86312" lon="6.45285">
        <ele>1982</ele>
        <time>2020-07-30T17:16:48Z</time>
      </trkpt>
      <trkpt lat="45.86315" lon="6.45284">
        <ele>1981</ele>
        <time>2020-07-30T17:16:46Z</time>
      </trkpt>
      <trkpt lat="45.86318" lon="6.45298">
        <ele>1972</ele>
        <time>2020-07-30T17:16:41Z</time>
      </trkpt>
      <trkpt lat="45.86327" lon="6.45295">
        <ele>1967</ele>
        <time>2020-07-30T17:16:36Z</time>
      </trkpt>
      <trkpt lat="45.86329" lon="6.45302">
        <ele>1962</ele>
        <time>2020-07-30T17:16:34Z</time>
      </trkpt>
      <trkpt lat="45.86337" lon="6.45304">
        <ele>1955</ele>
        <time>2020-07-30T17:16:30Z</time>
      </trkpt>
      <trkpt lat="45.86339" lon="6.45315">
        <ele>1948</ele>
        <time>2020-07-30T17:16:26Z</time>
      </trkpt>
      <trkpt lat="45.86345" lon="6.45314">
        <ele>1946</ele>
        <time>2020-07-30T17:16:23Z</time>
      </trkpt>
      <trkpt lat="45.86346" lon="6.4532">
        <ele>1942</ele>
        <time>2020-07-30T17:16:20Z</time>
      </trkpt>
      <trkpt lat="45.8635" lon="6.45321">
        <ele>1939</ele>
        <time>2020-07-30T17:16:18Z</time>
      </trkpt>
      <trkpt lat="45.86351" lon="6.45327">
        <ele>1936</ele>
        <time>2020-07-30T17:16:16Z</time>
      </trkpt>
      <trkpt lat="45.86355" lon="6.45327">
        <ele>1934</ele>
        <time>2020-07-30T17:16:14Z</time>
      </trkpt>
      <trkpt lat="45.86356" lon="6.45339">
        <ele>1929</ele>
        <time>2020-07-30T17:16:10Z</time>
      </trkpt>
      <trkpt lat="45.86368" lon="6.45336">
        <ele>1923</ele>
        <time>2020-07-30T17:16:04Z</time>
      </trkpt>
      <trkpt lat="45.86372" lon="6.45346">
        <ele>1918</ele>
        <time>2020-07-30T17:16:00Z</time>
      </trkpt>
      <trkpt lat="45.86375" lon="6.45345">
        <ele>1917</ele>
        <time>2020-07-30T17:15:58Z</time>
      </trkpt>
      <trkpt lat="45.86376" lon="6.45352">
        <ele>1914</ele>
        <time>2020-07-30T17:15:56Z</time>
      </trkpt>
      <trkpt lat="45.8638" lon="6.45351">
        <ele>1912</ele>
        <time>2020-07-30T17:15:54Z</time>
      </trkpt>
      <trkpt lat="45.86382" lon="6.45357">
        <ele>1909</ele>
        <time>2020-07-30T17:15:52Z</time>
      </trkpt>
      <trkpt lat="45.86386" lon="6.45355">
        <ele>1908</ele>
        <time>2020-07-30T17:15:49Z</time>
      </trkpt>
      <trkpt lat="45.86388" lon="6.45381">
        <ele>1898</ele>
        <time>2020-07-30T17:15:40Z</time>
      </trkpt>
      <trkpt lat="45.86393" lon="6.4538">
        <ele>1896</ele>
        <time>2020-07-30T17:15:38Z</time>
      </trkpt>
      <trkpt lat="45.86395" lon="6.45385">
        <ele>1893</ele>
        <time>2020-07-30T17:15:36Z</time>
      </trkpt>
      <trkpt lat="45.86399" lon="6.45385">
        <ele>1891</ele>
        <time>2020-07-30T17:15:34Z</time>
      </trkpt>
      <trkpt lat="45.86401" lon="6.45401">
        <ele>1884</ele>
        <time>2020-07-30T17:15:28Z</time>
      </trkpt>
      <trkpt lat="45.86396" lon="6.45416">
        <ele>1882</ele>
        <time>2020-07-30T17:15:22Z</time>
      </trkpt>
      <trkpt lat="45.86395" lon="6.45429">
        <ele>1880</ele>
        <time>2020-07-30T17:15:18Z</time>
      </trkpt>
      <trkpt lat="45.86403" lon="6.45438">
        <ele>1873</ele>
        <time>2020-07-30T17:15:13Z</time>
      </trkpt>
      <trkpt lat="45.86398" lon="6.45455">
        <ele>1872</ele>
        <time>2020-07-30T17:15:06Z</time>
      </trkpt>
      <trkpt lat="45.864" lon="6.45453">
        <ele>1872</ele>
        <time>2020-07-30T17:15:05Z</time>
      </trkpt>
      <trkpt lat="45.86403" lon="6.45456">
        <ele>1869</ele>
        <time>2020-07-30T17:15:03Z</time>
      </trkpt>
      <trkpt lat="45.86406" lon="6.45473">
        <ele>1863</ele>
        <time>2020-07-30T17:14:57Z</time>
      </trkpt>
      <trkpt lat="45.8641" lon="6.4548">
        <ele>1859</ele>
        <time>2020-07-30T17:14:54Z</time>
      </trkpt>
      <trkpt lat="45.86413" lon="6.45482">
        <ele>1857</ele>
        <time>2020-07-30T17:14:52Z</time>
      </trkpt>
      <trkpt lat="45.86415" lon="6.4548">
        <ele>1856</ele>
        <time>2020-07-30T17:14:51Z</time>
      </trkpt>
      <trkpt lat="45.86423" lon="6.45485">
        <ele>1850</ele>
        <time>2020-07-30T17:14:47Z</time>
      </trkpt>
      <trkpt lat="45.86424" lon="6.45483">
        <ele>1850</ele>
        <time>2020-07-30T17:14:46Z</time>
      </trkpt>
      <trkpt lat="45.86427" lon="6.45488">
        <ele>1848</ele>
        <time>2020-07-30T17:14:44Z</time>
      </trkpt>
      <trkpt lat="45.8643" lon="6.45487">
        <ele>1846</ele>
        <time>2020-07-30T17:14:42Z</time>
      </trkpt>
      <trkpt lat="45.86434" lon="6.45491">
        <ele>1844</ele>
        <time>2020-07-30T17:14:40Z</time>
      </trkpt>
      <trkpt lat="45.86439" lon="6.45489">
        <ele>1842</ele>
        <time>2020-07-30T17:14:37Z</time>
      </trkpt>
      <trkpt lat="45.86444" lon="6.45494">
        <ele>1838</ele>
        <time>2020-07-30T17:14:34Z</time>
      </trkpt>
      <trkpt lat="45.86448" lon="6.45495">
        <ele>1836</ele>
        <time>2020-07-30T17:14:32Z</time>
      </trkpt>
      <trkpt lat="45.86451" lon="6.45492">
        <ele>1835</ele>
        <time>2020-07-30T17:14:30Z</time>
      </trkpt>
      <trkpt lat="45.86456" lon="6.45499">
        <ele>1831</ele>
        <time>2020-07-30T17:14:27Z</time>
      </trkpt>
      <trkpt lat="45.86468" lon="6.45491">
        <ele>1827</ele>
        <time>2020-07-30T17:14:20Z</time>
      </trkpt>
      <trkpt lat="45.86474" lon="6.45498">
        <ele>1822</ele>
        <time>2020-07-30T17:14:16Z</time>
      </trkpt>
      <trkpt lat="45.86478" lon="6.45498">
        <ele>1820</ele>
        <time>2020-07-30T17:14:14Z</time>
      </trkpt>
      <trkpt lat="45.86478" lon="6.45501">
        <ele>1820</ele>
        <time>2020-07-30T17:14:13Z</time>
      </trkpt>
      <trkpt lat="45.86483" lon="6.45501">
        <ele>1817</ele>
        <time>2020-07-30T17:14:11Z</time>
      </trkpt>
      <trkpt lat="45.86485" lon="6.45505">
        <ele>1815</ele>
        <time>2020-07-30T17:14:09Z</time>
      </trkpt>
      <trkpt lat="45.86494" lon="6.45504">
        <ele>1811</ele>
        <time>2020-07-30T17:14:04Z</time>
      </trkpt>
      <trkpt lat="45.86501" lon="6.45514">
        <ele>1804</ele>
        <time>2020-07-30T17:13:59Z</time>
      </trkpt>
      <trkpt lat="45.86507" lon="6.45513">
        <ele>1801</ele>
        <time>2020-07-30T17:13:56Z</time>
      </trkpt>
      <trkpt lat="45.86514" lon="6.45518">
        <ele>1795</ele>
        <time>2020-07-30T17:13:52Z</time>
      </trkpt>
      <trkpt lat="45.8652" lon="6.45515">
        <ele>1793</ele>
        <time>2020-07-30T17:13:49Z</time>
      </trkpt>
      <trkpt lat="45.86525" lon="6.45517">
        <ele>1789</ele>
        <time>2020-07-30T17:13:47Z</time>
      </trkpt>
      <trkpt lat="45.86541" lon="6.45515">
        <ele>1780</ele>
        <time>2020-07-30T17:13:39Z</time>
      </trkpt>
      <trkpt lat="45.86549" lon="6.45519">
        <ele>1774</ele>
        <time>2020-07-30T17:13:34Z</time>
      </trkpt>
      <trkpt lat="45.86552" lon="6.45512">
        <ele>1775</ele>
        <time>2020-07-30T17:13:31Z</time>
      </trkpt>
      <trkpt lat="45.86555" lon="6.45511">
        <ele>1773</ele>
        <time>2020-07-30T17:13:30Z</time>
      </trkpt>
      <trkpt lat="45.86559" lon="6.45517">
        <ele>1769</ele>
        <time>2020-07-30T17:13:27Z</time>
      </trkpt>
      <trkpt lat="45.86561" lon="6.45516">
        <ele>1768</ele>
        <time>2020-07-30T17:13:26Z</time>
      </trkpt>
      <trkpt lat="45.86564" lon="6.45519">
        <ele>1766</ele>
        <time>2020-07-30T17:13:24Z</time>
      </trkpt>
      <trkpt lat="45.86564" lon="6.45522">
        <ele>1765</ele>
        <time>2020-07-30T17:13:23Z</time>
      </trkpt>
      <trkpt lat="45.86579" lon="6.45528">
        <ele>1754</ele>
        <time>2020-07-30T17:13:15Z</time>
      </trkpt>
      <trkpt lat="45.86585" lon="6.45526">
        <ele>1751</ele>
        <time>2020-07-30T17:13:12Z</time>
      </trkpt>
      <trkpt lat="45.86589" lon="6.45528">
        <ele>1749</ele>
        <time>2020-07-30T17:13:10Z</time>
      </trkpt>
      <trkpt lat="45.86589" lon="6.45533">
        <ele>1748</ele>
        <time>2020-07-30T17:13:08Z</time>
      </trkpt>
      <trkpt lat="45.86592" lon="6.45533">
        <ele>1746</ele>
        <time>2020-07-30T17:13:07Z</time>
      </trkpt>
      <trkpt lat="45.86595" lon="6.45539">
        <ele>1743</ele>
        <time>2020-07-30T17:13:04Z</time>
      </trkpt>
      <trkpt lat="45.86604" lon="6.45541">
        <ele>1738</ele>
        <time>2020-07-30T17:13:00Z</time>
      </trkpt>
      <trkpt lat="45.86605" lon="6.45546">
        <ele>1736</ele>
        <time>2020-07-30T17:12:58Z</time>
      </trkpt>
      <trkpt lat="45.86612" lon="6.45551">
        <ele>1731</ele>
        <time>2020-07-30T17:12:54Z</time>
      </trkpt>
      <trkpt lat="45.86613" lon="6.45559">
        <ele>1728</ele>
        <time>2020-07-30T17:12:51Z</time>
      </trkpt>
      <trkpt lat="45.86617" lon="6.45562">
        <ele>1725</ele>
        <time>2020-07-30T17:12:49Z</time>
      </trkpt>
      <trkpt lat="45.8662" lon="6.45561">
        <ele>1724</ele>
        <time>2020-07-30T17:12:47Z</time>
      </trkpt>
      <trkpt lat="45.8662" lon="6.45565">
        <ele>1722</ele>
        <time>2020-07-30T17:12:46Z</time>
      </trkpt>
      <trkpt lat="45.86622" lon="6.45564">
        <ele>1722</ele>
        <time>2020-07-30T17:12:45Z</time>
      </trkpt>
      <trkpt lat="45.86623" lon="6.45567">
        <ele>1720</ele>
        <time>2020-07-30T17:12:44Z</time>
      </trkpt>
      <trkpt lat="45.86626" lon="6.45567">
        <ele>1719</ele>
        <time>2020-07-30T17:12:42Z</time>
      </trkpt>
      <trkpt lat="45.8663" lon="6.45574">
        <ele>1714</ele>
        <time>2020-07-30T17:12:39Z</time>
      </trkpt>
      <trkpt lat="45.86637" lon="6.45579">
        <ele>1708</ele>
        <time>2020-07-30T17:12:35Z</time>
      </trkpt>
      <trkpt lat="45.86637" lon="6.45583">
        <ele>1707</ele>
        <time>2020-07-30T17:12:34Z</time>
      </trkpt>
      <trkpt lat="45.86641" lon="6.45583">
        <ele>1705</ele>
        <time>2020-07-30T17:12:32Z</time>
      </trkpt>
      <trkpt lat="45.86645" lon="6.45592">
        <ele>1701</ele>
        <time>2020-07-30T17:12:28Z</time>
      </trkpt>
      <trkpt lat="45.86661" lon="6.45612">
        <ele>1688</ele>
        <time>2020-07-30T17:12:17Z</time>
      </trkpt>
      <trkpt lat="45.86672" lon="6.45623">
        <ele>1680</ele>
        <time>2020-07-30T17:12:11Z</time>
      </trkpt>
      <trkpt lat="45.86676" lon="6.45623">
        <ele>1678</ele>
        <time>2020-07-30T17:12:09Z</time>
      </trkpt>
      <trkpt lat="45.86676" lon="6.4564">
        <ele>1674</ele>
        <time>2020-07-30T17:12:03Z</time>
      </trkpt>
      <trkpt lat="45.8668" lon="6.4565">
        <ele>1670</ele>
        <time>2020-07-30T17:11:59Z</time>
      </trkpt>
      <trkpt lat="45.86691" lon="6.45661">
        <ele>1662</ele>
        <time>2020-07-30T17:11:52Z</time>
      </trkpt>
      <trkpt lat="45.86693" lon="6.45667">
        <ele>1659</ele>
        <time>2020-07-30T17:11:50Z</time>
      </trkpt>
      <trkpt lat="45.867" lon="6.45666">
        <ele>1656</ele>
        <time>2020-07-30T17:11:46Z</time>
      </trkpt>
      <trkpt lat="45.86708" lon="6.45672">
        <ele>1651</ele>
        <time>2020-07-30T17:11:42Z</time>
      </trkpt>
      <trkpt lat="45.86714" lon="6.45689">
        <ele>1645</ele>
        <time>2020-07-30T17:11:35Z</time>
      </trkpt>
      <trkpt lat="45.86722" lon="6.45693">
        <ele>1641</ele>
        <time>2020-07-30T17:11:31Z</time>
      </trkpt>
      <trkpt lat="45.86725" lon="6.45691">
        <ele>1639</ele>
        <time>2020-07-30T17:11:29Z</time>
      </trkpt>
      <trkpt lat="45.86741" lon="6.45701">
        <ele>1630</ele>
        <time>2020-07-30T17:11:20Z</time>
      </trkpt>
      <trkpt lat="45.86756" lon="6.45701">
        <ele>1621</ele>
        <time>2020-07-30T17:11:13Z</time>
      </trkpt>
      <trkpt lat="45.86773" lon="6.45707">
        <ele>1610</ele>
        <time>2020-07-30T17:11:04Z</time>
      </trkpt>
      <trkpt lat="45.8678" lon="6.45712">
        <ele>1606</ele>
        <time>2020-07-30T17:11:00Z</time>
      </trkpt>
      <trkpt lat="45.86784" lon="6.4572">
        <ele>1603</ele>
        <time>2020-07-30T17:10:57Z</time>
      </trkpt>
      <trkpt lat="45.8679" lon="6.45721">
        <ele>1599</ele>
        <time>2020-07-30T17:10:54Z</time>
      </trkpt>
      <trkpt lat="45.86797" lon="6.45729">
        <ele>1594</ele>
        <time>2020-07-30T17:10:49Z</time>
      </trkpt>
      <trkpt lat="45.86805" lon="6.4573">
        <ele>1589</ele>
        <time>2020-07-30T17:10:45Z</time>
      </trkpt>
      <trkpt lat="45.8681" lon="6.45736">
        <ele>1586</ele>
        <time>2020-07-30T17:10:42Z</time>
      </trkpt>
      <trkpt lat="45.86815" lon="6.45737">
        <ele>1583</ele>
        <time>2020-07-30T17:10:40Z</time>
      </trkpt>
      <trkpt lat="45.86822" lon="6.45748">
        <ele>1578</ele>
        <time>2020-07-30T17:10:34Z</time>
      </trkpt>
      <trkpt lat="45.86827" lon="6.45747">
        <ele>1575</ele>
        <time>2020-07-30T17:10:32Z</time>
      </trkpt>
      <trkpt lat="45.86835" lon="6.45761">
        <ele>1569</ele>
        <time>2020-07-30T17:10:26Z</time>
      </trkpt>
      <trkpt lat="45.86851" lon="6.45764">
        <ele>1562</ele>
        <time>2020-07-30T17:10:17Z</time>
      </trkpt>
      <trkpt lat="45.86856" lon="6.45769">
        <ele>1560</ele>
        <time>2020-07-30T17:10:14Z</time>
      </trkpt>
      <trkpt lat="45.86857" lon="6.4578">
        <ele>1558</ele>
        <time>2020-07-30T17:10:11Z</time>
      </trkpt>
      <trkpt lat="45.86861" lon="6.45786">
        <ele>1556</ele>
        <time>2020-07-30T17:10:08Z</time>
      </trkpt>
      <trkpt lat="45.86888" lon="6.45794">
        <ele>1544</ele>
        <time>2020-07-30T17:09:54Z</time>
      </trkpt>
      <trkpt lat="45.86896" lon="6.45808">
        <ele>1540</ele>
        <time>2020-07-30T17:09:48Z</time>
      </trkpt>
      <trkpt lat="45.86901" lon="6.45812">
        <ele>1537</ele>
        <time>2020-07-30T17:09:45Z</time>
      </trkpt>
      <trkpt lat="45.86907" lon="6.45811">
        <ele>1535</ele>
        <time>2020-07-30T17:09:42Z</time>
      </trkpt>
      <trkpt lat="45.86915" lon="6.45823">
        <ele>1531</ele>
        <time>2020-07-30T17:09:36Z</time>
      </trkpt>
      <trkpt lat="45.86917" lon="6.45831">
        <ele>1529</ele>
        <time>2020-07-30T17:09:33Z</time>
      </trkpt>
      <trkpt lat="45.86918" lon="6.4585">
        <ele>1528</ele>
        <time>2020-07-30T17:09:26Z</time>
      </trkpt>
      <trkpt lat="45.8693" lon="6.4592">
        <ele>1523</ele>
        <time>2020-07-30T17:09:01Z</time>
      </trkpt>
      <trkpt lat="45.8694" lon="6.45952">
        <ele>1517</ele>
        <time>2020-07-30T17:08:49Z</time>
      </trkpt>
      <trkpt lat="45.86947" lon="6.46003">
        <ele>1513</ele>
        <time>2020-07-30T17:08:31Z</time>
      </trkpt>
      <trkpt lat="45.86956" lon="6.46046">
        <ele>1513</ele>
        <time>2020-07-30T17:08:15Z</time>
      </trkpt>
      <trkpt lat="45.86966" lon="6.46071">
        <ele>1512</ele>
        <time>2020-07-30T17:08:05Z</time>
      </trkpt>
      <trkpt lat="45.86978" lon="6.46082">
        <ele>1510</ele>
        <time>2020-07-30T17:07:58Z</time>
      </trkpt>
      <trkpt lat="45.87019" lon="6.461">
        <ele>1503</ele>
        <time>2020-07-30T17:07:37Z</time>
      </trkpt>
      <trkpt lat="45.87039" lon="6.46143">
        <ele>1501</ele>
        <time>2020-07-30T17:07:19Z</time>
      </trkpt>
      <trkpt lat="45.87048" lon="6.46173">
        <ele>1501</ele>
        <time>2020-07-30T17:07:07Z</time>
      </trkpt>
      <trkpt lat="45.87033" lon="6.46216">
        <ele>1502</ele>
        <time>2020-07-30T17:06:50Z</time>
      </trkpt>
      <trkpt lat="45.87031" lon="6.46236">
        <ele>1502</ele>
        <time>2020-07-30T17:06:43Z</time>
      </trkpt>
      <trkpt lat="45.87037" lon="6.46256">
        <ele>1501</ele>
        <time>2020-07-30T17:06:36Z</time>
      </trkpt>
      <trkpt lat="45.87049" lon="6.46272">
        <ele>1498</ele>
        <time>2020-07-30T17:06:28Z</time>
      </trkpt>
      <trkpt lat="45.87064" lon="6.463">
        <ele>1495</ele>
        <time>2020-07-30T17:06:15Z</time>
      </trkpt>
      <trkpt lat="45.87073" lon="6.46305">
        <ele>1494</ele>
        <time>2020-07-30T17:06:10Z</time>
      </trkpt>
      <trkpt lat="45.8709" lon="6.46304">
        <ele>1491</ele>
        <time>2020-07-30T17:06:02Z</time>
      </trkpt>
      <trkpt lat="45.871" lon="6.46306">
        <ele>1491</ele>
        <time>2020-07-30T17:05:57Z</time>
      </trkpt>
      <trkpt lat="45.87122" lon="6.46318">
        <ele>1488</ele>
        <time>2020-07-30T17:05:45Z</time>
      </trkpt>
      <trkpt lat="45.87141" lon="6.46343">
        <ele>1486</ele>
        <time>2020-07-30T17:05:32Z</time>
      </trkpt>
      <trkpt lat="45.87159" lon="6.46373">
        <ele>1485</ele>
        <time>2020-07-30T17:05:18Z</time>
      </trkpt>
      <trkpt lat="45.87185" lon="6.46424">
        <ele>1485</ele>
        <time>2020-07-30T17:04:56Z</time>
      </trkpt>
      <trkpt lat="45.87183" lon="6.46424">
        <ele>1485</ele>
        <time>2020-07-30T17:04:55Z</time>
      </trkpt>
      <trkpt lat="45.87185" lon="6.46429">
        <ele>1485</ele>
        <time>2020-07-30T17:04:53Z</time>
      </trkpt>
      <trkpt lat="45.87195" lon="6.4644">
        <ele>1485</ele>
        <time>2020-07-30T17:04:47Z</time>
      </trkpt>
      <trkpt lat="45.87241" lon="6.4647">
        <ele>1487</ele>
        <time>2020-07-30T17:04:22Z</time>
      </trkpt>
    </trkseg>
  </trk>
  <trk>
    <name><![CDATA[J1 traversée aravis_4]]></name>
    <trkseg>
      <trkpt lat="45.96476" lon="6.52754">
        <ele>1859.3</ele>
      </trkpt>
      <trkpt lat="45.96467" lon="6.52819">
        <ele>1851.3</ele>
      </trkpt>
      <trkpt lat="45.96382" lon="6.52933">
        <ele>1877.4</ele>
      </trkpt>
      <trkpt lat="45.96376" lon="6.53063">
        <ele>1877.2</ele>
      </trkpt>
      <trkpt lat="45.96347" lon="6.53145">
        <ele>1893.9</ele>
      </trkpt>
      <trkpt lat="45.96347" lon="6.53234">
        <ele>1904.6</ele>
      </trkpt>
      <trkpt lat="45.96318" lon="6.53233">
        <ele>1909.1</ele>
      </trkpt>
      <trkpt lat="45.96374" lon="6.53411">
        <ele>1917.2</ele>
      </trkpt>
      <trkpt lat="45.96473" lon="6.53606">
        <ele>1943.3</ele>
      </trkpt>
      <trkpt lat="45.96382" lon="6.53794">
        <ele>1917</ele>
        <time>2020-07-30T14:34:43Z</time>
      </trkpt>
      <trkpt lat="45.9637" lon="6.53804">
        <ele>1917</ele>
        <time>2020-07-30T14:34:50Z</time>
      </trkpt>
      <trkpt lat="45.96367" lon="6.53796">
        <ele>1916</ele>
        <time>2020-07-30T14:34:53Z</time>
      </trkpt>
      <trkpt lat="45.96329" lon="6.5383">
        <ele>1921</ele>
        <time>2020-07-30T14:35:16Z</time>
      </trkpt>
      <trkpt lat="45.96316" lon="6.53837">
        <ele>1922</ele>
        <time>2020-07-30T14:35:23Z</time>
      </trkpt>
      <trkpt lat="45.96288" lon="6.53844">
        <ele>1920</ele>
        <time>2020-07-30T14:35:37Z</time>
      </trkpt>
      <trkpt lat="45.96278" lon="6.53854">
        <ele>1922</ele>
        <time>2020-07-30T14:35:43Z</time>
      </trkpt>
      <trkpt lat="45.96265" lon="6.5386">
        <ele>1922</ele>
        <time>2020-07-30T14:35:50Z</time>
      </trkpt>
      <trkpt lat="45.96246" lon="6.53881">
        <ele>1926</ele>
        <time>2020-07-30T14:36:02Z</time>
      </trkpt>
      <trkpt lat="45.96237" lon="6.53881">
        <ele>1925</ele>
        <time>2020-07-30T14:36:06Z</time>
      </trkpt>
      <trkpt lat="45.96237" lon="6.53889">
        <ele>1928</ele>
        <time>2020-07-30T14:36:09Z</time>
      </trkpt>
      <trkpt lat="45.96229" lon="6.53909">
        <ele>1933</ele>
        <time>2020-07-30T14:36:17Z</time>
      </trkpt>
      <trkpt lat="45.96221" lon="6.53922">
        <ele>1936</ele>
        <time>2020-07-30T14:36:23Z</time>
      </trkpt>
      <trkpt lat="45.96214" lon="6.53926">
        <ele>1936</ele>
        <time>2020-07-30T14:36:27Z</time>
      </trkpt>
      <trkpt lat="45.96201" lon="6.53943">
        <ele>1940</ele>
        <time>2020-07-30T14:36:36Z</time>
      </trkpt>
      <trkpt lat="45.96167" lon="6.53908">
        <ele>1923</ele>
        <time>2020-07-30T14:36:57Z</time>
      </trkpt>
      <trkpt lat="45.96152" lon="6.53902">
        <ele>1924</ele>
        <time>2020-07-30T14:37:04Z</time>
      </trkpt>
      <trkpt lat="45.96147" lon="6.53903">
        <ele>1924</ele>
        <time>2020-07-30T14:37:07Z</time>
      </trkpt>
      <trkpt lat="45.96135" lon="6.53917">
        <ele>1929</ele>
        <time>2020-07-30T14:37:15Z</time>
      </trkpt>
      <trkpt lat="45.96128" lon="6.53921">
        <ele>1931</ele>
        <time>2020-07-30T14:37:18Z</time>
      </trkpt>
      <trkpt lat="45.96117" lon="6.53922">
        <ele>1933</ele>
        <time>2020-07-30T14:37:24Z</time>
      </trkpt>
      <trkpt lat="45.96106" lon="6.53917">
        <ele>1932</ele>
        <time>2020-07-30T14:37:30Z</time>
      </trkpt>
      <trkpt lat="45.96084" lon="6.5393">
        <ele>1940</ele>
        <time>2020-07-30T14:37:42Z</time>
      </trkpt>
      <trkpt lat="45.96079" lon="6.53926">
        <ele>1939</ele>
        <time>2020-07-30T14:37:45Z</time>
      </trkpt>
      <trkpt lat="45.96074" lon="6.5393">
        <ele>1942</ele>
        <time>2020-07-30T14:37:47Z</time>
      </trkpt>
      <trkpt lat="45.96066" lon="6.5393">
        <ele>1944</ele>
        <time>2020-07-30T14:37:51Z</time>
      </trkpt>
      <trkpt lat="45.96047" lon="6.53937">
        <ele>1950</ele>
        <time>2020-07-30T14:38:01Z</time>
      </trkpt>
      <trkpt lat="45.96044" lon="6.53935">
        <ele>1950</ele>
        <time>2020-07-30T14:38:03Z</time>
      </trkpt>
      <trkpt lat="45.96031" lon="6.53936">
        <ele>1953</ele>
        <time>2020-07-30T14:38:09Z</time>
      </trkpt>
      <trkpt lat="45.96016" lon="6.53942">
        <ele>1958</ele>
        <time>2020-07-30T14:38:17Z</time>
      </trkpt>
      <trkpt lat="45.96" lon="6.53944">
        <ele>1962</ele>
        <time>2020-07-30T14:38:25Z</time>
      </trkpt>
      <trkpt lat="45.95991" lon="6.5395">
        <ele>1965</ele>
        <time>2020-07-30T14:38:30Z</time>
      </trkpt>
      <trkpt lat="45.95983" lon="6.53951">
        <ele>1966</ele>
        <time>2020-07-30T14:38:34Z</time>
      </trkpt>
      <trkpt lat="45.95968" lon="6.53959">
        <ele>1971</ele>
        <time>2020-07-30T14:38:42Z</time>
      </trkpt>
      <trkpt lat="45.95953" lon="6.5397">
        <ele>1976</ele>
        <time>2020-07-30T14:38:51Z</time>
      </trkpt>
      <trkpt lat="45.95941" lon="6.53967">
        <ele>1976</ele>
        <time>2020-07-30T14:38:57Z</time>
      </trkpt>
      <trkpt lat="45.95923" lon="6.53973">
        <ele>1979</ele>
        <time>2020-07-30T14:39:06Z</time>
      </trkpt>
      <trkpt lat="45.95922" lon="6.5398">
        <ele>1982</ele>
        <time>2020-07-30T14:39:08Z</time>
      </trkpt>
      <trkpt lat="45.95927" lon="6.53987">
        <ele>1984</ele>
        <time>2020-07-30T14:39:12Z</time>
      </trkpt>
      <trkpt lat="45.95924" lon="6.53992">
        <ele>1986</ele>
        <time>2020-07-30T14:39:14Z</time>
      </trkpt>
      <trkpt lat="45.95914" lon="6.53993">
        <ele>1988</ele>
        <time>2020-07-30T14:39:19Z</time>
      </trkpt>
      <trkpt lat="45.95888" lon="6.53988">
        <ele>1987</ele>
        <time>2020-07-30T14:39:32Z</time>
      </trkpt>
      <trkpt lat="45.9582" lon="6.54019">
        <ele>2005</ele>
        <time>2020-07-30T14:40:08Z</time>
      </trkpt>
      <trkpt lat="45.958" lon="6.5402">
        <ele>2008</ele>
        <time>2020-07-30T14:40:18Z</time>
      </trkpt>
      <trkpt lat="45.95789" lon="6.54016">
        <ele>2008</ele>
        <time>2020-07-30T14:40:24Z</time>
      </trkpt>
      <trkpt lat="45.95756" lon="6.54023">
        <ele>2015</ele>
        <time>2020-07-30T14:40:40Z</time>
      </trkpt>
      <trkpt lat="45.95735" lon="6.54003">
        <ele>2011</ele>
        <time>2020-07-30T14:40:53Z</time>
      </trkpt>
      <trkpt lat="45.95727" lon="6.54001">
        <ele>2011</ele>
        <time>2020-07-30T14:40:57Z</time>
      </trkpt>
      <trkpt lat="45.95699" lon="6.54034">
        <ele>2025</ele>
        <time>2020-07-30T14:41:15Z</time>
      </trkpt>
      <trkpt lat="45.95697" lon="6.54048">
        <ele>2030</ele>
        <time>2020-07-30T14:41:20Z</time>
      </trkpt>
      <trkpt lat="45.9569" lon="6.54055">
        <ele>2033</ele>
        <time>2020-07-30T14:41:24Z</time>
      </trkpt>
      <trkpt lat="45.95677" lon="6.54089">
        <ele>2045</ele>
        <time>2020-07-30T14:41:38Z</time>
      </trkpt>
      <trkpt lat="45.95672" lon="6.54095">
        <ele>2047</ele>
        <time>2020-07-30T14:41:41Z</time>
      </trkpt>
      <trkpt lat="45.95664" lon="6.54099">
        <ele>2049</ele>
        <time>2020-07-30T14:41:45Z</time>
      </trkpt>
      <trkpt lat="45.9565" lon="6.54115">
        <ele>2055</ele>
        <time>2020-07-30T14:41:54Z</time>
      </trkpt>
      <trkpt lat="45.95661" lon="6.54121">
        <ele>2056</ele>
        <time>2020-07-30T14:42:00Z</time>
      </trkpt>
      <trkpt lat="45.95662" lon="6.54128">
        <ele>2058</ele>
        <time>2020-07-30T14:42:03Z</time>
      </trkpt>
      <trkpt lat="45.95656" lon="6.54158">
        <ele>2068</ele>
        <time>2020-07-30T14:42:14Z</time>
      </trkpt>
      <trkpt lat="45.95645" lon="6.54163">
        <ele>2069</ele>
        <time>2020-07-30T14:42:19Z</time>
      </trkpt>
      <trkpt lat="45.95652" lon="6.54182">
        <ele>2075</ele>
        <time>2020-07-30T14:42:27Z</time>
      </trkpt>
      <trkpt lat="45.9565" lon="6.54195">
        <ele>2078</ele>
        <time>2020-07-30T14:42:32Z</time>
      </trkpt>
      <trkpt lat="45.95653" lon="6.54224">
        <ele>2087</ele>
        <time>2020-07-30T14:42:42Z</time>
      </trkpt>
      <trkpt lat="45.95652" lon="6.54261">
        <ele>2098</ele>
        <time>2020-07-30T14:42:55Z</time>
      </trkpt>
      <trkpt lat="45.95658" lon="6.54285">
        <ele>2106</ele>
        <time>2020-07-30T14:43:03Z</time>
      </trkpt>
      <trkpt lat="45.95656" lon="6.54306">
        <ele>2112</ele>
        <time>2020-07-30T14:43:11Z</time>
      </trkpt>
      <trkpt lat="45.95659" lon="6.54311">
        <ele>2114</ele>
        <time>2020-07-30T14:43:13Z</time>
      </trkpt>
      <trkpt lat="45.95669" lon="6.54313">
        <ele>2115</ele>
        <time>2020-07-30T14:43:18Z</time>
      </trkpt>
      <trkpt lat="45.95672" lon="6.54325">
        <ele>2119</ele>
        <time>2020-07-30T14:43:23Z</time>
      </trkpt>
      <trkpt lat="45.9567" lon="6.54331">
        <ele>2121</ele>
        <time>2020-07-30T14:43:25Z</time>
      </trkpt>
      <trkpt lat="45.95671" lon="6.54342">
        <ele>2124</ele>
        <time>2020-07-30T14:43:29Z</time>
      </trkpt>
      <trkpt lat="45.95659" lon="6.54361">
        <ele>2130</ele>
        <time>2020-07-30T14:43:38Z</time>
      </trkpt>
      <trkpt lat="45.95659" lon="6.54382">
        <ele>2136</ele>
        <time>2020-07-30T14:43:45Z</time>
      </trkpt>
      <trkpt lat="45.95665" lon="6.54387">
        <ele>2137</ele>
        <time>2020-07-30T14:43:49Z</time>
      </trkpt>
      <trkpt lat="45.95665" lon="6.5439">
        <ele>2138</ele>
        <time>2020-07-30T14:43:50Z</time>
      </trkpt>
      <trkpt lat="45.95631" lon="6.54409">
        <ele>2145</ele>
        <time>2020-07-30T14:44:08Z</time>
      </trkpt>
      <trkpt lat="45.95625" lon="6.54417">
        <ele>2148</ele>
        <time>2020-07-30T14:44:12Z</time>
      </trkpt>
      <trkpt lat="45.95618" lon="6.54418">
        <ele>2148</ele>
        <time>2020-07-30T14:44:15Z</time>
      </trkpt>
      <trkpt lat="45.9561" lon="6.54423">
        <ele>2150</ele>
        <time>2020-07-30T14:44:20Z</time>
      </trkpt>
      <trkpt lat="45.95602" lon="6.54437">
        <ele>2153</ele>
        <time>2020-07-30T14:44:26Z</time>
      </trkpt>
      <trkpt lat="45.95601" lon="6.54445">
        <ele>2155</ele>
        <time>2020-07-30T14:44:29Z</time>
      </trkpt>
      <trkpt lat="45.95605" lon="6.54456">
        <ele>2158</ele>
        <time>2020-07-30T14:44:33Z</time>
      </trkpt>
      <trkpt lat="45.95605" lon="6.54467">
        <ele>2161</ele>
        <time>2020-07-30T14:44:37Z</time>
      </trkpt>
      <trkpt lat="45.95601" lon="6.54473">
        <ele>2162</ele>
        <time>2020-07-30T14:44:40Z</time>
      </trkpt>
      <trkpt lat="45.956" lon="6.54486">
        <ele>2165</ele>
        <time>2020-07-30T14:44:45Z</time>
      </trkpt>
      <trkpt lat="45.95595" lon="6.54488">
        <ele>2166</ele>
        <time>2020-07-30T14:44:47Z</time>
      </trkpt>
      <trkpt lat="45.95589" lon="6.54505">
        <ele>2170</ele>
        <time>2020-07-30T14:44:54Z</time>
      </trkpt>
      <trkpt lat="45.9558" lon="6.54512">
        <ele>2173</ele>
        <time>2020-07-30T14:44:59Z</time>
      </trkpt>
      <trkpt lat="45.9557" lon="6.5453">
        <ele>2179</ele>
        <time>2020-07-30T14:45:07Z</time>
      </trkpt>
      <trkpt lat="45.95576" lon="6.54544">
        <ele>2183</ele>
        <time>2020-07-30T14:45:13Z</time>
      </trkpt>
      <trkpt lat="45.95577" lon="6.54556">
        <ele>2186</ele>
        <time>2020-07-30T14:45:17Z</time>
      </trkpt>
      <trkpt lat="45.95572" lon="6.54562">
        <ele>2188</ele>
        <time>2020-07-30T14:45:20Z</time>
      </trkpt>
      <trkpt lat="45.95575" lon="6.5457">
        <ele>2190</ele>
        <time>2020-07-30T14:45:23Z</time>
      </trkpt>
      <trkpt lat="45.95573" lon="6.54592">
        <ele>2197</ele>
        <time>2020-07-30T14:45:31Z</time>
      </trkpt>
      <trkpt lat="45.9557" lon="6.546">
        <ele>2199</ele>
        <time>2020-07-30T14:45:34Z</time>
      </trkpt>
      <trkpt lat="45.95571" lon="6.5461">
        <ele>2202</ele>
        <time>2020-07-30T14:45:38Z</time>
      </trkpt>
      <trkpt lat="45.95565" lon="6.54621">
        <ele>2206</ele>
        <time>2020-07-30T14:45:42Z</time>
      </trkpt>
      <trkpt lat="45.95564" lon="6.54635">
        <ele>2210</ele>
        <time>2020-07-30T14:45:47Z</time>
      </trkpt>
      <trkpt lat="45.95566" lon="6.54643">
        <ele>2212</ele>
        <time>2020-07-30T14:45:50Z</time>
      </trkpt>
      <trkpt lat="45.95562" lon="6.5465">
        <ele>2214</ele>
        <time>2020-07-30T14:45:54Z</time>
      </trkpt>
      <trkpt lat="45.95562" lon="6.5466">
        <ele>2217</ele>
        <time>2020-07-30T14:45:57Z</time>
      </trkpt>
      <trkpt lat="45.95557" lon="6.54676">
        <ele>2222</ele>
        <time>2020-07-30T14:46:03Z</time>
      </trkpt>
      <trkpt lat="45.95557" lon="6.54691">
        <ele>2225</ele>
        <time>2020-07-30T14:46:08Z</time>
      </trkpt>
      <trkpt lat="45.95564" lon="6.54701">
        <ele>2228</ele>
        <time>2020-07-30T14:46:13Z</time>
      </trkpt>
      <trkpt lat="45.95563" lon="6.54729">
        <ele>2235</ele>
        <time>2020-07-30T14:46:23Z</time>
      </trkpt>
      <trkpt lat="45.95565" lon="6.54739">
        <ele>2237</ele>
        <time>2020-07-30T14:46:27Z</time>
      </trkpt>
      <trkpt lat="45.9556" lon="6.54771">
        <ele>2245</ele>
        <time>2020-07-30T14:46:38Z</time>
      </trkpt>
      <trkpt lat="45.95565" lon="6.5478">
        <ele>2247</ele>
        <time>2020-07-30T14:46:42Z</time>
      </trkpt>
      <trkpt lat="45.95562" lon="6.54794">
        <ele>2250</ele>
        <time>2020-07-30T14:46:47Z</time>
      </trkpt>
      <trkpt lat="45.95568" lon="6.54828">
        <ele>2258</ele>
        <time>2020-07-30T14:46:59Z</time>
      </trkpt>
      <trkpt lat="45.95568" lon="6.54835">
        <ele>2259</ele>
        <time>2020-07-30T14:47:02Z</time>
      </trkpt>
      <trkpt lat="45.95563" lon="6.54838">
        <ele>2260</ele>
        <time>2020-07-30T14:47:04Z</time>
      </trkpt>
      <trkpt lat="45.95564" lon="6.54843">
        <ele>2261</ele>
        <time>2020-07-30T14:47:06Z</time>
      </trkpt>
      <trkpt lat="45.95561" lon="6.54847">
        <ele>2262</ele>
        <time>2020-07-30T14:47:08Z</time>
      </trkpt>
      <trkpt lat="45.95562" lon="6.5486">
        <ele>2266</ele>
        <time>2020-07-30T14:47:13Z</time>
      </trkpt>
      <trkpt lat="45.95558" lon="6.5488">
        <ele>2271</ele>
        <time>2020-07-30T14:47:20Z</time>
      </trkpt>
      <trkpt lat="45.95566" lon="6.54902">
        <ele>2278</ele>
        <time>2020-07-30T14:47:29Z</time>
      </trkpt>
      <trkpt lat="45.95564" lon="6.54915">
        <ele>2281</ele>
        <time>2020-07-30T14:47:33Z</time>
      </trkpt>
      <trkpt lat="45.95566" lon="6.54922">
        <ele>2284</ele>
        <time>2020-07-30T14:47:36Z</time>
      </trkpt>
      <trkpt lat="45.95571" lon="6.54927">
        <ele>2285</ele>
        <time>2020-07-30T14:47:39Z</time>
      </trkpt>
      <trkpt lat="45.95576" lon="6.54927">
        <ele>2286</ele>
        <time>2020-07-30T14:47:42Z</time>
      </trkpt>
      <trkpt lat="45.9558" lon="6.5493">
        <ele>2287</ele>
        <time>2020-07-30T14:47:44Z</time>
      </trkpt>
      <trkpt lat="45.95581" lon="6.54935">
        <ele>2288</ele>
        <time>2020-07-30T14:47:46Z</time>
      </trkpt>
      <trkpt lat="45.95593" lon="6.54945">
        <ele>2291</ele>
        <time>2020-07-30T14:47:53Z</time>
      </trkpt>
      <trkpt lat="45.95588" lon="6.54952">
        <ele>2293</ele>
        <time>2020-07-30T14:47:56Z</time>
      </trkpt>
      <trkpt lat="45.9559" lon="6.54954">
        <ele>2294</ele>
        <time>2020-07-30T14:47:57Z</time>
      </trkpt>
      <trkpt lat="45.95593" lon="6.54974">
        <ele>2300</ele>
        <time>2020-07-30T14:48:04Z</time>
      </trkpt>
      <trkpt lat="45.95589" lon="6.5498">
        <ele>2301</ele>
        <time>2020-07-30T14:48:07Z</time>
      </trkpt>
      <trkpt lat="45.9559" lon="6.54985">
        <ele>2303</ele>
        <time>2020-07-30T14:48:09Z</time>
      </trkpt>
      <trkpt lat="45.95582" lon="6.54999">
        <ele>2307</ele>
        <time>2020-07-30T14:48:15Z</time>
      </trkpt>
      <trkpt lat="45.95588" lon="6.5501">
        <ele>2312</ele>
        <time>2020-07-30T14:48:20Z</time>
      </trkpt>
      <trkpt lat="45.95588" lon="6.55017">
        <ele>2315</ele>
        <time>2020-07-30T14:48:23Z</time>
      </trkpt>
      <trkpt lat="45.95596" lon="6.55028">
        <ele>2320</ele>
        <time>2020-07-30T14:48:28Z</time>
      </trkpt>
      <trkpt lat="45.95602" lon="6.55031">
        <ele>2321</ele>
        <time>2020-07-30T14:48:31Z</time>
      </trkpt>
      <trkpt lat="45.95604" lon="6.55049">
        <ele>2329</ele>
        <time>2020-07-30T14:48:38Z</time>
      </trkpt>
      <trkpt lat="45.95602" lon="6.55064">
        <ele>2336</ele>
        <time>2020-07-30T14:48:43Z</time>
      </trkpt>
      <trkpt lat="45.95606" lon="6.55068">
        <ele>2338</ele>
        <time>2020-07-30T14:48:46Z</time>
      </trkpt>
      <trkpt lat="45.95604" lon="6.55074">
        <ele>2340</ele>
        <time>2020-07-30T14:48:48Z</time>
      </trkpt>
      <trkpt lat="45.95609" lon="6.55082">
        <ele>2344</ele>
        <time>2020-07-30T14:48:52Z</time>
      </trkpt>
      <trkpt lat="45.95608" lon="6.55088">
        <ele>2348</ele>
        <time>2020-07-30T14:48:54Z</time>
      </trkpt>
      <trkpt lat="45.95611" lon="6.55093">
        <ele>2351</ele>
        <time>2020-07-30T14:48:56Z</time>
      </trkpt>
      <trkpt lat="45.95611" lon="6.55103">
        <ele>2358</ele>
        <time>2020-07-30T14:49:00Z</time>
      </trkpt>
      <trkpt lat="45.95616" lon="6.55112">
        <ele>2364</ele>
        <time>2020-07-30T14:49:04Z</time>
      </trkpt>
      <trkpt lat="45.95614" lon="6.55112">
        <ele>2364</ele>
        <time>2020-07-30T14:49:05Z</time>
      </trkpt>
      <trkpt lat="45.95616" lon="6.55132">
        <ele>2377</ele>
        <time>2020-07-30T14:49:12Z</time>
      </trkpt>
      <trkpt lat="45.95614" lon="6.55139">
        <ele>2382</ele>
        <time>2020-07-30T14:49:14Z</time>
      </trkpt>
      <trkpt lat="45.95612" lon="6.55139">
        <ele>2382</ele>
        <time>2020-07-30T14:49:15Z</time>
      </trkpt>
      <trkpt lat="45.95612" lon="6.55149">
        <ele>2389</ele>
        <time>2020-07-30T14:49:19Z</time>
      </trkpt>
      <trkpt lat="45.95607" lon="6.55158">
        <ele>2396</ele>
        <time>2020-07-30T14:49:23Z</time>
      </trkpt>
      <trkpt lat="45.95595" lon="6.55169">
        <ele>2407</ele>
        <time>2020-07-30T14:49:30Z</time>
      </trkpt>
      <trkpt lat="45.95599" lon="6.55179">
        <ele>2412</ele>
        <time>2020-07-30T14:49:34Z</time>
      </trkpt>
      <trkpt lat="45.95595" lon="6.5518">
        <ele>2414</ele>
        <time>2020-07-30T14:49:36Z</time>
      </trkpt>
      <trkpt lat="45.95589" lon="6.55193">
        <ele>2424</ele>
        <time>2020-07-30T14:49:41Z</time>
      </trkpt>
      <trkpt lat="45.95588" lon="6.55198">
        <ele>2427</ele>
        <time>2020-07-30T14:49:43Z</time>
      </trkpt>
      <trkpt lat="45.9559" lon="6.55197">
        <ele>2426</ele>
        <time>2020-07-30T14:49:44Z</time>
      </trkpt>
      <trkpt lat="45.9559" lon="6.55199">
        <ele>2427</ele>
        <time>2020-07-30T14:49:45Z</time>
      </trkpt>
      <trkpt lat="45.95585" lon="6.5521">
        <ele>2436</ele>
        <time>2020-07-30T14:49:49Z</time>
      </trkpt>
      <trkpt lat="45.95585" lon="6.55218">
        <ele>2441</ele>
        <time>2020-07-30T14:49:52Z</time>
      </trkpt>
      <trkpt lat="45.95588" lon="6.55221">
        <ele>2442</ele>
        <time>2020-07-30T14:49:54Z</time>
      </trkpt>
      <trkpt lat="45.95585" lon="6.55232">
        <ele>2450</ele>
        <time>2020-07-30T14:49:58Z</time>
      </trkpt>
      <trkpt lat="45.95598" lon="6.55226">
        <ele>2443</ele>
        <time>2020-07-30T14:50:05Z</time>
      </trkpt>
      <trkpt lat="45.95595" lon="6.5525">
        <ele>2459</ele>
        <time>2020-07-30T14:50:13Z</time>
      </trkpt>
      <trkpt lat="45.95597" lon="6.55246">
        <ele>2456</ele>
        <time>2020-07-30T14:50:15Z</time>
      </trkpt>
      <trkpt lat="45.95604" lon="6.55242">
        <ele>2452</ele>
        <time>2020-07-30T14:50:19Z</time>
      </trkpt>
      <trkpt lat="45.95609" lon="6.55242">
        <ele>2451</ele>
        <time>2020-07-30T14:50:21Z</time>
      </trkpt>
      <trkpt lat="45.95621" lon="6.55236">
        <ele>2444</ele>
        <time>2020-07-30T14:50:28Z</time>
      </trkpt>
      <trkpt lat="45.95625" lon="6.55237">
        <ele>2444</ele>
        <time>2020-07-30T14:50:30Z</time>
      </trkpt>
      <trkpt lat="45.95631" lon="6.55231">
        <ele>2438</ele>
        <time>2020-07-30T14:50:33Z</time>
      </trkpt>
      <trkpt lat="45.95634" lon="6.55232">
        <ele>2438</ele>
        <time>2020-07-30T14:50:35Z</time>
      </trkpt>
      <trkpt lat="45.95638" lon="6.55229">
        <ele>2435</ele>
        <time>2020-07-30T14:50:37Z</time>
      </trkpt>
      <trkpt lat="45.95644" lon="6.55232">
        <ele>2436</ele>
        <time>2020-07-30T14:50:40Z</time>
      </trkpt>
      <trkpt lat="45.95646" lon="6.55257">
        <ele>2451</ele>
        <time>2020-07-30T14:50:49Z</time>
      </trkpt>
      <trkpt lat="45.95642" lon="6.55267">
        <ele>2457</ele>
        <time>2020-07-30T14:50:53Z</time>
      </trkpt>
      <trkpt lat="45.95643" lon="6.55275">
        <ele>2462</ele>
        <time>2020-07-30T14:50:56Z</time>
      </trkpt>
      <trkpt lat="45.95656" lon="6.55269">
        <ele>2455</ele>
        <time>2020-07-30T14:51:03Z</time>
      </trkpt>
      <trkpt lat="45.95661" lon="6.55269">
        <ele>2454</ele>
        <time>2020-07-30T14:51:05Z</time>
      </trkpt>
      <trkpt lat="45.95662" lon="6.55273">
        <ele>2456</ele>
        <time>2020-07-30T14:51:07Z</time>
      </trkpt>
      <trkpt lat="45.95659" lon="6.55278">
        <ele>2459</ele>
        <time>2020-07-30T14:51:09Z</time>
      </trkpt>
      <trkpt lat="45.95658" lon="6.55289">
        <ele>2465</ele>
        <time>2020-07-30T14:51:13Z</time>
      </trkpt>
      <trkpt lat="45.95655" lon="6.55293">
        <ele>2468</ele>
        <time>2020-07-30T14:51:15Z</time>
      </trkpt>
      <trkpt lat="45.95656" lon="6.55305">
        <ele>2475</ele>
        <time>2020-07-30T14:51:19Z</time>
      </trkpt>
      <trkpt lat="45.95651" lon="6.55319">
        <ele>2484</ele>
        <time>2020-07-30T14:51:25Z</time>
      </trkpt>
      <trkpt lat="45.95653" lon="6.55322">
        <ele>2485</ele>
        <time>2020-07-30T14:51:26Z</time>
      </trkpt>
      <trkpt lat="45.95625" lon="6.55347">
        <ele>2506</ele>
        <time>2020-07-30T14:51:43Z</time>
      </trkpt>
      <trkpt lat="45.95618" lon="6.55362">
        <ele>2516</ele>
        <time>2020-07-30T14:51:49Z</time>
      </trkpt>
      <trkpt lat="45.9562" lon="6.55363">
        <ele>2516</ele>
        <time>2020-07-30T14:51:50Z</time>
      </trkpt>
      <trkpt lat="45.95613" lon="6.55366">
        <ele>2520</ele>
        <time>2020-07-30T14:51:54Z</time>
      </trkpt>
      <trkpt lat="45.95609" lon="6.55375">
        <ele>2527</ele>
        <time>2020-07-30T14:51:57Z</time>
      </trkpt>
      <trkpt lat="45.95604" lon="6.5538">
        <ele>2533</ele>
        <time>2020-07-30T14:52:00Z</time>
      </trkpt>
      <trkpt lat="45.95599" lon="6.55394">
        <ele>2544</ele>
        <time>2020-07-30T14:52:06Z</time>
      </trkpt>
      <trkpt lat="45.95601" lon="6.55398">
        <ele>2545</ele>
        <time>2020-07-30T14:52:08Z</time>
      </trkpt>
      <trkpt lat="45.95594" lon="6.55408">
        <ele>2555</ele>
        <time>2020-07-30T14:52:13Z</time>
      </trkpt>
      <trkpt lat="45.95592" lon="6.55415">
        <ele>2561</ele>
        <time>2020-07-30T14:52:15Z</time>
      </trkpt>
      <trkpt lat="45.95594" lon="6.55418">
        <ele>2562</ele>
        <time>2020-07-30T14:52:17Z</time>
      </trkpt>
      <trkpt lat="45.95592" lon="6.55428">
        <ele>2569</ele>
        <time>2020-07-30T14:52:20Z</time>
      </trkpt>
      <trkpt lat="45.95588" lon="6.55431">
        <ele>2573</ele>
        <time>2020-07-30T14:52:23Z</time>
      </trkpt>
      <trkpt lat="45.95584" lon="6.5543">
        <ele>2576</ele>
        <time>2020-07-30T14:52:25Z</time>
      </trkpt>
      <trkpt lat="45.95584" lon="6.55433">
        <ele>2577</ele>
        <time>2020-07-30T14:52:26Z</time>
      </trkpt>
      <trkpt lat="45.95575" lon="6.55445">
        <ele>2589</ele>
        <time>2020-07-30T14:52:32Z</time>
      </trkpt>
      <trkpt lat="45.95571" lon="6.55448">
        <ele>2592</ele>
        <time>2020-07-30T14:52:34Z</time>
      </trkpt>
      <trkpt lat="45.95567" lon="6.55447">
        <ele>2593</ele>
        <time>2020-07-30T14:52:36Z</time>
      </trkpt>
      <trkpt lat="45.95559" lon="6.55455">
        <ele>2601</ele>
        <time>2020-07-30T14:52:41Z</time>
      </trkpt>
      <trkpt lat="45.9555" lon="6.55453">
        <ele>2604</ele>
        <time>2020-07-30T14:52:45Z</time>
      </trkpt>
      <trkpt lat="45.95549" lon="6.55449">
        <ele>2602</ele>
        <time>2020-07-30T14:52:47Z</time>
      </trkpt>
      <trkpt lat="45.95544" lon="6.55446">
        <ele>2602</ele>
        <time>2020-07-30T14:52:50Z</time>
      </trkpt>
      <trkpt lat="45.95543" lon="6.5546">
        <ele>2611</ele>
        <time>2020-07-30T14:52:55Z</time>
      </trkpt>
      <trkpt lat="45.95541" lon="6.55462">
        <ele>2614</ele>
        <time>2020-07-30T14:52:56Z</time>
      </trkpt>
      <trkpt lat="45.95535" lon="6.55457">
        <ele>2613</ele>
        <time>2020-07-30T14:52:59Z</time>
      </trkpt>
      <trkpt lat="45.95532" lon="6.55458">
        <ele>2615</ele>
        <time>2020-07-30T14:53:01Z</time>
      </trkpt>
      <trkpt lat="45.95533" lon="6.55462">
        <ele>2617</ele>
        <time>2020-07-30T14:53:02Z</time>
      </trkpt>
      <trkpt lat="45.95529" lon="6.55468">
        <ele>2623</ele>
        <time>2020-07-30T14:53:05Z</time>
      </trkpt>
      <trkpt lat="45.95524" lon="6.55467">
        <ele>2624</ele>
        <time>2020-07-30T14:53:08Z</time>
      </trkpt>
      <trkpt lat="45.95517" lon="6.5546">
        <ele>2623</ele>
        <time>2020-07-30T14:53:12Z</time>
      </trkpt>
      <trkpt lat="45.95508" lon="6.55458">
        <ele>2625</ele>
        <time>2020-07-30T14:53:17Z</time>
      </trkpt>
      <trkpt lat="45.95508" lon="6.55463">
        <ele>2629</ele>
        <time>2020-07-30T14:53:18Z</time>
      </trkpt>
      <trkpt lat="45.95503" lon="6.55461">
        <ele>2629</ele>
        <time>2020-07-30T14:53:21Z</time>
      </trkpt>
      <trkpt lat="45.95502" lon="6.55472">
        <ele>2637</ele>
        <time>2020-07-30T14:53:25Z</time>
      </trkpt>
      <trkpt lat="45.95506" lon="6.55484">
        <ele>2643</ele>
        <time>2020-07-30T14:53:29Z</time>
      </trkpt>
      <trkpt lat="45.95511" lon="6.55485">
        <ele>2641</ele>
        <time>2020-07-30T14:53:32Z</time>
      </trkpt>
      <trkpt lat="45.95511" lon="6.55487">
        <ele>2643</ele>
        <time>2020-07-30T14:53:33Z</time>
      </trkpt>
      <trkpt lat="45.95497" lon="6.55486">
        <ele>2646</ele>
        <time>2020-07-30T14:53:40Z</time>
      </trkpt>
      <trkpt lat="45.95496" lon="6.55483">
        <ele>2643</ele>
        <time>2020-07-30T14:53:41Z</time>
      </trkpt>
      <trkpt lat="45.95499" lon="6.55489">
        <ele>2648</ele>
        <time>2020-07-30T14:53:43Z</time>
      </trkpt>
      <trkpt lat="45.95498" lon="6.55495">
        <ele>2652</ele>
        <time>2020-07-30T14:53:45Z</time>
      </trkpt>
      <trkpt lat="45.95494" lon="6.55495">
        <ele>2650</ele>
        <time>2020-07-30T14:53:47Z</time>
      </trkpt>
      <trkpt lat="45.9549" lon="6.5549">
        <ele>2645</ele>
        <time>2020-07-30T14:53:50Z</time>
      </trkpt>
      <trkpt lat="45.95486" lon="6.5549">
        <ele>2644</ele>
        <time>2020-07-30T14:53:52Z</time>
      </trkpt>
      <trkpt lat="45.95485" lon="6.55499">
        <ele>2649</ele>
        <time>2020-07-30T14:53:55Z</time>
      </trkpt>
      <trkpt lat="45.9548" lon="6.55507">
        <ele>2650</ele>
        <time>2020-07-30T14:53:59Z</time>
      </trkpt>
      <trkpt lat="45.95481" lon="6.55512">
        <ele>2653</ele>
        <time>2020-07-30T14:54:01Z</time>
      </trkpt>
      <trkpt lat="45.95478" lon="6.55514">
        <ele>2652</ele>
        <time>2020-07-30T14:54:02Z</time>
      </trkpt>
      <trkpt lat="45.95479" lon="6.55521">
        <ele>2655</ele>
        <time>2020-07-30T14:54:05Z</time>
      </trkpt>
      <trkpt lat="45.95473" lon="6.55524">
        <ele>2653</ele>
        <time>2020-07-30T14:54:08Z</time>
      </trkpt>
      <trkpt lat="45.95492" lon="6.55543">
        <ele>2671</ele>
        <time>2020-07-30T14:54:20Z</time>
      </trkpt>
      <trkpt lat="45.95499" lon="6.55545">
        <ele>2676</ele>
        <time>2020-07-30T14:54:23Z</time>
      </trkpt>
      <trkpt lat="45.95505" lon="6.55552">
        <ele>2679</ele>
        <time>2020-07-30T14:54:27Z</time>
      </trkpt>
      <trkpt lat="45.95505" lon="6.55561">
        <ele>2683</ele>
        <time>2020-07-30T14:54:30Z</time>
      </trkpt>
      <trkpt lat="45.95509" lon="6.55563">
        <ele>2683</ele>
        <time>2020-07-30T14:54:32Z</time>
      </trkpt>
      <trkpt lat="45.95511" lon="6.55561">
        <ele>2682</ele>
        <time>2020-07-30T14:54:34Z</time>
      </trkpt>
      <trkpt lat="45.95516" lon="6.55567">
        <ele>2684</ele>
        <time>2020-07-30T14:54:37Z</time>
      </trkpt>
      <trkpt lat="45.95521" lon="6.55565">
        <ele>2683</ele>
        <time>2020-07-30T14:54:39Z</time>
      </trkpt>
      <trkpt lat="45.9552" lon="6.55575">
        <ele>2688</ele>
        <time>2020-07-30T14:54:43Z</time>
      </trkpt>
      <trkpt lat="45.95523" lon="6.5558">
        <ele>2691</ele>
        <time>2020-07-30T14:54:45Z</time>
      </trkpt>
      <trkpt lat="45.95528" lon="6.55566">
        <ele>2682</ele>
        <time>2020-07-30T14:54:51Z</time>
      </trkpt>
      <trkpt lat="45.95537" lon="6.55564">
        <ele>2680</ele>
        <time>2020-07-30T14:54:55Z</time>
      </trkpt>
      <trkpt lat="45.95542" lon="6.5557">
        <ele>2683</ele>
        <time>2020-07-30T14:54:59Z</time>
      </trkpt>
      <trkpt lat="45.95545" lon="6.55581">
        <ele>2690</ele>
        <time>2020-07-30T14:55:03Z</time>
      </trkpt>
      <trkpt lat="45.95549" lon="6.55586">
        <ele>2690</ele>
        <time>2020-07-30T14:55:05Z</time>
      </trkpt>
      <trkpt lat="45.95558" lon="6.55588">
        <ele>2689</ele>
        <time>2020-07-30T14:55:10Z</time>
      </trkpt>
      <trkpt lat="45.95559" lon="6.55593">
        <ele>2688</ele>
        <time>2020-07-30T14:55:12Z</time>
      </trkpt>
      <trkpt lat="45.95571" lon="6.55589">
        <ele>2689</ele>
        <time>2020-07-30T14:55:18Z</time>
      </trkpt>
      <trkpt lat="45.95574" lon="6.55589">
        <ele>2689</ele>
        <time>2020-07-30T14:55:19Z</time>
      </trkpt>
      <trkpt lat="45.95573" lon="6.55591">
        <ele>2689</ele>
        <time>2020-07-30T14:55:20Z</time>
      </trkpt>
      <trkpt lat="45.95563" lon="6.55596">
        <ele>2688</ele>
        <time>2020-07-30T14:55:26Z</time>
      </trkpt>
      <trkpt lat="45.95556" lon="6.55588">
        <ele>2690</ele>
        <time>2020-07-30T14:55:30Z</time>
      </trkpt>
      <trkpt lat="45.95549" lon="6.55587">
        <ele>2690</ele>
        <time>2020-07-30T14:55:34Z</time>
      </trkpt>
      <trkpt lat="45.95545" lon="6.55583">
        <ele>2691</ele>
        <time>2020-07-30T14:55:36Z</time>
      </trkpt>
      <trkpt lat="45.95545" lon="6.55576">
        <ele>2686</ele>
        <time>2020-07-30T14:55:38Z</time>
      </trkpt>
      <trkpt lat="45.95539" lon="6.55565">
        <ele>2680</ele>
        <time>2020-07-30T14:55:43Z</time>
      </trkpt>
      <trkpt lat="45.95533" lon="6.55564">
        <ele>2680</ele>
        <time>2020-07-30T14:55:46Z</time>
      </trkpt>
      <trkpt lat="45.95529" lon="6.55566">
        <ele>2682</ele>
        <time>2020-07-30T14:55:48Z</time>
      </trkpt>
      <trkpt lat="45.95528" lon="6.55571">
        <ele>2685</ele>
        <time>2020-07-30T14:55:50Z</time>
      </trkpt>
      <trkpt lat="45.9552" lon="6.5558">
        <ele>2691</ele>
        <time>2020-07-30T14:55:55Z</time>
      </trkpt>
      <trkpt lat="45.95517" lon="6.55566">
        <ele>2684</ele>
        <time>2020-07-30T14:56:00Z</time>
      </trkpt>
      <trkpt lat="45.95511" lon="6.55558">
        <ele>2680</ele>
        <time>2020-07-30T14:56:05Z</time>
      </trkpt>
      <trkpt lat="45.95506" lon="6.55559">
        <ele>2682</ele>
        <time>2020-07-30T14:56:07Z</time>
      </trkpt>
      <trkpt lat="45.95506" lon="6.55552">
        <ele>2678</ele>
        <time>2020-07-30T14:56:09Z</time>
      </trkpt>
      <trkpt lat="45.95493" lon="6.55546">
        <ele>2673</ele>
        <time>2020-07-30T14:56:16Z</time>
      </trkpt>
      <trkpt lat="45.95486" lon="6.55533">
        <ele>2663</ele>
        <time>2020-07-30T14:56:22Z</time>
      </trkpt>
      <trkpt lat="45.95479" lon="6.55526">
        <ele>2657</ele>
        <time>2020-07-30T14:56:26Z</time>
      </trkpt>
      <trkpt lat="45.95473" lon="6.55514">
        <ele>2650</ele>
        <time>2020-07-30T14:56:31Z</time>
      </trkpt>
      <trkpt lat="45.95475" lon="6.55512">
        <ele>2650</ele>
        <time>2020-07-30T14:56:33Z</time>
      </trkpt>
      <trkpt lat="45.95466" lon="6.55497">
        <ele>2640</ele>
        <time>2020-07-30T14:56:40Z</time>
      </trkpt>
      <trkpt lat="45.95464" lon="6.55504">
        <ele>2642</ele>
        <time>2020-07-30T14:56:42Z</time>
      </trkpt>
      <trkpt lat="45.95461" lon="6.55506">
        <ele>2641</ele>
        <time>2020-07-30T14:56:44Z</time>
      </trkpt>
      <trkpt lat="45.95457" lon="6.55505">
        <ele>2639</ele>
        <time>2020-07-30T14:56:46Z</time>
      </trkpt>
      <trkpt lat="45.95451" lon="6.55515">
        <ele>2639</ele>
        <time>2020-07-30T14:56:50Z</time>
      </trkpt>
      <trkpt lat="45.95452" lon="6.55513">
        <ele>2639</ele>
        <time>2020-07-30T14:56:51Z</time>
      </trkpt>
      <trkpt lat="45.95449" lon="6.5551">
        <ele>2637</ele>
        <time>2020-07-30T14:56:53Z</time>
      </trkpt>
      <trkpt lat="45.95443" lon="6.55512">
        <ele>2635</ele>
        <time>2020-07-30T14:56:56Z</time>
      </trkpt>
      <trkpt lat="45.95441" lon="6.55518">
        <ele>2635</ele>
        <time>2020-07-30T14:56:59Z</time>
      </trkpt>
      <trkpt lat="45.95442" lon="6.55525">
        <ele>2637</ele>
        <time>2020-07-30T14:57:01Z</time>
      </trkpt>
      <trkpt lat="45.95431" lon="6.55518">
        <ele>2630</ele>
        <time>2020-07-30T14:57:07Z</time>
      </trkpt>
      <trkpt lat="45.9543" lon="6.5552">
        <ele>2630</ele>
        <time>2020-07-30T14:57:08Z</time>
      </trkpt>
      <trkpt lat="45.95429" lon="6.55516">
        <ele>2629</ele>
        <time>2020-07-30T14:57:09Z</time>
      </trkpt>
      <trkpt lat="45.9543" lon="6.55518">
        <ele>2630</ele>
        <time>2020-07-30T14:57:10Z</time>
      </trkpt>
      <trkpt lat="45.95423" lon="6.55523">
        <ele>2627</ele>
        <time>2020-07-30T14:57:14Z</time>
      </trkpt>
      <trkpt lat="45.9542" lon="6.55534">
        <ele>2627</ele>
        <time>2020-07-30T14:57:18Z</time>
      </trkpt>
      <trkpt lat="45.95414" lon="6.55538">
        <ele>2623</ele>
        <time>2020-07-30T14:57:22Z</time>
      </trkpt>
      <trkpt lat="45.95413" lon="6.55547">
        <ele>2623</ele>
        <time>2020-07-30T14:57:25Z</time>
      </trkpt>
      <trkpt lat="45.95409" lon="6.55545">
        <ele>2619</ele>
        <time>2020-07-30T14:57:27Z</time>
      </trkpt>
      <trkpt lat="45.95399" lon="6.55548">
        <ele>2610</ele>
        <time>2020-07-30T14:57:32Z</time>
      </trkpt>
      <trkpt lat="45.95396" lon="6.55546">
        <ele>2606</ele>
        <time>2020-07-30T14:57:34Z</time>
      </trkpt>
      <trkpt lat="45.95388" lon="6.55553">
        <ele>2599</ele>
        <time>2020-07-30T14:57:38Z</time>
      </trkpt>
      <trkpt lat="45.95377" lon="6.55557">
        <ele>2589</ele>
        <time>2020-07-30T14:57:44Z</time>
      </trkpt>
      <trkpt lat="45.95369" lon="6.55568">
        <ele>2581</ele>
        <time>2020-07-30T14:57:50Z</time>
      </trkpt>
      <trkpt lat="45.95367" lon="6.55567">
        <ele>2579</ele>
        <time>2020-07-30T14:57:51Z</time>
      </trkpt>
      <trkpt lat="45.95365" lon="6.55572">
        <ele>2578</ele>
        <time>2020-07-30T14:57:53Z</time>
      </trkpt>
      <trkpt lat="45.95367" lon="6.55588">
        <ele>2577</ele>
        <time>2020-07-30T14:57:58Z</time>
      </trkpt>
      <trkpt lat="45.95361" lon="6.55603">
        <ele>2561</ele>
        <time>2020-07-30T14:58:04Z</time>
      </trkpt>
      <trkpt lat="45.95351" lon="6.55605">
        <ele>2551</ele>
        <time>2020-07-30T14:58:09Z</time>
      </trkpt>
      <trkpt lat="45.95325" lon="6.55602">
        <ele>2531</ele>
        <time>2020-07-30T14:58:22Z</time>
      </trkpt>
      <trkpt lat="45.95322" lon="6.55604">
        <ele>2528</ele>
        <time>2020-07-30T14:58:24Z</time>
      </trkpt>
      <trkpt lat="45.95322" lon="6.55614">
        <ele>2522</ele>
        <time>2020-07-30T14:58:28Z</time>
      </trkpt>
      <trkpt lat="45.95337" lon="6.55624">
        <ele>2527</ele>
        <time>2020-07-30T14:58:36Z</time>
      </trkpt>
      <trkpt lat="45.95367" lon="6.55657">
        <ele>2531</ele>
        <time>2020-07-30T14:58:55Z</time>
      </trkpt>
      <trkpt lat="45.95374" lon="6.55676">
        <ele>2523</ele>
        <time>2020-07-30T14:59:02Z</time>
      </trkpt>
      <trkpt lat="45.95377" lon="6.55704">
        <ele>2508</ele>
        <time>2020-07-30T14:59:12Z</time>
      </trkpt>
      <trkpt lat="45.95377" lon="6.55711">
        <ele>2503</ele>
        <time>2020-07-30T14:59:14Z</time>
      </trkpt>
      <trkpt lat="45.95374" lon="6.55715">
        <ele>2499</ele>
        <time>2020-07-30T14:59:17Z</time>
      </trkpt>
      <trkpt lat="45.95376" lon="6.55721">
        <ele>2496</ele>
        <time>2020-07-30T14:59:19Z</time>
      </trkpt>
      <trkpt lat="45.95388" lon="6.55743">
        <ele>2489</ele>
        <time>2020-07-30T14:59:29Z</time>
      </trkpt>
      <trkpt lat="45.95396" lon="6.5575">
        <ele>2489</ele>
        <time>2020-07-30T14:59:33Z</time>
      </trkpt>
      <trkpt lat="45.95401" lon="6.55751">
        <ele>2491</ele>
        <time>2020-07-30T14:59:36Z</time>
      </trkpt>
      <trkpt lat="45.95411" lon="6.55764">
        <ele>2490</ele>
        <time>2020-07-30T14:59:43Z</time>
      </trkpt>
      <trkpt lat="45.9541" lon="6.55774">
        <ele>2484</ele>
        <time>2020-07-30T14:59:46Z</time>
      </trkpt>
      <trkpt lat="45.95405" lon="6.55779">
        <ele>2479</ele>
        <time>2020-07-30T14:59:49Z</time>
      </trkpt>
      <trkpt lat="45.95411" lon="6.5579">
        <ele>2476</ele>
        <time>2020-07-30T14:59:54Z</time>
      </trkpt>
      <trkpt lat="45.95415" lon="6.55792">
        <ele>2477</ele>
        <time>2020-07-30T14:59:56Z</time>
      </trkpt>
      <trkpt lat="45.95417" lon="6.5579">
        <ele>2480</ele>
        <time>2020-07-30T14:59:57Z</time>
      </trkpt>
      <trkpt lat="45.95422" lon="6.55802">
        <ele>2477</ele>
        <time>2020-07-30T15:00:02Z</time>
      </trkpt>
      <trkpt lat="45.95431" lon="6.55814">
        <ele>2477</ele>
        <time>2020-07-30T15:00:08Z</time>
      </trkpt>
      <trkpt lat="45.95431" lon="6.55834">
        <ele>2467</ele>
        <time>2020-07-30T15:00:15Z</time>
      </trkpt>
      <trkpt lat="45.95419" lon="6.55827">
        <ele>2462</ele>
        <time>2020-07-30T15:00:22Z</time>
      </trkpt>
      <trkpt lat="45.95422" lon="6.55848">
        <ele>2453</ele>
        <time>2020-07-30T15:00:29Z</time>
      </trkpt>
      <trkpt lat="45.95415" lon="6.55884">
        <ele>2430</ele>
        <time>2020-07-30T15:00:42Z</time>
      </trkpt>
      <trkpt lat="45.95409" lon="6.55894">
        <ele>2422</ele>
        <time>2020-07-30T15:00:47Z</time>
      </trkpt>
      <trkpt lat="45.9541" lon="6.55899">
        <ele>2420</ele>
        <time>2020-07-30T15:00:49Z</time>
      </trkpt>
      <trkpt lat="45.95417" lon="6.55904">
        <ele>2422</ele>
        <time>2020-07-30T15:00:53Z</time>
      </trkpt>
      <trkpt lat="45.95417" lon="6.55908">
        <ele>2420</ele>
        <time>2020-07-30T15:00:54Z</time>
      </trkpt>
      <trkpt lat="45.95421" lon="6.55912">
        <ele>2420</ele>
        <time>2020-07-30T15:00:56Z</time>
      </trkpt>
      <trkpt lat="45.95423" lon="6.55935">
        <ele>2414</ele>
        <time>2020-07-30T15:01:04Z</time>
      </trkpt>
      <trkpt lat="45.95431" lon="6.55947">
        <ele>2416</ele>
        <time>2020-07-30T15:01:10Z</time>
      </trkpt>
      <trkpt lat="45.95432" lon="6.56005">
        <ele>2398</ele>
        <time>2020-07-30T15:01:30Z</time>
      </trkpt>
      <trkpt lat="45.95428" lon="6.56013">
        <ele>2391</ele>
        <time>2020-07-30T15:01:34Z</time>
      </trkpt>
      <trkpt lat="45.95426" lon="6.56028">
        <ele>2382</ele>
        <time>2020-07-30T15:01:39Z</time>
      </trkpt>
      <trkpt lat="45.95422" lon="6.56023">
        <ele>2382</ele>
        <time>2020-07-30T15:01:42Z</time>
      </trkpt>
      <trkpt lat="45.95415" lon="6.56047">
        <ele>2364</ele>
        <time>2020-07-30T15:01:51Z</time>
      </trkpt>
      <trkpt lat="45.95405" lon="6.56054">
        <ele>2352</ele>
        <time>2020-07-30T15:01:56Z</time>
      </trkpt>
      <trkpt lat="45.95393" lon="6.56046">
        <ele>2345</ele>
        <time>2020-07-30T15:02:03Z</time>
      </trkpt>
      <trkpt lat="45.95389" lon="6.56037">
        <ele>2346</ele>
        <time>2020-07-30T15:02:07Z</time>
      </trkpt>
      <trkpt lat="45.95389" lon="6.56031">
        <ele>2349</ele>
        <time>2020-07-30T15:02:09Z</time>
      </trkpt>
      <trkpt lat="45.95387" lon="6.56033">
        <ele>2346</ele>
        <time>2020-07-30T15:02:10Z</time>
      </trkpt>
      <trkpt lat="45.95381" lon="6.56031">
        <ele>2342</ele>
        <time>2020-07-30T15:02:13Z</time>
      </trkpt>
      <trkpt lat="45.95377" lon="6.56026">
        <ele>2341</ele>
        <time>2020-07-30T15:02:16Z</time>
      </trkpt>
      <trkpt lat="45.95376" lon="6.56028">
        <ele>2339</ele>
        <time>2020-07-30T15:02:17Z</time>
      </trkpt>
      <trkpt lat="45.9538" lon="6.56047">
        <ele>2333</ele>
        <time>2020-07-30T15:02:24Z</time>
      </trkpt>
      <trkpt lat="45.9538" lon="6.5606">
        <ele>2327</ele>
        <time>2020-07-30T15:02:28Z</time>
      </trkpt>
      <trkpt lat="45.95376" lon="6.56063">
        <ele>2322</ele>
        <time>2020-07-30T15:02:30Z</time>
      </trkpt>
      <trkpt lat="45.95377" lon="6.56073">
        <ele>2318</ele>
        <time>2020-07-30T15:02:34Z</time>
      </trkpt>
      <trkpt lat="45.95378" lon="6.56077">
        <ele>2317</ele>
        <time>2020-07-30T15:02:35Z</time>
      </trkpt>
      <trkpt lat="45.95387" lon="6.56085">
        <ele>2321</ele>
        <time>2020-07-30T15:02:41Z</time>
      </trkpt>
      <trkpt lat="45.9539" lon="6.56091">
        <ele>2321</ele>
        <time>2020-07-30T15:02:43Z</time>
      </trkpt>
      <trkpt lat="45.95389" lon="6.56098">
        <ele>2317</ele>
        <time>2020-07-30T15:02:46Z</time>
      </trkpt>
      <trkpt lat="45.95399" lon="6.56124">
        <ele>2312</ele>
        <time>2020-07-30T15:02:56Z</time>
      </trkpt>
      <trkpt lat="45.95402" lon="6.56145">
        <ele>2303</ele>
        <time>2020-07-30T15:03:03Z</time>
      </trkpt>
      <trkpt lat="45.95407" lon="6.5615">
        <ele>2303</ele>
        <time>2020-07-30T15:03:06Z</time>
      </trkpt>
      <trkpt lat="45.9541" lon="6.56165">
        <ele>2296</ele>
        <time>2020-07-30T15:03:12Z</time>
      </trkpt>
      <trkpt lat="45.954" lon="6.56165">
        <ele>2291</ele>
        <time>2020-07-30T15:03:17Z</time>
      </trkpt>
      <trkpt lat="45.95399" lon="6.5617">
        <ele>2288</ele>
        <time>2020-07-30T15:03:19Z</time>
      </trkpt>
      <trkpt lat="45.95405" lon="6.56185">
        <ele>2283</ele>
        <time>2020-07-30T15:03:25Z</time>
      </trkpt>
      <trkpt lat="45.954" lon="6.56198">
        <ele>2274</ele>
        <time>2020-07-30T15:03:30Z</time>
      </trkpt>
      <trkpt lat="45.95396" lon="6.56195">
        <ele>2274</ele>
        <time>2020-07-30T15:03:32Z</time>
      </trkpt>
      <trkpt lat="45.95392" lon="6.56197">
        <ele>2271</ele>
        <time>2020-07-30T15:03:34Z</time>
      </trkpt>
      <trkpt lat="45.9539" lon="6.56204">
        <ele>2267</ele>
        <time>2020-07-30T15:03:37Z</time>
      </trkpt>
      <trkpt lat="45.95388" lon="6.56219">
        <ele>2259</ele>
        <time>2020-07-30T15:03:42Z</time>
      </trkpt>
      <trkpt lat="45.95392" lon="6.56239">
        <ele>2251</ele>
        <time>2020-07-30T15:03:49Z</time>
      </trkpt>
      <trkpt lat="45.95383" lon="6.56255">
        <ele>2240</ele>
        <time>2020-07-30T15:03:57Z</time>
      </trkpt>
      <trkpt lat="45.95379" lon="6.56295">
        <ele>2222</ele>
        <time>2020-07-30T15:04:11Z</time>
      </trkpt>
      <trkpt lat="45.9538" lon="6.56335">
        <ele>2206</ele>
        <time>2020-07-30T15:04:25Z</time>
      </trkpt>
      <trkpt lat="45.95353" lon="6.56452">
        <ele>2187</ele>
        <time>2020-07-30T15:05:08Z</time>
      </trkpt>
      <trkpt lat="45.95349" lon="6.56457">
        <ele>2186</ele>
        <time>2020-07-30T15:05:10Z</time>
      </trkpt>
      <trkpt lat="45.9532" lon="6.56475">
        <ele>2181</ele>
        <time>2020-07-30T15:05:26Z</time>
      </trkpt>
      <trkpt lat="45.95286" lon="6.56484">
        <ele>2170</ele>
        <time>2020-07-30T15:05:43Z</time>
      </trkpt>
      <trkpt lat="45.95258" lon="6.56485">
        <ele>2162</ele>
        <time>2020-07-30T15:05:57Z</time>
      </trkpt>
      <trkpt lat="45.95244" lon="6.56492">
        <ele>2159</ele>
        <time>2020-07-30T15:06:05Z</time>
      </trkpt>
      <trkpt lat="45.95213" lon="6.56523">
        <ele>2146</ele>
        <time>2020-07-30T15:06:24Z</time>
      </trkpt>
      <trkpt lat="45.95203" lon="6.5653">
        <ele>2142</ele>
        <time>2020-07-30T15:06:29Z</time>
      </trkpt>
      <trkpt lat="45.95176" lon="6.56525">
        <ele>2139</ele>
        <time>2020-07-30T15:06:43Z</time>
      </trkpt>
      <trkpt lat="45.95164" lon="6.56517">
        <ele>2140</ele>
        <time>2020-07-30T15:06:49Z</time>
      </trkpt>
      <trkpt lat="45.95154" lon="6.56502">
        <ele>2141</ele>
        <time>2020-07-30T15:06:57Z</time>
      </trkpt>
      <trkpt lat="45.95154" lon="6.56454">
        <ele>2132</ele>
        <time>2020-07-30T15:07:13Z</time>
      </trkpt>
      <trkpt lat="45.95155" lon="6.56439">
        <ele>2130</ele>
        <time>2020-07-30T15:07:19Z</time>
      </trkpt>
      <trkpt lat="45.95161" lon="6.56413">
        <ele>2127</ele>
        <time>2020-07-30T15:07:28Z</time>
      </trkpt>
      <trkpt lat="45.95168" lon="6.56406">
        <ele>2128</ele>
        <time>2020-07-30T15:07:32Z</time>
      </trkpt>
      <trkpt lat="45.9517" lon="6.56399">
        <ele>2129</ele>
        <time>2020-07-30T15:07:35Z</time>
      </trkpt>
      <trkpt lat="45.95147" lon="6.56354">
        <ele>2122</ele>
        <time>2020-07-30T15:07:54Z</time>
      </trkpt>
      <trkpt lat="45.95147" lon="6.56326">
        <ele>2123</ele>
        <time>2020-07-30T15:08:04Z</time>
      </trkpt>
      <trkpt lat="45.95096" lon="6.56266">
        <ele>2113</ele>
        <time>2020-07-30T15:08:37Z</time>
      </trkpt>
      <trkpt lat="45.95083" lon="6.56235">
        <ele>2112</ele>
        <time>2020-07-30T15:08:50Z</time>
      </trkpt>
      <trkpt lat="45.95083" lon="6.56226">
        <ele>2114</ele>
        <time>2020-07-30T15:08:53Z</time>
      </trkpt>
      <trkpt lat="45.95058" lon="6.56161">
        <ele>2114</ele>
        <time>2020-07-30T15:09:19Z</time>
      </trkpt>
      <trkpt lat="45.95049" lon="6.56124">
        <ele>2119</ele>
        <time>2020-07-30T15:09:32Z</time>
      </trkpt>
      <trkpt lat="45.95039" lon="6.56104">
        <ele>2120</ele>
        <time>2020-07-30T15:09:41Z</time>
      </trkpt>
      <trkpt lat="45.95027" lon="6.56088">
        <ele>2119</ele>
        <time>2020-07-30T15:09:49Z</time>
      </trkpt>
      <trkpt lat="45.95017" lon="6.56066">
        <ele>2123</ele>
        <time>2020-07-30T15:09:58Z</time>
      </trkpt>
      <trkpt lat="45.94992" lon="6.56036">
        <ele>2128</ele>
        <time>2020-07-30T15:10:15Z</time>
      </trkpt>
      <trkpt lat="45.9497" lon="6.55993">
        <ele>2141</ele>
        <time>2020-07-30T15:10:33Z</time>
      </trkpt>
      <trkpt lat="45.94961" lon="6.5599">
        <ele>2141</ele>
        <time>2020-07-30T15:10:38Z</time>
      </trkpt>
      <trkpt lat="45.9496" lon="6.55986">
        <ele>2142</ele>
        <time>2020-07-30T15:10:39Z</time>
      </trkpt>
      <trkpt lat="45.94943" lon="6.55978">
        <ele>2142</ele>
        <time>2020-07-30T15:10:48Z</time>
      </trkpt>
      <trkpt lat="45.94936" lon="6.55966">
        <ele>2146</ele>
        <time>2020-07-30T15:10:54Z</time>
      </trkpt>
      <trkpt lat="45.94926" lon="6.55962">
        <ele>2145</ele>
        <time>2020-07-30T15:10:59Z</time>
      </trkpt>
      <trkpt lat="45.94919" lon="6.55963">
        <ele>2143</ele>
        <time>2020-07-30T15:11:02Z</time>
      </trkpt>
      <trkpt lat="45.94909" lon="6.55973">
        <ele>2138</ele>
        <time>2020-07-30T15:11:08Z</time>
      </trkpt>
      <trkpt lat="45.94893" lon="6.5596">
        <ele>2141</ele>
        <time>2020-07-30T15:11:18Z</time>
      </trkpt>
      <trkpt lat="45.9489" lon="6.55938">
        <ele>2148</ele>
        <time>2020-07-30T15:11:25Z</time>
      </trkpt>
      <trkpt lat="45.94881" lon="6.5593">
        <ele>2149</ele>
        <time>2020-07-30T15:11:31Z</time>
      </trkpt>
      <trkpt lat="45.94863" lon="6.55926">
        <ele>2146</ele>
        <time>2020-07-30T15:11:40Z</time>
      </trkpt>
      <trkpt lat="45.94855" lon="6.5592">
        <ele>2146</ele>
        <time>2020-07-30T15:11:44Z</time>
      </trkpt>
      <trkpt lat="45.94849" lon="6.55907">
        <ele>2148</ele>
        <time>2020-07-30T15:11:50Z</time>
      </trkpt>
      <trkpt lat="45.94844" lon="6.55865">
        <ele>2155</ele>
        <time>2020-07-30T15:12:05Z</time>
      </trkpt>
      <trkpt lat="45.94839" lon="6.55849">
        <ele>2157</ele>
        <time>2020-07-30T15:12:11Z</time>
      </trkpt>
      <trkpt lat="45.9483" lon="6.55838">
        <ele>2155</ele>
        <time>2020-07-30T15:12:17Z</time>
      </trkpt>
      <trkpt lat="45.94825" lon="6.55822">
        <ele>2156</ele>
        <time>2020-07-30T15:12:23Z</time>
      </trkpt>
      <trkpt lat="45.94816" lon="6.55825">
        <ele>2151</ele>
        <time>2020-07-30T15:12:27Z</time>
      </trkpt>
      <trkpt lat="45.94808" lon="6.5582">
        <ele>2148</ele>
        <time>2020-07-30T15:12:32Z</time>
      </trkpt>
      <trkpt lat="45.94799" lon="6.5581">
        <ele>2146</ele>
        <time>2020-07-30T15:12:37Z</time>
      </trkpt>
      <trkpt lat="45.94779" lon="6.55772">
        <ele>2144</ele>
        <time>2020-07-30T15:12:54Z</time>
      </trkpt>
      <trkpt lat="45.94773" lon="6.55766">
        <ele>2142</ele>
        <time>2020-07-30T15:12:58Z</time>
      </trkpt>
      <trkpt lat="45.94762" lon="6.55742">
        <ele>2140</ele>
        <time>2020-07-30T15:13:08Z</time>
      </trkpt>
      <trkpt lat="45.94718" lon="6.55679">
        <ele>2124</ele>
        <time>2020-07-30T15:13:39Z</time>
      </trkpt>
      <trkpt lat="45.947" lon="6.55627">
        <ele>2119</ele>
        <time>2020-07-30T15:13:59Z</time>
      </trkpt>
      <trkpt lat="45.94693" lon="6.55616">
        <ele>2116</ele>
        <time>2020-07-30T15:14:04Z</time>
      </trkpt>
      <trkpt lat="45.94689" lon="6.55598">
        <ele>2115</ele>
        <time>2020-07-30T15:14:11Z</time>
      </trkpt>
      <trkpt lat="45.94679" lon="6.55582">
        <ele>2110</ele>
        <time>2020-07-30T15:14:18Z</time>
      </trkpt>
      <trkpt lat="45.94677" lon="6.55549">
        <ele>2113</ele>
        <time>2020-07-30T15:14:30Z</time>
      </trkpt>
      <trkpt lat="45.94668" lon="6.55533">
        <ele>2109</ele>
        <time>2020-07-30T15:14:37Z</time>
      </trkpt>
      <trkpt lat="45.94654" lon="6.5548">
        <ele>2101</ele>
        <time>2020-07-30T15:14:57Z</time>
      </trkpt>
      <trkpt lat="45.94646" lon="6.5547">
        <ele>2095</ele>
        <time>2020-07-30T15:15:02Z</time>
      </trkpt>
      <trkpt lat="45.94631" lon="6.5543">
        <ele>2084</ele>
        <time>2020-07-30T15:15:18Z</time>
      </trkpt>
      <trkpt lat="45.94627" lon="6.55425">
        <ele>2082</ele>
        <time>2020-07-30T15:15:20Z</time>
      </trkpt>
      <trkpt lat="45.94617" lon="6.5543">
        <ele>2074</ele>
        <time>2020-07-30T15:15:26Z</time>
      </trkpt>
      <trkpt lat="45.94612" lon="6.55426">
        <ele>2071</ele>
        <time>2020-07-30T15:15:29Z</time>
      </trkpt>
      <trkpt lat="45.94608" lon="6.55418">
        <ele>2069</ele>
        <time>2020-07-30T15:15:32Z</time>
      </trkpt>
      <trkpt lat="45.9461" lon="6.55409">
        <ele>2070</ele>
        <time>2020-07-30T15:15:35Z</time>
      </trkpt>
      <trkpt lat="45.94608" lon="6.55399">
        <ele>2068</ele>
        <time>2020-07-30T15:15:39Z</time>
      </trkpt>
      <trkpt lat="45.94597" lon="6.55404">
        <ele>2061</ele>
        <time>2020-07-30T15:15:45Z</time>
      </trkpt>
      <trkpt lat="45.94593" lon="6.55394">
        <ele>2057</ele>
        <time>2020-07-30T15:15:49Z</time>
      </trkpt>
      <trkpt lat="45.94588" lon="6.55392">
        <ele>2054</ele>
        <time>2020-07-30T15:15:51Z</time>
      </trkpt>
      <trkpt lat="45.94581" lon="6.55398">
        <ele>2050</ele>
        <time>2020-07-30T15:15:55Z</time>
      </trkpt>
      <trkpt lat="45.94578" lon="6.55406">
        <ele>2048</ele>
        <time>2020-07-30T15:15:59Z</time>
      </trkpt>
      <trkpt lat="45.9456" lon="6.55391">
        <ele>2038</ele>
        <time>2020-07-30T15:16:09Z</time>
      </trkpt>
      <trkpt lat="45.94558" lon="6.55387">
        <ele>2036</ele>
        <time>2020-07-30T15:16:11Z</time>
      </trkpt>
      <trkpt lat="45.94551" lon="6.55384">
        <ele>2032</ele>
        <time>2020-07-30T15:16:14Z</time>
      </trkpt>
      <trkpt lat="45.94541" lon="6.55369">
        <ele>2027</ele>
        <time>2020-07-30T15:16:22Z</time>
      </trkpt>
      <trkpt lat="45.94518" lon="6.5537">
        <ele>2015</ele>
        <time>2020-07-30T15:16:33Z</time>
      </trkpt>
      <trkpt lat="45.94487" lon="6.5535">
        <ele>2001</ele>
        <time>2020-07-30T15:16:50Z</time>
      </trkpt>
      <trkpt lat="45.94481" lon="6.55339">
        <ele>1999</ele>
        <time>2020-07-30T15:16:55Z</time>
      </trkpt>
      <trkpt lat="45.94466" lon="6.55284">
        <ele>1988</ele>
        <time>2020-07-30T15:17:15Z</time>
      </trkpt>
      <trkpt lat="45.9445" lon="6.55259">
        <ele>1979</ele>
        <time>2020-07-30T15:17:27Z</time>
      </trkpt>
      <trkpt lat="45.94443" lon="6.55235">
        <ele>1975</ele>
        <time>2020-07-30T15:17:36Z</time>
      </trkpt>
      <trkpt lat="45.94418" lon="6.55185">
        <ele>1964</ele>
        <time>2020-07-30T15:17:58Z</time>
      </trkpt>
      <trkpt lat="45.94411" lon="6.55159">
        <ele>1961</ele>
        <time>2020-07-30T15:18:07Z</time>
      </trkpt>
      <trkpt lat="45.94407" lon="6.55159">
        <ele>1960</ele>
        <time>2020-07-30T15:18:09Z</time>
      </trkpt>
      <trkpt lat="45.944" lon="6.55166">
        <ele>1958</ele>
        <time>2020-07-30T15:18:14Z</time>
      </trkpt>
      <trkpt lat="45.94399" lon="6.55174">
        <ele>1958</ele>
        <time>2020-07-30T15:18:17Z</time>
      </trkpt>
      <trkpt lat="45.94385" lon="6.55206">
        <ele>1953</ele>
        <time>2020-07-30T15:18:30Z</time>
      </trkpt>
      <trkpt lat="45.94362" lon="6.55233">
        <ele>1943</ele>
        <time>2020-07-30T15:18:45Z</time>
      </trkpt>
      <trkpt lat="45.94354" lon="6.5524">
        <ele>1939</ele>
        <time>2020-07-30T15:18:49Z</time>
      </trkpt>
      <trkpt lat="45.94341" lon="6.55244">
        <ele>1934</ele>
        <time>2020-07-30T15:18:56Z</time>
      </trkpt>
      <trkpt lat="45.943" lon="6.55278">
        <ele>1918</ele>
        <time>2020-07-30T15:19:20Z</time>
      </trkpt>
      <trkpt lat="45.94295" lon="6.55277">
        <ele>1917</ele>
        <time>2020-07-30T15:19:22Z</time>
      </trkpt>
      <trkpt lat="45.94281" lon="6.55261">
        <ele>1912</ele>
        <time>2020-07-30T15:19:31Z</time>
      </trkpt>
      <trkpt lat="45.94263" lon="6.55234">
        <ele>1908</ele>
        <time>2020-07-30T15:19:44Z</time>
      </trkpt>
      <trkpt lat="45.94242" lon="6.5521">
        <ele>1903</ele>
        <time>2020-07-30T15:19:58Z</time>
      </trkpt>
      <trkpt lat="45.94235" lon="6.55207">
        <ele>1902</ele>
        <time>2020-07-30T15:20:01Z</time>
      </trkpt>
      <trkpt lat="45.94229" lon="6.55212">
        <ele>1900</ele>
        <time>2020-07-30T15:20:05Z</time>
      </trkpt>
      <trkpt lat="45.94223" lon="6.55212">
        <ele>1899</ele>
        <time>2020-07-30T15:20:08Z</time>
      </trkpt>
      <trkpt lat="45.94213" lon="6.55208">
        <ele>1898</ele>
        <time>2020-07-30T15:20:13Z</time>
      </trkpt>
      <trkpt lat="45.94208" lon="6.55198">
        <ele>1897</ele>
        <time>2020-07-30T15:20:17Z</time>
      </trkpt>
      <trkpt lat="45.94193" lon="6.55179">
        <ele>1896</ele>
        <time>2020-07-30T15:20:27Z</time>
      </trkpt>
      <trkpt lat="45.94193" lon="6.55153">
        <ele>1897</ele>
        <time>2020-07-30T15:20:36Z</time>
      </trkpt>
      <trkpt lat="45.94187" lon="6.55139">
        <ele>1896</ele>
        <time>2020-07-30T15:20:42Z</time>
      </trkpt>
      <trkpt lat="45.94183" lon="6.55137">
        <ele>1895</ele>
        <time>2020-07-30T15:20:44Z</time>
      </trkpt>
      <trkpt lat="45.94175" lon="6.55124">
        <ele>1894</ele>
        <time>2020-07-30T15:20:50Z</time>
      </trkpt>
      <trkpt lat="45.94164" lon="6.55123">
        <ele>1894</ele>
        <time>2020-07-30T15:20:56Z</time>
      </trkpt>
      <trkpt lat="45.9416" lon="6.55117">
        <ele>1896</ele>
        <time>2020-07-30T15:20:58Z</time>
      </trkpt>
      <trkpt lat="45.9415" lon="6.55113">
        <ele>1901</ele>
        <time>2020-07-30T15:21:04Z</time>
      </trkpt>
      <trkpt lat="45.94146" lon="6.55106">
        <ele>1903</ele>
        <time>2020-07-30T15:21:07Z</time>
      </trkpt>
      <trkpt lat="45.94137" lon="6.55075">
        <ele>1907</ele>
        <time>2020-07-30T15:21:19Z</time>
      </trkpt>
      <trkpt lat="45.94123" lon="6.55054">
        <ele>1911</ele>
        <time>2020-07-30T15:21:29Z</time>
      </trkpt>
      <trkpt lat="45.94112" lon="6.55045">
        <ele>1915</ele>
        <time>2020-07-30T15:21:35Z</time>
      </trkpt>
      <trkpt lat="45.94104" lon="6.55029">
        <ele>1916</ele>
        <time>2020-07-30T15:21:42Z</time>
      </trkpt>
      <trkpt lat="45.94089" lon="6.55012">
        <ele>1918</ele>
        <time>2020-07-30T15:21:51Z</time>
      </trkpt>
      <trkpt lat="45.94078" lon="6.54987">
        <ele>1921</ele>
        <time>2020-07-30T15:22:02Z</time>
      </trkpt>
      <trkpt lat="45.94071" lon="6.5498">
        <ele>1925</ele>
        <time>2020-07-30T15:22:06Z</time>
      </trkpt>
      <trkpt lat="45.94066" lon="6.54964">
        <ele>1927</ele>
        <time>2020-07-30T15:22:12Z</time>
      </trkpt>
      <trkpt lat="45.94061" lon="6.54964">
        <ele>1930</ele>
        <time>2020-07-30T15:22:15Z</time>
      </trkpt>
      <trkpt lat="45.94058" lon="6.54959">
        <ele>1931</ele>
        <time>2020-07-30T15:22:17Z</time>
      </trkpt>
      <trkpt lat="45.94052" lon="6.54956">
        <ele>1935</ele>
        <time>2020-07-30T15:22:20Z</time>
      </trkpt>
      <trkpt lat="45.94049" lon="6.5495">
        <ele>1936</ele>
        <time>2020-07-30T15:22:23Z</time>
      </trkpt>
      <trkpt lat="45.94038" lon="6.54951">
        <ele>1943</ele>
        <time>2020-07-30T15:22:28Z</time>
      </trkpt>
      <trkpt lat="45.94025" lon="6.54941">
        <ele>1949</ele>
        <time>2020-07-30T15:22:35Z</time>
      </trkpt>
      <trkpt lat="45.94012" lon="6.54946">
        <ele>1957</ele>
        <time>2020-07-30T15:22:42Z</time>
      </trkpt>
      <trkpt lat="45.94013" lon="6.54959">
        <ele>1959</ele>
        <time>2020-07-30T15:22:47Z</time>
      </trkpt>
      <trkpt lat="45.9401" lon="6.54975">
        <ele>1963</ele>
        <time>2020-07-30T15:22:53Z</time>
      </trkpt>
      <trkpt lat="45.93996" lon="6.5498">
        <ele>1971</ele>
        <time>2020-07-30T15:23:00Z</time>
      </trkpt>
      <trkpt lat="45.93987" lon="6.54973">
        <ele>1972</ele>
        <time>2020-07-30T15:23:05Z</time>
      </trkpt>
      <trkpt lat="45.93966" lon="6.5497">
        <ele>1978</ele>
        <time>2020-07-30T15:23:15Z</time>
      </trkpt>
      <trkpt lat="45.93951" lon="6.54944">
        <ele>1979</ele>
        <time>2020-07-30T15:23:27Z</time>
      </trkpt>
      <trkpt lat="45.93934" lon="6.54925">
        <ele>1981</ele>
        <time>2020-07-30T15:23:38Z</time>
      </trkpt>
      <trkpt lat="45.9392" lon="6.54882">
        <ele>1985</ele>
        <time>2020-07-30T15:23:55Z</time>
      </trkpt>
      <trkpt lat="45.93906" lon="6.54854">
        <ele>1988</ele>
        <time>2020-07-30T15:24:07Z</time>
      </trkpt>
      <trkpt lat="45.93885" lon="6.54839">
        <ele>1991</ele>
        <time>2020-07-30T15:24:18Z</time>
      </trkpt>
      <trkpt lat="45.93869" lon="6.54808">
        <ele>1993</ele>
        <time>2020-07-30T15:24:32Z</time>
      </trkpt>
      <trkpt lat="45.93841" lon="6.54773">
        <ele>1995</ele>
        <time>2020-07-30T15:24:50Z</time>
      </trkpt>
      <trkpt lat="45.93824" lon="6.54761">
        <ele>1996</ele>
        <time>2020-07-30T15:25:00Z</time>
      </trkpt>
      <trkpt lat="45.938" lon="6.54749">
        <ele>1997</ele>
        <time>2020-07-30T15:25:12Z</time>
      </trkpt>
      <trkpt lat="45.93774" lon="6.5474">
        <ele>1999</ele>
        <time>2020-07-30T15:25:26Z</time>
      </trkpt>
      <trkpt lat="45.93762" lon="6.54723">
        <ele>1998</ele>
        <time>2020-07-30T15:25:34Z</time>
      </trkpt>
      <trkpt lat="45.93754" lon="6.54704">
        <ele>1997</ele>
        <time>2020-07-30T15:25:42Z</time>
      </trkpt>
      <trkpt lat="45.9373" lon="6.54667">
        <ele>2000</ele>
        <time>2020-07-30T15:26:00Z</time>
      </trkpt>
      <trkpt lat="45.93719" lon="6.54639">
        <ele>2000</ele>
        <time>2020-07-30T15:26:11Z</time>
      </trkpt>
      <trkpt lat="45.93707" lon="6.54617">
        <ele>2001</ele>
        <time>2020-07-30T15:26:21Z</time>
      </trkpt>
      <trkpt lat="45.93687" lon="6.54602">
        <ele>2003</ele>
        <time>2020-07-30T15:26:32Z</time>
      </trkpt>
      <trkpt lat="45.93666" lon="6.54599">
        <ele>2005</ele>
        <time>2020-07-30T15:26:42Z</time>
      </trkpt>
      <trkpt lat="45.93653" lon="6.54588">
        <ele>2007</ele>
        <time>2020-07-30T15:26:50Z</time>
      </trkpt>
      <trkpt lat="45.93638" lon="6.54586">
        <ele>2010</ele>
        <time>2020-07-30T15:26:57Z</time>
      </trkpt>
      <trkpt lat="45.9363" lon="6.54581">
        <ele>2012</ele>
        <time>2020-07-30T15:27:02Z</time>
      </trkpt>
      <trkpt lat="45.93621" lon="6.5458">
        <ele>2014</ele>
        <time>2020-07-30T15:27:06Z</time>
      </trkpt>
      <trkpt lat="45.93553" lon="6.54541">
        <ele>2025</ele>
        <time>2020-07-30T15:27:43Z</time>
      </trkpt>
      <trkpt lat="45.93521" lon="6.54529">
        <ele>2028</ele>
        <time>2020-07-30T15:28:00Z</time>
      </trkpt>
      <trkpt lat="45.9351" lon="6.54527">
        <ele>2030</ele>
        <time>2020-07-30T15:28:05Z</time>
      </trkpt>
      <trkpt lat="45.93495" lon="6.54529">
        <ele>2032</ele>
        <time>2020-07-30T15:28:13Z</time>
      </trkpt>
      <trkpt lat="45.93469" lon="6.54538">
        <ele>2032</ele>
        <time>2020-07-30T15:28:26Z</time>
      </trkpt>
      <trkpt lat="45.93454" lon="6.54547">
        <ele>2033</ele>
        <time>2020-07-30T15:28:34Z</time>
      </trkpt>
      <trkpt lat="45.93411" lon="6.54531">
        <ele>2032</ele>
        <time>2020-07-30T15:28:56Z</time>
      </trkpt>
      <trkpt lat="45.93395" lon="6.54533">
        <ele>2033</ele>
        <time>2020-07-30T15:29:04Z</time>
      </trkpt>
      <trkpt lat="45.93389" lon="6.54528">
        <ele>2033</ele>
        <time>2020-07-30T15:29:08Z</time>
      </trkpt>
      <trkpt lat="45.93379" lon="6.54499">
        <ele>2034</ele>
        <time>2020-07-30T15:29:19Z</time>
      </trkpt>
      <trkpt lat="45.93376" lon="6.54477">
        <ele>2035</ele>
        <time>2020-07-30T15:29:27Z</time>
      </trkpt>
      <trkpt lat="45.93361" lon="6.54448">
        <ele>2037</ele>
        <time>2020-07-30T15:29:39Z</time>
      </trkpt>
      <trkpt lat="45.93345" lon="6.54434">
        <ele>2040</ele>
        <time>2020-07-30T15:29:49Z</time>
      </trkpt>
      <trkpt lat="45.93335" lon="6.54428">
        <ele>2042</ele>
        <time>2020-07-30T15:29:54Z</time>
      </trkpt>
      <trkpt lat="45.93315" lon="6.54424">
        <ele>2045</ele>
        <time>2020-07-30T15:30:04Z</time>
      </trkpt>
      <trkpt lat="45.93273" lon="6.54431">
        <ele>2051</ele>
        <time>2020-07-30T15:30:26Z</time>
      </trkpt>
      <trkpt lat="45.9326" lon="6.54424">
        <ele>2054</ele>
        <time>2020-07-30T15:30:32Z</time>
      </trkpt>
      <trkpt lat="45.93256" lon="6.54428">
        <ele>2054</ele>
        <time>2020-07-30T15:30:35Z</time>
      </trkpt>
      <trkpt lat="45.93247" lon="6.54431">
        <ele>2055</ele>
        <time>2020-07-30T15:30:40Z</time>
      </trkpt>
      <trkpt lat="45.93234" lon="6.54424">
        <ele>2056</ele>
        <time>2020-07-30T15:30:47Z</time>
      </trkpt>
      <trkpt lat="45.93224" lon="6.54413">
        <ele>2057</ele>
        <time>2020-07-30T15:30:53Z</time>
      </trkpt>
      <trkpt lat="45.93191" lon="6.54364">
        <ele>2061</ele>
        <time>2020-07-30T15:31:17Z</time>
      </trkpt>
      <trkpt lat="45.93129" lon="6.54327">
        <ele>2062</ele>
        <time>2020-07-30T15:31:50Z</time>
      </trkpt>
      <trkpt lat="45.93123" lon="6.54315">
        <ele>2063</ele>
        <time>2020-07-30T15:31:55Z</time>
      </trkpt>
      <trkpt lat="45.93118" lon="6.54293">
        <ele>2065</ele>
        <time>2020-07-30T15:32:03Z</time>
      </trkpt>
      <trkpt lat="45.9311" lon="6.54283">
        <ele>2065</ele>
        <time>2020-07-30T15:32:09Z</time>
      </trkpt>
      <trkpt lat="45.93085" lon="6.54271">
        <ele>2065</ele>
        <time>2020-07-30T15:32:22Z</time>
      </trkpt>
      <trkpt lat="45.93061" lon="6.54241">
        <ele>2068</ele>
        <time>2020-07-30T15:32:38Z</time>
      </trkpt>
      <trkpt lat="45.93042" lon="6.5423">
        <ele>2069</ele>
        <time>2020-07-30T15:32:48Z</time>
      </trkpt>
      <trkpt lat="45.93021" lon="6.54228">
        <ele>2069</ele>
        <time>2020-07-30T15:32:59Z</time>
      </trkpt>
      <trkpt lat="45.92993" lon="6.54219">
        <ele>2070</ele>
        <time>2020-07-30T15:33:13Z</time>
      </trkpt>
      <trkpt lat="45.9298" lon="6.5422">
        <ele>2071</ele>
        <time>2020-07-30T15:33:19Z</time>
      </trkpt>
      <trkpt lat="45.92956" lon="6.54181">
        <ele>2074</ele>
        <time>2020-07-30T15:33:38Z</time>
      </trkpt>
      <trkpt lat="45.92931" lon="6.54155">
        <ele>2078</ele>
        <time>2020-07-30T15:33:53Z</time>
      </trkpt>
      <trkpt lat="45.92912" lon="6.54143">
        <ele>2080</ele>
        <time>2020-07-30T15:34:03Z</time>
      </trkpt>
      <trkpt lat="45.92898" lon="6.5413">
        <ele>2083</ele>
        <time>2020-07-30T15:34:12Z</time>
      </trkpt>
      <trkpt lat="45.92856" lon="6.54112">
        <ele>2090</ele>
        <time>2020-07-30T15:34:34Z</time>
      </trkpt>
      <trkpt lat="45.92825" lon="6.54079">
        <ele>2096</ele>
        <time>2020-07-30T15:34:53Z</time>
      </trkpt>
      <trkpt lat="45.92801" lon="6.54061">
        <ele>2101</ele>
        <time>2020-07-30T15:35:06Z</time>
      </trkpt>
      <trkpt lat="45.92766" lon="6.54013">
        <ele>2106</ele>
        <time>2020-07-30T15:35:31Z</time>
      </trkpt>
      <trkpt lat="45.92763" lon="6.54004">
        <ele>2107</ele>
        <time>2020-07-30T15:35:34Z</time>
      </trkpt>
      <trkpt lat="45.92756" lon="6.53999">
        <ele>2108</ele>
        <time>2020-07-30T15:35:38Z</time>
      </trkpt>
      <trkpt lat="45.92749" lon="6.53987">
        <ele>2110</ele>
        <time>2020-07-30T15:35:44Z</time>
      </trkpt>
      <trkpt lat="45.92736" lon="6.53973">
        <ele>2115</ele>
        <time>2020-07-30T15:35:52Z</time>
      </trkpt>
      <trkpt lat="45.9273" lon="6.5396">
        <ele>2117</ele>
        <time>2020-07-30T15:35:57Z</time>
      </trkpt>
      <trkpt lat="45.92698" lon="6.53923">
        <ele>2127</ele>
        <time>2020-07-30T15:36:18Z</time>
      </trkpt>
      <trkpt lat="45.92686" lon="6.53885">
        <ele>2138</ele>
        <time>2020-07-30T15:36:32Z</time>
      </trkpt>
      <trkpt lat="45.92667" lon="6.53863">
        <ele>2145</ele>
        <time>2020-07-30T15:36:44Z</time>
      </trkpt>
      <trkpt lat="45.92657" lon="6.53841">
        <ele>2152</ele>
        <time>2020-07-30T15:36:54Z</time>
      </trkpt>
      <trkpt lat="45.92654" lon="6.5384">
        <ele>2153</ele>
        <time>2020-07-30T15:36:55Z</time>
      </trkpt>
      <trkpt lat="45.92649" lon="6.53832">
        <ele>2155</ele>
        <time>2020-07-30T15:36:59Z</time>
      </trkpt>
      <trkpt lat="45.92644" lon="6.53818">
        <ele>2159</ele>
        <time>2020-07-30T15:37:04Z</time>
      </trkpt>
      <trkpt lat="45.9264" lon="6.53814">
        <ele>2161</ele>
        <time>2020-07-30T15:37:07Z</time>
      </trkpt>
      <trkpt lat="45.92634" lon="6.53813">
        <ele>2162</ele>
        <time>2020-07-30T15:37:10Z</time>
      </trkpt>
      <trkpt lat="45.92623" lon="6.53778">
        <ele>2170</ele>
        <time>2020-07-30T15:37:23Z</time>
      </trkpt>
      <trkpt lat="45.9261" lon="6.53752">
        <ele>2176</ele>
        <time>2020-07-30T15:37:34Z</time>
      </trkpt>
      <trkpt lat="45.92609" lon="6.53743">
        <ele>2178</ele>
        <time>2020-07-30T15:37:37Z</time>
      </trkpt>
      <trkpt lat="45.92605" lon="6.5374">
        <ele>2180</ele>
        <time>2020-07-30T15:37:40Z</time>
      </trkpt>
      <trkpt lat="45.92603" lon="6.53733">
        <ele>2182</ele>
        <time>2020-07-30T15:37:42Z</time>
      </trkpt>
      <trkpt lat="45.92598" lon="6.53727">
        <ele>2184</ele>
        <time>2020-07-30T15:37:46Z</time>
      </trkpt>
      <trkpt lat="45.92589" lon="6.53722">
        <ele>2186</ele>
        <time>2020-07-30T15:37:50Z</time>
      </trkpt>
      <trkpt lat="45.92592" lon="6.53717">
        <ele>2187</ele>
        <time>2020-07-30T15:37:53Z</time>
      </trkpt>
      <trkpt lat="45.9259" lon="6.53705">
        <ele>2191</ele>
        <time>2020-07-30T15:37:57Z</time>
      </trkpt>
      <trkpt lat="45.92588" lon="6.53703">
        <ele>2192</ele>
        <time>2020-07-30T15:37:58Z</time>
      </trkpt>
      <trkpt lat="45.92587" lon="6.53705">
        <ele>2191</ele>
        <time>2020-07-30T15:37:59Z</time>
      </trkpt>
      <trkpt lat="45.92578" lon="6.53705">
        <ele>2192</ele>
        <time>2020-07-30T15:38:04Z</time>
      </trkpt>
      <trkpt lat="45.92577" lon="6.53696">
        <ele>2196</ele>
        <time>2020-07-30T15:38:07Z</time>
      </trkpt>
      <trkpt lat="45.92574" lon="6.53695">
        <ele>2197</ele>
        <time>2020-07-30T15:38:08Z</time>
      </trkpt>
      <trkpt lat="45.92571" lon="6.53698">
        <ele>2197</ele>
        <time>2020-07-30T15:38:10Z</time>
      </trkpt>
      <trkpt lat="45.92565" lon="6.53693">
        <ele>2200</ele>
        <time>2020-07-30T15:38:14Z</time>
      </trkpt>
      <trkpt lat="45.92564" lon="6.53696">
        <ele>2199</ele>
        <time>2020-07-30T15:38:15Z</time>
      </trkpt>
      <trkpt lat="45.92556" lon="6.53699">
        <ele>2200</ele>
        <time>2020-07-30T15:38:19Z</time>
      </trkpt>
      <trkpt lat="45.9255" lon="6.53688">
        <ele>2205</ele>
        <time>2020-07-30T15:38:24Z</time>
      </trkpt>
      <trkpt lat="45.92543" lon="6.53694">
        <ele>2205</ele>
        <time>2020-07-30T15:38:28Z</time>
      </trkpt>
      <trkpt lat="45.92541" lon="6.53687">
        <ele>2208</ele>
        <time>2020-07-30T15:38:30Z</time>
      </trkpt>
      <trkpt lat="45.92538" lon="6.5369">
        <ele>2208</ele>
        <time>2020-07-30T15:38:32Z</time>
      </trkpt>
      <trkpt lat="45.92534" lon="6.5369">
        <ele>2209</ele>
        <time>2020-07-30T15:38:34Z</time>
      </trkpt>
      <trkpt lat="45.9252" lon="6.53686">
        <ele>2214</ele>
        <time>2020-07-30T15:38:41Z</time>
      </trkpt>
      <trkpt lat="45.92513" lon="6.53681">
        <ele>2218</ele>
        <time>2020-07-30T15:38:45Z</time>
      </trkpt>
      <trkpt lat="45.92507" lon="6.53682">
        <ele>2219</ele>
        <time>2020-07-30T15:38:48Z</time>
      </trkpt>
      <trkpt lat="45.92499" lon="6.53679">
        <ele>2222</ele>
        <time>2020-07-30T15:38:53Z</time>
      </trkpt>
      <trkpt lat="45.92496" lon="6.53681">
        <ele>2221</ele>
        <time>2020-07-30T15:38:54Z</time>
      </trkpt>
      <trkpt lat="45.92493" lon="6.53676">
        <ele>2223</ele>
        <time>2020-07-30T15:38:56Z</time>
      </trkpt>
      <trkpt lat="45.92489" lon="6.53675">
        <ele>2223</ele>
        <time>2020-07-30T15:38:58Z</time>
      </trkpt>
      <trkpt lat="45.92489" lon="6.5367">
        <ele>2225</ele>
        <time>2020-07-30T15:39:00Z</time>
      </trkpt>
      <trkpt lat="45.92459" lon="6.53644">
        <ele>2234</ele>
        <time>2020-07-30T15:39:18Z</time>
      </trkpt>
      <trkpt lat="45.92448" lon="6.53616">
        <ele>2244</ele>
        <time>2020-07-30T15:39:29Z</time>
      </trkpt>
      <trkpt lat="45.92448" lon="6.53601">
        <ele>2249</ele>
        <time>2020-07-30T15:39:34Z</time>
      </trkpt>
      <trkpt lat="45.92444" lon="6.53592">
        <ele>2252</ele>
        <time>2020-07-30T15:39:38Z</time>
      </trkpt>
      <trkpt lat="45.92448" lon="6.53569">
        <ele>2260</ele>
        <time>2020-07-30T15:39:46Z</time>
      </trkpt>
      <trkpt lat="45.92451" lon="6.5357">
        <ele>2260</ele>
        <time>2020-07-30T15:39:48Z</time>
      </trkpt>
      <trkpt lat="45.92459" lon="6.53561">
        <ele>2263</ele>
        <time>2020-07-30T15:39:53Z</time>
      </trkpt>
      <trkpt lat="45.92456" lon="6.53555">
        <ele>2265</ele>
        <time>2020-07-30T15:39:55Z</time>
      </trkpt>
      <trkpt lat="45.92456" lon="6.53537">
        <ele>2272</ele>
        <time>2020-07-30T15:40:02Z</time>
      </trkpt>
      <trkpt lat="45.92461" lon="6.5353">
        <ele>2275</ele>
        <time>2020-07-30T15:40:05Z</time>
      </trkpt>
      <trkpt lat="45.92461" lon="6.5351">
        <ele>2282</ele>
        <time>2020-07-30T15:40:12Z</time>
      </trkpt>
      <trkpt lat="45.92465" lon="6.53502">
        <ele>2285</ele>
        <time>2020-07-30T15:40:15Z</time>
      </trkpt>
      <trkpt lat="45.92465" lon="6.53495">
        <ele>2287</ele>
        <time>2020-07-30T15:40:18Z</time>
      </trkpt>
      <trkpt lat="45.92471" lon="6.53487">
        <ele>2289</ele>
        <time>2020-07-30T15:40:22Z</time>
      </trkpt>
      <trkpt lat="45.92466" lon="6.5348">
        <ele>2290</ele>
        <time>2020-07-30T15:40:26Z</time>
      </trkpt>
      <trkpt lat="45.9247" lon="6.53478">
        <ele>2291</ele>
        <time>2020-07-30T15:40:28Z</time>
      </trkpt>
      <trkpt lat="45.92471" lon="6.5347">
        <ele>2293</ele>
        <time>2020-07-30T15:40:30Z</time>
      </trkpt>
      <trkpt lat="45.92469" lon="6.53466">
        <ele>2293</ele>
        <time>2020-07-30T15:40:32Z</time>
      </trkpt>
      <trkpt lat="45.92474" lon="6.53461">
        <ele>2295</ele>
        <time>2020-07-30T15:40:35Z</time>
      </trkpt>
      <trkpt lat="45.92472" lon="6.53459">
        <ele>2295</ele>
        <time>2020-07-30T15:40:36Z</time>
      </trkpt>
      <trkpt lat="45.92473" lon="6.53444">
        <ele>2298</ele>
        <time>2020-07-30T15:40:42Z</time>
      </trkpt>
      <trkpt lat="45.92463" lon="6.5343">
        <ele>2300</ele>
        <time>2020-07-30T15:40:49Z</time>
      </trkpt>
      <trkpt lat="45.9245" lon="6.53402">
        <ele>2306</ele>
        <time>2020-07-30T15:41:00Z</time>
      </trkpt>
      <trkpt lat="45.92443" lon="6.53374">
        <ele>2312</ele>
        <time>2020-07-30T15:41:11Z</time>
      </trkpt>
      <trkpt lat="45.92435" lon="6.53336">
        <ele>2321</ele>
        <time>2020-07-30T15:41:25Z</time>
      </trkpt>
      <trkpt lat="45.92435" lon="6.5328">
        <ele>2335</ele>
        <time>2020-07-30T15:41:44Z</time>
      </trkpt>
      <trkpt lat="45.92425" lon="6.53249">
        <ele>2345</ele>
        <time>2020-07-30T15:41:56Z</time>
      </trkpt>
      <trkpt lat="45.92427" lon="6.53235">
        <ele>2350</ele>
        <time>2020-07-30T15:42:01Z</time>
      </trkpt>
      <trkpt lat="45.9243" lon="6.53234">
        <ele>2350</ele>
        <time>2020-07-30T15:42:02Z</time>
      </trkpt>
      <trkpt lat="45.92431" lon="6.53237">
        <ele>2348</ele>
        <time>2020-07-30T15:42:04Z</time>
      </trkpt>
      <trkpt lat="45.92435" lon="6.53237">
        <ele>2347</ele>
        <time>2020-07-30T15:42:06Z</time>
      </trkpt>
      <trkpt lat="45.92435" lon="6.53235">
        <ele>2348</ele>
        <time>2020-07-30T15:42:06Z</time>
      </trkpt>
      <trkpt lat="45.92431" lon="6.53224">
        <ele>2353</ele>
        <time>2020-07-30T15:42:11Z</time>
      </trkpt>
      <trkpt lat="45.92425" lon="6.53216">
        <ele>2357</ele>
        <time>2020-07-30T15:42:15Z</time>
      </trkpt>
      <trkpt lat="45.92421" lon="6.53169">
        <ele>2374</ele>
        <time>2020-07-30T15:42:31Z</time>
      </trkpt>
      <trkpt lat="45.92418" lon="6.53157">
        <ele>2381</ele>
        <time>2020-07-30T15:42:36Z</time>
      </trkpt>
      <trkpt lat="45.92414" lon="6.53146">
        <ele>2385</ele>
        <time>2020-07-30T15:42:40Z</time>
      </trkpt>
      <trkpt lat="45.92399" lon="6.53126">
        <ele>2384</ele>
        <time>2020-07-30T15:42:50Z</time>
      </trkpt>
      <trkpt lat="45.92397" lon="6.53116">
        <ele>2389</ele>
        <time>2020-07-30T15:42:54Z</time>
      </trkpt>
      <trkpt lat="45.92398" lon="6.53109">
        <ele>2394</ele>
        <time>2020-07-30T15:42:56Z</time>
      </trkpt>
      <trkpt lat="45.924" lon="6.53109">
        <ele>2395</ele>
        <time>2020-07-30T15:42:57Z</time>
      </trkpt>
      <trkpt lat="45.924" lon="6.53105">
        <ele>2398</ele>
        <time>2020-07-30T15:42:59Z</time>
      </trkpt>
      <trkpt lat="45.92403" lon="6.53105">
        <ele>2401</ele>
        <time>2020-07-30T15:43:00Z</time>
      </trkpt>
      <trkpt lat="45.92404" lon="6.531">
        <ele>2404</ele>
        <time>2020-07-30T15:43:02Z</time>
      </trkpt>
      <trkpt lat="45.92408" lon="6.53103">
        <ele>2406</ele>
        <time>2020-07-30T15:43:04Z</time>
      </trkpt>
      <trkpt lat="45.92404" lon="6.53083">
        <ele>2415</ele>
        <time>2020-07-30T15:43:12Z</time>
      </trkpt>
      <trkpt lat="45.92407" lon="6.5308">
        <ele>2417</ele>
        <time>2020-07-30T15:43:13Z</time>
      </trkpt>
      <trkpt lat="45.92406" lon="6.53076">
        <ele>2416</ele>
        <time>2020-07-30T15:43:15Z</time>
      </trkpt>
      <trkpt lat="45.92409" lon="6.53075">
        <ele>2419</ele>
        <time>2020-07-30T15:43:16Z</time>
      </trkpt>
      <trkpt lat="45.92409" lon="6.53071">
        <ele>2418</ele>
        <time>2020-07-30T15:43:18Z</time>
      </trkpt>
      <trkpt lat="45.92411" lon="6.53072">
        <ele>2420</ele>
        <time>2020-07-30T15:43:19Z</time>
      </trkpt>
      <trkpt lat="45.92412" lon="6.53068">
        <ele>2421</ele>
        <time>2020-07-30T15:43:20Z</time>
      </trkpt>
      <trkpt lat="45.92415" lon="6.53067">
        <ele>2423</ele>
        <time>2020-07-30T15:43:22Z</time>
      </trkpt>
      <trkpt lat="45.92414" lon="6.53063">
        <ele>2422</ele>
        <time>2020-07-30T15:43:23Z</time>
      </trkpt>
      <trkpt lat="45.92419" lon="6.53059">
        <ele>2423</ele>
        <time>2020-07-30T15:43:26Z</time>
      </trkpt>
      <trkpt lat="45.92394" lon="6.53023">
        <ele>2408</ele>
        <time>2020-07-30T15:43:44Z</time>
      </trkpt>
      <trkpt lat="45.92385" lon="6.52998">
        <ele>2405</ele>
        <time>2020-07-30T15:43:54Z</time>
      </trkpt>
      <trkpt lat="45.92345" lon="6.52932">
        <ele>2392</ele>
        <time>2020-07-30T15:44:24Z</time>
      </trkpt>
      <trkpt lat="45.92338" lon="6.52915">
        <ele>2392</ele>
        <time>2020-07-30T15:44:31Z</time>
      </trkpt>
      <trkpt lat="45.92312" lon="6.52883">
        <ele>2374</ele>
        <time>2020-07-30T15:44:48Z</time>
      </trkpt>
      <trkpt lat="45.92305" lon="6.5288">
        <ele>2369</ele>
        <time>2020-07-30T15:44:52Z</time>
      </trkpt>
      <trkpt lat="45.92301" lon="6.52875">
        <ele>2367</ele>
        <time>2020-07-30T15:44:55Z</time>
      </trkpt>
      <trkpt lat="45.92298" lon="6.52865">
        <ele>2366</ele>
        <time>2020-07-30T15:44:58Z</time>
      </trkpt>
      <trkpt lat="45.92298" lon="6.52851">
        <ele>2366</ele>
        <time>2020-07-30T15:45:03Z</time>
      </trkpt>
      <trkpt lat="45.92304" lon="6.52845">
        <ele>2369</ele>
        <time>2020-07-30T15:45:07Z</time>
      </trkpt>
      <trkpt lat="45.9228" lon="6.52811">
        <ele>2359</ele>
        <time>2020-07-30T15:45:24Z</time>
      </trkpt>
      <trkpt lat="45.92268" lon="6.52787">
        <ele>2356</ele>
        <time>2020-07-30T15:45:34Z</time>
      </trkpt>
      <trkpt lat="45.92241" lon="6.52753">
        <ele>2349</ele>
        <time>2020-07-30T15:45:52Z</time>
      </trkpt>
      <trkpt lat="45.92234" lon="6.5274">
        <ele>2344</ele>
        <time>2020-07-30T15:45:58Z</time>
      </trkpt>
      <trkpt lat="45.92228" lon="6.52718">
        <ele>2339</ele>
        <time>2020-07-30T15:46:06Z</time>
      </trkpt>
      <trkpt lat="45.92221" lon="6.52705">
        <ele>2336</ele>
        <time>2020-07-30T15:46:12Z</time>
      </trkpt>
      <trkpt lat="45.92208" lon="6.52668">
        <ele>2333</ele>
        <time>2020-07-30T15:46:26Z</time>
      </trkpt>
      <trkpt lat="45.92198" lon="6.52627">
        <ele>2334</ele>
        <time>2020-07-30T15:46:41Z</time>
      </trkpt>
      <trkpt lat="45.92198" lon="6.52602">
        <ele>2336</ele>
        <time>2020-07-30T15:46:50Z</time>
      </trkpt>
      <trkpt lat="45.92204" lon="6.52576">
        <ele>2338</ele>
        <time>2020-07-30T15:46:59Z</time>
      </trkpt>
      <trkpt lat="45.92201" lon="6.52565">
        <ele>2341</ele>
        <time>2020-07-30T15:47:04Z</time>
      </trkpt>
      <trkpt lat="45.92202" lon="6.52551">
        <ele>2345</ele>
        <time>2020-07-30T15:47:08Z</time>
      </trkpt>
      <trkpt lat="45.92207" lon="6.52549">
        <ele>2344</ele>
        <time>2020-07-30T15:47:11Z</time>
      </trkpt>
      <trkpt lat="45.92213" lon="6.52555">
        <ele>2342</ele>
        <time>2020-07-30T15:47:15Z</time>
      </trkpt>
      <trkpt lat="45.92215" lon="6.52554">
        <ele>2341</ele>
        <time>2020-07-30T15:47:16Z</time>
      </trkpt>
      <trkpt lat="45.9222" lon="6.5254">
        <ele>2343</ele>
        <time>2020-07-30T15:47:21Z</time>
      </trkpt>
      <trkpt lat="45.92226" lon="6.52531">
        <ele>2343</ele>
        <time>2020-07-30T15:47:26Z</time>
      </trkpt>
      <trkpt lat="45.92232" lon="6.52505">
        <ele>2345</ele>
        <time>2020-07-30T15:47:35Z</time>
      </trkpt>
      <trkpt lat="45.92229" lon="6.52495">
        <ele>2347</ele>
        <time>2020-07-30T15:47:39Z</time>
      </trkpt>
      <trkpt lat="45.92231" lon="6.52472">
        <ele>2347</ele>
        <time>2020-07-30T15:47:47Z</time>
      </trkpt>
      <trkpt lat="45.92237" lon="6.52464">
        <ele>2344</ele>
        <time>2020-07-30T15:47:51Z</time>
      </trkpt>
      <trkpt lat="45.9224" lon="6.52447">
        <ele>2344</ele>
        <time>2020-07-30T15:47:57Z</time>
      </trkpt>
      <trkpt lat="45.92246" lon="6.52436">
        <ele>2341</ele>
        <time>2020-07-30T15:48:02Z</time>
      </trkpt>
      <trkpt lat="45.92257" lon="6.52424">
        <ele>2335</ele>
        <time>2020-07-30T15:48:09Z</time>
      </trkpt>
      <trkpt lat="45.9226" lon="6.52395">
        <ele>2331</ele>
        <time>2020-07-30T15:48:19Z</time>
      </trkpt>
      <trkpt lat="45.92251" lon="6.52371">
        <ele>2334</ele>
        <time>2020-07-30T15:48:29Z</time>
      </trkpt>
      <trkpt lat="45.92242" lon="6.52365">
        <ele>2337</ele>
        <time>2020-07-30T15:48:34Z</time>
      </trkpt>
      <trkpt lat="45.92212" lon="6.5236">
        <ele>2345</ele>
        <time>2020-07-30T15:48:49Z</time>
      </trkpt>
      <trkpt lat="45.92195" lon="6.52352">
        <ele>2348</ele>
        <time>2020-07-30T15:48:58Z</time>
      </trkpt>
      <trkpt lat="45.92179" lon="6.52351">
        <ele>2351</ele>
        <time>2020-07-30T15:49:06Z</time>
      </trkpt>
      <trkpt lat="45.92175" lon="6.52348">
        <ele>2352</ele>
        <time>2020-07-30T15:49:08Z</time>
      </trkpt>
      <trkpt lat="45.92174" lon="6.52344">
        <ele>2351</ele>
        <time>2020-07-30T15:49:09Z</time>
      </trkpt>
      <trkpt lat="45.92164" lon="6.52338">
        <ele>2351</ele>
        <time>2020-07-30T15:49:15Z</time>
      </trkpt>
      <trkpt lat="45.92151" lon="6.52324">
        <ele>2351</ele>
        <time>2020-07-30T15:49:23Z</time>
      </trkpt>
      <trkpt lat="45.92122" lon="6.52289">
        <ele>2348</ele>
        <time>2020-07-30T15:49:42Z</time>
      </trkpt>
      <trkpt lat="45.92119" lon="6.5228">
        <ele>2346</ele>
        <time>2020-07-30T15:49:45Z</time>
      </trkpt>
      <trkpt lat="45.92106" lon="6.52259">
        <ele>2344</ele>
        <time>2020-07-30T15:49:55Z</time>
      </trkpt>
      <trkpt lat="45.92104" lon="6.52251">
        <ele>2342</ele>
        <time>2020-07-30T15:49:58Z</time>
      </trkpt>
      <trkpt lat="45.92106" lon="6.52245">
        <ele>2339</ele>
        <time>2020-07-30T15:50:00Z</time>
      </trkpt>
      <trkpt lat="45.92089" lon="6.52204">
        <ele>2332</ele>
        <time>2020-07-30T15:50:17Z</time>
      </trkpt>
      <trkpt lat="45.92071" lon="6.52188">
        <ele>2336</ele>
        <time>2020-07-30T15:50:28Z</time>
      </trkpt>
      <trkpt lat="45.92063" lon="6.52173">
        <ele>2338</ele>
        <time>2020-07-30T15:50:34Z</time>
      </trkpt>
      <trkpt lat="45.92067" lon="6.52173">
        <ele>2335</ele>
        <time>2020-07-30T15:50:36Z</time>
      </trkpt>
      <trkpt lat="45.92067" lon="6.52159">
        <ele>2332</ele>
        <time>2020-07-30T15:50:41Z</time>
      </trkpt>
      <trkpt lat="45.92065" lon="6.52155">
        <ele>2333</ele>
        <time>2020-07-30T15:50:43Z</time>
      </trkpt>
      <trkpt lat="45.92067" lon="6.52139">
        <ele>2329</ele>
        <time>2020-07-30T15:50:48Z</time>
      </trkpt>
      <trkpt lat="45.92055" lon="6.52126">
        <ele>2337</ele>
        <time>2020-07-30T15:50:56Z</time>
      </trkpt>
      <trkpt lat="45.92049" lon="6.52127">
        <ele>2342</ele>
        <time>2020-07-30T15:50:59Z</time>
      </trkpt>
      <trkpt lat="45.92044" lon="6.52111">
        <ele>2346</ele>
        <time>2020-07-30T15:51:05Z</time>
      </trkpt>
      <trkpt lat="45.92036" lon="6.52107">
        <ele>2353</ele>
        <time>2020-07-30T15:51:09Z</time>
      </trkpt>
      <trkpt lat="45.92035" lon="6.52097">
        <ele>2353</ele>
        <time>2020-07-30T15:51:13Z</time>
      </trkpt>
      <trkpt lat="45.92027" lon="6.52085">
        <ele>2361</ele>
        <time>2020-07-30T15:51:19Z</time>
      </trkpt>
      <trkpt lat="45.92023" lon="6.52045">
        <ele>2363</ele>
        <time>2020-07-30T15:51:33Z</time>
      </trkpt>
      <trkpt lat="45.92028" lon="6.52036">
        <ele>2357</ele>
        <time>2020-07-30T15:51:37Z</time>
      </trkpt>
      <trkpt lat="45.92026" lon="6.52032">
        <ele>2359</ele>
        <time>2020-07-30T15:51:38Z</time>
      </trkpt>
      <trkpt lat="45.92021" lon="6.52032">
        <ele>2364</ele>
        <time>2020-07-30T15:51:41Z</time>
      </trkpt>
      <trkpt lat="45.92017" lon="6.52022">
        <ele>2367</ele>
        <time>2020-07-30T15:51:45Z</time>
      </trkpt>
      <trkpt lat="45.92013" lon="6.52019">
        <ele>2371</ele>
        <time>2020-07-30T15:51:47Z</time>
      </trkpt>
      <trkpt lat="45.92003" lon="6.52">
        <ele>2379</ele>
        <time>2020-07-30T15:51:56Z</time>
      </trkpt>
      <trkpt lat="45.92006" lon="6.51996">
        <ele>2376</ele>
        <time>2020-07-30T15:51:58Z</time>
      </trkpt>
      <trkpt lat="45.91993" lon="6.51977">
        <ele>2384</ele>
        <time>2020-07-30T15:52:07Z</time>
      </trkpt>
      <trkpt lat="45.91992" lon="6.51967">
        <ele>2383</ele>
        <time>2020-07-30T15:52:10Z</time>
      </trkpt>
      <trkpt lat="45.91997" lon="6.5195">
        <ele>2380</ele>
        <time>2020-07-30T15:52:17Z</time>
      </trkpt>
      <trkpt lat="45.91994" lon="6.51936">
        <ele>2380</ele>
        <time>2020-07-30T15:52:22Z</time>
      </trkpt>
      <trkpt lat="45.91982" lon="6.51945">
        <ele>2386</ele>
        <time>2020-07-30T15:52:29Z</time>
      </trkpt>
      <trkpt lat="45.9198" lon="6.51942">
        <ele>2386</ele>
        <time>2020-07-30T15:52:30Z</time>
      </trkpt>
      <trkpt lat="45.91982" lon="6.51939">
        <ele>2385</ele>
        <time>2020-07-30T15:52:32Z</time>
      </trkpt>
      <trkpt lat="45.91975" lon="6.5193">
        <ele>2387</ele>
        <time>2020-07-30T15:52:36Z</time>
      </trkpt>
      <trkpt lat="45.91979" lon="6.51911">
        <ele>2384</ele>
        <time>2020-07-30T15:52:43Z</time>
      </trkpt>
      <trkpt lat="45.91978" lon="6.51901">
        <ele>2383</ele>
        <time>2020-07-30T15:52:47Z</time>
      </trkpt>
      <trkpt lat="45.91986" lon="6.51891">
        <ele>2380</ele>
        <time>2020-07-30T15:52:52Z</time>
      </trkpt>
      <trkpt lat="45.91988" lon="6.51884">
        <ele>2379</ele>
        <time>2020-07-30T15:52:55Z</time>
      </trkpt>
      <trkpt lat="45.91995" lon="6.51877">
        <ele>2377</ele>
        <time>2020-07-30T15:52:59Z</time>
      </trkpt>
      <trkpt lat="45.91999" lon="6.5186">
        <ele>2376</ele>
        <time>2020-07-30T15:53:05Z</time>
      </trkpt>
      <trkpt lat="45.92004" lon="6.51851">
        <ele>2374</ele>
        <time>2020-07-30T15:53:09Z</time>
      </trkpt>
      <trkpt lat="45.92003" lon="6.51849">
        <ele>2375</ele>
        <time>2020-07-30T15:53:10Z</time>
      </trkpt>
      <trkpt lat="45.92" lon="6.51844">
        <ele>2376</ele>
        <time>2020-07-30T15:53:12Z</time>
      </trkpt>
      <trkpt lat="45.91996" lon="6.51848">
        <ele>2376</ele>
        <time>2020-07-30T15:53:15Z</time>
      </trkpt>
      <trkpt lat="45.91994" lon="6.51847">
        <ele>2377</ele>
        <time>2020-07-30T15:53:16Z</time>
      </trkpt>
      <trkpt lat="45.91992" lon="6.51841">
        <ele>2376</ele>
        <time>2020-07-30T15:53:18Z</time>
      </trkpt>
      <trkpt lat="45.91989" lon="6.51844">
        <ele>2377</ele>
        <time>2020-07-30T15:53:20Z</time>
      </trkpt>
      <trkpt lat="45.91986" lon="6.51843">
        <ele>2377</ele>
        <time>2020-07-30T15:53:21Z</time>
      </trkpt>
      <trkpt lat="45.91984" lon="6.5183">
        <ele>2375</ele>
        <time>2020-07-30T15:53:26Z</time>
      </trkpt>
      <trkpt lat="45.91972" lon="6.51828">
        <ele>2374</ele>
        <time>2020-07-30T15:53:32Z</time>
      </trkpt>
      <trkpt lat="45.91968" lon="6.51825">
        <ele>2372</ele>
        <time>2020-07-30T15:53:34Z</time>
      </trkpt>
      <trkpt lat="45.91966" lon="6.51819">
        <ele>2369</ele>
        <time>2020-07-30T15:53:37Z</time>
      </trkpt>
      <trkpt lat="45.91958" lon="6.5181">
        <ele>2365</ele>
        <time>2020-07-30T15:53:42Z</time>
      </trkpt>
      <trkpt lat="45.91945" lon="6.51805">
        <ele>2362</ele>
        <time>2020-07-30T15:53:49Z</time>
      </trkpt>
      <trkpt lat="45.91941" lon="6.51799">
        <ele>2359</ele>
        <time>2020-07-30T15:53:51Z</time>
      </trkpt>
      <trkpt lat="45.91923" lon="6.51784">
        <ele>2350</ele>
        <time>2020-07-30T15:54:02Z</time>
      </trkpt>
      <trkpt lat="45.91921" lon="6.51771">
        <ele>2343</ele>
        <time>2020-07-30T15:54:07Z</time>
      </trkpt>
      <trkpt lat="45.91915" lon="6.51761">
        <ele>2337</ele>
        <time>2020-07-30T15:54:11Z</time>
      </trkpt>
      <trkpt lat="45.91915" lon="6.51751">
        <ele>2332</ele>
        <time>2020-07-30T15:54:15Z</time>
      </trkpt>
      <trkpt lat="45.91911" lon="6.51747">
        <ele>2331</ele>
        <time>2020-07-30T15:54:17Z</time>
      </trkpt>
      <trkpt lat="45.91905" lon="6.51748">
        <ele>2332</ele>
        <time>2020-07-30T15:54:20Z</time>
      </trkpt>
      <trkpt lat="45.91897" lon="6.51742">
        <ele>2331</ele>
        <time>2020-07-30T15:54:25Z</time>
      </trkpt>
      <trkpt lat="45.91889" lon="6.51742">
        <ele>2333</ele>
        <time>2020-07-30T15:54:29Z</time>
      </trkpt>
      <trkpt lat="45.91882" lon="6.51747">
        <ele>2336</ele>
        <time>2020-07-30T15:54:32Z</time>
      </trkpt>
      <trkpt lat="45.91871" lon="6.51745">
        <ele>2338</ele>
        <time>2020-07-30T15:54:38Z</time>
      </trkpt>
      <trkpt lat="45.91853" lon="6.51752">
        <ele>2344</ele>
        <time>2020-07-30T15:54:47Z</time>
      </trkpt>
      <trkpt lat="45.91848" lon="6.51757">
        <ele>2348</ele>
        <time>2020-07-30T15:54:50Z</time>
      </trkpt>
      <trkpt lat="45.9182" lon="6.51771">
        <ele>2357</ele>
        <time>2020-07-30T15:55:05Z</time>
      </trkpt>
      <trkpt lat="45.91805" lon="6.51773">
        <ele>2359</ele>
        <time>2020-07-30T15:55:13Z</time>
      </trkpt>
      <trkpt lat="45.91799" lon="6.51769">
        <ele>2357</ele>
        <time>2020-07-30T15:55:16Z</time>
      </trkpt>
      <trkpt lat="45.91797" lon="6.51759">
        <ele>2354</ele>
        <time>2020-07-30T15:55:20Z</time>
      </trkpt>
      <trkpt lat="45.918" lon="6.51751">
        <ele>2351</ele>
        <time>2020-07-30T15:55:23Z</time>
      </trkpt>
      <trkpt lat="45.91799" lon="6.51738">
        <ele>2348</ele>
        <time>2020-07-30T15:55:27Z</time>
      </trkpt>
      <trkpt lat="45.91788" lon="6.51712">
        <ele>2344</ele>
        <time>2020-07-30T15:55:38Z</time>
      </trkpt>
      <trkpt lat="45.91788" lon="6.51703">
        <ele>2342</ele>
        <time>2020-07-30T15:55:41Z</time>
      </trkpt>
      <trkpt lat="45.91783" lon="6.51695">
        <ele>2341</ele>
        <time>2020-07-30T15:55:45Z</time>
      </trkpt>
      <trkpt lat="45.91759" lon="6.51683">
        <ele>2343</ele>
        <time>2020-07-30T15:55:58Z</time>
      </trkpt>
      <trkpt lat="45.91728" lon="6.51657">
        <ele>2340</ele>
        <time>2020-07-30T15:56:16Z</time>
      </trkpt>
      <trkpt lat="45.91714" lon="6.51656">
        <ele>2339</ele>
        <time>2020-07-30T15:56:23Z</time>
      </trkpt>
      <trkpt lat="45.91695" lon="6.51648">
        <ele>2338</ele>
        <time>2020-07-30T15:56:32Z</time>
      </trkpt>
      <trkpt lat="45.91642" lon="6.51595">
        <ele>2336</ele>
        <time>2020-07-30T15:57:05Z</time>
      </trkpt>
      <trkpt lat="45.91625" lon="6.51575">
        <ele>2338</ele>
        <time>2020-07-30T15:57:16Z</time>
      </trkpt>
      <trkpt lat="45.91598" lon="6.51569">
        <ele>2341</ele>
        <time>2020-07-30T15:57:29Z</time>
      </trkpt>
      <trkpt lat="45.91595" lon="6.51566">
        <ele>2341</ele>
        <time>2020-07-30T15:57:31Z</time>
      </trkpt>
      <trkpt lat="45.91587" lon="6.5155">
        <ele>2344</ele>
        <time>2020-07-30T15:57:38Z</time>
      </trkpt>
      <trkpt lat="45.91576" lon="6.51536">
        <ele>2343</ele>
        <time>2020-07-30T15:57:46Z</time>
      </trkpt>
      <trkpt lat="45.9158" lon="6.51502">
        <ele>2349</ele>
        <time>2020-07-30T15:57:58Z</time>
      </trkpt>
      <trkpt lat="45.91575" lon="6.5148">
        <ele>2352</ele>
        <time>2020-07-30T15:58:06Z</time>
      </trkpt>
      <trkpt lat="45.91563" lon="6.51447">
        <ele>2359</ele>
        <time>2020-07-30T15:58:19Z</time>
      </trkpt>
      <trkpt lat="45.91564" lon="6.51426">
        <ele>2364</ele>
        <time>2020-07-30T15:58:26Z</time>
      </trkpt>
      <trkpt lat="45.91573" lon="6.51409">
        <ele>2368</ele>
        <time>2020-07-30T15:58:33Z</time>
      </trkpt>
      <trkpt lat="45.91564" lon="6.51411">
        <ele>2368</ele>
        <time>2020-07-30T15:58:38Z</time>
      </trkpt>
      <trkpt lat="45.91559" lon="6.51387">
        <ele>2376</ele>
        <time>2020-07-30T15:58:47Z</time>
      </trkpt>
      <trkpt lat="45.91563" lon="6.51391">
        <ele>2374</ele>
        <time>2020-07-30T15:58:49Z</time>
      </trkpt>
      <trkpt lat="45.91566" lon="6.51387">
        <ele>2375</ele>
        <time>2020-07-30T15:58:51Z</time>
      </trkpt>
      <trkpt lat="45.91569" lon="6.51359">
        <ele>2384</ele>
        <time>2020-07-30T15:59:01Z</time>
      </trkpt>
      <trkpt lat="45.91574" lon="6.51361">
        <ele>2383</ele>
        <time>2020-07-30T15:59:04Z</time>
      </trkpt>
      <trkpt lat="45.91575" lon="6.51356">
        <ele>2384</ele>
        <time>2020-07-30T15:59:05Z</time>
      </trkpt>
      <trkpt lat="45.91579" lon="6.51354">
        <ele>2384</ele>
        <time>2020-07-30T15:59:07Z</time>
      </trkpt>
      <trkpt lat="45.91579" lon="6.51347">
        <ele>2386</ele>
        <time>2020-07-30T15:59:10Z</time>
      </trkpt>
      <trkpt lat="45.91576" lon="6.51344">
        <ele>2388</ele>
        <time>2020-07-30T15:59:12Z</time>
      </trkpt>
      <trkpt lat="45.91577" lon="6.51327">
        <ele>2393</ele>
        <time>2020-07-30T15:59:18Z</time>
      </trkpt>
      <trkpt lat="45.91585" lon="6.51309">
        <ele>2401</ele>
        <time>2020-07-30T15:59:25Z</time>
      </trkpt>
      <trkpt lat="45.91584" lon="6.51305">
        <ele>2403</ele>
        <time>2020-07-30T15:59:27Z</time>
      </trkpt>
      <trkpt lat="45.9159" lon="6.51289">
        <ele>2409</ele>
        <time>2020-07-30T15:59:33Z</time>
      </trkpt>
      <trkpt lat="45.91591" lon="6.51278">
        <ele>2414</ele>
        <time>2020-07-30T15:59:37Z</time>
      </trkpt>
      <trkpt lat="45.91596" lon="6.51267">
        <ele>2417</ele>
        <time>2020-07-30T15:59:41Z</time>
      </trkpt>
      <trkpt lat="45.91593" lon="6.51265">
        <ele>2419</ele>
        <time>2020-07-30T15:59:43Z</time>
      </trkpt>
      <trkpt lat="45.91589" lon="6.51266">
        <ele>2420</ele>
        <time>2020-07-30T15:59:45Z</time>
      </trkpt>
      <trkpt lat="45.91588" lon="6.51262">
        <ele>2423</ele>
        <time>2020-07-30T15:59:47Z</time>
      </trkpt>
      <trkpt lat="45.91591" lon="6.51259">
        <ele>2423</ele>
        <time>2020-07-30T15:59:48Z</time>
      </trkpt>
      <trkpt lat="45.91589" lon="6.51255">
        <ele>2426</ele>
        <time>2020-07-30T15:59:50Z</time>
      </trkpt>
      <trkpt lat="45.91581" lon="6.51252">
        <ele>2428</ele>
        <time>2020-07-30T15:59:54Z</time>
      </trkpt>
      <trkpt lat="45.91583" lon="6.51244">
        <ele>2427</ele>
        <time>2020-07-30T15:59:57Z</time>
      </trkpt>
      <trkpt lat="45.91577" lon="6.51238">
        <ele>2422</ele>
        <time>2020-07-30T16:00:01Z</time>
      </trkpt>
      <trkpt lat="45.91561" lon="6.51189">
        <ele>2394</ele>
        <time>2020-07-30T16:00:20Z</time>
      </trkpt>
      <trkpt lat="45.91552" lon="6.51189">
        <ele>2390</ele>
        <time>2020-07-30T16:00:24Z</time>
      </trkpt>
      <trkpt lat="45.91553" lon="6.51174">
        <ele>2384</ele>
        <time>2020-07-30T16:00:29Z</time>
      </trkpt>
      <trkpt lat="45.9155" lon="6.51168">
        <ele>2380</ele>
        <time>2020-07-30T16:00:32Z</time>
      </trkpt>
      <trkpt lat="45.91553" lon="6.51144">
        <ele>2369</ele>
        <time>2020-07-30T16:00:40Z</time>
      </trkpt>
      <trkpt lat="45.9155" lon="6.51143">
        <ele>2367</ele>
        <time>2020-07-30T16:00:42Z</time>
      </trkpt>
      <trkpt lat="45.91549" lon="6.51138">
        <ele>2364</ele>
        <time>2020-07-30T16:00:44Z</time>
      </trkpt>
      <trkpt lat="45.91541" lon="6.51136">
        <ele>2360</ele>
        <time>2020-07-30T16:00:48Z</time>
      </trkpt>
      <trkpt lat="45.91533" lon="6.51129">
        <ele>2353</ele>
        <time>2020-07-30T16:00:53Z</time>
      </trkpt>
      <trkpt lat="45.91527" lon="6.5113">
        <ele>2351</ele>
        <time>2020-07-30T16:00:56Z</time>
      </trkpt>
      <trkpt lat="45.9152" lon="6.51123">
        <ele>2345</ele>
        <time>2020-07-30T16:01:00Z</time>
      </trkpt>
      <trkpt lat="45.91518" lon="6.51114">
        <ele>2340</ele>
        <time>2020-07-30T16:01:03Z</time>
      </trkpt>
      <trkpt lat="45.91521" lon="6.51104">
        <ele>2336</ele>
        <time>2020-07-30T16:01:07Z</time>
      </trkpt>
      <trkpt lat="45.91516" lon="6.51094">
        <ele>2329</ele>
        <time>2020-07-30T16:01:11Z</time>
      </trkpt>
      <trkpt lat="45.91522" lon="6.51088">
        <ele>2329</ele>
        <time>2020-07-30T16:01:15Z</time>
      </trkpt>
      <trkpt lat="45.91516" lon="6.51081">
        <ele>2323</ele>
        <time>2020-07-30T16:01:19Z</time>
      </trkpt>
      <trkpt lat="45.91508" lon="6.51078">
        <ele>2319</ele>
        <time>2020-07-30T16:01:23Z</time>
      </trkpt>
      <trkpt lat="45.91499" lon="6.51081">
        <ele>2318</ele>
        <time>2020-07-30T16:01:28Z</time>
      </trkpt>
      <trkpt lat="45.91491" lon="6.51111">
        <ele>2328</ele>
        <time>2020-07-30T16:01:39Z</time>
      </trkpt>
      <trkpt lat="45.91482" lon="6.51121">
        <ele>2329</ele>
        <time>2020-07-30T16:01:44Z</time>
      </trkpt>
      <trkpt lat="45.91476" lon="6.51132">
        <ele>2332</ele>
        <time>2020-07-30T16:01:49Z</time>
      </trkpt>
      <trkpt lat="45.91461" lon="6.51148">
        <ele>2333</ele>
        <time>2020-07-30T16:01:59Z</time>
      </trkpt>
      <trkpt lat="45.91451" lon="6.51152">
        <ele>2330</ele>
        <time>2020-07-30T16:02:04Z</time>
      </trkpt>
      <trkpt lat="45.91443" lon="6.51144">
        <ele>2323</ele>
        <time>2020-07-30T16:02:09Z</time>
      </trkpt>
      <trkpt lat="45.91439" lon="6.51143">
        <ele>2321</ele>
        <time>2020-07-30T16:02:11Z</time>
      </trkpt>
      <trkpt lat="45.91436" lon="6.51149">
        <ele>2323</ele>
        <time>2020-07-30T16:02:13Z</time>
      </trkpt>
      <trkpt lat="45.91429" lon="6.51153">
        <ele>2322</ele>
        <time>2020-07-30T16:02:17Z</time>
      </trkpt>
      <trkpt lat="45.91425" lon="6.51151">
        <ele>2319</ele>
        <time>2020-07-30T16:02:19Z</time>
      </trkpt>
      <trkpt lat="45.91414" lon="6.51156">
        <ele>2317</ele>
        <time>2020-07-30T16:02:25Z</time>
      </trkpt>
      <trkpt lat="45.91397" lon="6.51158">
        <ele>2315</ele>
        <time>2020-07-30T16:02:33Z</time>
      </trkpt>
      <trkpt lat="45.91389" lon="6.51167">
        <ele>2317</ele>
        <time>2020-07-30T16:02:39Z</time>
      </trkpt>
      <trkpt lat="45.91372" lon="6.51172">
        <ele>2316</ele>
        <time>2020-07-30T16:02:47Z</time>
      </trkpt>
      <trkpt lat="45.91369" lon="6.51172">
        <ele>2315</ele>
        <time>2020-07-30T16:02:49Z</time>
      </trkpt>
      <trkpt lat="45.9136" lon="6.51164">
        <ele>2310</ele>
        <time>2020-07-30T16:02:54Z</time>
      </trkpt>
      <trkpt lat="45.91324" lon="6.51167">
        <ele>2308</ele>
        <time>2020-07-30T16:03:12Z</time>
      </trkpt>
      <trkpt lat="45.91317" lon="6.51165">
        <ele>2308</ele>
        <time>2020-07-30T16:03:16Z</time>
      </trkpt>
      <trkpt lat="45.91282" lon="6.51132">
        <ele>2304</ele>
        <time>2020-07-30T16:03:37Z</time>
      </trkpt>
      <trkpt lat="45.91252" lon="6.51066">
        <ele>2295</ele>
        <time>2020-07-30T16:04:04Z</time>
      </trkpt>
      <trkpt lat="45.91243" lon="6.51027">
        <ele>2293</ele>
        <time>2020-07-30T16:04:18Z</time>
      </trkpt>
      <trkpt lat="45.91238" lon="6.51024">
        <ele>2295</ele>
        <time>2020-07-30T16:04:21Z</time>
      </trkpt>
      <trkpt lat="45.91238" lon="6.51029">
        <ele>2296</ele>
        <time>2020-07-30T16:04:23Z</time>
      </trkpt>
      <trkpt lat="45.91227" lon="6.51014">
        <ele>2300</ele>
        <time>2020-07-30T16:04:30Z</time>
      </trkpt>
      <trkpt lat="45.91221" lon="6.51">
        <ele>2300</ele>
        <time>2020-07-30T16:04:36Z</time>
      </trkpt>
      <trkpt lat="45.91212" lon="6.50996">
        <ele>2305</ele>
        <time>2020-07-30T16:04:41Z</time>
      </trkpt>
      <trkpt lat="45.91197" lon="6.50977">
        <ele>2312</ele>
        <time>2020-07-30T16:04:51Z</time>
      </trkpt>
      <trkpt lat="45.91191" lon="6.50975">
        <ele>2316</ele>
        <time>2020-07-30T16:04:54Z</time>
      </trkpt>
      <trkpt lat="45.91186" lon="6.50954">
        <ele>2316</ele>
        <time>2020-07-30T16:05:02Z</time>
      </trkpt>
      <trkpt lat="45.91187" lon="6.50941">
        <ele>2314</ele>
        <time>2020-07-30T16:05:06Z</time>
      </trkpt>
      <trkpt lat="45.91182" lon="6.50923">
        <ele>2315</ele>
        <time>2020-07-30T16:05:13Z</time>
      </trkpt>
      <trkpt lat="45.91171" lon="6.50907">
        <ele>2320</ele>
        <time>2020-07-30T16:05:21Z</time>
      </trkpt>
      <trkpt lat="45.91148" lon="6.50886">
        <ele>2335</ele>
        <time>2020-07-30T16:05:34Z</time>
      </trkpt>
      <trkpt lat="45.91146" lon="6.50889">
        <ele>2337</ele>
        <time>2020-07-30T16:05:36Z</time>
      </trkpt>
      <trkpt lat="45.91139" lon="6.50888">
        <ele>2342</ele>
        <time>2020-07-30T16:05:39Z</time>
      </trkpt>
      <trkpt lat="45.91134" lon="6.50896">
        <ele>2347</ele>
        <time>2020-07-30T16:05:43Z</time>
      </trkpt>
      <trkpt lat="45.9112" lon="6.50903">
        <ele>2359</ele>
        <time>2020-07-30T16:05:51Z</time>
      </trkpt>
      <trkpt lat="45.91114" lon="6.50903">
        <ele>2364</ele>
        <time>2020-07-30T16:05:54Z</time>
      </trkpt>
      <trkpt lat="45.91108" lon="6.50907">
        <ele>2369</ele>
        <time>2020-07-30T16:05:57Z</time>
      </trkpt>
      <trkpt lat="45.91105" lon="6.50904">
        <ele>2371</ele>
        <time>2020-07-30T16:05:59Z</time>
      </trkpt>
      <trkpt lat="45.91098" lon="6.50909">
        <ele>2377</ele>
        <time>2020-07-30T16:06:03Z</time>
      </trkpt>
      <trkpt lat="45.91093" lon="6.50908">
        <ele>2381</ele>
        <time>2020-07-30T16:06:05Z</time>
      </trkpt>
      <trkpt lat="45.91091" lon="6.50911">
        <ele>2382</ele>
        <time>2020-07-30T16:06:07Z</time>
      </trkpt>
      <trkpt lat="45.91063" lon="6.50912">
        <ele>2403</ele>
        <time>2020-07-30T16:06:21Z</time>
      </trkpt>
      <trkpt lat="45.91055" lon="6.50919">
        <ele>2410</ele>
        <time>2020-07-30T16:06:25Z</time>
      </trkpt>
      <trkpt lat="45.91048" lon="6.50902">
        <ele>2412</ele>
        <time>2020-07-30T16:06:32Z</time>
      </trkpt>
      <trkpt lat="45.91046" lon="6.50882">
        <ele>2412</ele>
        <time>2020-07-30T16:06:39Z</time>
      </trkpt>
      <trkpt lat="45.91042" lon="6.5087">
        <ele>2413</ele>
        <time>2020-07-30T16:06:44Z</time>
      </trkpt>
      <trkpt lat="45.91041" lon="6.50851">
        <ele>2412</ele>
        <time>2020-07-30T16:06:50Z</time>
      </trkpt>
      <trkpt lat="45.91039" lon="6.50851">
        <ele>2413</ele>
        <time>2020-07-30T16:06:51Z</time>
      </trkpt>
      <trkpt lat="45.91039" lon="6.50836">
        <ele>2412</ele>
        <time>2020-07-30T16:06:57Z</time>
      </trkpt>
      <trkpt lat="45.91035" lon="6.50838">
        <ele>2415</ele>
        <time>2020-07-30T16:06:59Z</time>
      </trkpt>
      <trkpt lat="45.91028" lon="6.50831">
        <ele>2419</ele>
        <time>2020-07-30T16:07:03Z</time>
      </trkpt>
      <trkpt lat="45.91014" lon="6.50828">
        <ele>2428</ele>
        <time>2020-07-30T16:07:10Z</time>
      </trkpt>
      <trkpt lat="45.90992" lon="6.50812">
        <ele>2439</ele>
        <time>2020-07-30T16:07:23Z</time>
      </trkpt>
      <trkpt lat="45.90986" lon="6.50805">
        <ele>2440</ele>
        <time>2020-07-30T16:07:26Z</time>
      </trkpt>
      <trkpt lat="45.90949" lon="6.5078">
        <ele>2456</ele>
        <time>2020-07-30T16:07:47Z</time>
      </trkpt>
      <trkpt lat="45.90933" lon="6.5078">
        <ele>2464</ele>
        <time>2020-07-30T16:07:55Z</time>
      </trkpt>
      <trkpt lat="45.9093" lon="6.50778">
        <ele>2466</ele>
        <time>2020-07-30T16:07:56Z</time>
      </trkpt>
      <trkpt lat="45.90931" lon="6.50806">
        <ele>2467</ele>
        <time>2020-07-30T16:08:06Z</time>
      </trkpt>
      <trkpt lat="45.90927" lon="6.50806">
        <ele>2469</ele>
        <time>2020-07-30T16:08:08Z</time>
      </trkpt>
      <trkpt lat="45.90926" lon="6.50817">
        <ele>2471</ele>
        <time>2020-07-30T16:08:12Z</time>
      </trkpt>
      <trkpt lat="45.90916" lon="6.50824">
        <ele>2475</ele>
        <time>2020-07-30T16:08:18Z</time>
      </trkpt>
      <trkpt lat="45.90916" lon="6.50827">
        <ele>2475</ele>
        <time>2020-07-30T16:08:19Z</time>
      </trkpt>
      <trkpt lat="45.90911" lon="6.50831">
        <ele>2474</ele>
        <time>2020-07-30T16:08:22Z</time>
      </trkpt>
      <trkpt lat="45.909" lon="6.50823">
        <ele>2471</ele>
        <time>2020-07-30T16:08:28Z</time>
      </trkpt>
      <trkpt lat="45.90898" lon="6.50828">
        <ele>2471</ele>
        <time>2020-07-30T16:08:30Z</time>
      </trkpt>
      <trkpt lat="45.90892" lon="6.50828">
        <ele>2469</ele>
        <time>2020-07-30T16:08:33Z</time>
      </trkpt>
      <trkpt lat="45.90887" lon="6.50816">
        <ele>2467</ele>
        <time>2020-07-30T16:08:38Z</time>
      </trkpt>
      <trkpt lat="45.9087" lon="6.5079">
        <ele>2460</ele>
        <time>2020-07-30T16:08:50Z</time>
      </trkpt>
      <trkpt lat="45.90865" lon="6.50829">
        <ele>2463</ele>
        <time>2020-07-30T16:09:04Z</time>
      </trkpt>
      <trkpt lat="45.90855" lon="6.50857">
        <ele>2462</ele>
        <time>2020-07-30T16:09:15Z</time>
      </trkpt>
      <trkpt lat="45.90847" lon="6.50865">
        <ele>2460</ele>
        <time>2020-07-30T16:09:20Z</time>
      </trkpt>
      <trkpt lat="45.90839" lon="6.50869">
        <ele>2457</ele>
        <time>2020-07-30T16:09:24Z</time>
      </trkpt>
      <trkpt lat="45.90828" lon="6.50882">
        <ele>2455</ele>
        <time>2020-07-30T16:09:31Z</time>
      </trkpt>
      <trkpt lat="45.90825" lon="6.50881">
        <ele>2455</ele>
        <time>2020-07-30T16:09:33Z</time>
      </trkpt>
      <trkpt lat="45.9082" lon="6.50871">
        <ele>2454</ele>
        <time>2020-07-30T16:09:37Z</time>
      </trkpt>
      <trkpt lat="45.90813" lon="6.50865">
        <ele>2453</ele>
        <time>2020-07-30T16:09:41Z</time>
      </trkpt>
      <trkpt lat="45.90811" lon="6.50862">
        <ele>2453</ele>
        <time>2020-07-30T16:09:42Z</time>
      </trkpt>
      <trkpt lat="45.90811" lon="6.50849">
        <ele>2453</ele>
        <time>2020-07-30T16:09:47Z</time>
      </trkpt>
      <trkpt lat="45.90815" lon="6.50836">
        <ele>2453</ele>
        <time>2020-07-30T16:09:52Z</time>
      </trkpt>
      <trkpt lat="45.90814" lon="6.50823">
        <ele>2451</ele>
        <time>2020-07-30T16:09:56Z</time>
      </trkpt>
      <trkpt lat="45.90801" lon="6.50797">
        <ele>2443</ele>
        <time>2020-07-30T16:10:08Z</time>
      </trkpt>
      <trkpt lat="45.90785" lon="6.50745">
        <ele>2427</ele>
        <time>2020-07-30T16:10:27Z</time>
      </trkpt>
      <trkpt lat="45.90785" lon="6.50732">
        <ele>2424</ele>
        <time>2020-07-30T16:10:32Z</time>
      </trkpt>
      <trkpt lat="45.9078" lon="6.50705">
        <ele>2414</ele>
        <time>2020-07-30T16:10:42Z</time>
      </trkpt>
      <trkpt lat="45.90782" lon="6.50699">
        <ele>2414</ele>
        <time>2020-07-30T16:10:44Z</time>
      </trkpt>
      <trkpt lat="45.90781" lon="6.50675">
        <ele>2407</ele>
        <time>2020-07-30T16:10:52Z</time>
      </trkpt>
      <trkpt lat="45.90768" lon="6.50675">
        <ele>2400</ele>
        <time>2020-07-30T16:10:59Z</time>
      </trkpt>
      <trkpt lat="45.90761" lon="6.5066">
        <ele>2393</ele>
        <time>2020-07-30T16:11:05Z</time>
      </trkpt>
      <trkpt lat="45.90752" lon="6.50651">
        <ele>2387</ele>
        <time>2020-07-30T16:11:11Z</time>
      </trkpt>
      <trkpt lat="45.90747" lon="6.5063">
        <ele>2381</ele>
        <time>2020-07-30T16:11:18Z</time>
      </trkpt>
      <trkpt lat="45.9074" lon="6.50525">
        <ele>2352</ele>
        <time>2020-07-30T16:11:55Z</time>
      </trkpt>
      <trkpt lat="45.90751" lon="6.505">
        <ele>2349</ele>
        <time>2020-07-30T16:12:05Z</time>
      </trkpt>
      <trkpt lat="45.9075" lon="6.50492">
        <ele>2347</ele>
        <time>2020-07-30T16:12:08Z</time>
      </trkpt>
      <trkpt lat="45.90752" lon="6.50486">
        <ele>2346</ele>
        <time>2020-07-30T16:12:11Z</time>
      </trkpt>
      <trkpt lat="45.90746" lon="6.50457">
        <ele>2334</ele>
        <time>2020-07-30T16:12:21Z</time>
      </trkpt>
      <trkpt lat="45.90738" lon="6.50432">
        <ele>2324</ele>
        <time>2020-07-30T16:12:31Z</time>
      </trkpt>
      <trkpt lat="45.90708" lon="6.50394">
        <ele>2303</ele>
        <time>2020-07-30T16:12:51Z</time>
      </trkpt>
      <trkpt lat="45.90705" lon="6.50381">
        <ele>2299</ele>
        <time>2020-07-30T16:12:55Z</time>
      </trkpt>
      <trkpt lat="45.90712" lon="6.50339">
        <ele>2290</ele>
        <time>2020-07-30T16:13:10Z</time>
      </trkpt>
      <trkpt lat="45.90712" lon="6.50328">
        <ele>2287</ele>
        <time>2020-07-30T16:13:14Z</time>
      </trkpt>
      <trkpt lat="45.90707" lon="6.50313">
        <ele>2283</ele>
        <time>2020-07-30T16:13:20Z</time>
      </trkpt>
      <trkpt lat="45.90711" lon="6.50268">
        <ele>2272</ele>
        <time>2020-07-30T16:13:36Z</time>
      </trkpt>
      <trkpt lat="45.9071" lon="6.50254">
        <ele>2268</ele>
        <time>2020-07-30T16:13:41Z</time>
      </trkpt>
      <trkpt lat="45.90713" lon="6.50243">
        <ele>2266</ele>
        <time>2020-07-30T16:13:45Z</time>
      </trkpt>
      <trkpt lat="45.90701" lon="6.50228">
        <ele>2263</ele>
        <time>2020-07-30T16:13:53Z</time>
      </trkpt>
      <trkpt lat="45.90673" lon="6.50204">
        <ele>2258</ele>
        <time>2020-07-30T16:14:09Z</time>
      </trkpt>
      <trkpt lat="45.90665" lon="6.50187">
        <ele>2254</ele>
        <time>2020-07-30T16:14:16Z</time>
      </trkpt>
      <trkpt lat="45.90663" lon="6.50159">
        <ele>2249</ele>
        <time>2020-07-30T16:14:26Z</time>
      </trkpt>
      <trkpt lat="45.90646" lon="6.50107">
        <ele>2234</ele>
        <time>2020-07-30T16:14:46Z</time>
      </trkpt>
      <trkpt lat="45.90641" lon="6.50079">
        <ele>2226</ele>
        <time>2020-07-30T16:14:56Z</time>
      </trkpt>
      <trkpt lat="45.90621" lon="6.50054">
        <ele>2214</ele>
        <time>2020-07-30T16:15:09Z</time>
      </trkpt>
      <trkpt lat="45.90612" lon="6.5003">
        <ele>2204</ele>
        <time>2020-07-30T16:15:19Z</time>
      </trkpt>
      <trkpt lat="45.90612" lon="6.49995">
        <ele>2193</ele>
        <time>2020-07-30T16:15:31Z</time>
      </trkpt>
      <trkpt lat="45.90616" lon="6.4998">
        <ele>2189</ele>
        <time>2020-07-30T16:15:37Z</time>
      </trkpt>
      <trkpt lat="45.90615" lon="6.49974">
        <ele>2187</ele>
        <time>2020-07-30T16:15:39Z</time>
      </trkpt>
      <trkpt lat="45.90607" lon="6.49963">
        <ele>2182</ele>
        <time>2020-07-30T16:15:44Z</time>
      </trkpt>
      <trkpt lat="45.90598" lon="6.49959">
        <ele>2181</ele>
        <time>2020-07-30T16:15:49Z</time>
      </trkpt>
      <trkpt lat="45.90591" lon="6.49966">
        <ele>2182</ele>
        <time>2020-07-30T16:15:53Z</time>
      </trkpt>
      <trkpt lat="45.90581" lon="6.49964">
        <ele>2181</ele>
        <time>2020-07-30T16:15:58Z</time>
      </trkpt>
      <trkpt lat="45.90568" lon="6.49946">
        <ele>2178</ele>
        <time>2020-07-30T16:16:07Z</time>
      </trkpt>
      <trkpt lat="45.90555" lon="6.49933">
        <ele>2176</ele>
        <time>2020-07-30T16:16:15Z</time>
      </trkpt>
      <trkpt lat="45.9055" lon="6.49931">
        <ele>2177</ele>
        <time>2020-07-30T16:16:18Z</time>
      </trkpt>
      <trkpt lat="45.90542" lon="6.49916">
        <ele>2175</ele>
        <time>2020-07-30T16:16:25Z</time>
      </trkpt>
      <trkpt lat="45.90535" lon="6.49909">
        <ele>2175</ele>
        <time>2020-07-30T16:16:29Z</time>
      </trkpt>
      <trkpt lat="45.90528" lon="6.49903">
        <ele>2175</ele>
        <time>2020-07-30T16:16:33Z</time>
      </trkpt>
      <trkpt lat="45.9049" lon="6.49884">
        <ele>2185</ele>
        <time>2020-07-30T16:16:53Z</time>
      </trkpt>
      <trkpt lat="45.90486" lon="6.49869">
        <ele>2186</ele>
        <time>2020-07-30T16:16:59Z</time>
      </trkpt>
      <trkpt lat="45.9048" lon="6.49867">
        <ele>2190</ele>
        <time>2020-07-30T16:17:02Z</time>
      </trkpt>
      <trkpt lat="45.90476" lon="6.49852">
        <ele>2192</ele>
        <time>2020-07-30T16:17:07Z</time>
      </trkpt>
      <trkpt lat="45.90464" lon="6.49843">
        <ele>2200</ele>
        <time>2020-07-30T16:17:14Z</time>
      </trkpt>
      <trkpt lat="45.90459" lon="6.49843">
        <ele>2203</ele>
        <time>2020-07-30T16:17:17Z</time>
      </trkpt>
      <trkpt lat="45.90459" lon="6.49839">
        <ele>2203</ele>
        <time>2020-07-30T16:17:18Z</time>
      </trkpt>
      <trkpt lat="45.90454" lon="6.49837">
        <ele>2206</ele>
        <time>2020-07-30T16:17:21Z</time>
      </trkpt>
      <trkpt lat="45.90451" lon="6.49825">
        <ele>2209</ele>
        <time>2020-07-30T16:17:25Z</time>
      </trkpt>
      <trkpt lat="45.90441" lon="6.49811">
        <ele>2219</ele>
        <time>2020-07-30T16:17:32Z</time>
      </trkpt>
      <trkpt lat="45.90436" lon="6.49819">
        <ele>2222</ele>
        <time>2020-07-30T16:17:36Z</time>
      </trkpt>
      <trkpt lat="45.90427" lon="6.49793">
        <ele>2234</ele>
        <time>2020-07-30T16:17:46Z</time>
      </trkpt>
      <trkpt lat="45.90427" lon="6.49798">
        <ele>2233</ele>
        <time>2020-07-30T16:17:48Z</time>
      </trkpt>
      <trkpt lat="45.90418" lon="6.49798">
        <ele>2241</ele>
        <time>2020-07-30T16:17:52Z</time>
      </trkpt>
      <trkpt lat="45.90417" lon="6.49792">
        <ele>2244</ele>
        <time>2020-07-30T16:17:54Z</time>
      </trkpt>
      <trkpt lat="45.90411" lon="6.49792">
        <ele>2253</ele>
        <time>2020-07-30T16:17:57Z</time>
      </trkpt>
      <trkpt lat="45.90402" lon="6.49774">
        <ele>2271</ele>
        <time>2020-07-30T16:18:05Z</time>
      </trkpt>
      <trkpt lat="45.90398" lon="6.4977">
        <ele>2277</ele>
        <time>2020-07-30T16:18:07Z</time>
      </trkpt>
      <trkpt lat="45.90394" lon="6.49774">
        <ele>2283</ele>
        <time>2020-07-30T16:18:10Z</time>
      </trkpt>
      <trkpt lat="45.90394" lon="6.49771">
        <ele>2283</ele>
        <time>2020-07-30T16:18:11Z</time>
      </trkpt>
      <trkpt lat="45.90391" lon="6.49772">
        <ele>2287</ele>
        <time>2020-07-30T16:18:12Z</time>
      </trkpt>
      <trkpt lat="45.9039" lon="6.49768">
        <ele>2290</ele>
        <time>2020-07-30T16:18:14Z</time>
      </trkpt>
      <trkpt lat="45.90386" lon="6.49772">
        <ele>2295</ele>
        <time>2020-07-30T16:18:16Z</time>
      </trkpt>
      <trkpt lat="45.90384" lon="6.49783">
        <ele>2296</ele>
        <time>2020-07-30T16:18:20Z</time>
      </trkpt>
      <trkpt lat="45.90373" lon="6.49799">
        <ele>2310</ele>
        <time>2020-07-30T16:18:28Z</time>
      </trkpt>
      <trkpt lat="45.90372" lon="6.49804">
        <ele>2311</ele>
        <time>2020-07-30T16:18:30Z</time>
      </trkpt>
      <trkpt lat="45.90359" lon="6.49815">
        <ele>2330</ele>
        <time>2020-07-30T16:18:38Z</time>
      </trkpt>
      <trkpt lat="45.90357" lon="6.49825">
        <ele>2333</ele>
        <time>2020-07-30T16:18:41Z</time>
      </trkpt>
      <trkpt lat="45.9036" lon="6.49832">
        <ele>2327</ele>
        <time>2020-07-30T16:18:44Z</time>
      </trkpt>
      <trkpt lat="45.90356" lon="6.49837">
        <ele>2333</ele>
        <time>2020-07-30T16:18:47Z</time>
      </trkpt>
      <trkpt lat="45.9035" lon="6.49839">
        <ele>2342</ele>
        <time>2020-07-30T16:18:50Z</time>
      </trkpt>
      <trkpt lat="45.90349" lon="6.49846">
        <ele>2342</ele>
        <time>2020-07-30T16:18:52Z</time>
      </trkpt>
      <trkpt lat="45.90352" lon="6.49851">
        <ele>2336</ele>
        <time>2020-07-30T16:18:55Z</time>
      </trkpt>
      <trkpt lat="45.90346" lon="6.49858">
        <ele>2344</ele>
        <time>2020-07-30T16:18:58Z</time>
      </trkpt>
      <trkpt lat="45.90348" lon="6.49864">
        <ele>2339</ele>
        <time>2020-07-30T16:19:01Z</time>
      </trkpt>
      <trkpt lat="45.90344" lon="6.49866">
        <ele>2345</ele>
        <time>2020-07-30T16:19:03Z</time>
      </trkpt>
      <trkpt lat="45.90346" lon="6.49882">
        <ele>2338</ele>
        <time>2020-07-30T16:19:09Z</time>
      </trkpt>
      <trkpt lat="45.90343" lon="6.49884">
        <ele>2342</ele>
        <time>2020-07-30T16:19:10Z</time>
      </trkpt>
      <trkpt lat="45.90342" lon="6.49889">
        <ele>2342</ele>
        <time>2020-07-30T16:19:12Z</time>
      </trkpt>
      <trkpt lat="45.90344" lon="6.49892">
        <ele>2338</ele>
        <time>2020-07-30T16:19:13Z</time>
      </trkpt>
      <trkpt lat="45.90341" lon="6.49893">
        <ele>2342</ele>
        <time>2020-07-30T16:19:15Z</time>
      </trkpt>
      <trkpt lat="45.90343" lon="6.4991">
        <ele>2335</ele>
        <time>2020-07-30T16:19:21Z</time>
      </trkpt>
      <trkpt lat="45.90341" lon="6.49918">
        <ele>2336</ele>
        <time>2020-07-30T16:19:24Z</time>
      </trkpt>
      <trkpt lat="45.90343" lon="6.49922">
        <ele>2333</ele>
        <time>2020-07-30T16:19:26Z</time>
      </trkpt>
      <trkpt lat="45.90332" lon="6.49937">
        <ele>2348</ele>
        <time>2020-07-30T16:19:33Z</time>
      </trkpt>
      <trkpt lat="45.90328" lon="6.49956">
        <ele>2352</ele>
        <time>2020-07-30T16:19:40Z</time>
      </trkpt>
      <trkpt lat="45.9033" lon="6.49966">
        <ele>2350</ele>
        <time>2020-07-30T16:19:44Z</time>
      </trkpt>
      <trkpt lat="45.90325" lon="6.4997">
        <ele>2355</ele>
        <time>2020-07-30T16:19:47Z</time>
      </trkpt>
      <trkpt lat="45.90323" lon="6.49977">
        <ele>2357</ele>
        <time>2020-07-30T16:19:49Z</time>
      </trkpt>
      <trkpt lat="45.90314" lon="6.49977">
        <ele>2365</ele>
        <time>2020-07-30T16:19:54Z</time>
      </trkpt>
      <trkpt lat="45.90305" lon="6.49972">
        <ele>2373</ele>
        <time>2020-07-30T16:19:59Z</time>
      </trkpt>
      <trkpt lat="45.903" lon="6.49976">
        <ele>2378</ele>
        <time>2020-07-30T16:20:01Z</time>
      </trkpt>
      <trkpt lat="45.90286" lon="6.49975">
        <ele>2391</ele>
        <time>2020-07-30T16:20:08Z</time>
      </trkpt>
      <trkpt lat="45.90283" lon="6.49972">
        <ele>2394</ele>
        <time>2020-07-30T16:20:10Z</time>
      </trkpt>
      <trkpt lat="45.90281" lon="6.49991">
        <ele>2396</ele>
        <time>2020-07-30T16:20:17Z</time>
      </trkpt>
      <trkpt lat="45.90277" lon="6.49996">
        <ele>2400</ele>
        <time>2020-07-30T16:20:20Z</time>
      </trkpt>
      <trkpt lat="45.90267" lon="6.5">
        <ele>2409</ele>
        <time>2020-07-30T16:20:25Z</time>
      </trkpt>
      <trkpt lat="45.90258" lon="6.50008">
        <ele>2418</ele>
        <time>2020-07-30T16:20:30Z</time>
      </trkpt>
      <trkpt lat="45.90233" lon="6.50015">
        <ele>2431</ele>
        <time>2020-07-30T16:20:43Z</time>
      </trkpt>
      <trkpt lat="45.90234" lon="6.50031">
        <ele>2432</ele>
        <time>2020-07-30T16:20:48Z</time>
      </trkpt>
      <trkpt lat="45.90229" lon="6.50037">
        <ele>2435</ele>
        <time>2020-07-30T16:20:52Z</time>
      </trkpt>
      <trkpt lat="45.90225" lon="6.50035">
        <ele>2436</ele>
        <time>2020-07-30T16:20:54Z</time>
      </trkpt>
      <trkpt lat="45.9022" lon="6.50038">
        <ele>2439</ele>
        <time>2020-07-30T16:20:57Z</time>
      </trkpt>
      <trkpt lat="45.90205" lon="6.50037">
        <ele>2446</ele>
        <time>2020-07-30T16:21:04Z</time>
      </trkpt>
      <trkpt lat="45.90202" lon="6.50042">
        <ele>2448</ele>
        <time>2020-07-30T16:21:06Z</time>
      </trkpt>
      <trkpt lat="45.90199" lon="6.50041">
        <ele>2449</ele>
        <time>2020-07-30T16:21:08Z</time>
      </trkpt>
      <trkpt lat="45.90188" lon="6.50015">
        <ele>2447</ele>
        <time>2020-07-30T16:21:19Z</time>
      </trkpt>
      <trkpt lat="45.90195" lon="6.50006">
        <ele>2442</ele>
        <time>2020-07-30T16:21:23Z</time>
      </trkpt>
      <trkpt lat="45.90195" lon="6.49993">
        <ele>2439</ele>
        <time>2020-07-30T16:21:28Z</time>
      </trkpt>
      <trkpt lat="45.90163" lon="6.49961">
        <ele>2437</ele>
        <time>2020-07-30T16:21:47Z</time>
      </trkpt>
      <trkpt lat="45.90164" lon="6.49944">
        <ele>2432</ele>
        <time>2020-07-30T16:21:53Z</time>
      </trkpt>
      <trkpt lat="45.90162" lon="6.4994">
        <ele>2431</ele>
        <time>2020-07-30T16:21:55Z</time>
      </trkpt>
      <trkpt lat="45.90158" lon="6.49939">
        <ele>2429</ele>
        <time>2020-07-30T16:21:57Z</time>
      </trkpt>
      <trkpt lat="45.90149" lon="6.49943">
        <ele>2428</ele>
        <time>2020-07-30T16:22:02Z</time>
      </trkpt>
      <trkpt lat="45.90141" lon="6.49939">
        <ele>2424</ele>
        <time>2020-07-30T16:22:06Z</time>
      </trkpt>
      <trkpt lat="45.90137" lon="6.49943">
        <ele>2425</ele>
        <time>2020-07-30T16:22:08Z</time>
      </trkpt>
      <trkpt lat="45.90127" lon="6.49941">
        <ele>2421</ele>
        <time>2020-07-30T16:22:13Z</time>
      </trkpt>
      <trkpt lat="45.90123" lon="6.49945">
        <ele>2421</ele>
        <time>2020-07-30T16:22:16Z</time>
      </trkpt>
      <trkpt lat="45.90115" lon="6.49942">
        <ele>2418</ele>
        <time>2020-07-30T16:22:20Z</time>
      </trkpt>
      <trkpt lat="45.90106" lon="6.49925">
        <ele>2407</ele>
        <time>2020-07-30T16:22:27Z</time>
      </trkpt>
      <trkpt lat="45.901" lon="6.4988">
        <ele>2385</ele>
        <time>2020-07-30T16:22:43Z</time>
      </trkpt>
      <trkpt lat="45.90095" lon="6.49878">
        <ele>2382</ele>
        <time>2020-07-30T16:22:46Z</time>
      </trkpt>
      <trkpt lat="45.90077" lon="6.49834">
        <ele>2359</ele>
        <time>2020-07-30T16:23:04Z</time>
      </trkpt>
      <trkpt lat="45.90075" lon="6.49823">
        <ele>2354</ele>
        <time>2020-07-30T16:23:08Z</time>
      </trkpt>
      <trkpt lat="45.90077" lon="6.49797">
        <ele>2342</ele>
        <time>2020-07-30T16:23:17Z</time>
      </trkpt>
      <trkpt lat="45.90075" lon="6.4977">
        <ele>2330</ele>
        <time>2020-07-30T16:23:26Z</time>
      </trkpt>
      <trkpt lat="45.90055" lon="6.49738">
        <ele>2317</ele>
        <time>2020-07-30T16:23:41Z</time>
      </trkpt>
      <trkpt lat="45.90053" lon="6.49707">
        <ele>2306</ele>
        <time>2020-07-30T16:23:52Z</time>
      </trkpt>
      <trkpt lat="45.90059" lon="6.49694">
        <ele>2300</ele>
        <time>2020-07-30T16:23:58Z</time>
      </trkpt>
      <trkpt lat="45.90058" lon="6.49678">
        <ele>2294</ele>
        <time>2020-07-30T16:24:03Z</time>
      </trkpt>
      <trkpt lat="45.90061" lon="6.49668">
        <ele>2291</ele>
        <time>2020-07-30T16:24:07Z</time>
      </trkpt>
      <trkpt lat="45.90071" lon="6.49655">
        <ele>2286</ele>
        <time>2020-07-30T16:24:14Z</time>
      </trkpt>
      <trkpt lat="45.90072" lon="6.49639">
        <ele>2282</ele>
        <time>2020-07-30T16:24:19Z</time>
      </trkpt>
      <trkpt lat="45.90068" lon="6.49618">
        <ele>2276</ele>
        <time>2020-07-30T16:24:27Z</time>
      </trkpt>
      <trkpt lat="45.90057" lon="6.49602">
        <ele>2272</ele>
        <time>2020-07-30T16:24:35Z</time>
      </trkpt>
      <trkpt lat="45.90047" lon="6.49578">
        <ele>2265</ele>
        <time>2020-07-30T16:24:44Z</time>
      </trkpt>
      <trkpt lat="45.9005" lon="6.49547">
        <ele>2260</ele>
        <time>2020-07-30T16:24:55Z</time>
      </trkpt>
      <trkpt lat="45.90017" lon="6.49482">
        <ele>2246</ele>
        <time>2020-07-30T16:25:23Z</time>
      </trkpt>
      <trkpt lat="45.89996" lon="6.49448">
        <ele>2239</ele>
        <time>2020-07-30T16:25:39Z</time>
      </trkpt>
      <trkpt lat="45.89935" lon="6.49334">
        <ele>2208</ele>
        <time>2020-07-30T16:26:29Z</time>
      </trkpt>
      <trkpt lat="45.89927" lon="6.49273">
        <ele>2196</ele>
        <time>2020-07-30T16:26:51Z</time>
      </trkpt>
      <trkpt lat="45.89924" lon="6.49267">
        <ele>2195</ele>
        <time>2020-07-30T16:26:53Z</time>
      </trkpt>
      <trkpt lat="45.89834" lon="6.49192">
        <ele>2184</ele>
        <time>2020-07-30T16:27:45Z</time>
      </trkpt>
      <trkpt lat="45.89823" lon="6.4917">
        <ele>2182</ele>
        <time>2020-07-30T16:27:55Z</time>
      </trkpt>
      <trkpt lat="45.89808" lon="6.49154">
        <ele>2181</ele>
        <time>2020-07-30T16:28:04Z</time>
      </trkpt>
      <trkpt lat="45.89786" lon="6.49119">
        <ele>2179</ele>
        <time>2020-07-30T16:28:21Z</time>
      </trkpt>
      <trkpt lat="45.89771" lon="6.49042">
        <ele>2169</ele>
        <time>2020-07-30T16:28:49Z</time>
      </trkpt>
      <trkpt lat="45.89771" lon="6.48998">
        <ele>2162</ele>
        <time>2020-07-30T16:29:04Z</time>
      </trkpt>
      <trkpt lat="45.89755" lon="6.4896">
        <ele>2160</ele>
        <time>2020-07-30T16:29:19Z</time>
      </trkpt>
      <trkpt lat="45.89747" lon="6.4892">
        <ele>2158</ele>
        <time>2020-07-30T16:29:34Z</time>
      </trkpt>
      <trkpt lat="45.89748" lon="6.48856">
        <ele>2144</ele>
        <time>2020-07-30T16:29:56Z</time>
      </trkpt>
      <trkpt lat="45.89743" lon="6.48827">
        <ele>2144</ele>
        <time>2020-07-30T16:30:07Z</time>
      </trkpt>
      <trkpt lat="45.89744" lon="6.48802">
        <ele>2142</ele>
        <time>2020-07-30T16:30:15Z</time>
      </trkpt>
      <trkpt lat="45.89748" lon="6.48789">
        <ele>2138</ele>
        <time>2020-07-30T16:30:20Z</time>
      </trkpt>
      <trkpt lat="45.89753" lon="6.48792">
        <ele>2136</ele>
        <time>2020-07-30T16:30:23Z</time>
      </trkpt>
      <trkpt lat="45.8976" lon="6.48815">
        <ele>2133</ele>
        <time>2020-07-30T16:30:32Z</time>
      </trkpt>
      <trkpt lat="45.89764" lon="6.48814">
        <ele>2132</ele>
        <time>2020-07-30T16:30:34Z</time>
      </trkpt>
      <trkpt lat="45.89764" lon="6.48782">
        <ele>2130</ele>
        <time>2020-07-30T16:30:45Z</time>
      </trkpt>
      <trkpt lat="45.89763" lon="6.48748">
        <ele>2129</ele>
        <time>2020-07-30T16:30:57Z</time>
      </trkpt>
      <trkpt lat="45.89744" lon="6.48641">
        <ele>2109</ele>
        <time>2020-07-30T16:31:35Z</time>
      </trkpt>
      <trkpt lat="45.89742" lon="6.48591">
        <ele>2099</ele>
        <time>2020-07-30T16:31:53Z</time>
      </trkpt>
      <trkpt lat="45.89731" lon="6.48556">
        <ele>2093</ele>
        <time>2020-07-30T16:32:06Z</time>
      </trkpt>
      <trkpt lat="45.89721" lon="6.48542">
        <ele>2090</ele>
        <time>2020-07-30T16:32:13Z</time>
      </trkpt>
      <trkpt lat="45.89682" lon="6.48505">
        <ele>2085</ele>
        <time>2020-07-30T16:32:36Z</time>
      </trkpt>
      <trkpt lat="45.8966" lon="6.48493">
        <ele>2085</ele>
        <time>2020-07-30T16:32:48Z</time>
      </trkpt>
      <trkpt lat="45.89652" lon="6.48486">
        <ele>2086</ele>
        <time>2020-07-30T16:32:53Z</time>
      </trkpt>
      <trkpt lat="45.89638" lon="6.48462">
        <ele>2084</ele>
        <time>2020-07-30T16:33:04Z</time>
      </trkpt>
      <trkpt lat="45.89636" lon="6.48446">
        <ele>2080</ele>
        <time>2020-07-30T16:33:09Z</time>
      </trkpt>
      <trkpt lat="45.89652" lon="6.48418">
        <ele>2067</ele>
        <time>2020-07-30T16:33:22Z</time>
      </trkpt>
      <trkpt lat="45.89649" lon="6.48396">
        <ele>2062</ele>
        <time>2020-07-30T16:33:30Z</time>
      </trkpt>
      <trkpt lat="45.89655" lon="6.48357">
        <ele>2048</ele>
        <time>2020-07-30T16:33:44Z</time>
      </trkpt>
      <trkpt lat="45.89651" lon="6.48343">
        <ele>2045</ele>
        <time>2020-07-30T16:33:49Z</time>
      </trkpt>
      <trkpt lat="45.89642" lon="6.48313">
        <ele>2038</ele>
        <time>2020-07-30T16:34:00Z</time>
      </trkpt>
      <trkpt lat="45.89636" lon="6.48301">
        <ele>2036</ele>
        <time>2020-07-30T16:34:05Z</time>
      </trkpt>
      <trkpt lat="45.89625" lon="6.48291">
        <ele>2036</ele>
        <time>2020-07-30T16:34:12Z</time>
      </trkpt>
      <trkpt lat="45.89623" lon="6.4828">
        <ele>2033</ele>
        <time>2020-07-30T16:34:16Z</time>
      </trkpt>
      <trkpt lat="45.89608" lon="6.48257">
        <ele>2029</ele>
        <time>2020-07-30T16:34:27Z</time>
      </trkpt>
      <trkpt lat="45.89604" lon="6.48236">
        <ele>2023</ele>
        <time>2020-07-30T16:34:35Z</time>
      </trkpt>
      <trkpt lat="45.89604" lon="6.48221">
        <ele>2018</ele>
        <time>2020-07-30T16:34:40Z</time>
      </trkpt>
      <trkpt lat="45.89593" lon="6.48202">
        <ele>2014</ele>
        <time>2020-07-30T16:34:48Z</time>
      </trkpt>
      <trkpt lat="45.89588" lon="6.48183">
        <ele>2009</ele>
        <time>2020-07-30T16:34:55Z</time>
      </trkpt>
      <trkpt lat="45.89589" lon="6.48158">
        <ele>2000</ele>
        <time>2020-07-30T16:35:04Z</time>
      </trkpt>
      <trkpt lat="45.89584" lon="6.48151">
        <ele>1999</ele>
        <time>2020-07-30T16:35:08Z</time>
      </trkpt>
      <trkpt lat="45.89559" lon="6.48133">
        <ele>2004</ele>
        <time>2020-07-30T16:35:22Z</time>
      </trkpt>
      <trkpt lat="45.89554" lon="6.48117">
        <ele>2000</ele>
        <time>2020-07-30T16:35:28Z</time>
      </trkpt>
      <trkpt lat="45.89554" lon="6.48107">
        <ele>1997</ele>
        <time>2020-07-30T16:35:31Z</time>
      </trkpt>
      <trkpt lat="45.89543" lon="6.48074">
        <ele>1991</ele>
        <time>2020-07-30T16:35:44Z</time>
      </trkpt>
      <trkpt lat="45.89537" lon="6.48063">
        <ele>1991</ele>
        <time>2020-07-30T16:35:49Z</time>
      </trkpt>
      <trkpt lat="45.89533" lon="6.48029">
        <ele>1984</ele>
        <time>2020-07-30T16:36:01Z</time>
      </trkpt>
      <trkpt lat="45.89521" lon="6.48009">
        <ele>1983</ele>
        <time>2020-07-30T16:36:10Z</time>
      </trkpt>
      <trkpt lat="45.8949" lon="6.47974">
        <ele>1996</ele>
        <time>2020-07-30T16:36:30Z</time>
      </trkpt>
      <trkpt lat="45.89487" lon="6.47928">
        <ele>1993</ele>
        <time>2020-07-30T16:36:46Z</time>
      </trkpt>
      <trkpt lat="45.89477" lon="6.479">
        <ele>2007</ele>
        <time>2020-07-30T16:36:57Z</time>
      </trkpt>
      <trkpt lat="45.8948" lon="6.4788">
        <ele>2007</ele>
        <time>2020-07-30T16:37:04Z</time>
      </trkpt>
      <trkpt lat="45.89479" lon="6.47863">
        <ele>2012</ele>
        <time>2020-07-30T16:37:10Z</time>
      </trkpt>
      <trkpt lat="45.89476" lon="6.47858">
        <ele>2018</ele>
        <time>2020-07-30T16:37:12Z</time>
      </trkpt>
      <trkpt lat="45.89466" lon="6.47856">
        <ele>2032</ele>
        <time>2020-07-30T16:37:17Z</time>
      </trkpt>
      <trkpt lat="45.89466" lon="6.47852">
        <ele>2033</ele>
        <time>2020-07-30T16:37:19Z</time>
      </trkpt>
      <trkpt lat="45.89461" lon="6.47854">
        <ele>2039</ele>
        <time>2020-07-30T16:37:21Z</time>
      </trkpt>
      <trkpt lat="45.89456" lon="6.47851">
        <ele>2047</ele>
        <time>2020-07-30T16:37:24Z</time>
      </trkpt>
      <trkpt lat="45.89457" lon="6.47848">
        <ele>2046</ele>
        <time>2020-07-30T16:37:25Z</time>
      </trkpt>
      <trkpt lat="45.89453" lon="6.47843">
        <ele>2053</ele>
        <time>2020-07-30T16:37:28Z</time>
      </trkpt>
      <trkpt lat="45.89455" lon="6.47835">
        <ele>2053</ele>
        <time>2020-07-30T16:37:31Z</time>
      </trkpt>
      <trkpt lat="45.89452" lon="6.47821">
        <ele>2057</ele>
        <time>2020-07-30T16:37:36Z</time>
      </trkpt>
      <trkpt lat="45.89453" lon="6.47807">
        <ele>2056</ele>
        <time>2020-07-30T16:37:41Z</time>
      </trkpt>
      <trkpt lat="45.89448" lon="6.47797">
        <ele>2062</ele>
        <time>2020-07-30T16:37:45Z</time>
      </trkpt>
      <trkpt lat="45.89446" lon="6.47798">
        <ele>2065</ele>
        <time>2020-07-30T16:37:46Z</time>
      </trkpt>
      <trkpt lat="45.89445" lon="6.47795">
        <ele>2066</ele>
        <time>2020-07-30T16:37:47Z</time>
      </trkpt>
      <trkpt lat="45.89441" lon="6.47795">
        <ele>2071</ele>
        <time>2020-07-30T16:37:49Z</time>
      </trkpt>
      <trkpt lat="45.89435" lon="6.47801">
        <ele>2080</ele>
        <time>2020-07-30T16:37:53Z</time>
      </trkpt>
      <trkpt lat="45.89427" lon="6.47802">
        <ele>2091</ele>
        <time>2020-07-30T16:37:57Z</time>
      </trkpt>
      <trkpt lat="45.89432" lon="6.47819">
        <ele>2085</ele>
        <time>2020-07-30T16:38:03Z</time>
      </trkpt>
      <trkpt lat="45.89425" lon="6.47829">
        <ele>2096</ele>
        <time>2020-07-30T16:38:08Z</time>
      </trkpt>
      <trkpt lat="45.89414" lon="6.47827">
        <ele>2108</ele>
        <time>2020-07-30T16:38:14Z</time>
      </trkpt>
      <trkpt lat="45.8941" lon="6.47834">
        <ele>2110</ele>
        <time>2020-07-30T16:38:17Z</time>
      </trkpt>
      <trkpt lat="45.89405" lon="6.47836">
        <ele>2111</ele>
        <time>2020-07-30T16:38:20Z</time>
      </trkpt>
      <trkpt lat="45.89405" lon="6.47841">
        <ele>2109</ele>
        <time>2020-07-30T16:38:21Z</time>
      </trkpt>
      <trkpt lat="45.89401" lon="6.4784">
        <ele>2111</ele>
        <time>2020-07-30T16:38:23Z</time>
      </trkpt>
      <trkpt lat="45.89391" lon="6.47844">
        <ele>2113</ele>
        <time>2020-07-30T16:38:29Z</time>
      </trkpt>
      <trkpt lat="45.8939" lon="6.47852">
        <ele>2111</ele>
        <time>2020-07-30T16:38:31Z</time>
      </trkpt>
      <trkpt lat="45.89383" lon="6.47855">
        <ele>2113</ele>
        <time>2020-07-30T16:38:35Z</time>
      </trkpt>
      <trkpt lat="45.89381" lon="6.47861">
        <ele>2113</ele>
        <time>2020-07-30T16:38:37Z</time>
      </trkpt>
      <trkpt lat="45.89369" lon="6.47866">
        <ele>2117</ele>
        <time>2020-07-30T16:38:44Z</time>
      </trkpt>
      <trkpt lat="45.89365" lon="6.47873">
        <ele>2118</ele>
        <time>2020-07-30T16:38:47Z</time>
      </trkpt>
      <trkpt lat="45.89359" lon="6.47872">
        <ele>2121</ele>
        <time>2020-07-30T16:38:50Z</time>
      </trkpt>
      <trkpt lat="45.89358" lon="6.47876">
        <ele>2121</ele>
        <time>2020-07-30T16:38:51Z</time>
      </trkpt>
      <trkpt lat="45.89354" lon="6.47879">
        <ele>2123</ele>
        <time>2020-07-30T16:38:54Z</time>
      </trkpt>
      <trkpt lat="45.89349" lon="6.47879">
        <ele>2126</ele>
        <time>2020-07-30T16:38:56Z</time>
      </trkpt>
      <trkpt lat="45.89343" lon="6.47883">
        <ele>2129</ele>
        <time>2020-07-30T16:38:59Z</time>
      </trkpt>
      <trkpt lat="45.89345" lon="6.47887">
        <ele>2128</ele>
        <time>2020-07-30T16:39:01Z</time>
      </trkpt>
      <trkpt lat="45.89338" lon="6.47916">
        <ele>2131</ele>
        <time>2020-07-30T16:39:12Z</time>
      </trkpt>
      <trkpt lat="45.89334" lon="6.47922">
        <ele>2135</ele>
        <time>2020-07-30T16:39:15Z</time>
      </trkpt>
      <trkpt lat="45.89324" lon="6.47923">
        <ele>2140</ele>
        <time>2020-07-30T16:39:20Z</time>
      </trkpt>
      <trkpt lat="45.89317" lon="6.47932">
        <ele>2147</ele>
        <time>2020-07-30T16:39:24Z</time>
      </trkpt>
      <trkpt lat="45.89314" lon="6.47948">
        <ele>2155</ele>
        <time>2020-07-30T16:39:30Z</time>
      </trkpt>
      <trkpt lat="45.89306" lon="6.47947">
        <ele>2158</ele>
        <time>2020-07-30T16:39:34Z</time>
      </trkpt>
      <trkpt lat="45.89297" lon="6.47938">
        <ele>2159</ele>
        <time>2020-07-30T16:39:40Z</time>
      </trkpt>
      <trkpt lat="45.89293" lon="6.47947">
        <ele>2164</ele>
        <time>2020-07-30T16:39:43Z</time>
      </trkpt>
      <trkpt lat="45.89291" lon="6.47946">
        <ele>2165</ele>
        <time>2020-07-30T16:39:44Z</time>
      </trkpt>
      <trkpt lat="45.89285" lon="6.4794">
        <ele>2165</ele>
        <time>2020-07-30T16:39:48Z</time>
      </trkpt>
      <trkpt lat="45.89283" lon="6.4793">
        <ele>2162</ele>
        <time>2020-07-30T16:39:52Z</time>
      </trkpt>
      <trkpt lat="45.8928" lon="6.47931">
        <ele>2164</ele>
        <time>2020-07-30T16:39:53Z</time>
      </trkpt>
      <trkpt lat="45.89267" lon="6.47923">
        <ele>2166</ele>
        <time>2020-07-30T16:40:00Z</time>
      </trkpt>
      <trkpt lat="45.89251" lon="6.47909">
        <ele>2168</ele>
        <time>2020-07-30T16:40:10Z</time>
      </trkpt>
      <trkpt lat="45.89236" lon="6.47904">
        <ele>2170</ele>
        <time>2020-07-30T16:40:17Z</time>
      </trkpt>
      <trkpt lat="45.89224" lon="6.47897">
        <ele>2170</ele>
        <time>2020-07-30T16:40:24Z</time>
      </trkpt>
      <trkpt lat="45.89209" lon="6.47895">
        <ele>2174</ele>
        <time>2020-07-30T16:40:31Z</time>
      </trkpt>
      <trkpt lat="45.89204" lon="6.47892">
        <ele>2174</ele>
        <time>2020-07-30T16:40:34Z</time>
      </trkpt>
      <trkpt lat="45.89203" lon="6.47884">
        <ele>2170</ele>
        <time>2020-07-30T16:40:37Z</time>
      </trkpt>
      <trkpt lat="45.89187" lon="6.47879">
        <ele>2171</ele>
        <time>2020-07-30T16:40:45Z</time>
      </trkpt>
      <trkpt lat="45.89183" lon="6.47873">
        <ele>2169</ele>
        <time>2020-07-30T16:40:48Z</time>
      </trkpt>
      <trkpt lat="45.89175" lon="6.47871">
        <ele>2169</ele>
        <time>2020-07-30T16:40:52Z</time>
      </trkpt>
      <trkpt lat="45.89166" lon="6.47865">
        <ele>2168</ele>
        <time>2020-07-30T16:40:57Z</time>
      </trkpt>
      <trkpt lat="45.89164" lon="6.47868">
        <ele>2170</ele>
        <time>2020-07-30T16:40:59Z</time>
      </trkpt>
      <trkpt lat="45.89158" lon="6.47869">
        <ele>2171</ele>
        <time>2020-07-30T16:41:02Z</time>
      </trkpt>
      <trkpt lat="45.89146" lon="6.47866">
        <ele>2170</ele>
        <time>2020-07-30T16:41:08Z</time>
      </trkpt>
      <trkpt lat="45.89139" lon="6.47867">
        <ele>2171</ele>
        <time>2020-07-30T16:41:11Z</time>
      </trkpt>
      <trkpt lat="45.89136" lon="6.4787">
        <ele>2173</ele>
        <time>2020-07-30T16:41:13Z</time>
      </trkpt>
      <trkpt lat="45.89124" lon="6.47868">
        <ele>2172</ele>
        <time>2020-07-30T16:41:19Z</time>
      </trkpt>
      <trkpt lat="45.89116" lon="6.47862">
        <ele>2169</ele>
        <time>2020-07-30T16:41:24Z</time>
      </trkpt>
      <trkpt lat="45.89103" lon="6.47871">
        <ele>2175</ele>
        <time>2020-07-30T16:41:31Z</time>
      </trkpt>
      <trkpt lat="45.89088" lon="6.47877">
        <ele>2180</ele>
        <time>2020-07-30T16:41:39Z</time>
      </trkpt>
      <trkpt lat="45.89076" lon="6.47874">
        <ele>2180</ele>
        <time>2020-07-30T16:41:45Z</time>
      </trkpt>
      <trkpt lat="45.89062" lon="6.47876">
        <ele>2183</ele>
        <time>2020-07-30T16:41:52Z</time>
      </trkpt>
      <trkpt lat="45.89056" lon="6.47869">
        <ele>2180</ele>
        <time>2020-07-30T16:41:56Z</time>
      </trkpt>
      <trkpt lat="45.89047" lon="6.47864">
        <ele>2179</ele>
        <time>2020-07-30T16:42:00Z</time>
      </trkpt>
      <trkpt lat="45.89043" lon="6.47864">
        <ele>2180</ele>
        <time>2020-07-30T16:42:02Z</time>
      </trkpt>
      <trkpt lat="45.89041" lon="6.47867">
        <ele>2182</ele>
        <time>2020-07-30T16:42:04Z</time>
      </trkpt>
      <trkpt lat="45.89036" lon="6.47864">
        <ele>2181</ele>
        <time>2020-07-30T16:42:07Z</time>
      </trkpt>
      <trkpt lat="45.89034" lon="6.47866">
        <ele>2183</ele>
        <time>2020-07-30T16:42:08Z</time>
      </trkpt>
      <trkpt lat="45.89025" lon="6.47866">
        <ele>2184</ele>
        <time>2020-07-30T16:42:12Z</time>
      </trkpt>
      <trkpt lat="45.8902" lon="6.47878">
        <ele>2191</ele>
        <time>2020-07-30T16:42:17Z</time>
      </trkpt>
      <trkpt lat="45.89022" lon="6.47883">
        <ele>2193</ele>
        <time>2020-07-30T16:42:19Z</time>
      </trkpt>
      <trkpt lat="45.89018" lon="6.47888">
        <ele>2195</ele>
        <time>2020-07-30T16:42:22Z</time>
      </trkpt>
      <trkpt lat="45.89012" lon="6.4789">
        <ele>2197</ele>
        <time>2020-07-30T16:42:25Z</time>
      </trkpt>
      <trkpt lat="45.89009" lon="6.47895">
        <ele>2199</ele>
        <time>2020-07-30T16:42:27Z</time>
      </trkpt>
      <trkpt lat="45.89001" lon="6.479">
        <ele>2202</ele>
        <time>2020-07-30T16:42:32Z</time>
      </trkpt>
      <trkpt lat="45.88991" lon="6.47899">
        <ele>2203</ele>
        <time>2020-07-30T16:42:37Z</time>
      </trkpt>
      <trkpt lat="45.88988" lon="6.47902">
        <ele>2205</ele>
        <time>2020-07-30T16:42:38Z</time>
      </trkpt>
      <trkpt lat="45.88981" lon="6.479">
        <ele>2205</ele>
        <time>2020-07-30T16:42:42Z</time>
      </trkpt>
      <trkpt lat="45.88975" lon="6.47902">
        <ele>2207</ele>
        <time>2020-07-30T16:42:45Z</time>
      </trkpt>
      <trkpt lat="45.88971" lon="6.47909">
        <ele>2210</ele>
        <time>2020-07-30T16:42:48Z</time>
      </trkpt>
      <trkpt lat="45.88971" lon="6.47918">
        <ele>2213</ele>
        <time>2020-07-30T16:42:51Z</time>
      </trkpt>
      <trkpt lat="45.88963" lon="6.47918">
        <ele>2214</ele>
        <time>2020-07-30T16:42:55Z</time>
      </trkpt>
      <trkpt lat="45.88963" lon="6.47921">
        <ele>2216</ele>
        <time>2020-07-30T16:42:56Z</time>
      </trkpt>
      <trkpt lat="45.88952" lon="6.4792">
        <ele>2217</ele>
        <time>2020-07-30T16:43:02Z</time>
      </trkpt>
      <trkpt lat="45.88948" lon="6.47924">
        <ele>2219</ele>
        <time>2020-07-30T16:43:04Z</time>
      </trkpt>
      <trkpt lat="45.88948" lon="6.47933">
        <ele>2222</ele>
        <time>2020-07-30T16:43:07Z</time>
      </trkpt>
      <trkpt lat="45.88943" lon="6.47936">
        <ele>2224</ele>
        <time>2020-07-30T16:43:10Z</time>
      </trkpt>
      <trkpt lat="45.88934" lon="6.47931">
        <ele>2223</ele>
        <time>2020-07-30T16:43:15Z</time>
      </trkpt>
      <trkpt lat="45.88931" lon="6.47933">
        <ele>2224</ele>
        <time>2020-07-30T16:43:17Z</time>
      </trkpt>
      <trkpt lat="45.88932" lon="6.47939">
        <ele>2226</ele>
        <time>2020-07-30T16:43:19Z</time>
      </trkpt>
      <trkpt lat="45.88925" lon="6.47946">
        <ele>2229</ele>
        <time>2020-07-30T16:43:23Z</time>
      </trkpt>
      <trkpt lat="45.8892" lon="6.47959">
        <ele>2234</ele>
        <time>2020-07-30T16:43:28Z</time>
      </trkpt>
      <trkpt lat="45.88915" lon="6.47962">
        <ele>2236</ele>
        <time>2020-07-30T16:43:31Z</time>
      </trkpt>
      <trkpt lat="45.88913" lon="6.47969">
        <ele>2238</ele>
        <time>2020-07-30T16:43:34Z</time>
      </trkpt>
      <trkpt lat="45.88902" lon="6.47974">
        <ele>2242</ele>
        <time>2020-07-30T16:43:39Z</time>
      </trkpt>
      <trkpt lat="45.88892" lon="6.47989">
        <ele>2249</ele>
        <time>2020-07-30T16:43:47Z</time>
      </trkpt>
      <trkpt lat="45.88887" lon="6.4801">
        <ele>2259</ele>
        <time>2020-07-30T16:43:54Z</time>
      </trkpt>
      <trkpt lat="45.88879" lon="6.48016">
        <ele>2263</ele>
        <time>2020-07-30T16:43:59Z</time>
      </trkpt>
      <trkpt lat="45.88869" lon="6.48018">
        <ele>2266</ele>
        <time>2020-07-30T16:44:04Z</time>
      </trkpt>
      <trkpt lat="45.88861" lon="6.48025">
        <ele>2271</ele>
        <time>2020-07-30T16:44:09Z</time>
      </trkpt>
      <trkpt lat="45.88848" lon="6.48025">
        <ele>2273</ele>
        <time>2020-07-30T16:44:15Z</time>
      </trkpt>
      <trkpt lat="45.88836" lon="6.48031">
        <ele>2278</ele>
        <time>2020-07-30T16:44:21Z</time>
      </trkpt>
      <trkpt lat="45.8883" lon="6.48031">
        <ele>2279</ele>
        <time>2020-07-30T16:44:24Z</time>
      </trkpt>
      <trkpt lat="45.88821" lon="6.48037">
        <ele>2283</ele>
        <time>2020-07-30T16:44:29Z</time>
      </trkpt>
      <trkpt lat="45.88824" lon="6.48039">
        <ele>2283</ele>
        <time>2020-07-30T16:44:31Z</time>
      </trkpt>
      <trkpt lat="45.8882" lon="6.48039">
        <ele>2284</ele>
        <time>2020-07-30T16:44:33Z</time>
      </trkpt>
      <trkpt lat="45.88825" lon="6.48049">
        <ele>2287</ele>
        <time>2020-07-30T16:44:37Z</time>
      </trkpt>
      <trkpt lat="45.88829" lon="6.48052">
        <ele>2288</ele>
        <time>2020-07-30T16:44:40Z</time>
      </trkpt>
      <trkpt lat="45.88829" lon="6.48061">
        <ele>2291</ele>
        <time>2020-07-30T16:44:43Z</time>
      </trkpt>
      <trkpt lat="45.88818" lon="6.48065">
        <ele>2295</ele>
        <time>2020-07-30T16:44:48Z</time>
      </trkpt>
      <trkpt lat="45.88816" lon="6.4807">
        <ele>2297</ele>
        <time>2020-07-30T16:44:50Z</time>
      </trkpt>
      <trkpt lat="45.8881" lon="6.48072">
        <ele>2299</ele>
        <time>2020-07-30T16:44:54Z</time>
      </trkpt>
      <trkpt lat="45.8881" lon="6.4808">
        <ele>2302</ele>
        <time>2020-07-30T16:44:56Z</time>
      </trkpt>
      <trkpt lat="45.88805" lon="6.4808">
        <ele>2302</ele>
        <time>2020-07-30T16:44:59Z</time>
      </trkpt>
      <trkpt lat="45.888" lon="6.48086">
        <ele>2305</ele>
        <time>2020-07-30T16:45:02Z</time>
      </trkpt>
      <trkpt lat="45.88792" lon="6.48083">
        <ele>2305</ele>
        <time>2020-07-30T16:45:06Z</time>
      </trkpt>
      <trkpt lat="45.88797" lon="6.48096">
        <ele>2311</ele>
        <time>2020-07-30T16:45:11Z</time>
      </trkpt>
      <trkpt lat="45.88794" lon="6.48104">
        <ele>2315</ele>
        <time>2020-07-30T16:45:15Z</time>
      </trkpt>
      <trkpt lat="45.88797" lon="6.48107">
        <ele>2316</ele>
        <time>2020-07-30T16:45:16Z</time>
      </trkpt>
      <trkpt lat="45.88795" lon="6.48115">
        <ele>2320</ele>
        <time>2020-07-30T16:45:19Z</time>
      </trkpt>
      <trkpt lat="45.88797" lon="6.48122">
        <ele>2323</ele>
        <time>2020-07-30T16:45:22Z</time>
      </trkpt>
      <trkpt lat="45.88789" lon="6.48126">
        <ele>2328</ele>
        <time>2020-07-30T16:45:26Z</time>
      </trkpt>
      <trkpt lat="45.88793" lon="6.48132">
        <ele>2329</ele>
        <time>2020-07-30T16:45:29Z</time>
      </trkpt>
      <trkpt lat="45.88793" lon="6.48139">
        <ele>2333</ele>
        <time>2020-07-30T16:45:32Z</time>
      </trkpt>
      <trkpt lat="45.88773" lon="6.4814">
        <ele>2341</ele>
        <time>2020-07-30T16:45:42Z</time>
      </trkpt>
      <trkpt lat="45.88763" lon="6.48144">
        <ele>2347</ele>
        <time>2020-07-30T16:45:47Z</time>
      </trkpt>
      <trkpt lat="45.88755" lon="6.48139">
        <ele>2346</ele>
        <time>2020-07-30T16:45:51Z</time>
      </trkpt>
      <trkpt lat="45.88739" lon="6.48141">
        <ele>2354</ele>
        <time>2020-07-30T16:45:59Z</time>
      </trkpt>
      <trkpt lat="45.88729" lon="6.48138">
        <ele>2357</ele>
        <time>2020-07-30T16:46:04Z</time>
      </trkpt>
      <trkpt lat="45.88725" lon="6.4814">
        <ele>2360</ele>
        <time>2020-07-30T16:46:06Z</time>
      </trkpt>
      <trkpt lat="45.88724" lon="6.48138">
        <ele>2359</ele>
        <time>2020-07-30T16:46:07Z</time>
      </trkpt>
      <trkpt lat="45.88718" lon="6.48139">
        <ele>2363</ele>
        <time>2020-07-30T16:46:10Z</time>
      </trkpt>
      <trkpt lat="45.88718" lon="6.48137">
        <ele>2362</ele>
        <time>2020-07-30T16:46:11Z</time>
      </trkpt>
      <trkpt lat="45.88714" lon="6.4814">
        <ele>2365</ele>
        <time>2020-07-30T16:46:13Z</time>
      </trkpt>
      <trkpt lat="45.88708" lon="6.48137">
        <ele>2367</ele>
        <time>2020-07-30T16:46:16Z</time>
      </trkpt>
      <trkpt lat="45.887" lon="6.48141">
        <ele>2371</ele>
        <time>2020-07-30T16:46:21Z</time>
      </trkpt>
      <trkpt lat="45.88691" lon="6.48135">
        <ele>2375</ele>
        <time>2020-07-30T16:46:26Z</time>
      </trkpt>
      <trkpt lat="45.88682" lon="6.48139">
        <ele>2379</ele>
        <time>2020-07-30T16:46:30Z</time>
      </trkpt>
      <trkpt lat="45.88676" lon="6.48133">
        <ele>2382</ele>
        <time>2020-07-30T16:46:34Z</time>
      </trkpt>
      <trkpt lat="45.88675" lon="6.48135">
        <ele>2382</ele>
        <time>2020-07-30T16:46:35Z</time>
      </trkpt>
      <trkpt lat="45.88665" lon="6.48133">
        <ele>2386</ele>
        <time>2020-07-30T16:46:40Z</time>
      </trkpt>
      <trkpt lat="45.88664" lon="6.48139">
        <ele>2384</ele>
        <time>2020-07-30T16:46:42Z</time>
      </trkpt>
      <trkpt lat="45.88661" lon="6.48141">
        <ele>2381</ele>
        <time>2020-07-30T16:46:44Z</time>
      </trkpt>
      <trkpt lat="45.88656" lon="6.48132">
        <ele>2379</ele>
        <time>2020-07-30T16:46:48Z</time>
      </trkpt>
      <trkpt lat="45.88656" lon="6.48121">
        <ele>2381</ele>
        <time>2020-07-30T16:46:52Z</time>
      </trkpt>
      <trkpt lat="45.88653" lon="6.48114">
        <ele>2380</ele>
        <time>2020-07-30T16:46:54Z</time>
      </trkpt>
      <trkpt lat="45.88618" lon="6.48047">
        <ele>2366</ele>
        <time>2020-07-30T16:47:24Z</time>
      </trkpt>
      <trkpt lat="45.88602" lon="6.48035">
        <ele>2359</ele>
        <time>2020-07-30T16:47:33Z</time>
      </trkpt>
      <trkpt lat="45.88599" lon="6.48036">
        <ele>2358</ele>
        <time>2020-07-30T16:47:34Z</time>
      </trkpt>
      <trkpt lat="45.88597" lon="6.48029">
        <ele>2358</ele>
        <time>2020-07-30T16:47:37Z</time>
      </trkpt>
      <trkpt lat="45.88595" lon="6.48033">
        <ele>2356</ele>
        <time>2020-07-30T16:47:39Z</time>
      </trkpt>
      <trkpt lat="45.88593" lon="6.48032">
        <ele>2355</ele>
        <time>2020-07-30T16:47:40Z</time>
      </trkpt>
      <trkpt lat="45.88594" lon="6.48029">
        <ele>2356</ele>
        <time>2020-07-30T16:47:41Z</time>
      </trkpt>
      <trkpt lat="45.8859" lon="6.48036">
        <ele>2353</ele>
        <time>2020-07-30T16:47:44Z</time>
      </trkpt>
      <trkpt lat="45.88586" lon="6.48033">
        <ele>2352</ele>
        <time>2020-07-30T16:47:46Z</time>
      </trkpt>
      <trkpt lat="45.8858" lon="6.48036">
        <ele>2347</ele>
        <time>2020-07-30T16:47:49Z</time>
      </trkpt>
      <trkpt lat="45.88578" lon="6.48033">
        <ele>2346</ele>
        <time>2020-07-30T16:47:51Z</time>
      </trkpt>
      <trkpt lat="45.88574" lon="6.48037">
        <ele>2342</ele>
        <time>2020-07-30T16:47:53Z</time>
      </trkpt>
      <trkpt lat="45.88562" lon="6.4802">
        <ele>2336</ele>
        <time>2020-07-30T16:48:02Z</time>
      </trkpt>
      <trkpt lat="45.88558" lon="6.48027">
        <ele>2332</ele>
        <time>2020-07-30T16:48:05Z</time>
      </trkpt>
      <trkpt lat="45.88553" lon="6.48022">
        <ele>2329</ele>
        <time>2020-07-30T16:48:08Z</time>
      </trkpt>
      <trkpt lat="45.8855" lon="6.48025">
        <ele>2326</ele>
        <time>2020-07-30T16:48:10Z</time>
      </trkpt>
      <trkpt lat="45.88548" lon="6.48024">
        <ele>2324</ele>
        <time>2020-07-30T16:48:11Z</time>
      </trkpt>
      <trkpt lat="45.88545" lon="6.48016">
        <ele>2323</ele>
        <time>2020-07-30T16:48:14Z</time>
      </trkpt>
      <trkpt lat="45.88544" lon="6.48">
        <ele>2325</ele>
        <time>2020-07-30T16:48:20Z</time>
      </trkpt>
      <trkpt lat="45.88536" lon="6.47988">
        <ele>2318</ele>
        <time>2020-07-30T16:48:25Z</time>
      </trkpt>
      <trkpt lat="45.88537" lon="6.47972">
        <ele>2319</ele>
        <time>2020-07-30T16:48:31Z</time>
      </trkpt>
      <trkpt lat="45.88535" lon="6.47969">
        <ele>2317</ele>
        <time>2020-07-30T16:48:32Z</time>
      </trkpt>
      <trkpt lat="45.88537" lon="6.47959">
        <ele>2319</ele>
        <time>2020-07-30T16:48:36Z</time>
      </trkpt>
      <trkpt lat="45.88531" lon="6.47928">
        <ele>2313</ele>
        <time>2020-07-30T16:48:47Z</time>
      </trkpt>
      <trkpt lat="45.8853" lon="6.47898">
        <ele>2313</ele>
        <time>2020-07-30T16:48:58Z</time>
      </trkpt>
      <trkpt lat="45.88528" lon="6.47894">
        <ele>2311</ele>
        <time>2020-07-30T16:48:59Z</time>
      </trkpt>
      <trkpt lat="45.88531" lon="6.47848">
        <ele>2320</ele>
        <time>2020-07-30T16:49:15Z</time>
      </trkpt>
      <trkpt lat="45.88526" lon="6.47824">
        <ele>2317</ele>
        <time>2020-07-30T16:49:24Z</time>
      </trkpt>
      <trkpt lat="45.88513" lon="6.47813">
        <ele>2303</ele>
        <time>2020-07-30T16:49:32Z</time>
      </trkpt>
      <trkpt lat="45.88509" lon="6.47795">
        <ele>2303</ele>
        <time>2020-07-30T16:49:38Z</time>
      </trkpt>
      <trkpt lat="45.88502" lon="6.47784">
        <ele>2298</ele>
        <time>2020-07-30T16:49:44Z</time>
      </trkpt>
      <trkpt lat="45.88502" lon="6.47747">
        <ele>2307</ele>
        <time>2020-07-30T16:49:56Z</time>
      </trkpt>
      <trkpt lat="45.88492" lon="6.47722">
        <ele>2297</ele>
        <time>2020-07-30T16:50:06Z</time>
      </trkpt>
      <trkpt lat="45.8847" lon="6.47684">
        <ele>2279</ele>
        <time>2020-07-30T16:50:24Z</time>
      </trkpt>
      <trkpt lat="45.88458" lon="6.47672">
        <ele>2270</ele>
        <time>2020-07-30T16:50:31Z</time>
      </trkpt>
      <trkpt lat="45.88447" lon="6.47654">
        <ele>2259</ele>
        <time>2020-07-30T16:50:39Z</time>
      </trkpt>
      <trkpt lat="45.88443" lon="6.47654">
        <ele>2256</ele>
        <time>2020-07-30T16:50:41Z</time>
      </trkpt>
      <trkpt lat="45.88427" lon="6.47642">
        <ele>2242</ele>
        <time>2020-07-30T16:50:50Z</time>
      </trkpt>
      <trkpt lat="45.88419" lon="6.47626">
        <ele>2234</ele>
        <time>2020-07-30T16:50:57Z</time>
      </trkpt>
      <trkpt lat="45.88416" lon="6.47613">
        <ele>2230</ele>
        <time>2020-07-30T16:51:02Z</time>
      </trkpt>
      <trkpt lat="45.88413" lon="6.47611">
        <ele>2228</ele>
        <time>2020-07-30T16:51:04Z</time>
      </trkpt>
      <trkpt lat="45.88403" lon="6.47618">
        <ele>2222</ele>
        <time>2020-07-30T16:51:09Z</time>
      </trkpt>
      <trkpt lat="45.88396" lon="6.47612">
        <ele>2217</ele>
        <time>2020-07-30T16:51:13Z</time>
      </trkpt>
      <trkpt lat="45.88389" lon="6.47616">
        <ele>2213</ele>
        <time>2020-07-30T16:51:17Z</time>
      </trkpt>
      <trkpt lat="45.88387" lon="6.47605">
        <ele>2211</ele>
        <time>2020-07-30T16:51:21Z</time>
      </trkpt>
      <trkpt lat="45.88361" lon="6.476">
        <ele>2195</ele>
        <time>2020-07-30T16:51:34Z</time>
      </trkpt>
      <trkpt lat="45.88357" lon="6.47566">
        <ele>2187</ele>
        <time>2020-07-30T16:51:46Z</time>
      </trkpt>
      <trkpt lat="45.88358" lon="6.47547">
        <ele>2182</ele>
        <time>2020-07-30T16:51:53Z</time>
      </trkpt>
      <trkpt lat="45.88341" lon="6.47537">
        <ele>2168</ele>
        <time>2020-07-30T16:52:02Z</time>
      </trkpt>
      <trkpt lat="45.88338" lon="6.47531">
        <ele>2164</ele>
        <time>2020-07-30T16:52:05Z</time>
      </trkpt>
      <trkpt lat="45.8833" lon="6.47527">
        <ele>2158</ele>
        <time>2020-07-30T16:52:09Z</time>
      </trkpt>
      <trkpt lat="45.88335" lon="6.47464">
        <ele>2143</ele>
        <time>2020-07-30T16:52:31Z</time>
      </trkpt>
      <trkpt lat="45.88319" lon="6.47451">
        <ele>2131</ele>
        <time>2020-07-30T16:52:40Z</time>
      </trkpt>
      <trkpt lat="45.88317" lon="6.47439">
        <ele>2126</ele>
        <time>2020-07-30T16:52:44Z</time>
      </trkpt>
      <trkpt lat="45.88308" lon="6.47429">
        <ele>2118</ele>
        <time>2020-07-30T16:52:50Z</time>
      </trkpt>
      <trkpt lat="45.88297" lon="6.47429">
        <ele>2111</ele>
        <time>2020-07-30T16:52:56Z</time>
      </trkpt>
      <trkpt lat="45.88288" lon="6.47418">
        <ele>2102</ele>
        <time>2020-07-30T16:53:01Z</time>
      </trkpt>
      <trkpt lat="45.88285" lon="6.47408">
        <ele>2098</ele>
        <time>2020-07-30T16:53:05Z</time>
      </trkpt>
      <trkpt lat="45.88274" lon="6.47396">
        <ele>2088</ele>
        <time>2020-07-30T16:53:12Z</time>
      </trkpt>
      <trkpt lat="45.88268" lon="6.47393">
        <ele>2084</ele>
        <time>2020-07-30T16:53:15Z</time>
      </trkpt>
      <trkpt lat="45.88265" lon="6.47384">
        <ele>2080</ele>
        <time>2020-07-30T16:53:19Z</time>
      </trkpt>
      <trkpt lat="45.88259" lon="6.47376">
        <ele>2074</ele>
        <time>2020-07-30T16:53:23Z</time>
      </trkpt>
      <trkpt lat="45.88252" lon="6.47375">
        <ele>2069</ele>
        <time>2020-07-30T16:53:26Z</time>
      </trkpt>
      <trkpt lat="45.88246" lon="6.47379">
        <ele>2066</ele>
        <time>2020-07-30T16:53:30Z</time>
      </trkpt>
      <trkpt lat="45.88243" lon="6.47378">
        <ele>2064</ele>
        <time>2020-07-30T16:53:31Z</time>
      </trkpt>
      <trkpt lat="45.88239" lon="6.47362">
        <ele>2058</ele>
        <time>2020-07-30T16:53:37Z</time>
      </trkpt>
      <trkpt lat="45.88234" lon="6.47359">
        <ele>2055</ele>
        <time>2020-07-30T16:53:40Z</time>
      </trkpt>
      <trkpt lat="45.88225" lon="6.47332">
        <ele>2043</ele>
        <time>2020-07-30T16:53:50Z</time>
      </trkpt>
      <trkpt lat="45.88206" lon="6.47337">
        <ele>2033</ele>
        <time>2020-07-30T16:54:00Z</time>
      </trkpt>
      <trkpt lat="45.88196" lon="6.47332">
        <ele>2025</ele>
        <time>2020-07-30T16:54:05Z</time>
      </trkpt>
      <trkpt lat="45.8819" lon="6.4732">
        <ele>2020</ele>
        <time>2020-07-30T16:54:11Z</time>
      </trkpt>
      <trkpt lat="45.8818" lon="6.47316">
        <ele>2013</ele>
        <time>2020-07-30T16:54:16Z</time>
      </trkpt>
      <trkpt lat="45.88174" lon="6.47318">
        <ele>2010</ele>
        <time>2020-07-30T16:54:19Z</time>
      </trkpt>
      <trkpt lat="45.88166" lon="6.47317">
        <ele>2004</ele>
        <time>2020-07-30T16:54:23Z</time>
      </trkpt>
      <trkpt lat="45.8816" lon="6.47303">
        <ele>1998</ele>
        <time>2020-07-30T16:54:29Z</time>
      </trkpt>
      <trkpt lat="45.88162" lon="6.47294">
        <ele>1997</ele>
        <time>2020-07-30T16:54:32Z</time>
      </trkpt>
      <trkpt lat="45.8816" lon="6.47294">
        <ele>1996</ele>
        <time>2020-07-30T16:54:33Z</time>
      </trkpt>
      <trkpt lat="45.88159" lon="6.47288">
        <ele>1994</ele>
        <time>2020-07-30T16:54:35Z</time>
      </trkpt>
      <trkpt lat="45.88157" lon="6.4729">
        <ele>1993</ele>
        <time>2020-07-30T16:54:36Z</time>
      </trkpt>
      <trkpt lat="45.88155" lon="6.47285">
        <ele>1991</ele>
        <time>2020-07-30T16:54:38Z</time>
      </trkpt>
      <trkpt lat="45.88149" lon="6.47289">
        <ele>1987</ele>
        <time>2020-07-30T16:54:42Z</time>
      </trkpt>
      <trkpt lat="45.88137" lon="6.4729">
        <ele>1979</ele>
        <time>2020-07-30T16:54:48Z</time>
      </trkpt>
      <trkpt lat="45.88125" lon="6.47289">
        <ele>1970</ele>
        <time>2020-07-30T16:54:54Z</time>
      </trkpt>
      <trkpt lat="45.88123" lon="6.47285">
        <ele>1968</ele>
        <time>2020-07-30T16:54:55Z</time>
      </trkpt>
      <trkpt lat="45.88115" lon="6.47288">
        <ele>1963</ele>
        <time>2020-07-30T16:54:59Z</time>
      </trkpt>
      <trkpt lat="45.88107" lon="6.47287">
        <ele>1957</ele>
        <time>2020-07-30T16:55:03Z</time>
      </trkpt>
      <trkpt lat="45.88099" lon="6.47294">
        <ele>1953</ele>
        <time>2020-07-30T16:55:08Z</time>
      </trkpt>
      <trkpt lat="45.88093" lon="6.47289">
        <ele>1948</ele>
        <time>2020-07-30T16:55:12Z</time>
      </trkpt>
      <trkpt lat="45.88087" lon="6.47253">
        <ele>1935</ele>
        <time>2020-07-30T16:55:24Z</time>
      </trkpt>
      <trkpt lat="45.88083" lon="6.47248">
        <ele>1932</ele>
        <time>2020-07-30T16:55:27Z</time>
      </trkpt>
      <trkpt lat="45.88073" lon="6.47244">
        <ele>1925</ele>
        <time>2020-07-30T16:55:32Z</time>
      </trkpt>
      <trkpt lat="45.88069" lon="6.47235">
        <ele>1921</ele>
        <time>2020-07-30T16:55:36Z</time>
      </trkpt>
      <trkpt lat="45.88051" lon="6.47186">
        <ele>1904</ele>
        <time>2020-07-30T16:55:55Z</time>
      </trkpt>
      <trkpt lat="45.88031" lon="6.4712">
        <ele>1893</ele>
        <time>2020-07-30T16:56:20Z</time>
      </trkpt>
      <trkpt lat="45.88024" lon="6.4711">
        <ele>1889</ele>
        <time>2020-07-30T16:56:25Z</time>
      </trkpt>
      <trkpt lat="45.88007" lon="6.47095">
        <ele>1879</ele>
        <time>2020-07-30T16:56:35Z</time>
      </trkpt>
      <trkpt lat="45.87964" lon="6.4702">
        <ele>1866</ele>
        <time>2020-07-30T16:57:09Z</time>
      </trkpt>
      <trkpt lat="45.87954" lon="6.4701">
        <ele>1861</ele>
        <time>2020-07-30T16:57:15Z</time>
      </trkpt>
      <trkpt lat="45.87934" lon="6.46996">
        <ele>1846</ele>
        <time>2020-07-30T16:57:26Z</time>
      </trkpt>
      <trkpt lat="45.87925" lon="6.46996">
        <ele>1838</ele>
        <time>2020-07-30T16:57:31Z</time>
      </trkpt>
      <trkpt lat="45.8792" lon="6.46992">
        <ele>1834</ele>
        <time>2020-07-30T16:57:34Z</time>
      </trkpt>
      <trkpt lat="45.87909" lon="6.46977">
        <ele>1825</ele>
        <time>2020-07-30T16:57:41Z</time>
      </trkpt>
      <trkpt lat="45.879" lon="6.46968">
        <ele>1817</ele>
        <time>2020-07-30T16:57:47Z</time>
      </trkpt>
      <trkpt lat="45.87896" lon="6.46967">
        <ele>1814</ele>
        <time>2020-07-30T16:57:49Z</time>
      </trkpt>
      <trkpt lat="45.87895" lon="6.46962">
        <ele>1813</ele>
        <time>2020-07-30T16:57:51Z</time>
      </trkpt>
      <trkpt lat="45.87888" lon="6.46955">
        <ele>1808</ele>
        <time>2020-07-30T16:57:55Z</time>
      </trkpt>
      <trkpt lat="45.87882" lon="6.46955">
        <ele>1803</ele>
        <time>2020-07-30T16:57:58Z</time>
      </trkpt>
      <trkpt lat="45.87881" lon="6.46952">
        <ele>1802</ele>
        <time>2020-07-30T16:57:59Z</time>
      </trkpt>
      <trkpt lat="45.87878" lon="6.46952">
        <ele>1800</ele>
        <time>2020-07-30T16:58:01Z</time>
      </trkpt>
      <trkpt lat="45.87873" lon="6.46947">
        <ele>1796</ele>
        <time>2020-07-30T16:58:04Z</time>
      </trkpt>
      <trkpt lat="45.87865" lon="6.46947">
        <ele>1790</ele>
        <time>2020-07-30T16:58:08Z</time>
      </trkpt>
      <trkpt lat="45.87862" lon="6.46941">
        <ele>1787</ele>
        <time>2020-07-30T16:58:10Z</time>
      </trkpt>
      <trkpt lat="45.87852" lon="6.46936">
        <ele>1779</ele>
        <time>2020-07-30T16:58:16Z</time>
      </trkpt>
      <trkpt lat="45.87849" lon="6.4693">
        <ele>1776</ele>
        <time>2020-07-30T16:58:18Z</time>
      </trkpt>
      <trkpt lat="45.87846" lon="6.46933">
        <ele>1774</ele>
        <time>2020-07-30T16:58:20Z</time>
      </trkpt>
      <trkpt lat="45.87838" lon="6.46929">
        <ele>1768</ele>
        <time>2020-07-30T16:58:24Z</time>
      </trkpt>
      <trkpt lat="45.87835" lon="6.46931">
        <ele>1766</ele>
        <time>2020-07-30T16:58:26Z</time>
      </trkpt>
      <trkpt lat="45.87821" lon="6.4692">
        <ele>1756</ele>
        <time>2020-07-30T16:58:34Z</time>
      </trkpt>
      <trkpt lat="45.87817" lon="6.46903">
        <ele>1751</ele>
        <time>2020-07-30T16:58:40Z</time>
      </trkpt>
      <trkpt lat="45.87811" lon="6.46897">
        <ele>1747</ele>
        <time>2020-07-30T16:58:44Z</time>
      </trkpt>
      <trkpt lat="45.87804" lon="6.46896">
        <ele>1742</ele>
        <time>2020-07-30T16:58:47Z</time>
      </trkpt>
      <trkpt lat="45.87793" lon="6.46873">
        <ele>1733</ele>
        <time>2020-07-30T16:58:57Z</time>
      </trkpt>
      <trkpt lat="45.87781" lon="6.4686">
        <ele>1723</ele>
        <time>2020-07-30T16:59:05Z</time>
      </trkpt>
      <trkpt lat="45.87776" lon="6.46858">
        <ele>1720</ele>
        <time>2020-07-30T16:59:07Z</time>
      </trkpt>
      <trkpt lat="45.87766" lon="6.4686">
        <ele>1714</ele>
        <time>2020-07-30T16:59:12Z</time>
      </trkpt>
      <trkpt lat="45.87761" lon="6.46855">
        <ele>1710</ele>
        <time>2020-07-30T16:59:15Z</time>
      </trkpt>
      <trkpt lat="45.87754" lon="6.46856">
        <ele>1706</ele>
        <time>2020-07-30T16:59:19Z</time>
      </trkpt>
      <trkpt lat="45.87751" lon="6.46852">
        <ele>1703</ele>
        <time>2020-07-30T16:59:21Z</time>
      </trkpt>
      <trkpt lat="45.87744" lon="6.46855">
        <ele>1699</ele>
        <time>2020-07-30T16:59:24Z</time>
      </trkpt>
      <trkpt lat="45.87737" lon="6.46851">
        <ele>1694</ele>
        <time>2020-07-30T16:59:28Z</time>
      </trkpt>
      <trkpt lat="45.87717" lon="6.46846">
        <ele>1681</ele>
        <time>2020-07-30T16:59:38Z</time>
      </trkpt>
      <trkpt lat="45.87711" lon="6.46842">
        <ele>1677</ele>
        <time>2020-07-30T16:59:42Z</time>
      </trkpt>
      <trkpt lat="45.87697" lon="6.46822">
        <ele>1667</ele>
        <time>2020-07-30T16:59:52Z</time>
      </trkpt>
      <trkpt lat="45.87682" lon="6.46814">
        <ele>1657</ele>
        <time>2020-07-30T17:00:00Z</time>
      </trkpt>
      <trkpt lat="45.87679" lon="6.46815">
        <ele>1655</ele>
        <time>2020-07-30T17:00:01Z</time>
      </trkpt>
      <trkpt lat="45.87669" lon="6.46808">
        <ele>1648</ele>
        <time>2020-07-30T17:00:07Z</time>
      </trkpt>
      <trkpt lat="45.87652" lon="6.46804">
        <ele>1639</ele>
        <time>2020-07-30T17:00:15Z</time>
      </trkpt>
      <trkpt lat="45.87647" lon="6.46799">
        <ele>1636</ele>
        <time>2020-07-30T17:00:18Z</time>
      </trkpt>
      <trkpt lat="45.87608" lon="6.46794">
        <ele>1617</ele>
        <time>2020-07-30T17:00:38Z</time>
      </trkpt>
      <trkpt lat="45.87593" lon="6.4677">
        <ele>1606</ele>
        <time>2020-07-30T17:00:49Z</time>
      </trkpt>
      <trkpt lat="45.87575" lon="6.46723">
        <ele>1592</ele>
        <time>2020-07-30T17:01:08Z</time>
      </trkpt>
      <trkpt lat="45.87554" lon="6.46709">
        <ele>1582</ele>
        <time>2020-07-30T17:01:19Z</time>
      </trkpt>
      <trkpt lat="45.87545" lon="6.46695">
        <ele>1576</ele>
        <time>2020-07-30T17:01:26Z</time>
      </trkpt>
      <trkpt lat="45.87539" lon="6.46691">
        <ele>1573</ele>
        <time>2020-07-30T17:01:29Z</time>
      </trkpt>
      <trkpt lat="45.87525" lon="6.46658">
        <ele>1563</ele>
        <time>2020-07-30T17:01:43Z</time>
      </trkpt>
      <trkpt lat="45.87503" lon="6.46642">
        <ele>1553</ele>
        <time>2020-07-30T17:01:55Z</time>
      </trkpt>
      <trkpt lat="45.87492" lon="6.4664">
        <ele>1549</ele>
        <time>2020-07-30T17:02:01Z</time>
      </trkpt>
      <trkpt lat="45.87473" lon="6.46629">
        <ele>1542</ele>
        <time>2020-07-30T17:02:11Z</time>
      </trkpt>
      <trkpt lat="45.87459" lon="6.46625">
        <ele>1538</ele>
        <time>2020-07-30T17:02:18Z</time>
      </trkpt>
      <trkpt lat="45.87449" lon="6.46615">
        <ele>1534</ele>
        <time>2020-07-30T17:02:24Z</time>
      </trkpt>
      <trkpt lat="45.87412" lon="6.46593">
        <ele>1522</ele>
        <time>2020-07-30T17:02:44Z</time>
      </trkpt>
      <trkpt lat="45.87403" lon="6.46583">
        <ele>1520</ele>
        <time>2020-07-30T17:02:50Z</time>
      </trkpt>
      <trkpt lat="45.87372" lon="6.46564">
        <ele>1512</ele>
        <time>2020-07-30T17:03:07Z</time>
      </trkpt>
      <trkpt lat="45.8736" lon="6.46558">
        <ele>1509</ele>
        <time>2020-07-30T17:03:13Z</time>
      </trkpt>
      <trkpt lat="45.87327" lon="6.46548">
        <ele>1502</ele>
        <time>2020-07-30T17:03:30Z</time>
      </trkpt>
      <trkpt lat="45.87307" lon="6.46536">
        <ele>1498</ele>
        <time>2020-07-30T17:03:41Z</time>
      </trkpt>
      <trkpt lat="45.87299" lon="6.46525">
        <ele>1497</ele>
        <time>2020-07-30T17:03:46Z</time>
      </trkpt>
      <trkpt lat="45.87277" lon="6.46507">
        <ele>1493</ele>
        <time>2020-07-30T17:03:59Z</time>
      </trkpt>
      <trkpt lat="45.87265" lon="6.46493">
        <ele>1491</ele>
        <time>2020-07-30T17:04:07Z</time>
      </trkpt>
      <trkpt lat="45.87257" lon="6.46491">
        <ele>1489</ele>
        <time>2020-07-30T17:04:11Z</time>
      </trkpt>
      <trkpt lat="45.87241" lon="6.4647">
        <ele>1487</ele>
        <time>2020-07-30T17:04:22Z</time>
      </trkpt>
    </trkseg>
  </trk>
</gpx>